<?xml version="1.0" encoding="UTF-8" standalone="no" ?>
<gpx xmlns="http://www.topografix.com/GPX/1/1" xmlns:xsi="http://www.w3.org/2001/XMLSchema-instance" xsi:schemaLocation="http://www.topografix.com/GPX/1/1 http://www.topografix.com/GPX/1/1/gpx.xsd" version="1.1" creator="VisuGPX - https://www.visugpx.com">
  <metadata>
    <name>vtt besancon</name>
    <desc><![CDATA[vtt au depart de chailluz ,parcours avec beaucoup de sentier foret]]></desc>
  </metadata>
  <trk>
    <name><![CDATA[Tracé actuel: 26 AOU 2018 08:05]]></name>
    <trkseg>
      <trkpt lat="47.26106" lon="6.04228">
        <ele>321.22</ele>
        <time>2018-08-26T06:05:04Z</time>
      </trkpt>
      <trkpt lat="47.26104" lon="6.04229">
        <ele>322.66</ele>
        <time>2018-08-26T06:05:25Z</time>
      </trkpt>
      <trkpt lat="47.26104" lon="6.04233">
        <ele>322.66</ele>
        <time>2018-08-26T06:05:47Z</time>
      </trkpt>
      <trkpt lat="47.26103" lon="6.04234">
        <ele>322.66</ele>
        <time>2018-08-26T06:06:13Z</time>
      </trkpt>
      <trkpt lat="47.26103" lon="6.04235">
        <ele>322.66</ele>
        <time>2018-08-26T06:06:34Z</time>
      </trkpt>
      <trkpt lat="47.26112" lon="6.04245">
        <ele>322.66</ele>
        <time>2018-08-26T06:06:39Z</time>
      </trkpt>
      <trkpt lat="47.2614" lon="6.04291">
        <ele>323.14</ele>
        <time>2018-08-26T06:06:51Z</time>
      </trkpt>
      <trkpt lat="47.26181" lon="6.0435">
        <ele>323.62</ele>
        <time>2018-08-26T06:07:06Z</time>
      </trkpt>
      <trkpt lat="47.2622" lon="6.04391">
        <ele>325.06</ele>
        <time>2018-08-26T06:07:19Z</time>
      </trkpt>
      <trkpt lat="47.26251" lon="6.04432">
        <ele>326.99</ele>
        <time>2018-08-26T06:07:31Z</time>
      </trkpt>
      <trkpt lat="47.2629" lon="6.0447">
        <ele>329.39</ele>
        <time>2018-08-26T06:07:44Z</time>
      </trkpt>
      <trkpt lat="47.26345" lon="6.04522">
        <ele>331.79</ele>
        <time>2018-08-26T06:08:03Z</time>
      </trkpt>
      <trkpt lat="47.26381" lon="6.04548">
        <ele>332.75</ele>
        <time>2018-08-26T06:08:16Z</time>
      </trkpt>
      <trkpt lat="47.26433" lon="6.04572">
        <ele>334.2</ele>
        <time>2018-08-26T06:08:30Z</time>
      </trkpt>
      <trkpt lat="47.26498" lon="6.04611">
        <ele>335.16</ele>
        <time>2018-08-26T06:08:46Z</time>
      </trkpt>
      <trkpt lat="47.26501" lon="6.04615">
        <ele>335.16</ele>
        <time>2018-08-26T06:08:47Z</time>
      </trkpt>
      <trkpt lat="47.26504" lon="6.04619">
        <ele>335.16</ele>
        <time>2018-08-26T06:08:48Z</time>
      </trkpt>
      <trkpt lat="47.26533" lon="6.04652">
        <ele>336.6</ele>
        <time>2018-08-26T06:08:57Z</time>
      </trkpt>
      <trkpt lat="47.26536" lon="6.04656">
        <ele>337.08</ele>
        <time>2018-08-26T06:08:58Z</time>
      </trkpt>
      <trkpt lat="47.26543" lon="6.04663">
        <ele>337.08</ele>
        <time>2018-08-26T06:09:00Z</time>
      </trkpt>
      <trkpt lat="47.26547" lon="6.04665">
        <ele>337.08</ele>
        <time>2018-08-26T06:09:01Z</time>
      </trkpt>
      <trkpt lat="47.26551" lon="6.04668">
        <ele>337.56</ele>
        <time>2018-08-26T06:09:02Z</time>
      </trkpt>
      <trkpt lat="47.26555" lon="6.04669">
        <ele>337.08</ele>
        <time>2018-08-26T06:09:03Z</time>
      </trkpt>
      <trkpt lat="47.26559" lon="6.04671">
        <ele>337.56</ele>
        <time>2018-08-26T06:09:04Z</time>
      </trkpt>
      <trkpt lat="47.26614" lon="6.04681">
        <ele>339.96</ele>
        <time>2018-08-26T06:09:17Z</time>
      </trkpt>
      <trkpt lat="47.26635" lon="6.04683">
        <ele>339.96</ele>
        <time>2018-08-26T06:09:22Z</time>
      </trkpt>
      <trkpt lat="47.26649" lon="6.04682">
        <ele>339.96</ele>
        <time>2018-08-26T06:09:25Z</time>
      </trkpt>
      <trkpt lat="47.26653" lon="6.04682">
        <ele>339.96</ele>
        <time>2018-08-26T06:09:26Z</time>
      </trkpt>
      <trkpt lat="47.26658" lon="6.04682">
        <ele>339.96</ele>
        <time>2018-08-26T06:09:27Z</time>
      </trkpt>
      <trkpt lat="47.26663" lon="6.04683">
        <ele>339.96</ele>
        <time>2018-08-26T06:09:28Z</time>
      </trkpt>
      <trkpt lat="47.26667" lon="6.04684">
        <ele>339.96</ele>
        <time>2018-08-26T06:09:29Z</time>
      </trkpt>
      <trkpt lat="47.2668" lon="6.04689">
        <ele>339.96</ele>
        <time>2018-08-26T06:09:32Z</time>
      </trkpt>
      <trkpt lat="47.26685" lon="6.04691">
        <ele>339.96</ele>
        <time>2018-08-26T06:09:33Z</time>
      </trkpt>
      <trkpt lat="47.26689" lon="6.04694">
        <ele>339.96</ele>
        <time>2018-08-26T06:09:34Z</time>
      </trkpt>
      <trkpt lat="47.26755" lon="6.04752">
        <ele>339</ele>
        <time>2018-08-26T06:09:50Z</time>
      </trkpt>
      <trkpt lat="47.26759" lon="6.04757">
        <ele>339</ele>
        <time>2018-08-26T06:09:51Z</time>
      </trkpt>
      <trkpt lat="47.26806" lon="6.04828">
        <ele>338.04</ele>
        <time>2018-08-26T06:10:04Z</time>
      </trkpt>
      <trkpt lat="47.26809" lon="6.04827">
        <ele>338.04</ele>
        <time>2018-08-26T06:10:05Z</time>
      </trkpt>
      <trkpt lat="47.26813" lon="6.04824">
        <ele>338.04</ele>
        <time>2018-08-26T06:10:06Z</time>
      </trkpt>
      <trkpt lat="47.26817" lon="6.04821">
        <ele>337.56</ele>
        <time>2018-08-26T06:10:07Z</time>
      </trkpt>
      <trkpt lat="47.26822" lon="6.04816">
        <ele>337.56</ele>
        <time>2018-08-26T06:10:08Z</time>
      </trkpt>
      <trkpt lat="47.26825" lon="6.04811">
        <ele>337.08</ele>
        <time>2018-08-26T06:10:09Z</time>
      </trkpt>
      <trkpt lat="47.26865" lon="6.0476">
        <ele>335.64</ele>
        <time>2018-08-26T06:10:18Z</time>
      </trkpt>
      <trkpt lat="47.2687" lon="6.04755">
        <ele>335.64</ele>
        <time>2018-08-26T06:10:19Z</time>
      </trkpt>
      <trkpt lat="47.26936" lon="6.04711">
        <ele>334.68</ele>
        <time>2018-08-26T06:10:32Z</time>
      </trkpt>
      <trkpt lat="47.26976" lon="6.04693">
        <ele>333.23</ele>
        <time>2018-08-26T06:10:39Z</time>
      </trkpt>
      <trkpt lat="47.26983" lon="6.04691">
        <ele>332.75</ele>
        <time>2018-08-26T06:10:40Z</time>
      </trkpt>
      <trkpt lat="47.27011" lon="6.04677">
        <ele>330.83</ele>
        <time>2018-08-26T06:10:44Z</time>
      </trkpt>
      <trkpt lat="47.27017" lon="6.04672">
        <ele>330.35</ele>
        <time>2018-08-26T06:10:45Z</time>
      </trkpt>
      <trkpt lat="47.27023" lon="6.04669">
        <ele>329.87</ele>
        <time>2018-08-26T06:10:46Z</time>
      </trkpt>
      <trkpt lat="47.27029" lon="6.04669">
        <ele>328.91</ele>
        <time>2018-08-26T06:10:47Z</time>
      </trkpt>
      <trkpt lat="47.27036" lon="6.04667">
        <ele>327.95</ele>
        <time>2018-08-26T06:10:48Z</time>
      </trkpt>
      <trkpt lat="47.27043" lon="6.04664">
        <ele>327.47</ele>
        <time>2018-08-26T06:10:49Z</time>
      </trkpt>
      <trkpt lat="47.27051" lon="6.04658">
        <ele>326.02</ele>
        <time>2018-08-26T06:10:50Z</time>
      </trkpt>
      <trkpt lat="47.27058" lon="6.04652">
        <ele>325.06</ele>
        <time>2018-08-26T06:10:51Z</time>
      </trkpt>
      <trkpt lat="47.27065" lon="6.04645">
        <ele>324.58</ele>
        <time>2018-08-26T06:10:52Z</time>
      </trkpt>
      <trkpt lat="47.27085" lon="6.04622">
        <ele>322.18</ele>
        <time>2018-08-26T06:10:55Z</time>
      </trkpt>
      <trkpt lat="47.271" lon="6.0461">
        <ele>320.26</ele>
        <time>2018-08-26T06:10:57Z</time>
      </trkpt>
      <trkpt lat="47.27123" lon="6.04595">
        <ele>320.26</ele>
        <time>2018-08-26T06:11:00Z</time>
      </trkpt>
      <trkpt lat="47.2713" lon="6.04588">
        <ele>320.74</ele>
        <time>2018-08-26T06:11:01Z</time>
      </trkpt>
      <trkpt lat="47.27137" lon="6.04582">
        <ele>321.22</ele>
        <time>2018-08-26T06:11:02Z</time>
      </trkpt>
      <trkpt lat="47.27161" lon="6.04553">
        <ele>324.1</ele>
        <time>2018-08-26T06:11:07Z</time>
      </trkpt>
      <trkpt lat="47.2717" lon="6.04536">
        <ele>326.5</ele>
        <time>2018-08-26T06:11:11Z</time>
      </trkpt>
      <trkpt lat="47.27172" lon="6.04534">
        <ele>326.99</ele>
        <time>2018-08-26T06:11:12Z</time>
      </trkpt>
      <trkpt lat="47.27175" lon="6.04533">
        <ele>326.99</ele>
        <time>2018-08-26T06:11:13Z</time>
      </trkpt>
      <trkpt lat="47.27178" lon="6.04532">
        <ele>326.99</ele>
        <time>2018-08-26T06:11:14Z</time>
      </trkpt>
      <trkpt lat="47.27221" lon="6.04527">
        <ele>326.99</ele>
        <time>2018-08-26T06:11:25Z</time>
      </trkpt>
      <trkpt lat="47.27226" lon="6.04527">
        <ele>326.99</ele>
        <time>2018-08-26T06:11:26Z</time>
      </trkpt>
      <trkpt lat="47.27235" lon="6.04527">
        <ele>327.47</ele>
        <time>2018-08-26T06:11:28Z</time>
      </trkpt>
      <trkpt lat="47.27266" lon="6.04544">
        <ele>328.91</ele>
        <time>2018-08-26T06:11:37Z</time>
      </trkpt>
      <trkpt lat="47.27275" lon="6.04549">
        <ele>329.87</ele>
        <time>2018-08-26T06:11:40Z</time>
      </trkpt>
      <trkpt lat="47.27301" lon="6.04563">
        <ele>331.79</ele>
        <time>2018-08-26T06:11:49Z</time>
      </trkpt>
      <trkpt lat="47.27305" lon="6.04565">
        <ele>331.79</ele>
        <time>2018-08-26T06:11:51Z</time>
      </trkpt>
      <trkpt lat="47.27307" lon="6.04565">
        <ele>332.27</ele>
        <time>2018-08-26T06:11:52Z</time>
      </trkpt>
      <trkpt lat="47.27308" lon="6.04566">
        <ele>332.75</ele>
        <time>2018-08-26T06:11:53Z</time>
      </trkpt>
      <trkpt lat="47.27311" lon="6.04568">
        <ele>333.23</ele>
        <time>2018-08-26T06:11:55Z</time>
      </trkpt>
      <trkpt lat="47.27324" lon="6.04583">
        <ele>333.71</ele>
        <time>2018-08-26T06:11:59Z</time>
      </trkpt>
      <trkpt lat="47.27334" lon="6.04614">
        <ele>333.71</ele>
        <time>2018-08-26T06:12:05Z</time>
      </trkpt>
      <trkpt lat="47.27341" lon="6.0463">
        <ele>333.23</ele>
        <time>2018-08-26T06:12:08Z</time>
      </trkpt>
      <trkpt lat="47.27345" lon="6.04634">
        <ele>333.23</ele>
        <time>2018-08-26T06:12:09Z</time>
      </trkpt>
      <trkpt lat="47.27349" lon="6.04639">
        <ele>333.71</ele>
        <time>2018-08-26T06:12:10Z</time>
      </trkpt>
      <trkpt lat="47.27355" lon="6.04648">
        <ele>333.23</ele>
        <time>2018-08-26T06:12:12Z</time>
      </trkpt>
      <trkpt lat="47.27357" lon="6.04653">
        <ele>333.23</ele>
        <time>2018-08-26T06:12:13Z</time>
      </trkpt>
      <trkpt lat="47.27358" lon="6.04659">
        <ele>333.23</ele>
        <time>2018-08-26T06:12:14Z</time>
      </trkpt>
      <trkpt lat="47.27358" lon="6.04666">
        <ele>333.23</ele>
        <time>2018-08-26T06:12:15Z</time>
      </trkpt>
      <trkpt lat="47.27357" lon="6.04672">
        <ele>332.75</ele>
        <time>2018-08-26T06:12:16Z</time>
      </trkpt>
      <trkpt lat="47.27355" lon="6.04679">
        <ele>332.27</ele>
        <time>2018-08-26T06:12:17Z</time>
      </trkpt>
      <trkpt lat="47.27353" lon="6.04685">
        <ele>332.27</ele>
        <time>2018-08-26T06:12:18Z</time>
      </trkpt>
      <trkpt lat="47.27352" lon="6.04691">
        <ele>331.79</ele>
        <time>2018-08-26T06:12:19Z</time>
      </trkpt>
      <trkpt lat="47.27353" lon="6.04696">
        <ele>331.79</ele>
        <time>2018-08-26T06:12:20Z</time>
      </trkpt>
      <trkpt lat="47.27355" lon="6.04697">
        <ele>331.79</ele>
        <time>2018-08-26T06:12:21Z</time>
      </trkpt>
      <trkpt lat="47.27358" lon="6.04697">
        <ele>331.31</ele>
        <time>2018-08-26T06:12:22Z</time>
      </trkpt>
      <trkpt lat="47.27362" lon="6.04696">
        <ele>331.79</ele>
        <time>2018-08-26T06:12:23Z</time>
      </trkpt>
      <trkpt lat="47.27365" lon="6.04695">
        <ele>331.79</ele>
        <time>2018-08-26T06:12:24Z</time>
      </trkpt>
      <trkpt lat="47.27413" lon="6.04694">
        <ele>332.75</ele>
        <time>2018-08-26T06:12:35Z</time>
      </trkpt>
      <trkpt lat="47.27422" lon="6.04694">
        <ele>333.23</ele>
        <time>2018-08-26T06:12:37Z</time>
      </trkpt>
      <trkpt lat="47.27427" lon="6.04693">
        <ele>333.23</ele>
        <time>2018-08-26T06:12:38Z</time>
      </trkpt>
      <trkpt lat="47.27436" lon="6.04691">
        <ele>333.71</ele>
        <time>2018-08-26T06:12:40Z</time>
      </trkpt>
      <trkpt lat="47.2744" lon="6.04691">
        <ele>334.2</ele>
        <time>2018-08-26T06:12:41Z</time>
      </trkpt>
      <trkpt lat="47.27444" lon="6.04692">
        <ele>334.2</ele>
        <time>2018-08-26T06:12:42Z</time>
      </trkpt>
      <trkpt lat="47.27448" lon="6.04693">
        <ele>334.68</ele>
        <time>2018-08-26T06:12:43Z</time>
      </trkpt>
      <trkpt lat="47.27452" lon="6.04696">
        <ele>334.68</ele>
        <time>2018-08-26T06:12:44Z</time>
      </trkpt>
      <trkpt lat="47.27455" lon="6.04699">
        <ele>334.68</ele>
        <time>2018-08-26T06:12:45Z</time>
      </trkpt>
      <trkpt lat="47.27459" lon="6.04702">
        <ele>334.68</ele>
        <time>2018-08-26T06:12:46Z</time>
      </trkpt>
      <trkpt lat="47.27462" lon="6.04706">
        <ele>334.68</ele>
        <time>2018-08-26T06:12:47Z</time>
      </trkpt>
      <trkpt lat="47.27466" lon="6.04709">
        <ele>334.68</ele>
        <time>2018-08-26T06:12:48Z</time>
      </trkpt>
      <trkpt lat="47.2747" lon="6.04712">
        <ele>334.68</ele>
        <time>2018-08-26T06:12:49Z</time>
      </trkpt>
      <trkpt lat="47.27498" lon="6.04729">
        <ele>335.16</ele>
        <time>2018-08-26T06:12:56Z</time>
      </trkpt>
      <trkpt lat="47.27502" lon="6.04729">
        <ele>335.16</ele>
        <time>2018-08-26T06:12:57Z</time>
      </trkpt>
      <trkpt lat="47.27507" lon="6.04728">
        <ele>335.16</ele>
        <time>2018-08-26T06:12:58Z</time>
      </trkpt>
      <trkpt lat="47.27512" lon="6.04726">
        <ele>335.16</ele>
        <time>2018-08-26T06:12:59Z</time>
      </trkpt>
      <trkpt lat="47.27516" lon="6.04724">
        <ele>335.64</ele>
        <time>2018-08-26T06:13:00Z</time>
      </trkpt>
      <trkpt lat="47.27543" lon="6.04731">
        <ele>336.12</ele>
        <time>2018-08-26T06:13:07Z</time>
      </trkpt>
      <trkpt lat="47.27551" lon="6.04738">
        <ele>335.64</ele>
        <time>2018-08-26T06:13:09Z</time>
      </trkpt>
      <trkpt lat="47.27555" lon="6.04742">
        <ele>335.64</ele>
        <time>2018-08-26T06:13:10Z</time>
      </trkpt>
      <trkpt lat="47.27558" lon="6.04746">
        <ele>335.64</ele>
        <time>2018-08-26T06:13:11Z</time>
      </trkpt>
      <trkpt lat="47.2757" lon="6.04754">
        <ele>335.64</ele>
        <time>2018-08-26T06:13:14Z</time>
      </trkpt>
      <trkpt lat="47.27579" lon="6.04753">
        <ele>335.64</ele>
        <time>2018-08-26T06:13:16Z</time>
      </trkpt>
      <trkpt lat="47.27583" lon="6.0475">
        <ele>336.12</ele>
        <time>2018-08-26T06:13:17Z</time>
      </trkpt>
      <trkpt lat="47.27588" lon="6.04747">
        <ele>336.12</ele>
        <time>2018-08-26T06:13:18Z</time>
      </trkpt>
      <trkpt lat="47.2761" lon="6.04731">
        <ele>337.08</ele>
        <time>2018-08-26T06:13:23Z</time>
      </trkpt>
      <trkpt lat="47.27626" lon="6.04722">
        <ele>338.04</ele>
        <time>2018-08-26T06:13:27Z</time>
      </trkpt>
      <trkpt lat="47.2763" lon="6.04719">
        <ele>338.04</ele>
        <time>2018-08-26T06:13:28Z</time>
      </trkpt>
      <trkpt lat="47.27633" lon="6.04718">
        <ele>338.52</ele>
        <time>2018-08-26T06:13:29Z</time>
      </trkpt>
      <trkpt lat="47.27636" lon="6.04718">
        <ele>339</ele>
        <time>2018-08-26T06:13:30Z</time>
      </trkpt>
      <trkpt lat="47.27638" lon="6.04719">
        <ele>339.48</ele>
        <time>2018-08-26T06:13:31Z</time>
      </trkpt>
      <trkpt lat="47.27641" lon="6.04721">
        <ele>339.48</ele>
        <time>2018-08-26T06:13:32Z</time>
      </trkpt>
      <trkpt lat="47.27643" lon="6.04724">
        <ele>339.96</ele>
        <time>2018-08-26T06:13:33Z</time>
      </trkpt>
      <trkpt lat="47.27645" lon="6.04728">
        <ele>339.96</ele>
        <time>2018-08-26T06:13:34Z</time>
      </trkpt>
      <trkpt lat="47.27647" lon="6.04732">
        <ele>339.48</ele>
        <time>2018-08-26T06:13:35Z</time>
      </trkpt>
      <trkpt lat="47.27649" lon="6.04736">
        <ele>339.48</ele>
        <time>2018-08-26T06:13:36Z</time>
      </trkpt>
      <trkpt lat="47.27652" lon="6.04741">
        <ele>339.48</ele>
        <time>2018-08-26T06:13:37Z</time>
      </trkpt>
      <trkpt lat="47.27655" lon="6.04746">
        <ele>339</ele>
        <time>2018-08-26T06:13:38Z</time>
      </trkpt>
      <trkpt lat="47.27658" lon="6.0475">
        <ele>339</ele>
        <time>2018-08-26T06:13:39Z</time>
      </trkpt>
      <trkpt lat="47.27662" lon="6.04755">
        <ele>338.52</ele>
        <time>2018-08-26T06:13:40Z</time>
      </trkpt>
      <trkpt lat="47.27667" lon="6.04759">
        <ele>338.52</ele>
        <time>2018-08-26T06:13:41Z</time>
      </trkpt>
      <trkpt lat="47.27671" lon="6.04763">
        <ele>338.52</ele>
        <time>2018-08-26T06:13:42Z</time>
      </trkpt>
      <trkpt lat="47.27681" lon="6.04771">
        <ele>339</ele>
        <time>2018-08-26T06:13:44Z</time>
      </trkpt>
      <trkpt lat="47.27685" lon="6.04775">
        <ele>339.48</ele>
        <time>2018-08-26T06:13:45Z</time>
      </trkpt>
      <trkpt lat="47.27688" lon="6.04779">
        <ele>339.48</ele>
        <time>2018-08-26T06:13:46Z</time>
      </trkpt>
      <trkpt lat="47.27691" lon="6.04783">
        <ele>339.48</ele>
        <time>2018-08-26T06:13:47Z</time>
      </trkpt>
      <trkpt lat="47.27694" lon="6.04788">
        <ele>339.96</ele>
        <time>2018-08-26T06:13:48Z</time>
      </trkpt>
      <trkpt lat="47.27697" lon="6.04793">
        <ele>339.96</ele>
        <time>2018-08-26T06:13:49Z</time>
      </trkpt>
      <trkpt lat="47.27699" lon="6.04798">
        <ele>339.96</ele>
        <time>2018-08-26T06:13:50Z</time>
      </trkpt>
      <trkpt lat="47.277" lon="6.04803">
        <ele>339.96</ele>
        <time>2018-08-26T06:13:51Z</time>
      </trkpt>
      <trkpt lat="47.27701" lon="6.0481">
        <ele>339.48</ele>
        <time>2018-08-26T06:13:52Z</time>
      </trkpt>
      <trkpt lat="47.27702" lon="6.04816">
        <ele>339</ele>
        <time>2018-08-26T06:13:53Z</time>
      </trkpt>
      <trkpt lat="47.27703" lon="6.04823">
        <ele>338.52</ele>
        <time>2018-08-26T06:13:54Z</time>
      </trkpt>
      <trkpt lat="47.27704" lon="6.0483">
        <ele>338.04</ele>
        <time>2018-08-26T06:13:55Z</time>
      </trkpt>
      <trkpt lat="47.27706" lon="6.04835">
        <ele>338.04</ele>
        <time>2018-08-26T06:13:56Z</time>
      </trkpt>
      <trkpt lat="47.27708" lon="6.04837">
        <ele>338.52</ele>
        <time>2018-08-26T06:13:57Z</time>
      </trkpt>
      <trkpt lat="47.27711" lon="6.04837">
        <ele>338.52</ele>
        <time>2018-08-26T06:13:58Z</time>
      </trkpt>
      <trkpt lat="47.27715" lon="6.04836">
        <ele>339</ele>
        <time>2018-08-26T06:13:59Z</time>
      </trkpt>
      <trkpt lat="47.27718" lon="6.04835">
        <ele>339.48</ele>
        <time>2018-08-26T06:14:00Z</time>
      </trkpt>
      <trkpt lat="47.27722" lon="6.04833">
        <ele>339.48</ele>
        <time>2018-08-26T06:14:01Z</time>
      </trkpt>
      <trkpt lat="47.27741" lon="6.04823">
        <ele>341.89</ele>
        <time>2018-08-26T06:14:07Z</time>
      </trkpt>
      <trkpt lat="47.27772" lon="6.04793">
        <ele>344.29</ele>
        <time>2018-08-26T06:14:19Z</time>
      </trkpt>
      <trkpt lat="47.27796" lon="6.04755">
        <ele>345.25</ele>
        <time>2018-08-26T06:14:29Z</time>
      </trkpt>
      <trkpt lat="47.27812" lon="6.04739">
        <ele>344.77</ele>
        <time>2018-08-26T06:14:34Z</time>
      </trkpt>
      <trkpt lat="47.27815" lon="6.04741">
        <ele>344.29</ele>
        <time>2018-08-26T06:14:35Z</time>
      </trkpt>
      <trkpt lat="47.27818" lon="6.04747">
        <ele>344.29</ele>
        <time>2018-08-26T06:14:36Z</time>
      </trkpt>
      <trkpt lat="47.27819" lon="6.04755">
        <ele>343.33</ele>
        <time>2018-08-26T06:14:37Z</time>
      </trkpt>
      <trkpt lat="47.27819" lon="6.04763">
        <ele>342.85</ele>
        <time>2018-08-26T06:14:38Z</time>
      </trkpt>
      <trkpt lat="47.2782" lon="6.04771">
        <ele>342.85</ele>
        <time>2018-08-26T06:14:39Z</time>
      </trkpt>
      <trkpt lat="47.2782" lon="6.04796">
        <ele>341.41</ele>
        <time>2018-08-26T06:14:42Z</time>
      </trkpt>
      <trkpt lat="47.27821" lon="6.04819">
        <ele>339</ele>
        <time>2018-08-26T06:14:46Z</time>
      </trkpt>
      <trkpt lat="47.27819" lon="6.04825">
        <ele>338.04</ele>
        <time>2018-08-26T06:14:47Z</time>
      </trkpt>
      <trkpt lat="47.27816" lon="6.04832">
        <ele>336.6</ele>
        <time>2018-08-26T06:14:48Z</time>
      </trkpt>
      <trkpt lat="47.27809" lon="6.04845">
        <ele>335.16</ele>
        <time>2018-08-26T06:14:50Z</time>
      </trkpt>
      <trkpt lat="47.27804" lon="6.04871">
        <ele>337.08</ele>
        <time>2018-08-26T06:14:55Z</time>
      </trkpt>
      <trkpt lat="47.27805" lon="6.04878">
        <ele>336.6</ele>
        <time>2018-08-26T06:14:56Z</time>
      </trkpt>
      <trkpt lat="47.27807" lon="6.04885">
        <ele>336.12</ele>
        <time>2018-08-26T06:14:57Z</time>
      </trkpt>
      <trkpt lat="47.27811" lon="6.04907">
        <ele>335.64</ele>
        <time>2018-08-26T06:15:00Z</time>
      </trkpt>
      <trkpt lat="47.27812" lon="6.04913">
        <ele>336.12</ele>
        <time>2018-08-26T06:15:01Z</time>
      </trkpt>
      <trkpt lat="47.27813" lon="6.04919">
        <ele>336.12</ele>
        <time>2018-08-26T06:15:02Z</time>
      </trkpt>
      <trkpt lat="47.27812" lon="6.04924">
        <ele>335.64</ele>
        <time>2018-08-26T06:15:03Z</time>
      </trkpt>
      <trkpt lat="47.27811" lon="6.04929">
        <ele>335.64</ele>
        <time>2018-08-26T06:15:04Z</time>
      </trkpt>
      <trkpt lat="47.27809" lon="6.04935">
        <ele>335.16</ele>
        <time>2018-08-26T06:15:05Z</time>
      </trkpt>
      <trkpt lat="47.27806" lon="6.04941">
        <ele>335.16</ele>
        <time>2018-08-26T06:15:06Z</time>
      </trkpt>
      <trkpt lat="47.27803" lon="6.04946">
        <ele>335.16</ele>
        <time>2018-08-26T06:15:07Z</time>
      </trkpt>
      <trkpt lat="47.27801" lon="6.04951">
        <ele>334.68</ele>
        <time>2018-08-26T06:15:08Z</time>
      </trkpt>
      <trkpt lat="47.27798" lon="6.04956">
        <ele>335.16</ele>
        <time>2018-08-26T06:15:09Z</time>
      </trkpt>
      <trkpt lat="47.27795" lon="6.04962">
        <ele>335.16</ele>
        <time>2018-08-26T06:15:10Z</time>
      </trkpt>
      <trkpt lat="47.27792" lon="6.04966">
        <ele>335.16</ele>
        <time>2018-08-26T06:15:11Z</time>
      </trkpt>
      <trkpt lat="47.27791" lon="6.0497">
        <ele>335.64</ele>
        <time>2018-08-26T06:15:12Z</time>
      </trkpt>
      <trkpt lat="47.27791" lon="6.04974">
        <ele>335.64</ele>
        <time>2018-08-26T06:15:13Z</time>
      </trkpt>
      <trkpt lat="47.27791" lon="6.04977">
        <ele>336.6</ele>
        <time>2018-08-26T06:15:14Z</time>
      </trkpt>
      <trkpt lat="47.27792" lon="6.04982">
        <ele>336.6</ele>
        <time>2018-08-26T06:15:15Z</time>
      </trkpt>
      <trkpt lat="47.27792" lon="6.04987">
        <ele>336.6</ele>
        <time>2018-08-26T06:15:16Z</time>
      </trkpt>
      <trkpt lat="47.27793" lon="6.04992">
        <ele>337.08</ele>
        <time>2018-08-26T06:15:17Z</time>
      </trkpt>
      <trkpt lat="47.27799" lon="6.05012">
        <ele>337.08</ele>
        <time>2018-08-26T06:15:21Z</time>
      </trkpt>
      <trkpt lat="47.27803" lon="6.05016">
        <ele>337.08</ele>
        <time>2018-08-26T06:15:22Z</time>
      </trkpt>
      <trkpt lat="47.27808" lon="6.0502">
        <ele>337.08</ele>
        <time>2018-08-26T06:15:23Z</time>
      </trkpt>
      <trkpt lat="47.27812" lon="6.05024">
        <ele>337.08</ele>
        <time>2018-08-26T06:15:24Z</time>
      </trkpt>
      <trkpt lat="47.27815" lon="6.05027">
        <ele>337.08</ele>
        <time>2018-08-26T06:15:25Z</time>
      </trkpt>
      <trkpt lat="47.27819" lon="6.05032">
        <ele>337.08</ele>
        <time>2018-08-26T06:15:26Z</time>
      </trkpt>
      <trkpt lat="47.27825" lon="6.05041">
        <ele>336.6</ele>
        <time>2018-08-26T06:15:28Z</time>
      </trkpt>
      <trkpt lat="47.27828" lon="6.05046">
        <ele>336.6</ele>
        <time>2018-08-26T06:15:29Z</time>
      </trkpt>
      <trkpt lat="47.27836" lon="6.05067">
        <ele>336.12</ele>
        <time>2018-08-26T06:15:32Z</time>
      </trkpt>
      <trkpt lat="47.27854" lon="6.05113">
        <ele>335.16</ele>
        <time>2018-08-26T06:15:38Z</time>
      </trkpt>
      <trkpt lat="47.27857" lon="6.0512">
        <ele>334.68</ele>
        <time>2018-08-26T06:15:39Z</time>
      </trkpt>
      <trkpt lat="47.2786" lon="6.05128">
        <ele>334.68</ele>
        <time>2018-08-26T06:15:40Z</time>
      </trkpt>
      <trkpt lat="47.27877" lon="6.05188">
        <ele>333.71</ele>
        <time>2018-08-26T06:15:48Z</time>
      </trkpt>
      <trkpt lat="47.27877" lon="6.05196">
        <ele>333.23</ele>
        <time>2018-08-26T06:15:49Z</time>
      </trkpt>
      <trkpt lat="47.27876" lon="6.05202">
        <ele>332.75</ele>
        <time>2018-08-26T06:15:50Z</time>
      </trkpt>
      <trkpt lat="47.27874" lon="6.05207">
        <ele>332.27</ele>
        <time>2018-08-26T06:15:51Z</time>
      </trkpt>
      <trkpt lat="47.27872" lon="6.05211">
        <ele>331.79</ele>
        <time>2018-08-26T06:15:52Z</time>
      </trkpt>
      <trkpt lat="47.27868" lon="6.05215">
        <ele>331.31</ele>
        <time>2018-08-26T06:15:53Z</time>
      </trkpt>
      <trkpt lat="47.27853" lon="6.05237">
        <ele>332.27</ele>
        <time>2018-08-26T06:15:57Z</time>
      </trkpt>
      <trkpt lat="47.27847" lon="6.05258">
        <ele>333.71</ele>
        <time>2018-08-26T06:16:01Z</time>
      </trkpt>
      <trkpt lat="47.27847" lon="6.05262">
        <ele>334.2</ele>
        <time>2018-08-26T06:16:02Z</time>
      </trkpt>
      <trkpt lat="47.27847" lon="6.05267">
        <ele>334.2</ele>
        <time>2018-08-26T06:16:03Z</time>
      </trkpt>
      <trkpt lat="47.27848" lon="6.05272">
        <ele>334.68</ele>
        <time>2018-08-26T06:16:04Z</time>
      </trkpt>
      <trkpt lat="47.27848" lon="6.05279">
        <ele>334.68</ele>
        <time>2018-08-26T06:16:05Z</time>
      </trkpt>
      <trkpt lat="47.27848" lon="6.05284">
        <ele>335.16</ele>
        <time>2018-08-26T06:16:06Z</time>
      </trkpt>
      <trkpt lat="47.27848" lon="6.0529">
        <ele>335.16</ele>
        <time>2018-08-26T06:16:07Z</time>
      </trkpt>
      <trkpt lat="47.27847" lon="6.05296">
        <ele>335.64</ele>
        <time>2018-08-26T06:16:08Z</time>
      </trkpt>
      <trkpt lat="47.27845" lon="6.05312">
        <ele>335.64</ele>
        <time>2018-08-26T06:16:11Z</time>
      </trkpt>
      <trkpt lat="47.27843" lon="6.05318">
        <ele>335.64</ele>
        <time>2018-08-26T06:16:12Z</time>
      </trkpt>
      <trkpt lat="47.27833" lon="6.05354">
        <ele>334.68</ele>
        <time>2018-08-26T06:16:17Z</time>
      </trkpt>
      <trkpt lat="47.27832" lon="6.05361">
        <ele>334.2</ele>
        <time>2018-08-26T06:16:18Z</time>
      </trkpt>
      <trkpt lat="47.27831" lon="6.05369">
        <ele>333.71</ele>
        <time>2018-08-26T06:16:19Z</time>
      </trkpt>
      <trkpt lat="47.27832" lon="6.05396">
        <ele>331.79</ele>
        <time>2018-08-26T06:16:23Z</time>
      </trkpt>
      <trkpt lat="47.27834" lon="6.05399">
        <ele>331.31</ele>
        <time>2018-08-26T06:16:24Z</time>
      </trkpt>
      <trkpt lat="47.27837" lon="6.05402">
        <ele>329.87</ele>
        <time>2018-08-26T06:16:25Z</time>
      </trkpt>
      <trkpt lat="47.27838" lon="6.05407">
        <ele>327.47</ele>
        <time>2018-08-26T06:16:26Z</time>
      </trkpt>
      <trkpt lat="47.2784" lon="6.05415">
        <ele>326.02</ele>
        <time>2018-08-26T06:16:27Z</time>
      </trkpt>
      <trkpt lat="47.27842" lon="6.05423">
        <ele>326.5</ele>
        <time>2018-08-26T06:16:28Z</time>
      </trkpt>
      <trkpt lat="47.27844" lon="6.0543">
        <ele>326.5</ele>
        <time>2018-08-26T06:16:29Z</time>
      </trkpt>
      <trkpt lat="47.27846" lon="6.05435">
        <ele>327.47</ele>
        <time>2018-08-26T06:16:30Z</time>
      </trkpt>
      <trkpt lat="47.27849" lon="6.05439">
        <ele>328.43</ele>
        <time>2018-08-26T06:16:31Z</time>
      </trkpt>
      <trkpt lat="47.27852" lon="6.05443">
        <ele>328.91</ele>
        <time>2018-08-26T06:16:32Z</time>
      </trkpt>
      <trkpt lat="47.27855" lon="6.05446">
        <ele>328.43</ele>
        <time>2018-08-26T06:16:33Z</time>
      </trkpt>
      <trkpt lat="47.27857" lon="6.0545">
        <ele>328.91</ele>
        <time>2018-08-26T06:16:34Z</time>
      </trkpt>
      <trkpt lat="47.27859" lon="6.05453">
        <ele>328.91</ele>
        <time>2018-08-26T06:16:35Z</time>
      </trkpt>
      <trkpt lat="47.27861" lon="6.05456">
        <ele>328.91</ele>
        <time>2018-08-26T06:16:36Z</time>
      </trkpt>
      <trkpt lat="47.27863" lon="6.05459">
        <ele>328.91</ele>
        <time>2018-08-26T06:16:37Z</time>
      </trkpt>
      <trkpt lat="47.27867" lon="6.05464">
        <ele>329.39</ele>
        <time>2018-08-26T06:16:38Z</time>
      </trkpt>
      <trkpt lat="47.27871" lon="6.05469">
        <ele>329.39</ele>
        <time>2018-08-26T06:16:39Z</time>
      </trkpt>
      <trkpt lat="47.27881" lon="6.05514">
        <ele>328.91</ele>
        <time>2018-08-26T06:16:47Z</time>
      </trkpt>
      <trkpt lat="47.27888" lon="6.05572">
        <ele>331.31</ele>
        <time>2018-08-26T06:16:58Z</time>
      </trkpt>
      <trkpt lat="47.27915" lon="6.0563">
        <ele>331.31</ele>
        <time>2018-08-26T06:17:09Z</time>
      </trkpt>
      <trkpt lat="47.27923" lon="6.05636">
        <ele>331.31</ele>
        <time>2018-08-26T06:17:10Z</time>
      </trkpt>
      <trkpt lat="47.27969" lon="6.05675">
        <ele>332.75</ele>
        <time>2018-08-26T06:17:19Z</time>
      </trkpt>
      <trkpt lat="47.27972" lon="6.05679">
        <ele>333.23</ele>
        <time>2018-08-26T06:17:20Z</time>
      </trkpt>
      <trkpt lat="47.27976" lon="6.05683">
        <ele>333.23</ele>
        <time>2018-08-26T06:17:21Z</time>
      </trkpt>
      <trkpt lat="47.28011" lon="6.05721">
        <ele>334.2</ele>
        <time>2018-08-26T06:17:30Z</time>
      </trkpt>
      <trkpt lat="47.2802" lon="6.0573">
        <ele>334.68</ele>
        <time>2018-08-26T06:17:32Z</time>
      </trkpt>
      <trkpt lat="47.28041" lon="6.05746">
        <ele>335.64</ele>
        <time>2018-08-26T06:17:39Z</time>
      </trkpt>
      <trkpt lat="47.28059" lon="6.05792">
        <ele>336.12</ele>
        <time>2018-08-26T06:17:48Z</time>
      </trkpt>
      <trkpt lat="47.28071" lon="6.05838">
        <ele>336.12</ele>
        <time>2018-08-26T06:17:57Z</time>
      </trkpt>
      <trkpt lat="47.28073" lon="6.05841">
        <ele>336.6</ele>
        <time>2018-08-26T06:17:58Z</time>
      </trkpt>
      <trkpt lat="47.28076" lon="6.05843">
        <ele>336.6</ele>
        <time>2018-08-26T06:17:59Z</time>
      </trkpt>
      <trkpt lat="47.2808" lon="6.05845">
        <ele>336.6</ele>
        <time>2018-08-26T06:18:00Z</time>
      </trkpt>
      <trkpt lat="47.28127" lon="6.05859">
        <ele>336.6</ele>
        <time>2018-08-26T06:18:10Z</time>
      </trkpt>
      <trkpt lat="47.28134" lon="6.05859">
        <ele>336.6</ele>
        <time>2018-08-26T06:18:11Z</time>
      </trkpt>
      <trkpt lat="47.28141" lon="6.05857">
        <ele>336.12</ele>
        <time>2018-08-26T06:18:12Z</time>
      </trkpt>
      <trkpt lat="47.28145" lon="6.05854">
        <ele>336.12</ele>
        <time>2018-08-26T06:18:13Z</time>
      </trkpt>
      <trkpt lat="47.28148" lon="6.05851">
        <ele>335.64</ele>
        <time>2018-08-26T06:18:14Z</time>
      </trkpt>
      <trkpt lat="47.28156" lon="6.05845">
        <ele>335.64</ele>
        <time>2018-08-26T06:18:15Z</time>
      </trkpt>
      <trkpt lat="47.28164" lon="6.0584">
        <ele>335.16</ele>
        <time>2018-08-26T06:18:16Z</time>
      </trkpt>
      <trkpt lat="47.28178" lon="6.0583">
        <ele>334.68</ele>
        <time>2018-08-26T06:18:18Z</time>
      </trkpt>
      <trkpt lat="47.28184" lon="6.05828">
        <ele>334.68</ele>
        <time>2018-08-26T06:18:19Z</time>
      </trkpt>
      <trkpt lat="47.2819" lon="6.05826">
        <ele>334.68</ele>
        <time>2018-08-26T06:18:20Z</time>
      </trkpt>
      <trkpt lat="47.28193" lon="6.05823">
        <ele>334.68</ele>
        <time>2018-08-26T06:18:21Z</time>
      </trkpt>
      <trkpt lat="47.28199" lon="6.05818">
        <ele>334.68</ele>
        <time>2018-08-26T06:18:22Z</time>
      </trkpt>
      <trkpt lat="47.28203" lon="6.05813">
        <ele>334.68</ele>
        <time>2018-08-26T06:18:23Z</time>
      </trkpt>
      <trkpt lat="47.28207" lon="6.05807">
        <ele>334.2</ele>
        <time>2018-08-26T06:18:24Z</time>
      </trkpt>
      <trkpt lat="47.28211" lon="6.05801">
        <ele>334.2</ele>
        <time>2018-08-26T06:18:25Z</time>
      </trkpt>
      <trkpt lat="47.28223" lon="6.05781">
        <ele>334.2</ele>
        <time>2018-08-26T06:18:29Z</time>
      </trkpt>
      <trkpt lat="47.28228" lon="6.05777">
        <ele>334.2</ele>
        <time>2018-08-26T06:18:30Z</time>
      </trkpt>
      <trkpt lat="47.28234" lon="6.05772">
        <ele>334.2</ele>
        <time>2018-08-26T06:18:31Z</time>
      </trkpt>
      <trkpt lat="47.28239" lon="6.05768">
        <ele>334.68</ele>
        <time>2018-08-26T06:18:32Z</time>
      </trkpt>
      <trkpt lat="47.28243" lon="6.05764">
        <ele>334.68</ele>
        <time>2018-08-26T06:18:33Z</time>
      </trkpt>
      <trkpt lat="47.28248" lon="6.0576">
        <ele>334.68</ele>
        <time>2018-08-26T06:18:34Z</time>
      </trkpt>
      <trkpt lat="47.28251" lon="6.05755">
        <ele>334.68</ele>
        <time>2018-08-26T06:18:35Z</time>
      </trkpt>
      <trkpt lat="47.28255" lon="6.05749">
        <ele>334.68</ele>
        <time>2018-08-26T06:18:36Z</time>
      </trkpt>
      <trkpt lat="47.28261" lon="6.05744">
        <ele>334.68</ele>
        <time>2018-08-26T06:18:37Z</time>
      </trkpt>
      <trkpt lat="47.28267" lon="6.05739">
        <ele>334.68</ele>
        <time>2018-08-26T06:18:38Z</time>
      </trkpt>
      <trkpt lat="47.28271" lon="6.05735">
        <ele>334.68</ele>
        <time>2018-08-26T06:18:39Z</time>
      </trkpt>
      <trkpt lat="47.28274" lon="6.05732">
        <ele>334.68</ele>
        <time>2018-08-26T06:18:40Z</time>
      </trkpt>
      <trkpt lat="47.28278" lon="6.0573">
        <ele>334.68</ele>
        <time>2018-08-26T06:18:41Z</time>
      </trkpt>
      <trkpt lat="47.28282" lon="6.05726">
        <ele>334.2</ele>
        <time>2018-08-26T06:18:42Z</time>
      </trkpt>
      <trkpt lat="47.28286" lon="6.0572">
        <ele>333.71</ele>
        <time>2018-08-26T06:18:43Z</time>
      </trkpt>
      <trkpt lat="47.2829" lon="6.05714">
        <ele>332.75</ele>
        <time>2018-08-26T06:18:44Z</time>
      </trkpt>
      <trkpt lat="47.28294" lon="6.05709">
        <ele>332.27</ele>
        <time>2018-08-26T06:18:45Z</time>
      </trkpt>
      <trkpt lat="47.28299" lon="6.05705">
        <ele>331.79</ele>
        <time>2018-08-26T06:18:46Z</time>
      </trkpt>
      <trkpt lat="47.28304" lon="6.05705">
        <ele>331.31</ele>
        <time>2018-08-26T06:18:47Z</time>
      </trkpt>
      <trkpt lat="47.28308" lon="6.05709">
        <ele>329.87</ele>
        <time>2018-08-26T06:18:48Z</time>
      </trkpt>
      <trkpt lat="47.28313" lon="6.05715">
        <ele>329.39</ele>
        <time>2018-08-26T06:18:49Z</time>
      </trkpt>
      <trkpt lat="47.28317" lon="6.05722">
        <ele>329.39</ele>
        <time>2018-08-26T06:18:50Z</time>
      </trkpt>
      <trkpt lat="47.28322" lon="6.05735">
        <ele>329.87</ele>
        <time>2018-08-26T06:18:52Z</time>
      </trkpt>
      <trkpt lat="47.28326" lon="6.05748">
        <ele>331.79</ele>
        <time>2018-08-26T06:18:55Z</time>
      </trkpt>
      <trkpt lat="47.28333" lon="6.05754">
        <ele>333.71</ele>
        <time>2018-08-26T06:18:59Z</time>
      </trkpt>
      <trkpt lat="47.28334" lon="6.05757">
        <ele>333.71</ele>
        <time>2018-08-26T06:19:00Z</time>
      </trkpt>
      <trkpt lat="47.28336" lon="6.0576">
        <ele>334.2</ele>
        <time>2018-08-26T06:19:01Z</time>
      </trkpt>
      <trkpt lat="47.28338" lon="6.05763">
        <ele>334.2</ele>
        <time>2018-08-26T06:19:02Z</time>
      </trkpt>
      <trkpt lat="47.2834" lon="6.05767">
        <ele>334.2</ele>
        <time>2018-08-26T06:19:03Z</time>
      </trkpt>
      <trkpt lat="47.28343" lon="6.0577">
        <ele>334.2</ele>
        <time>2018-08-26T06:19:04Z</time>
      </trkpt>
      <trkpt lat="47.28345" lon="6.05774">
        <ele>334.68</ele>
        <time>2018-08-26T06:19:05Z</time>
      </trkpt>
      <trkpt lat="47.28347" lon="6.05777">
        <ele>334.68</ele>
        <time>2018-08-26T06:19:06Z</time>
      </trkpt>
      <trkpt lat="47.28349" lon="6.05778">
        <ele>334.68</ele>
        <time>2018-08-26T06:19:07Z</time>
      </trkpt>
      <trkpt lat="47.28351" lon="6.05781">
        <ele>334.68</ele>
        <time>2018-08-26T06:19:08Z</time>
      </trkpt>
      <trkpt lat="47.28351" lon="6.05785">
        <ele>335.16</ele>
        <time>2018-08-26T06:19:09Z</time>
      </trkpt>
      <trkpt lat="47.28352" lon="6.05789">
        <ele>334.68</ele>
        <time>2018-08-26T06:19:10Z</time>
      </trkpt>
      <trkpt lat="47.28368" lon="6.05823">
        <ele>334.2</ele>
        <time>2018-08-26T06:19:18Z</time>
      </trkpt>
      <trkpt lat="47.28372" lon="6.05824">
        <ele>334.2</ele>
        <time>2018-08-26T06:19:19Z</time>
      </trkpt>
      <trkpt lat="47.28376" lon="6.05825">
        <ele>334.2</ele>
        <time>2018-08-26T06:19:20Z</time>
      </trkpt>
      <trkpt lat="47.2838" lon="6.05827">
        <ele>334.2</ele>
        <time>2018-08-26T06:19:21Z</time>
      </trkpt>
      <trkpt lat="47.28385" lon="6.05829">
        <ele>333.71</ele>
        <time>2018-08-26T06:19:22Z</time>
      </trkpt>
      <trkpt lat="47.28389" lon="6.05831">
        <ele>333.23</ele>
        <time>2018-08-26T06:19:23Z</time>
      </trkpt>
      <trkpt lat="47.28399" lon="6.05836">
        <ele>332.75</ele>
        <time>2018-08-26T06:19:25Z</time>
      </trkpt>
      <trkpt lat="47.28404" lon="6.05841">
        <ele>332.27</ele>
        <time>2018-08-26T06:19:26Z</time>
      </trkpt>
      <trkpt lat="47.2841" lon="6.05846">
        <ele>331.79</ele>
        <time>2018-08-26T06:19:27Z</time>
      </trkpt>
      <trkpt lat="47.28415" lon="6.05851">
        <ele>331.79</ele>
        <time>2018-08-26T06:19:28Z</time>
      </trkpt>
      <trkpt lat="47.2842" lon="6.05857">
        <ele>331.31</ele>
        <time>2018-08-26T06:19:29Z</time>
      </trkpt>
      <trkpt lat="47.28425" lon="6.05862">
        <ele>330.83</ele>
        <time>2018-08-26T06:19:30Z</time>
      </trkpt>
      <trkpt lat="47.28429" lon="6.05867">
        <ele>330.35</ele>
        <time>2018-08-26T06:19:31Z</time>
      </trkpt>
      <trkpt lat="47.28451" lon="6.05898">
        <ele>327.95</ele>
        <time>2018-08-26T06:19:36Z</time>
      </trkpt>
      <trkpt lat="47.28456" lon="6.05904">
        <ele>327.47</ele>
        <time>2018-08-26T06:19:37Z</time>
      </trkpt>
      <trkpt lat="47.28461" lon="6.05909">
        <ele>326.99</ele>
        <time>2018-08-26T06:19:38Z</time>
      </trkpt>
      <trkpt lat="47.28479" lon="6.05924">
        <ele>325.06</ele>
        <time>2018-08-26T06:19:41Z</time>
      </trkpt>
      <trkpt lat="47.28487" lon="6.05929">
        <ele>324.58</ele>
        <time>2018-08-26T06:19:42Z</time>
      </trkpt>
      <trkpt lat="47.28509" lon="6.05947">
        <ele>323.62</ele>
        <time>2018-08-26T06:19:45Z</time>
      </trkpt>
      <trkpt lat="47.28515" lon="6.05955">
        <ele>323.14</ele>
        <time>2018-08-26T06:19:46Z</time>
      </trkpt>
      <trkpt lat="47.28531" lon="6.05972">
        <ele>321.22</ele>
        <time>2018-08-26T06:19:49Z</time>
      </trkpt>
      <trkpt lat="47.28536" lon="6.05976">
        <ele>321.22</ele>
        <time>2018-08-26T06:19:50Z</time>
      </trkpt>
      <trkpt lat="47.28541" lon="6.0598">
        <ele>321.22</ele>
        <time>2018-08-26T06:19:51Z</time>
      </trkpt>
      <trkpt lat="47.28546" lon="6.05986">
        <ele>320.74</ele>
        <time>2018-08-26T06:19:52Z</time>
      </trkpt>
      <trkpt lat="47.2855" lon="6.05993">
        <ele>320.74</ele>
        <time>2018-08-26T06:19:53Z</time>
      </trkpt>
      <trkpt lat="47.28566" lon="6.05998">
        <ele>319.78</ele>
        <time>2018-08-26T06:19:57Z</time>
      </trkpt>
      <trkpt lat="47.28586" lon="6.05972">
        <ele>318.33</ele>
        <time>2018-08-26T06:20:03Z</time>
      </trkpt>
      <trkpt lat="47.2859" lon="6.05965">
        <ele>318.33</ele>
        <time>2018-08-26T06:20:04Z</time>
      </trkpt>
      <trkpt lat="47.28595" lon="6.0596">
        <ele>317.85</ele>
        <time>2018-08-26T06:20:05Z</time>
      </trkpt>
      <trkpt lat="47.28599" lon="6.05955">
        <ele>317.37</ele>
        <time>2018-08-26T06:20:06Z</time>
      </trkpt>
      <trkpt lat="47.28604" lon="6.0595">
        <ele>317.37</ele>
        <time>2018-08-26T06:20:07Z</time>
      </trkpt>
      <trkpt lat="47.28609" lon="6.05944">
        <ele>316.89</ele>
        <time>2018-08-26T06:20:08Z</time>
      </trkpt>
      <trkpt lat="47.28613" lon="6.05937">
        <ele>316.41</ele>
        <time>2018-08-26T06:20:09Z</time>
      </trkpt>
      <trkpt lat="47.28617" lon="6.05931">
        <ele>316.41</ele>
        <time>2018-08-26T06:20:10Z</time>
      </trkpt>
      <trkpt lat="47.28621" lon="6.05927">
        <ele>315.93</ele>
        <time>2018-08-26T06:20:11Z</time>
      </trkpt>
      <trkpt lat="47.28626" lon="6.05925">
        <ele>315.45</ele>
        <time>2018-08-26T06:20:12Z</time>
      </trkpt>
      <trkpt lat="47.28631" lon="6.05922">
        <ele>315.45</ele>
        <time>2018-08-26T06:20:13Z</time>
      </trkpt>
      <trkpt lat="47.28636" lon="6.0592">
        <ele>315.45</ele>
        <time>2018-08-26T06:20:14Z</time>
      </trkpt>
      <trkpt lat="47.2865" lon="6.0591">
        <ele>314.97</ele>
        <time>2018-08-26T06:20:17Z</time>
      </trkpt>
      <trkpt lat="47.28663" lon="6.05894">
        <ele>314.97</ele>
        <time>2018-08-26T06:20:20Z</time>
      </trkpt>
      <trkpt lat="47.28671" lon="6.0588">
        <ele>314.49</ele>
        <time>2018-08-26T06:20:22Z</time>
      </trkpt>
      <trkpt lat="47.28676" lon="6.05874">
        <ele>314.49</ele>
        <time>2018-08-26T06:20:23Z</time>
      </trkpt>
      <trkpt lat="47.28681" lon="6.05868">
        <ele>314.49</ele>
        <time>2018-08-26T06:20:24Z</time>
      </trkpt>
      <trkpt lat="47.28696" lon="6.0585">
        <ele>314.01</ele>
        <time>2018-08-26T06:20:27Z</time>
      </trkpt>
      <trkpt lat="47.28701" lon="6.05845">
        <ele>313.53</ele>
        <time>2018-08-26T06:20:28Z</time>
      </trkpt>
      <trkpt lat="47.28707" lon="6.05842">
        <ele>313.05</ele>
        <time>2018-08-26T06:20:29Z</time>
      </trkpt>
      <trkpt lat="47.28729" lon="6.05832">
        <ele>310.64</ele>
        <time>2018-08-26T06:20:33Z</time>
      </trkpt>
      <trkpt lat="47.28735" lon="6.05829">
        <ele>310.16</ele>
        <time>2018-08-26T06:20:34Z</time>
      </trkpt>
      <trkpt lat="47.28758" lon="6.05818">
        <ele>307.76</ele>
        <time>2018-08-26T06:20:37Z</time>
      </trkpt>
      <trkpt lat="47.28765" lon="6.05811">
        <ele>307.28</ele>
        <time>2018-08-26T06:20:38Z</time>
      </trkpt>
      <trkpt lat="47.28776" lon="6.05797">
        <ele>306.8</ele>
        <time>2018-08-26T06:20:40Z</time>
      </trkpt>
      <trkpt lat="47.28793" lon="6.05767">
        <ele>303.43</ele>
        <time>2018-08-26T06:20:46Z</time>
      </trkpt>
      <trkpt lat="47.28797" lon="6.0576">
        <ele>302.95</ele>
        <time>2018-08-26T06:20:47Z</time>
      </trkpt>
      <trkpt lat="47.288" lon="6.05753">
        <ele>302.95</ele>
        <time>2018-08-26T06:20:48Z</time>
      </trkpt>
      <trkpt lat="47.28802" lon="6.05745">
        <ele>302.95</ele>
        <time>2018-08-26T06:20:49Z</time>
      </trkpt>
      <trkpt lat="47.28804" lon="6.05738">
        <ele>302.95</ele>
        <time>2018-08-26T06:20:50Z</time>
      </trkpt>
      <trkpt lat="47.28807" lon="6.05732">
        <ele>302.95</ele>
        <time>2018-08-26T06:20:51Z</time>
      </trkpt>
      <trkpt lat="47.28811" lon="6.05728">
        <ele>302.95</ele>
        <time>2018-08-26T06:20:52Z</time>
      </trkpt>
      <trkpt lat="47.28815" lon="6.05724">
        <ele>302.95</ele>
        <time>2018-08-26T06:20:53Z</time>
      </trkpt>
      <trkpt lat="47.2882" lon="6.05721">
        <ele>302.95</ele>
        <time>2018-08-26T06:20:54Z</time>
      </trkpt>
      <trkpt lat="47.28825" lon="6.05719">
        <ele>302.95</ele>
        <time>2018-08-26T06:20:55Z</time>
      </trkpt>
      <trkpt lat="47.2883" lon="6.05717">
        <ele>302.95</ele>
        <time>2018-08-26T06:20:56Z</time>
      </trkpt>
      <trkpt lat="47.28834" lon="6.05716">
        <ele>303.43</ele>
        <time>2018-08-26T06:20:57Z</time>
      </trkpt>
      <trkpt lat="47.28838" lon="6.05714">
        <ele>303.91</ele>
        <time>2018-08-26T06:20:58Z</time>
      </trkpt>
      <trkpt lat="47.28842" lon="6.05713">
        <ele>303.91</ele>
        <time>2018-08-26T06:20:59Z</time>
      </trkpt>
      <trkpt lat="47.28846" lon="6.05714">
        <ele>304.39</ele>
        <time>2018-08-26T06:21:00Z</time>
      </trkpt>
      <trkpt lat="47.2885" lon="6.05716">
        <ele>304.88</ele>
        <time>2018-08-26T06:21:01Z</time>
      </trkpt>
      <trkpt lat="47.28854" lon="6.05718">
        <ele>304.88</ele>
        <time>2018-08-26T06:21:02Z</time>
      </trkpt>
      <trkpt lat="47.28871" lon="6.05731">
        <ele>305.84</ele>
        <time>2018-08-26T06:21:07Z</time>
      </trkpt>
      <trkpt lat="47.28876" lon="6.05733">
        <ele>305.84</ele>
        <time>2018-08-26T06:21:08Z</time>
      </trkpt>
      <trkpt lat="47.28881" lon="6.05734">
        <ele>306.32</ele>
        <time>2018-08-26T06:21:09Z</time>
      </trkpt>
      <trkpt lat="47.28884" lon="6.05736">
        <ele>306.32</ele>
        <time>2018-08-26T06:21:10Z</time>
      </trkpt>
      <trkpt lat="47.28888" lon="6.05739">
        <ele>306.8</ele>
        <time>2018-08-26T06:21:11Z</time>
      </trkpt>
      <trkpt lat="47.28891" lon="6.05743">
        <ele>306.8</ele>
        <time>2018-08-26T06:21:12Z</time>
      </trkpt>
      <trkpt lat="47.28935" lon="6.0577">
        <ele>308.24</ele>
        <time>2018-08-26T06:21:22Z</time>
      </trkpt>
      <trkpt lat="47.28939" lon="6.05773">
        <ele>307.76</ele>
        <time>2018-08-26T06:21:23Z</time>
      </trkpt>
      <trkpt lat="47.28953" lon="6.05782">
        <ele>307.76</ele>
        <time>2018-08-26T06:21:26Z</time>
      </trkpt>
      <trkpt lat="47.28962" lon="6.05785">
        <ele>307.28</ele>
        <time>2018-08-26T06:21:28Z</time>
      </trkpt>
      <trkpt lat="47.28967" lon="6.05781">
        <ele>307.28</ele>
        <time>2018-08-26T06:21:29Z</time>
      </trkpt>
      <trkpt lat="47.28971" lon="6.05777">
        <ele>306.8</ele>
        <time>2018-08-26T06:21:30Z</time>
      </trkpt>
      <trkpt lat="47.28995" lon="6.05749">
        <ele>308.24</ele>
        <time>2018-08-26T06:21:37Z</time>
      </trkpt>
      <trkpt lat="47.28999" lon="6.05747">
        <ele>308.72</ele>
        <time>2018-08-26T06:21:38Z</time>
      </trkpt>
      <trkpt lat="47.29017" lon="6.05726">
        <ele>311.6</ele>
        <time>2018-08-26T06:21:46Z</time>
      </trkpt>
      <trkpt lat="47.2902" lon="6.05724">
        <ele>312.09</ele>
        <time>2018-08-26T06:21:47Z</time>
      </trkpt>
      <trkpt lat="47.29026" lon="6.0571">
        <ele>313.05</ele>
        <time>2018-08-26T06:21:51Z</time>
      </trkpt>
      <trkpt lat="47.29057" lon="6.05669">
        <ele>315.45</ele>
        <time>2018-08-26T06:22:03Z</time>
      </trkpt>
      <trkpt lat="47.29064" lon="6.05658">
        <ele>316.41</ele>
        <time>2018-08-26T06:22:06Z</time>
      </trkpt>
      <trkpt lat="47.29067" lon="6.05655">
        <ele>316.41</ele>
        <time>2018-08-26T06:22:07Z</time>
      </trkpt>
      <trkpt lat="47.29068" lon="6.05652">
        <ele>316.41</ele>
        <time>2018-08-26T06:22:08Z</time>
      </trkpt>
      <trkpt lat="47.29089" lon="6.05616">
        <ele>315.93</ele>
        <time>2018-08-26T06:22:17Z</time>
      </trkpt>
      <trkpt lat="47.29091" lon="6.05611">
        <ele>315.45</ele>
        <time>2018-08-26T06:22:18Z</time>
      </trkpt>
      <trkpt lat="47.29107" lon="6.05579">
        <ele>317.37</ele>
        <time>2018-08-26T06:22:26Z</time>
      </trkpt>
      <trkpt lat="47.29113" lon="6.05566">
        <ele>319.3</ele>
        <time>2018-08-26T06:22:31Z</time>
      </trkpt>
      <trkpt lat="47.29115" lon="6.05563">
        <ele>319.78</ele>
        <time>2018-08-26T06:22:32Z</time>
      </trkpt>
      <trkpt lat="47.29116" lon="6.0556">
        <ele>320.26</ele>
        <time>2018-08-26T06:22:33Z</time>
      </trkpt>
      <trkpt lat="47.29118" lon="6.05553">
        <ele>320.74</ele>
        <time>2018-08-26T06:22:36Z</time>
      </trkpt>
      <trkpt lat="47.29118" lon="6.05549">
        <ele>321.7</ele>
        <time>2018-08-26T06:22:38Z</time>
      </trkpt>
      <trkpt lat="47.29123" lon="6.05527">
        <ele>323.14</ele>
        <time>2018-08-26T06:22:45Z</time>
      </trkpt>
      <trkpt lat="47.2915" lon="6.05505">
        <ele>325.54</ele>
        <time>2018-08-26T06:22:54Z</time>
      </trkpt>
      <trkpt lat="47.29179" lon="6.05484">
        <ele>326.99</ele>
        <time>2018-08-26T06:23:01Z</time>
      </trkpt>
      <trkpt lat="47.29186" lon="6.05478">
        <ele>327.95</ele>
        <time>2018-08-26T06:23:03Z</time>
      </trkpt>
      <trkpt lat="47.29192" lon="6.05463">
        <ele>329.87</ele>
        <time>2018-08-26T06:23:08Z</time>
      </trkpt>
      <trkpt lat="47.29222" lon="6.05435">
        <ele>332.75</ele>
        <time>2018-08-26T06:23:18Z</time>
      </trkpt>
      <trkpt lat="47.29234" lon="6.05423">
        <ele>334.68</ele>
        <time>2018-08-26T06:23:24Z</time>
      </trkpt>
      <trkpt lat="47.29254" lon="6.05396">
        <ele>337.56</ele>
        <time>2018-08-26T06:23:35Z</time>
      </trkpt>
      <trkpt lat="47.29257" lon="6.05391">
        <ele>337.56</ele>
        <time>2018-08-26T06:23:36Z</time>
      </trkpt>
      <trkpt lat="47.29273" lon="6.05379">
        <ele>339</ele>
        <time>2018-08-26T06:23:41Z</time>
      </trkpt>
      <trkpt lat="47.29286" lon="6.05362">
        <ele>340.44</ele>
        <time>2018-08-26T06:23:47Z</time>
      </trkpt>
      <trkpt lat="47.29311" lon="6.05327">
        <ele>342.37</ele>
        <time>2018-08-26T06:24:00Z</time>
      </trkpt>
      <trkpt lat="47.29335" lon="6.05295">
        <ele>342.85</ele>
        <time>2018-08-26T06:24:09Z</time>
      </trkpt>
      <trkpt lat="47.29359" lon="6.05257">
        <ele>342.37</ele>
        <time>2018-08-26T06:24:18Z</time>
      </trkpt>
      <trkpt lat="47.29365" lon="6.05245">
        <ele>342.85</ele>
        <time>2018-08-26T06:24:21Z</time>
      </trkpt>
      <trkpt lat="47.29394" lon="6.05232">
        <ele>341.41</ele>
        <time>2018-08-26T06:24:29Z</time>
      </trkpt>
      <trkpt lat="47.29411" lon="6.0522">
        <ele>340.92</ele>
        <time>2018-08-26T06:24:32Z</time>
      </trkpt>
      <trkpt lat="47.29417" lon="6.05218">
        <ele>340.92</ele>
        <time>2018-08-26T06:24:33Z</time>
      </trkpt>
      <trkpt lat="47.29425" lon="6.05218">
        <ele>340.44</ele>
        <time>2018-08-26T06:24:34Z</time>
      </trkpt>
      <trkpt lat="47.29431" lon="6.0522">
        <ele>339.96</ele>
        <time>2018-08-26T06:24:35Z</time>
      </trkpt>
      <trkpt lat="47.29437" lon="6.05223">
        <ele>339.48</ele>
        <time>2018-08-26T06:24:36Z</time>
      </trkpt>
      <trkpt lat="47.29444" lon="6.05227">
        <ele>338.52</ele>
        <time>2018-08-26T06:24:37Z</time>
      </trkpt>
      <trkpt lat="47.29458" lon="6.05238">
        <ele>336.6</ele>
        <time>2018-08-26T06:24:39Z</time>
      </trkpt>
      <trkpt lat="47.29481" lon="6.05256">
        <ele>333.71</ele>
        <time>2018-08-26T06:24:42Z</time>
      </trkpt>
      <trkpt lat="47.29489" lon="6.05263">
        <ele>332.75</ele>
        <time>2018-08-26T06:24:43Z</time>
      </trkpt>
      <trkpt lat="47.29495" lon="6.0527">
        <ele>332.27</ele>
        <time>2018-08-26T06:24:44Z</time>
      </trkpt>
      <trkpt lat="47.29499" lon="6.05278">
        <ele>331.31</ele>
        <time>2018-08-26T06:24:45Z</time>
      </trkpt>
      <trkpt lat="47.29504" lon="6.05285">
        <ele>330.83</ele>
        <time>2018-08-26T06:24:46Z</time>
      </trkpt>
      <trkpt lat="47.29509" lon="6.05289">
        <ele>330.35</ele>
        <time>2018-08-26T06:24:47Z</time>
      </trkpt>
      <trkpt lat="47.29512" lon="6.0529">
        <ele>329.87</ele>
        <time>2018-08-26T06:24:48Z</time>
      </trkpt>
      <trkpt lat="47.29515" lon="6.05292">
        <ele>329.87</ele>
        <time>2018-08-26T06:24:49Z</time>
      </trkpt>
      <trkpt lat="47.29517" lon="6.05295">
        <ele>329.87</ele>
        <time>2018-08-26T06:24:50Z</time>
      </trkpt>
      <trkpt lat="47.2952" lon="6.053">
        <ele>329.39</ele>
        <time>2018-08-26T06:24:51Z</time>
      </trkpt>
      <trkpt lat="47.29523" lon="6.05304">
        <ele>329.39</ele>
        <time>2018-08-26T06:24:52Z</time>
      </trkpt>
      <trkpt lat="47.29527" lon="6.05308">
        <ele>328.91</ele>
        <time>2018-08-26T06:24:53Z</time>
      </trkpt>
      <trkpt lat="47.29532" lon="6.05308">
        <ele>328.91</ele>
        <time>2018-08-26T06:24:54Z</time>
      </trkpt>
      <trkpt lat="47.29537" lon="6.05303">
        <ele>328.43</ele>
        <time>2018-08-26T06:24:57Z</time>
      </trkpt>
      <trkpt lat="47.2954" lon="6.05301">
        <ele>327.95</ele>
        <time>2018-08-26T06:24:59Z</time>
      </trkpt>
      <trkpt lat="47.29544" lon="6.05301">
        <ele>327.95</ele>
        <time>2018-08-26T06:25:00Z</time>
      </trkpt>
      <trkpt lat="47.29547" lon="6.053">
        <ele>328.43</ele>
        <time>2018-08-26T06:25:01Z</time>
      </trkpt>
      <trkpt lat="47.29566" lon="6.0529">
        <ele>331.79</ele>
        <time>2018-08-26T06:25:08Z</time>
      </trkpt>
      <trkpt lat="47.29569" lon="6.0529">
        <ele>332.27</ele>
        <time>2018-08-26T06:25:09Z</time>
      </trkpt>
      <trkpt lat="47.29597" lon="6.05295">
        <ele>333.71</ele>
        <time>2018-08-26T06:25:15Z</time>
      </trkpt>
      <trkpt lat="47.29602" lon="6.05296">
        <ele>334.2</ele>
        <time>2018-08-26T06:25:16Z</time>
      </trkpt>
      <trkpt lat="47.29607" lon="6.05298">
        <ele>334.2</ele>
        <time>2018-08-26T06:25:17Z</time>
      </trkpt>
      <trkpt lat="47.29611" lon="6.05299">
        <ele>334.68</ele>
        <time>2018-08-26T06:25:18Z</time>
      </trkpt>
      <trkpt lat="47.29615" lon="6.05299">
        <ele>334.68</ele>
        <time>2018-08-26T06:25:19Z</time>
      </trkpt>
      <trkpt lat="47.29617" lon="6.05298">
        <ele>335.16</ele>
        <time>2018-08-26T06:25:20Z</time>
      </trkpt>
      <trkpt lat="47.29619" lon="6.05297">
        <ele>335.64</ele>
        <time>2018-08-26T06:25:21Z</time>
      </trkpt>
      <trkpt lat="47.29622" lon="6.05297">
        <ele>335.64</ele>
        <time>2018-08-26T06:25:22Z</time>
      </trkpt>
      <trkpt lat="47.29628" lon="6.05297">
        <ele>336.12</ele>
        <time>2018-08-26T06:25:23Z</time>
      </trkpt>
      <trkpt lat="47.29632" lon="6.05296">
        <ele>336.12</ele>
        <time>2018-08-26T06:25:24Z</time>
      </trkpt>
      <trkpt lat="47.29634" lon="6.05295">
        <ele>336.6</ele>
        <time>2018-08-26T06:25:25Z</time>
      </trkpt>
      <trkpt lat="47.29637" lon="6.05293">
        <ele>336.6</ele>
        <time>2018-08-26T06:25:26Z</time>
      </trkpt>
      <trkpt lat="47.2964" lon="6.05291">
        <ele>336.6</ele>
        <time>2018-08-26T06:25:27Z</time>
      </trkpt>
      <trkpt lat="47.29643" lon="6.05289">
        <ele>337.08</ele>
        <time>2018-08-26T06:25:28Z</time>
      </trkpt>
      <trkpt lat="47.29678" lon="6.05259">
        <ele>339</ele>
        <time>2018-08-26T06:25:40Z</time>
      </trkpt>
      <trkpt lat="47.29691" lon="6.05242">
        <ele>338.04</ele>
        <time>2018-08-26T06:25:45Z</time>
      </trkpt>
      <trkpt lat="47.29715" lon="6.05194">
        <ele>337.56</ele>
        <time>2018-08-26T06:25:54Z</time>
      </trkpt>
      <trkpt lat="47.29719" lon="6.05183">
        <ele>337.56</ele>
        <time>2018-08-26T06:25:56Z</time>
      </trkpt>
      <trkpt lat="47.29734" lon="6.05146">
        <ele>338.52</ele>
        <time>2018-08-26T06:26:03Z</time>
      </trkpt>
      <trkpt lat="47.29735" lon="6.05141">
        <ele>338.52</ele>
        <time>2018-08-26T06:26:04Z</time>
      </trkpt>
      <trkpt lat="47.29737" lon="6.05137">
        <ele>339</ele>
        <time>2018-08-26T06:26:05Z</time>
      </trkpt>
      <trkpt lat="47.29738" lon="6.05133">
        <ele>339</ele>
        <time>2018-08-26T06:26:06Z</time>
      </trkpt>
      <trkpt lat="47.2974" lon="6.05128">
        <ele>339</ele>
        <time>2018-08-26T06:26:07Z</time>
      </trkpt>
      <trkpt lat="47.29753" lon="6.05078">
        <ele>339.96</ele>
        <time>2018-08-26T06:26:16Z</time>
      </trkpt>
      <trkpt lat="47.29757" lon="6.05066">
        <ele>340.44</ele>
        <time>2018-08-26T06:26:19Z</time>
      </trkpt>
      <trkpt lat="47.29757" lon="6.0506">
        <ele>340.92</ele>
        <time>2018-08-26T06:26:20Z</time>
      </trkpt>
      <trkpt lat="47.29759" lon="6.05056">
        <ele>341.41</ele>
        <time>2018-08-26T06:26:21Z</time>
      </trkpt>
      <trkpt lat="47.2976" lon="6.0505">
        <ele>341.89</ele>
        <time>2018-08-26T06:26:22Z</time>
      </trkpt>
      <trkpt lat="47.29761" lon="6.05045">
        <ele>341.89</ele>
        <time>2018-08-26T06:26:23Z</time>
      </trkpt>
      <trkpt lat="47.29761" lon="6.05039">
        <ele>342.37</ele>
        <time>2018-08-26T06:26:24Z</time>
      </trkpt>
      <trkpt lat="47.29766" lon="6.05007">
        <ele>342.85</ele>
        <time>2018-08-26T06:26:31Z</time>
      </trkpt>
      <trkpt lat="47.29767" lon="6.05006">
        <ele>342.85</ele>
        <time>2018-08-26T06:26:32Z</time>
      </trkpt>
      <trkpt lat="47.29769" lon="6.05005">
        <ele>342.85</ele>
        <time>2018-08-26T06:26:33Z</time>
      </trkpt>
      <trkpt lat="47.29776" lon="6.05001">
        <ele>342.85</ele>
        <time>2018-08-26T06:26:37Z</time>
      </trkpt>
      <trkpt lat="47.29778" lon="6.04998">
        <ele>342.85</ele>
        <time>2018-08-26T06:26:38Z</time>
      </trkpt>
      <trkpt lat="47.29781" lon="6.04989">
        <ele>342.85</ele>
        <time>2018-08-26T06:26:42Z</time>
      </trkpt>
      <trkpt lat="47.29782" lon="6.04986">
        <ele>342.85</ele>
        <time>2018-08-26T06:26:43Z</time>
      </trkpt>
      <trkpt lat="47.29811" lon="6.0497">
        <ele>344.77</ele>
        <time>2018-08-26T06:26:52Z</time>
      </trkpt>
      <trkpt lat="47.29813" lon="6.04968">
        <ele>344.77</ele>
        <time>2018-08-26T06:26:53Z</time>
      </trkpt>
      <trkpt lat="47.29845" lon="6.04949">
        <ele>346.69</ele>
        <time>2018-08-26T06:27:04Z</time>
      </trkpt>
      <trkpt lat="47.29859" lon="6.04942">
        <ele>346.69</ele>
        <time>2018-08-26T06:27:09Z</time>
      </trkpt>
      <trkpt lat="47.29889" lon="6.04941">
        <ele>347.65</ele>
        <time>2018-08-26T06:27:18Z</time>
      </trkpt>
      <trkpt lat="47.29917" lon="6.04942">
        <ele>349.58</ele>
        <time>2018-08-26T06:27:27Z</time>
      </trkpt>
      <trkpt lat="47.29939" lon="6.04941">
        <ele>351.98</ele>
        <time>2018-08-26T06:27:36Z</time>
      </trkpt>
      <trkpt lat="47.29967" lon="6.04955">
        <ele>353.42</ele>
        <time>2018-08-26T06:27:45Z</time>
      </trkpt>
      <trkpt lat="47.29968" lon="6.04958">
        <ele>353.9</ele>
        <time>2018-08-26T06:27:46Z</time>
      </trkpt>
      <trkpt lat="47.2997" lon="6.04961">
        <ele>353.9</ele>
        <time>2018-08-26T06:27:47Z</time>
      </trkpt>
      <trkpt lat="47.29971" lon="6.04963">
        <ele>353.9</ele>
        <time>2018-08-26T06:27:48Z</time>
      </trkpt>
      <trkpt lat="47.29972" lon="6.04967">
        <ele>353.9</ele>
        <time>2018-08-26T06:27:49Z</time>
      </trkpt>
      <trkpt lat="47.29972" lon="6.0497">
        <ele>353.9</ele>
        <time>2018-08-26T06:27:50Z</time>
      </trkpt>
      <trkpt lat="47.29972" lon="6.04975">
        <ele>354.38</ele>
        <time>2018-08-26T06:27:53Z</time>
      </trkpt>
      <trkpt lat="47.29971" lon="6.04975">
        <ele>354.38</ele>
        <time>2018-08-26T06:27:54Z</time>
      </trkpt>
      <trkpt lat="47.29971" lon="6.04979">
        <ele>354.38</ele>
        <time>2018-08-26T06:28:06Z</time>
      </trkpt>
      <trkpt lat="47.29972" lon="6.0498">
        <ele>354.38</ele>
        <time>2018-08-26T06:28:07Z</time>
      </trkpt>
      <trkpt lat="47.29974" lon="6.04982">
        <ele>354.86</ele>
        <time>2018-08-26T06:28:08Z</time>
      </trkpt>
      <trkpt lat="47.29977" lon="6.04984">
        <ele>354.86</ele>
        <time>2018-08-26T06:28:09Z</time>
      </trkpt>
      <trkpt lat="47.2998" lon="6.04986">
        <ele>354.86</ele>
        <time>2018-08-26T06:28:10Z</time>
      </trkpt>
      <trkpt lat="47.29981" lon="6.04989">
        <ele>354.86</ele>
        <time>2018-08-26T06:28:11Z</time>
      </trkpt>
      <trkpt lat="47.29989" lon="6.05001">
        <ele>354.86</ele>
        <time>2018-08-26T06:28:15Z</time>
      </trkpt>
      <trkpt lat="47.3" lon="6.05027">
        <ele>355.83</ele>
        <time>2018-08-26T06:28:22Z</time>
      </trkpt>
      <trkpt lat="47.30012" lon="6.05053">
        <ele>357.75</ele>
        <time>2018-08-26T06:28:32Z</time>
      </trkpt>
      <trkpt lat="47.30038" lon="6.05055">
        <ele>358.23</ele>
        <time>2018-08-26T06:28:41Z</time>
      </trkpt>
      <trkpt lat="47.30052" lon="6.05068">
        <ele>359.67</ele>
        <time>2018-08-26T06:28:49Z</time>
      </trkpt>
      <trkpt lat="47.30056" lon="6.05071">
        <ele>359.67</ele>
        <time>2018-08-26T06:28:50Z</time>
      </trkpt>
      <trkpt lat="47.30058" lon="6.05073">
        <ele>359.67</ele>
        <time>2018-08-26T06:28:51Z</time>
      </trkpt>
      <trkpt lat="47.3006" lon="6.05077">
        <ele>360.15</ele>
        <time>2018-08-26T06:28:53Z</time>
      </trkpt>
      <trkpt lat="47.3006" lon="6.05079">
        <ele>360.63</ele>
        <time>2018-08-26T06:28:54Z</time>
      </trkpt>
      <trkpt lat="47.3006" lon="6.05081">
        <ele>360.63</ele>
        <time>2018-08-26T06:28:55Z</time>
      </trkpt>
      <trkpt lat="47.3006" lon="6.05083">
        <ele>361.11</ele>
        <time>2018-08-26T06:28:56Z</time>
      </trkpt>
      <trkpt lat="47.3006" lon="6.05085">
        <ele>361.11</ele>
        <time>2018-08-26T06:28:57Z</time>
      </trkpt>
      <trkpt lat="47.30061" lon="6.05088">
        <ele>361.59</ele>
        <time>2018-08-26T06:28:58Z</time>
      </trkpt>
      <trkpt lat="47.30061" lon="6.0509">
        <ele>361.59</ele>
        <time>2018-08-26T06:28:59Z</time>
      </trkpt>
      <trkpt lat="47.30062" lon="6.05093">
        <ele>362.07</ele>
        <time>2018-08-26T06:29:00Z</time>
      </trkpt>
      <trkpt lat="47.30061" lon="6.05097">
        <ele>362.07</ele>
        <time>2018-08-26T06:29:01Z</time>
      </trkpt>
      <trkpt lat="47.3006" lon="6.051">
        <ele>362.55</ele>
        <time>2018-08-26T06:29:02Z</time>
      </trkpt>
      <trkpt lat="47.3006" lon="6.05102">
        <ele>362.55</ele>
        <time>2018-08-26T06:29:03Z</time>
      </trkpt>
      <trkpt lat="47.30061" lon="6.05105">
        <ele>363.04</ele>
        <time>2018-08-26T06:29:04Z</time>
      </trkpt>
      <trkpt lat="47.3006" lon="6.05107">
        <ele>363.04</ele>
        <time>2018-08-26T06:29:05Z</time>
      </trkpt>
      <trkpt lat="47.3006" lon="6.05114">
        <ele>364</ele>
        <time>2018-08-26T06:29:08Z</time>
      </trkpt>
      <trkpt lat="47.30061" lon="6.05118">
        <ele>364</ele>
        <time>2018-08-26T06:29:09Z</time>
      </trkpt>
      <trkpt lat="47.30062" lon="6.05121">
        <ele>364.48</ele>
        <time>2018-08-26T06:29:10Z</time>
      </trkpt>
      <trkpt lat="47.30064" lon="6.05124">
        <ele>364.96</ele>
        <time>2018-08-26T06:29:11Z</time>
      </trkpt>
      <trkpt lat="47.30066" lon="6.05126">
        <ele>364.96</ele>
        <time>2018-08-26T06:29:12Z</time>
      </trkpt>
      <trkpt lat="47.30068" lon="6.05127">
        <ele>364.96</ele>
        <time>2018-08-26T06:29:13Z</time>
      </trkpt>
      <trkpt lat="47.30071" lon="6.05128">
        <ele>365.44</ele>
        <time>2018-08-26T06:29:14Z</time>
      </trkpt>
      <trkpt lat="47.30073" lon="6.0513">
        <ele>365.44</ele>
        <time>2018-08-26T06:29:15Z</time>
      </trkpt>
      <trkpt lat="47.30077" lon="6.05133">
        <ele>365.44</ele>
        <time>2018-08-26T06:29:16Z</time>
      </trkpt>
      <trkpt lat="47.30079" lon="6.05135">
        <ele>365.92</ele>
        <time>2018-08-26T06:29:17Z</time>
      </trkpt>
      <trkpt lat="47.30081" lon="6.05137">
        <ele>366.4</ele>
        <time>2018-08-26T06:29:18Z</time>
      </trkpt>
      <trkpt lat="47.30083" lon="6.05137">
        <ele>366.4</ele>
        <time>2018-08-26T06:29:19Z</time>
      </trkpt>
      <trkpt lat="47.30086" lon="6.05137">
        <ele>366.4</ele>
        <time>2018-08-26T06:29:20Z</time>
      </trkpt>
      <trkpt lat="47.30089" lon="6.05137">
        <ele>366.4</ele>
        <time>2018-08-26T06:29:21Z</time>
      </trkpt>
      <trkpt lat="47.30091" lon="6.05137">
        <ele>366.4</ele>
        <time>2018-08-26T06:29:22Z</time>
      </trkpt>
      <trkpt lat="47.30094" lon="6.05137">
        <ele>366.88</ele>
        <time>2018-08-26T06:29:23Z</time>
      </trkpt>
      <trkpt lat="47.30121" lon="6.05134">
        <ele>367.84</ele>
        <time>2018-08-26T06:29:32Z</time>
      </trkpt>
      <trkpt lat="47.30137" lon="6.05134">
        <ele>368.32</ele>
        <time>2018-08-26T06:29:37Z</time>
      </trkpt>
      <trkpt lat="47.3014" lon="6.05132">
        <ele>368.8</ele>
        <time>2018-08-26T06:29:38Z</time>
      </trkpt>
      <trkpt lat="47.30142" lon="6.05132">
        <ele>368.8</ele>
        <time>2018-08-26T06:29:39Z</time>
      </trkpt>
      <trkpt lat="47.30145" lon="6.05131">
        <ele>368.8</ele>
        <time>2018-08-26T06:29:40Z</time>
      </trkpt>
      <trkpt lat="47.30147" lon="6.0513">
        <ele>368.8</ele>
        <time>2018-08-26T06:29:41Z</time>
      </trkpt>
      <trkpt lat="47.30149" lon="6.0513">
        <ele>369.28</ele>
        <time>2018-08-26T06:29:42Z</time>
      </trkpt>
      <trkpt lat="47.30152" lon="6.05129">
        <ele>369.28</ele>
        <time>2018-08-26T06:29:43Z</time>
      </trkpt>
      <trkpt lat="47.3018" lon="6.05118">
        <ele>370.24</ele>
        <time>2018-08-26T06:29:53Z</time>
      </trkpt>
      <trkpt lat="47.30204" lon="6.05111">
        <ele>371.21</ele>
        <time>2018-08-26T06:30:01Z</time>
      </trkpt>
      <trkpt lat="47.30207" lon="6.0511">
        <ele>371.21</ele>
        <time>2018-08-26T06:30:02Z</time>
      </trkpt>
      <trkpt lat="47.3021" lon="6.05109">
        <ele>371.69</ele>
        <time>2018-08-26T06:30:03Z</time>
      </trkpt>
      <trkpt lat="47.30212" lon="6.05108">
        <ele>371.69</ele>
        <time>2018-08-26T06:30:04Z</time>
      </trkpt>
      <trkpt lat="47.30215" lon="6.05107">
        <ele>371.69</ele>
        <time>2018-08-26T06:30:05Z</time>
      </trkpt>
      <trkpt lat="47.30219" lon="6.05106">
        <ele>371.69</ele>
        <time>2018-08-26T06:30:06Z</time>
      </trkpt>
      <trkpt lat="47.30224" lon="6.05105">
        <ele>372.17</ele>
        <time>2018-08-26T06:30:07Z</time>
      </trkpt>
      <trkpt lat="47.30246" lon="6.05102">
        <ele>373.13</ele>
        <time>2018-08-26T06:30:13Z</time>
      </trkpt>
      <trkpt lat="47.30286" lon="6.05103">
        <ele>375.53</ele>
        <time>2018-08-26T06:30:24Z</time>
      </trkpt>
      <trkpt lat="47.30315" lon="6.05102">
        <ele>376.97</ele>
        <time>2018-08-26T06:30:34Z</time>
      </trkpt>
      <trkpt lat="47.30336" lon="6.05104">
        <ele>377.94</ele>
        <time>2018-08-26T06:30:42Z</time>
      </trkpt>
      <trkpt lat="47.3036" lon="6.05109">
        <ele>380.34</ele>
        <time>2018-08-26T06:30:51Z</time>
      </trkpt>
      <trkpt lat="47.30372" lon="6.05108">
        <ele>381.3</ele>
        <time>2018-08-26T06:31:01Z</time>
      </trkpt>
      <trkpt lat="47.30376" lon="6.0511">
        <ele>381.78</ele>
        <time>2018-08-26T06:31:08Z</time>
      </trkpt>
      <trkpt lat="47.30377" lon="6.05112">
        <ele>381.78</ele>
        <time>2018-08-26T06:31:09Z</time>
      </trkpt>
      <trkpt lat="47.30379" lon="6.05113">
        <ele>382.26</ele>
        <time>2018-08-26T06:31:10Z</time>
      </trkpt>
      <trkpt lat="47.30381" lon="6.05114">
        <ele>382.26</ele>
        <time>2018-08-26T06:31:11Z</time>
      </trkpt>
      <trkpt lat="47.30381" lon="6.05116">
        <ele>382.26</ele>
        <time>2018-08-26T06:31:12Z</time>
      </trkpt>
      <trkpt lat="47.30382" lon="6.05119">
        <ele>382.74</ele>
        <time>2018-08-26T06:31:15Z</time>
      </trkpt>
      <trkpt lat="47.30384" lon="6.05119">
        <ele>382.74</ele>
        <time>2018-08-26T06:31:16Z</time>
      </trkpt>
      <trkpt lat="47.30386" lon="6.0512">
        <ele>382.74</ele>
        <time>2018-08-26T06:31:17Z</time>
      </trkpt>
      <trkpt lat="47.30389" lon="6.05121">
        <ele>383.22</ele>
        <time>2018-08-26T06:31:18Z</time>
      </trkpt>
      <trkpt lat="47.30391" lon="6.05123">
        <ele>383.22</ele>
        <time>2018-08-26T06:31:19Z</time>
      </trkpt>
      <trkpt lat="47.30393" lon="6.05124">
        <ele>383.22</ele>
        <time>2018-08-26T06:31:20Z</time>
      </trkpt>
      <trkpt lat="47.30396" lon="6.05126">
        <ele>383.7</ele>
        <time>2018-08-26T06:31:21Z</time>
      </trkpt>
      <trkpt lat="47.30422" lon="6.05139">
        <ele>384.66</ele>
        <time>2018-08-26T06:31:30Z</time>
      </trkpt>
      <trkpt lat="47.30454" lon="6.05153">
        <ele>386.59</ele>
        <time>2018-08-26T06:31:41Z</time>
      </trkpt>
      <trkpt lat="47.30455" lon="6.05155">
        <ele>386.59</ele>
        <time>2018-08-26T06:31:42Z</time>
      </trkpt>
      <trkpt lat="47.30463" lon="6.05164">
        <ele>387.07</ele>
        <time>2018-08-26T06:31:46Z</time>
      </trkpt>
      <trkpt lat="47.30465" lon="6.05168">
        <ele>387.55</ele>
        <time>2018-08-26T06:31:47Z</time>
      </trkpt>
      <trkpt lat="47.3047" lon="6.0518">
        <ele>388.03</ele>
        <time>2018-08-26T06:31:50Z</time>
      </trkpt>
      <trkpt lat="47.3047" lon="6.05184">
        <ele>388.51</ele>
        <time>2018-08-26T06:31:51Z</time>
      </trkpt>
      <trkpt lat="47.30471" lon="6.05188">
        <ele>388.51</ele>
        <time>2018-08-26T06:31:52Z</time>
      </trkpt>
      <trkpt lat="47.30471" lon="6.05192">
        <ele>388.99</ele>
        <time>2018-08-26T06:31:53Z</time>
      </trkpt>
      <trkpt lat="47.30472" lon="6.05197">
        <ele>389.47</ele>
        <time>2018-08-26T06:31:54Z</time>
      </trkpt>
      <trkpt lat="47.30473" lon="6.05201">
        <ele>389.47</ele>
        <time>2018-08-26T06:31:55Z</time>
      </trkpt>
      <trkpt lat="47.30474" lon="6.05205">
        <ele>389.47</ele>
        <time>2018-08-26T06:31:56Z</time>
      </trkpt>
      <trkpt lat="47.30475" lon="6.05209">
        <ele>389.95</ele>
        <time>2018-08-26T06:31:57Z</time>
      </trkpt>
      <trkpt lat="47.30477" lon="6.05213">
        <ele>389.95</ele>
        <time>2018-08-26T06:31:58Z</time>
      </trkpt>
      <trkpt lat="47.30478" lon="6.05217">
        <ele>390.43</ele>
        <time>2018-08-26T06:31:59Z</time>
      </trkpt>
      <trkpt lat="47.30478" lon="6.05221">
        <ele>390.43</ele>
        <time>2018-08-26T06:32:00Z</time>
      </trkpt>
      <trkpt lat="47.30482" lon="6.05257">
        <ele>392.36</ele>
        <time>2018-08-26T06:32:09Z</time>
      </trkpt>
      <trkpt lat="47.30483" lon="6.05261">
        <ele>392.84</ele>
        <time>2018-08-26T06:32:10Z</time>
      </trkpt>
      <trkpt lat="47.30494" lon="6.05308">
        <ele>394.28</ele>
        <time>2018-08-26T06:32:21Z</time>
      </trkpt>
      <trkpt lat="47.30495" lon="6.05313">
        <ele>394.28</ele>
        <time>2018-08-26T06:32:22Z</time>
      </trkpt>
      <trkpt lat="47.30495" lon="6.05318">
        <ele>394.28</ele>
        <time>2018-08-26T06:32:23Z</time>
      </trkpt>
      <trkpt lat="47.30496" lon="6.05323">
        <ele>394.28</ele>
        <time>2018-08-26T06:32:24Z</time>
      </trkpt>
      <trkpt lat="47.30507" lon="6.05373">
        <ele>394.76</ele>
        <time>2018-08-26T06:32:34Z</time>
      </trkpt>
      <trkpt lat="47.30509" lon="6.05383">
        <ele>395.24</ele>
        <time>2018-08-26T06:32:36Z</time>
      </trkpt>
      <trkpt lat="47.30508" lon="6.05388">
        <ele>394.76</ele>
        <time>2018-08-26T06:32:37Z</time>
      </trkpt>
      <trkpt lat="47.30507" lon="6.05393">
        <ele>395.24</ele>
        <time>2018-08-26T06:32:38Z</time>
      </trkpt>
      <trkpt lat="47.30506" lon="6.05399">
        <ele>395.24</ele>
        <time>2018-08-26T06:32:39Z</time>
      </trkpt>
      <trkpt lat="47.30506" lon="6.05405">
        <ele>394.76</ele>
        <time>2018-08-26T06:32:40Z</time>
      </trkpt>
      <trkpt lat="47.30505" lon="6.0541">
        <ele>394.76</ele>
        <time>2018-08-26T06:32:41Z</time>
      </trkpt>
      <trkpt lat="47.30504" lon="6.05419">
        <ele>394.76</ele>
        <time>2018-08-26T06:32:43Z</time>
      </trkpt>
      <trkpt lat="47.30496" lon="6.05459">
        <ele>392.36</ele>
        <time>2018-08-26T06:32:50Z</time>
      </trkpt>
      <trkpt lat="47.30491" lon="6.05506">
        <ele>388.99</ele>
        <time>2018-08-26T06:32:55Z</time>
      </trkpt>
      <trkpt lat="47.3049" lon="6.05518">
        <ele>388.03</ele>
        <time>2018-08-26T06:32:56Z</time>
      </trkpt>
      <trkpt lat="47.30489" lon="6.05552">
        <ele>384.66</ele>
        <time>2018-08-26T06:32:59Z</time>
      </trkpt>
      <trkpt lat="47.30489" lon="6.0557">
        <ele>383.22</ele>
        <time>2018-08-26T06:33:01Z</time>
      </trkpt>
      <trkpt lat="47.30492" lon="6.05577">
        <ele>383.22</ele>
        <time>2018-08-26T06:33:02Z</time>
      </trkpt>
      <trkpt lat="47.30495" lon="6.05581">
        <ele>382.74</ele>
        <time>2018-08-26T06:33:03Z</time>
      </trkpt>
      <trkpt lat="47.30498" lon="6.05584">
        <ele>382.74</ele>
        <time>2018-08-26T06:33:04Z</time>
      </trkpt>
      <trkpt lat="47.30502" lon="6.05585">
        <ele>382.74</ele>
        <time>2018-08-26T06:33:05Z</time>
      </trkpt>
      <trkpt lat="47.30512" lon="6.0559">
        <ele>381.78</ele>
        <time>2018-08-26T06:33:07Z</time>
      </trkpt>
      <trkpt lat="47.30518" lon="6.05594">
        <ele>381.3</ele>
        <time>2018-08-26T06:33:08Z</time>
      </trkpt>
      <trkpt lat="47.30525" lon="6.056">
        <ele>381.3</ele>
        <time>2018-08-26T06:33:09Z</time>
      </trkpt>
      <trkpt lat="47.3053" lon="6.05606">
        <ele>380.82</ele>
        <time>2018-08-26T06:33:10Z</time>
      </trkpt>
      <trkpt lat="47.30534" lon="6.05614">
        <ele>380.34</ele>
        <time>2018-08-26T06:33:11Z</time>
      </trkpt>
      <trkpt lat="47.30538" lon="6.05622">
        <ele>380.34</ele>
        <time>2018-08-26T06:33:12Z</time>
      </trkpt>
      <trkpt lat="47.30539" lon="6.05631">
        <ele>380.34</ele>
        <time>2018-08-26T06:33:13Z</time>
      </trkpt>
      <trkpt lat="47.3054" lon="6.0564">
        <ele>379.86</ele>
        <time>2018-08-26T06:33:14Z</time>
      </trkpt>
      <trkpt lat="47.30542" lon="6.05659">
        <ele>378.42</ele>
        <time>2018-08-26T06:33:16Z</time>
      </trkpt>
      <trkpt lat="47.30541" lon="6.0567">
        <ele>377.94</ele>
        <time>2018-08-26T06:33:17Z</time>
      </trkpt>
      <trkpt lat="47.30536" lon="6.05718">
        <ele>374.09</ele>
        <time>2018-08-26T06:33:21Z</time>
      </trkpt>
      <trkpt lat="47.30535" lon="6.05732">
        <ele>373.61</ele>
        <time>2018-08-26T06:33:22Z</time>
      </trkpt>
      <trkpt lat="47.30531" lon="6.05793">
        <ele>370.73</ele>
        <time>2018-08-26T06:33:27Z</time>
      </trkpt>
      <trkpt lat="47.30529" lon="6.05805">
        <ele>370.24</ele>
        <time>2018-08-26T06:33:28Z</time>
      </trkpt>
      <trkpt lat="47.30515" lon="6.05867">
        <ele>367.36</ele>
        <time>2018-08-26T06:33:33Z</time>
      </trkpt>
      <trkpt lat="47.30502" lon="6.05913">
        <ele>365.92</ele>
        <time>2018-08-26T06:33:37Z</time>
      </trkpt>
      <trkpt lat="47.30499" lon="6.05924">
        <ele>365.44</ele>
        <time>2018-08-26T06:33:38Z</time>
      </trkpt>
      <trkpt lat="47.30478" lon="6.05989">
        <ele>362.07</ele>
        <time>2018-08-26T06:33:44Z</time>
      </trkpt>
      <trkpt lat="47.30448" lon="6.06048">
        <ele>358.23</ele>
        <time>2018-08-26T06:33:50Z</time>
      </trkpt>
      <trkpt lat="47.30439" lon="6.06069">
        <ele>357.27</ele>
        <time>2018-08-26T06:33:52Z</time>
      </trkpt>
      <trkpt lat="47.30435" lon="6.0608">
        <ele>356.79</ele>
        <time>2018-08-26T06:33:53Z</time>
      </trkpt>
      <trkpt lat="47.30431" lon="6.0609">
        <ele>356.79</ele>
        <time>2018-08-26T06:33:54Z</time>
      </trkpt>
      <trkpt lat="47.30428" lon="6.06099">
        <ele>356.31</ele>
        <time>2018-08-26T06:33:55Z</time>
      </trkpt>
      <trkpt lat="47.30426" lon="6.06108">
        <ele>355.83</ele>
        <time>2018-08-26T06:33:56Z</time>
      </trkpt>
      <trkpt lat="47.30416" lon="6.06137">
        <ele>353.9</ele>
        <time>2018-08-26T06:33:59Z</time>
      </trkpt>
      <trkpt lat="47.30412" lon="6.06148">
        <ele>353.42</ele>
        <time>2018-08-26T06:34:00Z</time>
      </trkpt>
      <trkpt lat="47.30406" lon="6.06169">
        <ele>352.94</ele>
        <time>2018-08-26T06:34:02Z</time>
      </trkpt>
      <trkpt lat="47.30403" lon="6.0618">
        <ele>352.94</ele>
        <time>2018-08-26T06:34:03Z</time>
      </trkpt>
      <trkpt lat="47.30401" lon="6.0619">
        <ele>352.94</ele>
        <time>2018-08-26T06:34:04Z</time>
      </trkpt>
      <trkpt lat="47.30398" lon="6.062">
        <ele>352.94</ele>
        <time>2018-08-26T06:34:05Z</time>
      </trkpt>
      <trkpt lat="47.30394" lon="6.06209">
        <ele>352.46</ele>
        <time>2018-08-26T06:34:06Z</time>
      </trkpt>
      <trkpt lat="47.30391" lon="6.06217">
        <ele>352.46</ele>
        <time>2018-08-26T06:34:07Z</time>
      </trkpt>
      <trkpt lat="47.30386" lon="6.06224">
        <ele>351.98</ele>
        <time>2018-08-26T06:34:08Z</time>
      </trkpt>
      <trkpt lat="47.30369" lon="6.06251">
        <ele>350.54</ele>
        <time>2018-08-26T06:34:12Z</time>
      </trkpt>
      <trkpt lat="47.30364" lon="6.06258">
        <ele>350.54</ele>
        <time>2018-08-26T06:34:13Z</time>
      </trkpt>
      <trkpt lat="47.30359" lon="6.06266">
        <ele>349.58</ele>
        <time>2018-08-26T06:34:14Z</time>
      </trkpt>
      <trkpt lat="47.30355" lon="6.06275">
        <ele>349.1</ele>
        <time>2018-08-26T06:34:15Z</time>
      </trkpt>
      <trkpt lat="47.30353" lon="6.06284">
        <ele>348.62</ele>
        <time>2018-08-26T06:34:16Z</time>
      </trkpt>
      <trkpt lat="47.30352" lon="6.06293">
        <ele>348.62</ele>
        <time>2018-08-26T06:34:17Z</time>
      </trkpt>
      <trkpt lat="47.30351" lon="6.06301">
        <ele>349.1</ele>
        <time>2018-08-26T06:34:18Z</time>
      </trkpt>
      <trkpt lat="47.30352" lon="6.06308">
        <ele>349.1</ele>
        <time>2018-08-26T06:34:19Z</time>
      </trkpt>
      <trkpt lat="47.30353" lon="6.06315">
        <ele>349.58</ele>
        <time>2018-08-26T06:34:20Z</time>
      </trkpt>
      <trkpt lat="47.30354" lon="6.06322">
        <ele>349.58</ele>
        <time>2018-08-26T06:34:21Z</time>
      </trkpt>
      <trkpt lat="47.30355" lon="6.06329">
        <ele>349.58</ele>
        <time>2018-08-26T06:34:22Z</time>
      </trkpt>
      <trkpt lat="47.30356" lon="6.06335">
        <ele>349.58</ele>
        <time>2018-08-26T06:34:23Z</time>
      </trkpt>
      <trkpt lat="47.30356" lon="6.06343">
        <ele>349.58</ele>
        <time>2018-08-26T06:34:24Z</time>
      </trkpt>
      <trkpt lat="47.30357" lon="6.06349">
        <ele>349.1</ele>
        <time>2018-08-26T06:34:25Z</time>
      </trkpt>
      <trkpt lat="47.30357" lon="6.06356">
        <ele>349.1</ele>
        <time>2018-08-26T06:34:26Z</time>
      </trkpt>
      <trkpt lat="47.30357" lon="6.06364">
        <ele>349.1</ele>
        <time>2018-08-26T06:34:27Z</time>
      </trkpt>
      <trkpt lat="47.30357" lon="6.06379">
        <ele>349.1</ele>
        <time>2018-08-26T06:34:29Z</time>
      </trkpt>
      <trkpt lat="47.30359" lon="6.06392">
        <ele>349.1</ele>
        <time>2018-08-26T06:34:31Z</time>
      </trkpt>
      <trkpt lat="47.30361" lon="6.06398">
        <ele>349.1</ele>
        <time>2018-08-26T06:34:32Z</time>
      </trkpt>
      <trkpt lat="47.30361" lon="6.06404">
        <ele>349.1</ele>
        <time>2018-08-26T06:34:33Z</time>
      </trkpt>
      <trkpt lat="47.30361" lon="6.0641">
        <ele>349.1</ele>
        <time>2018-08-26T06:34:34Z</time>
      </trkpt>
      <trkpt lat="47.3036" lon="6.06415">
        <ele>349.1</ele>
        <time>2018-08-26T06:34:35Z</time>
      </trkpt>
      <trkpt lat="47.30361" lon="6.0642">
        <ele>349.1</ele>
        <time>2018-08-26T06:34:36Z</time>
      </trkpt>
      <trkpt lat="47.30364" lon="6.06424">
        <ele>349.1</ele>
        <time>2018-08-26T06:34:37Z</time>
      </trkpt>
      <trkpt lat="47.30368" lon="6.06427">
        <ele>349.1</ele>
        <time>2018-08-26T06:34:38Z</time>
      </trkpt>
      <trkpt lat="47.30391" lon="6.06446">
        <ele>350.06</ele>
        <time>2018-08-26T06:34:46Z</time>
      </trkpt>
      <trkpt lat="47.30417" lon="6.06477">
        <ele>350.54</ele>
        <time>2018-08-26T06:34:55Z</time>
      </trkpt>
      <trkpt lat="47.3042" lon="6.0648">
        <ele>350.54</ele>
        <time>2018-08-26T06:34:56Z</time>
      </trkpt>
      <trkpt lat="47.30423" lon="6.06483">
        <ele>350.54</ele>
        <time>2018-08-26T06:34:57Z</time>
      </trkpt>
      <trkpt lat="47.3046" lon="6.06529">
        <ele>351.98</ele>
        <time>2018-08-26T06:35:10Z</time>
      </trkpt>
      <trkpt lat="47.30488" lon="6.06564">
        <ele>352.94</ele>
        <time>2018-08-26T06:35:20Z</time>
      </trkpt>
      <trkpt lat="47.305" lon="6.06581">
        <ele>352.94</ele>
        <time>2018-08-26T06:35:25Z</time>
      </trkpt>
      <trkpt lat="47.30501" lon="6.06586">
        <ele>352.94</ele>
        <time>2018-08-26T06:35:26Z</time>
      </trkpt>
      <trkpt lat="47.30503" lon="6.06591">
        <ele>352.46</ele>
        <time>2018-08-26T06:35:27Z</time>
      </trkpt>
      <trkpt lat="47.30504" lon="6.06596">
        <ele>352.46</ele>
        <time>2018-08-26T06:35:28Z</time>
      </trkpt>
      <trkpt lat="47.30506" lon="6.06602">
        <ele>351.98</ele>
        <time>2018-08-26T06:35:29Z</time>
      </trkpt>
      <trkpt lat="47.30515" lon="6.06635">
        <ele>351.5</ele>
        <time>2018-08-26T06:35:35Z</time>
      </trkpt>
      <trkpt lat="47.30515" lon="6.06642">
        <ele>351.02</ele>
        <time>2018-08-26T06:35:36Z</time>
      </trkpt>
      <trkpt lat="47.30513" lon="6.06649">
        <ele>350.54</ele>
        <time>2018-08-26T06:35:37Z</time>
      </trkpt>
      <trkpt lat="47.30511" lon="6.06656">
        <ele>350.06</ele>
        <time>2018-08-26T06:35:38Z</time>
      </trkpt>
      <trkpt lat="47.3051" lon="6.06663">
        <ele>349.58</ele>
        <time>2018-08-26T06:35:39Z</time>
      </trkpt>
      <trkpt lat="47.3051" lon="6.06668">
        <ele>349.58</ele>
        <time>2018-08-26T06:35:40Z</time>
      </trkpt>
      <trkpt lat="47.30511" lon="6.06675">
        <ele>349.58</ele>
        <time>2018-08-26T06:35:41Z</time>
      </trkpt>
      <trkpt lat="47.30514" lon="6.06681">
        <ele>350.06</ele>
        <time>2018-08-26T06:35:42Z</time>
      </trkpt>
      <trkpt lat="47.30518" lon="6.06686">
        <ele>350.06</ele>
        <time>2018-08-26T06:35:43Z</time>
      </trkpt>
      <trkpt lat="47.30522" lon="6.06692">
        <ele>350.06</ele>
        <time>2018-08-26T06:35:44Z</time>
      </trkpt>
      <trkpt lat="47.30524" lon="6.06699">
        <ele>350.06</ele>
        <time>2018-08-26T06:35:45Z</time>
      </trkpt>
      <trkpt lat="47.30527" lon="6.06705">
        <ele>350.06</ele>
        <time>2018-08-26T06:35:46Z</time>
      </trkpt>
      <trkpt lat="47.30528" lon="6.06712">
        <ele>350.06</ele>
        <time>2018-08-26T06:35:47Z</time>
      </trkpt>
      <trkpt lat="47.3053" lon="6.06718">
        <ele>350.06</ele>
        <time>2018-08-26T06:35:48Z</time>
      </trkpt>
      <trkpt lat="47.30551" lon="6.06772">
        <ele>349.58</ele>
        <time>2018-08-26T06:35:57Z</time>
      </trkpt>
      <trkpt lat="47.30554" lon="6.06778">
        <ele>349.58</ele>
        <time>2018-08-26T06:35:58Z</time>
      </trkpt>
      <trkpt lat="47.30556" lon="6.06783">
        <ele>349.58</ele>
        <time>2018-08-26T06:35:59Z</time>
      </trkpt>
      <trkpt lat="47.30557" lon="6.06789">
        <ele>349.58</ele>
        <time>2018-08-26T06:36:00Z</time>
      </trkpt>
      <trkpt lat="47.30557" lon="6.06795">
        <ele>349.58</ele>
        <time>2018-08-26T06:36:01Z</time>
      </trkpt>
      <trkpt lat="47.30558" lon="6.068">
        <ele>350.06</ele>
        <time>2018-08-26T06:36:02Z</time>
      </trkpt>
      <trkpt lat="47.3056" lon="6.06805">
        <ele>349.58</ele>
        <time>2018-08-26T06:36:03Z</time>
      </trkpt>
      <trkpt lat="47.30563" lon="6.06811">
        <ele>350.06</ele>
        <time>2018-08-26T06:36:04Z</time>
      </trkpt>
      <trkpt lat="47.30566" lon="6.06817">
        <ele>350.06</ele>
        <time>2018-08-26T06:36:05Z</time>
      </trkpt>
      <trkpt lat="47.30569" lon="6.06822">
        <ele>350.06</ele>
        <time>2018-08-26T06:36:06Z</time>
      </trkpt>
      <trkpt lat="47.30573" lon="6.06828">
        <ele>350.06</ele>
        <time>2018-08-26T06:36:08Z</time>
      </trkpt>
      <trkpt lat="47.30574" lon="6.06831">
        <ele>349.1</ele>
        <time>2018-08-26T06:36:23Z</time>
      </trkpt>
      <trkpt lat="47.30574" lon="6.06843">
        <ele>350.06</ele>
        <time>2018-08-26T06:36:52Z</time>
      </trkpt>
      <trkpt lat="47.30575" lon="6.06846">
        <ele>350.06</ele>
        <time>2018-08-26T06:36:53Z</time>
      </trkpt>
      <trkpt lat="47.30575" lon="6.06849">
        <ele>350.06</ele>
        <time>2018-08-26T06:36:54Z</time>
      </trkpt>
      <trkpt lat="47.30576" lon="6.06853">
        <ele>350.06</ele>
        <time>2018-08-26T06:36:55Z</time>
      </trkpt>
      <trkpt lat="47.30576" lon="6.06857">
        <ele>350.06</ele>
        <time>2018-08-26T06:36:56Z</time>
      </trkpt>
      <trkpt lat="47.30576" lon="6.06861">
        <ele>350.06</ele>
        <time>2018-08-26T06:36:57Z</time>
      </trkpt>
      <trkpt lat="47.30584" lon="6.06906">
        <ele>349.1</ele>
        <time>2018-08-26T06:37:06Z</time>
      </trkpt>
      <trkpt lat="47.30585" lon="6.0694">
        <ele>346.21</ele>
        <time>2018-08-26T06:37:12Z</time>
      </trkpt>
      <trkpt lat="47.30586" lon="6.06946">
        <ele>345.73</ele>
        <time>2018-08-26T06:37:13Z</time>
      </trkpt>
      <trkpt lat="47.30589" lon="6.0696">
        <ele>344.29</ele>
        <time>2018-08-26T06:37:15Z</time>
      </trkpt>
      <trkpt lat="47.3059" lon="6.06967">
        <ele>343.33</ele>
        <time>2018-08-26T06:37:16Z</time>
      </trkpt>
      <trkpt lat="47.30598" lon="6.06992">
        <ele>340.92</ele>
        <time>2018-08-26T06:37:19Z</time>
      </trkpt>
      <trkpt lat="47.30603" lon="6.07031">
        <ele>337.56</ele>
        <time>2018-08-26T06:37:23Z</time>
      </trkpt>
      <trkpt lat="47.30605" lon="6.07046">
        <ele>336.6</ele>
        <time>2018-08-26T06:37:24Z</time>
      </trkpt>
      <trkpt lat="47.30606" lon="6.07061">
        <ele>336.12</ele>
        <time>2018-08-26T06:37:25Z</time>
      </trkpt>
      <trkpt lat="47.30602" lon="6.07159">
        <ele>333.23</ele>
        <time>2018-08-26T06:37:31Z</time>
      </trkpt>
      <trkpt lat="47.30601" lon="6.07199">
        <ele>333.23</ele>
        <time>2018-08-26T06:37:34Z</time>
      </trkpt>
      <trkpt lat="47.30611" lon="6.0724">
        <ele>334.2</ele>
        <time>2018-08-26T06:37:38Z</time>
      </trkpt>
      <trkpt lat="47.3062" lon="6.07245">
        <ele>333.71</ele>
        <time>2018-08-26T06:37:40Z</time>
      </trkpt>
      <trkpt lat="47.30653" lon="6.07228">
        <ele>333.23</ele>
        <time>2018-08-26T06:37:50Z</time>
      </trkpt>
      <trkpt lat="47.30673" lon="6.07208">
        <ele>334.68</ele>
        <time>2018-08-26T06:37:56Z</time>
      </trkpt>
      <trkpt lat="47.30675" lon="6.07205">
        <ele>335.16</ele>
        <time>2018-08-26T06:37:57Z</time>
      </trkpt>
      <trkpt lat="47.30678" lon="6.07203">
        <ele>335.64</ele>
        <time>2018-08-26T06:37:58Z</time>
      </trkpt>
      <trkpt lat="47.3068" lon="6.07201">
        <ele>335.64</ele>
        <time>2018-08-26T06:37:59Z</time>
      </trkpt>
      <trkpt lat="47.30685" lon="6.072">
        <ele>336.12</ele>
        <time>2018-08-26T06:38:00Z</time>
      </trkpt>
      <trkpt lat="47.30691" lon="6.07197">
        <ele>336.12</ele>
        <time>2018-08-26T06:38:01Z</time>
      </trkpt>
      <trkpt lat="47.30695" lon="6.07194">
        <ele>336.12</ele>
        <time>2018-08-26T06:38:02Z</time>
      </trkpt>
      <trkpt lat="47.30746" lon="6.07159">
        <ele>337.56</ele>
        <time>2018-08-26T06:38:14Z</time>
      </trkpt>
      <trkpt lat="47.30753" lon="6.07151">
        <ele>337.56</ele>
        <time>2018-08-26T06:38:16Z</time>
      </trkpt>
      <trkpt lat="47.30758" lon="6.07146">
        <ele>337.56</ele>
        <time>2018-08-26T06:38:17Z</time>
      </trkpt>
      <trkpt lat="47.30768" lon="6.07137">
        <ele>338.04</ele>
        <time>2018-08-26T06:38:19Z</time>
      </trkpt>
      <trkpt lat="47.30772" lon="6.07134">
        <ele>338.04</ele>
        <time>2018-08-26T06:38:20Z</time>
      </trkpt>
      <trkpt lat="47.30777" lon="6.07129">
        <ele>338.04</ele>
        <time>2018-08-26T06:38:21Z</time>
      </trkpt>
      <trkpt lat="47.30781" lon="6.07125">
        <ele>338.04</ele>
        <time>2018-08-26T06:38:22Z</time>
      </trkpt>
      <trkpt lat="47.30785" lon="6.0712">
        <ele>338.04</ele>
        <time>2018-08-26T06:38:23Z</time>
      </trkpt>
      <trkpt lat="47.30791" lon="6.07114">
        <ele>338.04</ele>
        <time>2018-08-26T06:38:24Z</time>
      </trkpt>
      <trkpt lat="47.30829" lon="6.0706">
        <ele>340.44</ele>
        <time>2018-08-26T06:38:32Z</time>
      </trkpt>
      <trkpt lat="47.30832" lon="6.07056">
        <ele>340.44</ele>
        <time>2018-08-26T06:38:33Z</time>
      </trkpt>
      <trkpt lat="47.30835" lon="6.07053">
        <ele>340.92</ele>
        <time>2018-08-26T06:38:34Z</time>
      </trkpt>
      <trkpt lat="47.30838" lon="6.07049">
        <ele>341.41</ele>
        <time>2018-08-26T06:38:35Z</time>
      </trkpt>
      <trkpt lat="47.30841" lon="6.07045">
        <ele>341.41</ele>
        <time>2018-08-26T06:38:36Z</time>
      </trkpt>
      <trkpt lat="47.30844" lon="6.07042">
        <ele>341.89</ele>
        <time>2018-08-26T06:38:37Z</time>
      </trkpt>
      <trkpt lat="47.30848" lon="6.07039">
        <ele>342.37</ele>
        <time>2018-08-26T06:38:38Z</time>
      </trkpt>
      <trkpt lat="47.30852" lon="6.07037">
        <ele>342.37</ele>
        <time>2018-08-26T06:38:39Z</time>
      </trkpt>
      <trkpt lat="47.30856" lon="6.07036">
        <ele>342.37</ele>
        <time>2018-08-26T06:38:40Z</time>
      </trkpt>
      <trkpt lat="47.3086" lon="6.07036">
        <ele>342.85</ele>
        <time>2018-08-26T06:38:41Z</time>
      </trkpt>
      <trkpt lat="47.30864" lon="6.07036">
        <ele>342.85</ele>
        <time>2018-08-26T06:38:42Z</time>
      </trkpt>
      <trkpt lat="47.3087" lon="6.07038">
        <ele>343.33</ele>
        <time>2018-08-26T06:38:43Z</time>
      </trkpt>
      <trkpt lat="47.30876" lon="6.07041">
        <ele>343.33</ele>
        <time>2018-08-26T06:38:44Z</time>
      </trkpt>
      <trkpt lat="47.30883" lon="6.07048">
        <ele>343.33</ele>
        <time>2018-08-26T06:38:46Z</time>
      </trkpt>
      <trkpt lat="47.30887" lon="6.07052">
        <ele>342.85</ele>
        <time>2018-08-26T06:38:47Z</time>
      </trkpt>
      <trkpt lat="47.30891" lon="6.07056">
        <ele>342.85</ele>
        <time>2018-08-26T06:38:48Z</time>
      </trkpt>
      <trkpt lat="47.30895" lon="6.07059">
        <ele>342.85</ele>
        <time>2018-08-26T06:38:49Z</time>
      </trkpt>
      <trkpt lat="47.30898" lon="6.07063">
        <ele>342.37</ele>
        <time>2018-08-26T06:38:50Z</time>
      </trkpt>
      <trkpt lat="47.30901" lon="6.07067">
        <ele>342.85</ele>
        <time>2018-08-26T06:38:51Z</time>
      </trkpt>
      <trkpt lat="47.30904" lon="6.07072">
        <ele>342.37</ele>
        <time>2018-08-26T06:38:52Z</time>
      </trkpt>
      <trkpt lat="47.30908" lon="6.07076">
        <ele>342.37</ele>
        <time>2018-08-26T06:38:53Z</time>
      </trkpt>
      <trkpt lat="47.30912" lon="6.0708">
        <ele>342.37</ele>
        <time>2018-08-26T06:38:54Z</time>
      </trkpt>
      <trkpt lat="47.30915" lon="6.07085">
        <ele>342.37</ele>
        <time>2018-08-26T06:38:55Z</time>
      </trkpt>
      <trkpt lat="47.30927" lon="6.07102">
        <ele>341.89</ele>
        <time>2018-08-26T06:38:59Z</time>
      </trkpt>
      <trkpt lat="47.30931" lon="6.07106">
        <ele>341.41</ele>
        <time>2018-08-26T06:39:00Z</time>
      </trkpt>
      <trkpt lat="47.30935" lon="6.07111">
        <ele>341.41</ele>
        <time>2018-08-26T06:39:01Z</time>
      </trkpt>
      <trkpt lat="47.30939" lon="6.07114">
        <ele>340.92</ele>
        <time>2018-08-26T06:39:02Z</time>
      </trkpt>
      <trkpt lat="47.30943" lon="6.07118">
        <ele>340.92</ele>
        <time>2018-08-26T06:39:03Z</time>
      </trkpt>
      <trkpt lat="47.30983" lon="6.07158">
        <ele>341.89</ele>
        <time>2018-08-26T06:39:12Z</time>
      </trkpt>
      <trkpt lat="47.31003" lon="6.07176">
        <ele>342.85</ele>
        <time>2018-08-26T06:39:17Z</time>
      </trkpt>
      <trkpt lat="47.31042" lon="6.07196">
        <ele>346.21</ele>
        <time>2018-08-26T06:39:29Z</time>
      </trkpt>
      <trkpt lat="47.31071" lon="6.07204">
        <ele>349.1</ele>
        <time>2018-08-26T06:39:39Z</time>
      </trkpt>
      <trkpt lat="47.31094" lon="6.0722">
        <ele>351.5</ele>
        <time>2018-08-26T06:39:48Z</time>
      </trkpt>
      <trkpt lat="47.31121" lon="6.07242">
        <ele>352.94</ele>
        <time>2018-08-26T06:39:58Z</time>
      </trkpt>
      <trkpt lat="47.31151" lon="6.07273">
        <ele>354.38</ele>
        <time>2018-08-26T06:40:09Z</time>
      </trkpt>
      <trkpt lat="47.31169" lon="6.07295">
        <ele>355.83</ele>
        <time>2018-08-26T06:40:16Z</time>
      </trkpt>
      <trkpt lat="47.31193" lon="6.0732">
        <ele>358.71</ele>
        <time>2018-08-26T06:40:28Z</time>
      </trkpt>
      <trkpt lat="47.31222" lon="6.07349">
        <ele>362.07</ele>
        <time>2018-08-26T06:40:42Z</time>
      </trkpt>
      <trkpt lat="47.31239" lon="6.07373">
        <ele>364.96</ele>
        <time>2018-08-26T06:40:53Z</time>
      </trkpt>
      <trkpt lat="47.31259" lon="6.07399">
        <ele>368.32</ele>
        <time>2018-08-26T06:41:05Z</time>
      </trkpt>
      <trkpt lat="47.31279" lon="6.07419">
        <ele>371.69</ele>
        <time>2018-08-26T06:41:16Z</time>
      </trkpt>
      <trkpt lat="47.31302" lon="6.07431">
        <ele>374.57</ele>
        <time>2018-08-26T06:41:27Z</time>
      </trkpt>
      <trkpt lat="47.31337" lon="6.07423">
        <ele>377.45</ele>
        <time>2018-08-26T06:41:41Z</time>
      </trkpt>
      <trkpt lat="47.31377" lon="6.07394">
        <ele>379.86</ele>
        <time>2018-08-26T06:41:56Z</time>
      </trkpt>
      <trkpt lat="47.31411" lon="6.07385">
        <ele>382.26</ele>
        <time>2018-08-26T06:42:09Z</time>
      </trkpt>
      <trkpt lat="47.31433" lon="6.07431">
        <ele>384.18</ele>
        <time>2018-08-26T06:42:22Z</time>
      </trkpt>
      <trkpt lat="47.31449" lon="6.0747">
        <ele>386.11</ele>
        <time>2018-08-26T06:42:34Z</time>
      </trkpt>
      <trkpt lat="47.31454" lon="6.07479">
        <ele>386.11</ele>
        <time>2018-08-26T06:42:38Z</time>
      </trkpt>
      <trkpt lat="47.31455" lon="6.07481">
        <ele>386.59</ele>
        <time>2018-08-26T06:42:39Z</time>
      </trkpt>
      <trkpt lat="47.31456" lon="6.07483">
        <ele>386.59</ele>
        <time>2018-08-26T06:42:40Z</time>
      </trkpt>
      <trkpt lat="47.3147" lon="6.07514">
        <ele>388.03</ele>
        <time>2018-08-26T06:42:51Z</time>
      </trkpt>
      <trkpt lat="47.31477" lon="6.07527">
        <ele>388.99</ele>
        <time>2018-08-26T06:43:02Z</time>
      </trkpt>
      <trkpt lat="47.31479" lon="6.07528">
        <ele>388.99</ele>
        <time>2018-08-26T06:43:24Z</time>
      </trkpt>
      <trkpt lat="47.31479" lon="6.0753">
        <ele>388.99</ele>
        <time>2018-08-26T06:43:41Z</time>
      </trkpt>
      <trkpt lat="47.31479" lon="6.0753">
        <ele>388.99</ele>
        <time>2018-08-26T06:44:02Z</time>
      </trkpt>
      <trkpt lat="47.31479" lon="6.07531">
        <ele>388.99</ele>
        <time>2018-08-26T06:44:24Z</time>
      </trkpt>
      <trkpt lat="47.31481" lon="6.0753">
        <ele>389.47</ele>
        <time>2018-08-26T06:44:31Z</time>
      </trkpt>
      <trkpt lat="47.31483" lon="6.0753">
        <ele>389.47</ele>
        <time>2018-08-26T06:44:32Z</time>
      </trkpt>
      <trkpt lat="47.31484" lon="6.0753">
        <ele>389.47</ele>
        <time>2018-08-26T06:44:33Z</time>
      </trkpt>
      <trkpt lat="47.31487" lon="6.0753">
        <ele>390.91</ele>
        <time>2018-08-26T06:44:36Z</time>
      </trkpt>
      <trkpt lat="47.31498" lon="6.07535">
        <ele>392.84</ele>
        <time>2018-08-26T06:44:46Z</time>
      </trkpt>
      <trkpt lat="47.315" lon="6.07535">
        <ele>393.32</ele>
        <time>2018-08-26T06:44:47Z</time>
      </trkpt>
      <trkpt lat="47.31505" lon="6.07537">
        <ele>393.8</ele>
        <time>2018-08-26T06:44:50Z</time>
      </trkpt>
      <trkpt lat="47.31524" lon="6.0755">
        <ele>396.68</ele>
        <time>2018-08-26T06:45:03Z</time>
      </trkpt>
      <trkpt lat="47.31538" lon="6.07557">
        <ele>398.6</ele>
        <time>2018-08-26T06:45:14Z</time>
      </trkpt>
      <trkpt lat="47.31555" lon="6.07565">
        <ele>401.01</ele>
        <time>2018-08-26T06:45:26Z</time>
      </trkpt>
      <trkpt lat="47.31561" lon="6.07568">
        <ele>402.45</ele>
        <time>2018-08-26T06:45:31Z</time>
      </trkpt>
      <trkpt lat="47.31575" lon="6.07578">
        <ele>404.37</ele>
        <time>2018-08-26T06:45:43Z</time>
      </trkpt>
      <trkpt lat="47.31584" lon="6.07585">
        <ele>407.26</ele>
        <time>2018-08-26T06:45:51Z</time>
      </trkpt>
      <trkpt lat="47.31587" lon="6.07587">
        <ele>407.74</ele>
        <time>2018-08-26T06:45:54Z</time>
      </trkpt>
      <trkpt lat="47.31593" lon="6.0759">
        <ele>408.7</ele>
        <time>2018-08-26T06:45:58Z</time>
      </trkpt>
      <trkpt lat="47.31604" lon="6.07593">
        <ele>410.62</ele>
        <time>2018-08-26T06:46:06Z</time>
      </trkpt>
      <trkpt lat="47.31606" lon="6.07593">
        <ele>411.1</ele>
        <time>2018-08-26T06:46:07Z</time>
      </trkpt>
      <trkpt lat="47.31609" lon="6.07595">
        <ele>412.06</ele>
        <time>2018-08-26T06:46:10Z</time>
      </trkpt>
      <trkpt lat="47.31618" lon="6.07602">
        <ele>413.98</ele>
        <time>2018-08-26T06:46:17Z</time>
      </trkpt>
      <trkpt lat="47.3162" lon="6.07602">
        <ele>414.47</ele>
        <time>2018-08-26T06:46:18Z</time>
      </trkpt>
      <trkpt lat="47.31621" lon="6.07603">
        <ele>414.47</ele>
        <time>2018-08-26T06:46:19Z</time>
      </trkpt>
      <trkpt lat="47.31622" lon="6.07605">
        <ele>414.95</ele>
        <time>2018-08-26T06:46:20Z</time>
      </trkpt>
      <trkpt lat="47.31635" lon="6.07611">
        <ele>417.35</ele>
        <time>2018-08-26T06:46:30Z</time>
      </trkpt>
      <trkpt lat="47.31642" lon="6.07619">
        <ele>418.31</ele>
        <time>2018-08-26T06:46:37Z</time>
      </trkpt>
      <trkpt lat="47.31643" lon="6.07621">
        <ele>418.79</ele>
        <time>2018-08-26T06:46:38Z</time>
      </trkpt>
      <trkpt lat="47.31646" lon="6.07631">
        <ele>419.27</ele>
        <time>2018-08-26T06:46:44Z</time>
      </trkpt>
      <trkpt lat="47.31647" lon="6.07635">
        <ele>419.75</ele>
        <time>2018-08-26T06:46:46Z</time>
      </trkpt>
      <trkpt lat="47.31648" lon="6.07637">
        <ele>419.75</ele>
        <time>2018-08-26T06:46:47Z</time>
      </trkpt>
      <trkpt lat="47.31656" lon="6.07668">
        <ele>420.23</ele>
        <time>2018-08-26T06:46:57Z</time>
      </trkpt>
      <trkpt lat="47.31656" lon="6.0767">
        <ele>420.23</ele>
        <time>2018-08-26T06:46:58Z</time>
      </trkpt>
      <trkpt lat="47.31655" lon="6.07677">
        <ele>420.23</ele>
        <time>2018-08-26T06:47:00Z</time>
      </trkpt>
      <trkpt lat="47.31655" lon="6.07679">
        <ele>420.23</ele>
        <time>2018-08-26T06:47:01Z</time>
      </trkpt>
      <trkpt lat="47.31655" lon="6.07683">
        <ele>420.23</ele>
        <time>2018-08-26T06:47:02Z</time>
      </trkpt>
      <trkpt lat="47.31656" lon="6.07686">
        <ele>420.23</ele>
        <time>2018-08-26T06:47:03Z</time>
      </trkpt>
      <trkpt lat="47.31657" lon="6.07689">
        <ele>420.23</ele>
        <time>2018-08-26T06:47:04Z</time>
      </trkpt>
      <trkpt lat="47.31658" lon="6.07691">
        <ele>420.23</ele>
        <time>2018-08-26T06:47:05Z</time>
      </trkpt>
      <trkpt lat="47.31669" lon="6.07731">
        <ele>421.19</ele>
        <time>2018-08-26T06:47:16Z</time>
      </trkpt>
      <trkpt lat="47.31671" lon="6.07737">
        <ele>421.19</ele>
        <time>2018-08-26T06:47:18Z</time>
      </trkpt>
      <trkpt lat="47.31673" lon="6.0774">
        <ele>421.19</ele>
        <time>2018-08-26T06:47:19Z</time>
      </trkpt>
      <trkpt lat="47.31674" lon="6.07743">
        <ele>421.68</ele>
        <time>2018-08-26T06:47:20Z</time>
      </trkpt>
      <trkpt lat="47.31687" lon="6.07777">
        <ele>423.12</ele>
        <time>2018-08-26T06:47:31Z</time>
      </trkpt>
      <trkpt lat="47.31689" lon="6.0778">
        <ele>423.12</ele>
        <time>2018-08-26T06:47:32Z</time>
      </trkpt>
      <trkpt lat="47.3169" lon="6.07783">
        <ele>423.12</ele>
        <time>2018-08-26T06:47:33Z</time>
      </trkpt>
      <trkpt lat="47.31691" lon="6.07786">
        <ele>423.12</ele>
        <time>2018-08-26T06:47:34Z</time>
      </trkpt>
      <trkpt lat="47.31692" lon="6.07789">
        <ele>423.6</ele>
        <time>2018-08-26T06:47:35Z</time>
      </trkpt>
      <trkpt lat="47.31691" lon="6.07791">
        <ele>423.6</ele>
        <time>2018-08-26T06:47:36Z</time>
      </trkpt>
      <trkpt lat="47.31691" lon="6.07794">
        <ele>423.6</ele>
        <time>2018-08-26T06:47:37Z</time>
      </trkpt>
      <trkpt lat="47.31691" lon="6.07795">
        <ele>423.6</ele>
        <time>2018-08-26T06:47:38Z</time>
      </trkpt>
      <trkpt lat="47.31693" lon="6.07808">
        <ele>424.08</ele>
        <time>2018-08-26T06:47:42Z</time>
      </trkpt>
      <trkpt lat="47.31694" lon="6.07812">
        <ele>424.08</ele>
        <time>2018-08-26T06:47:43Z</time>
      </trkpt>
      <trkpt lat="47.31695" lon="6.07816">
        <ele>424.08</ele>
        <time>2018-08-26T06:47:44Z</time>
      </trkpt>
      <trkpt lat="47.31695" lon="6.07819">
        <ele>424.56</ele>
        <time>2018-08-26T06:47:45Z</time>
      </trkpt>
      <trkpt lat="47.317" lon="6.07833">
        <ele>425.04</ele>
        <time>2018-08-26T06:47:49Z</time>
      </trkpt>
      <trkpt lat="47.31703" lon="6.07838">
        <ele>425.04</ele>
        <time>2018-08-26T06:47:51Z</time>
      </trkpt>
      <trkpt lat="47.31703" lon="6.07841">
        <ele>425.52</ele>
        <time>2018-08-26T06:47:52Z</time>
      </trkpt>
      <trkpt lat="47.31704" lon="6.07844">
        <ele>425.52</ele>
        <time>2018-08-26T06:47:53Z</time>
      </trkpt>
      <trkpt lat="47.31704" lon="6.07846">
        <ele>425.52</ele>
        <time>2018-08-26T06:47:54Z</time>
      </trkpt>
      <trkpt lat="47.31706" lon="6.0785">
        <ele>426</ele>
        <time>2018-08-26T06:47:55Z</time>
      </trkpt>
      <trkpt lat="47.31724" lon="6.07895">
        <ele>427.92</ele>
        <time>2018-08-26T06:48:07Z</time>
      </trkpt>
      <trkpt lat="47.31734" lon="6.0793">
        <ele>429.37</ele>
        <time>2018-08-26T06:48:17Z</time>
      </trkpt>
      <trkpt lat="47.31735" lon="6.07933">
        <ele>429.37</ele>
        <time>2018-08-26T06:48:18Z</time>
      </trkpt>
      <trkpt lat="47.31737" lon="6.07939">
        <ele>430.33</ele>
        <time>2018-08-26T06:48:20Z</time>
      </trkpt>
      <trkpt lat="47.31738" lon="6.07943">
        <ele>430.33</ele>
        <time>2018-08-26T06:48:21Z</time>
      </trkpt>
      <trkpt lat="47.31739" lon="6.07945">
        <ele>430.33</ele>
        <time>2018-08-26T06:48:22Z</time>
      </trkpt>
      <trkpt lat="47.3174" lon="6.07948">
        <ele>430.33</ele>
        <time>2018-08-26T06:48:23Z</time>
      </trkpt>
      <trkpt lat="47.31741" lon="6.07952">
        <ele>430.33</ele>
        <time>2018-08-26T06:48:24Z</time>
      </trkpt>
      <trkpt lat="47.31741" lon="6.07956">
        <ele>430.33</ele>
        <time>2018-08-26T06:48:25Z</time>
      </trkpt>
      <trkpt lat="47.31745" lon="6.0797">
        <ele>430.81</ele>
        <time>2018-08-26T06:48:29Z</time>
      </trkpt>
      <trkpt lat="47.31746" lon="6.07972">
        <ele>430.81</ele>
        <time>2018-08-26T06:48:30Z</time>
      </trkpt>
      <trkpt lat="47.31747" lon="6.07975">
        <ele>430.81</ele>
        <time>2018-08-26T06:48:31Z</time>
      </trkpt>
      <trkpt lat="47.3175" lon="6.07985">
        <ele>431.77</ele>
        <time>2018-08-26T06:48:34Z</time>
      </trkpt>
      <trkpt lat="47.3176" lon="6.08022">
        <ele>433.69</ele>
        <time>2018-08-26T06:48:45Z</time>
      </trkpt>
      <trkpt lat="47.31765" lon="6.08031">
        <ele>434.17</ele>
        <time>2018-08-26T06:48:48Z</time>
      </trkpt>
      <trkpt lat="47.31765" lon="6.08042">
        <ele>435.13</ele>
        <time>2018-08-26T06:48:51Z</time>
      </trkpt>
      <trkpt lat="47.31765" lon="6.08046">
        <ele>435.13</ele>
        <time>2018-08-26T06:48:52Z</time>
      </trkpt>
      <trkpt lat="47.31767" lon="6.0805">
        <ele>435.61</ele>
        <time>2018-08-26T06:48:53Z</time>
      </trkpt>
      <trkpt lat="47.31767" lon="6.08052">
        <ele>435.61</ele>
        <time>2018-08-26T06:48:54Z</time>
      </trkpt>
      <trkpt lat="47.31769" lon="6.08056">
        <ele>435.61</ele>
        <time>2018-08-26T06:48:55Z</time>
      </trkpt>
      <trkpt lat="47.31771" lon="6.08058">
        <ele>436.1</ele>
        <time>2018-08-26T06:48:56Z</time>
      </trkpt>
      <trkpt lat="47.31772" lon="6.08062">
        <ele>436.1</ele>
        <time>2018-08-26T06:48:57Z</time>
      </trkpt>
      <trkpt lat="47.31772" lon="6.08066">
        <ele>436.1</ele>
        <time>2018-08-26T06:48:58Z</time>
      </trkpt>
      <trkpt lat="47.31773" lon="6.08069">
        <ele>436.58</ele>
        <time>2018-08-26T06:48:59Z</time>
      </trkpt>
      <trkpt lat="47.31774" lon="6.08072">
        <ele>436.58</ele>
        <time>2018-08-26T06:49:00Z</time>
      </trkpt>
      <trkpt lat="47.31775" lon="6.08075">
        <ele>436.58</ele>
        <time>2018-08-26T06:49:01Z</time>
      </trkpt>
      <trkpt lat="47.31776" lon="6.08078">
        <ele>436.58</ele>
        <time>2018-08-26T06:49:02Z</time>
      </trkpt>
      <trkpt lat="47.31777" lon="6.08081">
        <ele>437.06</ele>
        <time>2018-08-26T06:49:03Z</time>
      </trkpt>
      <trkpt lat="47.31778" lon="6.08084">
        <ele>437.06</ele>
        <time>2018-08-26T06:49:04Z</time>
      </trkpt>
      <trkpt lat="47.31778" lon="6.08087">
        <ele>437.06</ele>
        <time>2018-08-26T06:49:05Z</time>
      </trkpt>
      <trkpt lat="47.31779" lon="6.0809">
        <ele>437.06</ele>
        <time>2018-08-26T06:49:06Z</time>
      </trkpt>
      <trkpt lat="47.31781" lon="6.08093">
        <ele>437.54</ele>
        <time>2018-08-26T06:49:07Z</time>
      </trkpt>
      <trkpt lat="47.31781" lon="6.08095">
        <ele>437.54</ele>
        <time>2018-08-26T06:49:08Z</time>
      </trkpt>
      <trkpt lat="47.31782" lon="6.08098">
        <ele>437.54</ele>
        <time>2018-08-26T06:49:09Z</time>
      </trkpt>
      <trkpt lat="47.31783" lon="6.08102">
        <ele>438.02</ele>
        <time>2018-08-26T06:49:10Z</time>
      </trkpt>
      <trkpt lat="47.31786" lon="6.08115">
        <ele>438.5</ele>
        <time>2018-08-26T06:49:14Z</time>
      </trkpt>
      <trkpt lat="47.31788" lon="6.08118">
        <ele>438.5</ele>
        <time>2018-08-26T06:49:15Z</time>
      </trkpt>
      <trkpt lat="47.31793" lon="6.08134">
        <ele>439.46</ele>
        <time>2018-08-26T06:49:21Z</time>
      </trkpt>
      <trkpt lat="47.31794" lon="6.08138">
        <ele>439.46</ele>
        <time>2018-08-26T06:49:22Z</time>
      </trkpt>
      <trkpt lat="47.31795" lon="6.08141">
        <ele>439.94</ele>
        <time>2018-08-26T06:49:23Z</time>
      </trkpt>
      <trkpt lat="47.31796" lon="6.08145">
        <ele>439.94</ele>
        <time>2018-08-26T06:49:24Z</time>
      </trkpt>
      <trkpt lat="47.31797" lon="6.08149">
        <ele>439.94</ele>
        <time>2018-08-26T06:49:25Z</time>
      </trkpt>
      <trkpt lat="47.31798" lon="6.08152">
        <ele>440.42</ele>
        <time>2018-08-26T06:49:26Z</time>
      </trkpt>
      <trkpt lat="47.31799" lon="6.08158">
        <ele>440.42</ele>
        <time>2018-08-26T06:49:28Z</time>
      </trkpt>
      <trkpt lat="47.318" lon="6.0816">
        <ele>440.9</ele>
        <time>2018-08-26T06:49:29Z</time>
      </trkpt>
      <trkpt lat="47.318" lon="6.08163">
        <ele>440.9</ele>
        <time>2018-08-26T06:49:30Z</time>
      </trkpt>
      <trkpt lat="47.31801" lon="6.08167">
        <ele>440.9</ele>
        <time>2018-08-26T06:49:31Z</time>
      </trkpt>
      <trkpt lat="47.31802" lon="6.08171">
        <ele>440.9</ele>
        <time>2018-08-26T06:49:32Z</time>
      </trkpt>
      <trkpt lat="47.31804" lon="6.08174">
        <ele>440.9</ele>
        <time>2018-08-26T06:49:33Z</time>
      </trkpt>
      <trkpt lat="47.31804" lon="6.08176">
        <ele>440.9</ele>
        <time>2018-08-26T06:49:34Z</time>
      </trkpt>
      <trkpt lat="47.31806" lon="6.08179">
        <ele>441.38</ele>
        <time>2018-08-26T06:49:35Z</time>
      </trkpt>
      <trkpt lat="47.31807" lon="6.08182">
        <ele>441.38</ele>
        <time>2018-08-26T06:49:36Z</time>
      </trkpt>
      <trkpt lat="47.3181" lon="6.08187">
        <ele>442.34</ele>
        <time>2018-08-26T06:49:38Z</time>
      </trkpt>
      <trkpt lat="47.31811" lon="6.08191">
        <ele>442.34</ele>
        <time>2018-08-26T06:49:39Z</time>
      </trkpt>
      <trkpt lat="47.31813" lon="6.08194">
        <ele>442.34</ele>
        <time>2018-08-26T06:49:40Z</time>
      </trkpt>
      <trkpt lat="47.31814" lon="6.08197">
        <ele>442.82</ele>
        <time>2018-08-26T06:49:41Z</time>
      </trkpt>
      <trkpt lat="47.31814" lon="6.08201">
        <ele>442.82</ele>
        <time>2018-08-26T06:49:42Z</time>
      </trkpt>
      <trkpt lat="47.31816" lon="6.08211">
        <ele>443.31</ele>
        <time>2018-08-26T06:49:45Z</time>
      </trkpt>
      <trkpt lat="47.31817" lon="6.08217">
        <ele>443.31</ele>
        <time>2018-08-26T06:49:47Z</time>
      </trkpt>
      <trkpt lat="47.31817" lon="6.08219">
        <ele>443.31</ele>
        <time>2018-08-26T06:49:48Z</time>
      </trkpt>
      <trkpt lat="47.31818" lon="6.08222">
        <ele>443.79</ele>
        <time>2018-08-26T06:49:49Z</time>
      </trkpt>
      <trkpt lat="47.31827" lon="6.08256">
        <ele>444.75</ele>
        <time>2018-08-26T06:49:59Z</time>
      </trkpt>
      <trkpt lat="47.31834" lon="6.08276">
        <ele>445.23</ele>
        <time>2018-08-26T06:50:05Z</time>
      </trkpt>
      <trkpt lat="47.31843" lon="6.08311">
        <ele>446.67</ele>
        <time>2018-08-26T06:50:16Z</time>
      </trkpt>
      <trkpt lat="47.31846" lon="6.08321">
        <ele>446.67</ele>
        <time>2018-08-26T06:50:19Z</time>
      </trkpt>
      <trkpt lat="47.31848" lon="6.08325">
        <ele>446.67</ele>
        <time>2018-08-26T06:50:20Z</time>
      </trkpt>
      <trkpt lat="47.3186" lon="6.08369">
        <ele>446.67</ele>
        <time>2018-08-26T06:50:31Z</time>
      </trkpt>
      <trkpt lat="47.3187" lon="6.08405">
        <ele>447.15</ele>
        <time>2018-08-26T06:50:40Z</time>
      </trkpt>
      <trkpt lat="47.31881" lon="6.08451">
        <ele>447.15</ele>
        <time>2018-08-26T06:50:51Z</time>
      </trkpt>
      <trkpt lat="47.31882" lon="6.08455">
        <ele>447.15</ele>
        <time>2018-08-26T06:50:52Z</time>
      </trkpt>
      <trkpt lat="47.31882" lon="6.08461">
        <ele>447.63</ele>
        <time>2018-08-26T06:50:55Z</time>
      </trkpt>
      <trkpt lat="47.31883" lon="6.08466">
        <ele>447.63</ele>
        <time>2018-08-26T06:50:57Z</time>
      </trkpt>
      <trkpt lat="47.31892" lon="6.08502">
        <ele>448.11</ele>
        <time>2018-08-26T06:51:05Z</time>
      </trkpt>
      <trkpt lat="47.31894" lon="6.08507">
        <ele>448.11</ele>
        <time>2018-08-26T06:51:06Z</time>
      </trkpt>
      <trkpt lat="47.31895" lon="6.0851">
        <ele>448.11</ele>
        <time>2018-08-26T06:51:07Z</time>
      </trkpt>
      <trkpt lat="47.31895" lon="6.08514">
        <ele>448.59</ele>
        <time>2018-08-26T06:51:08Z</time>
      </trkpt>
      <trkpt lat="47.31895" lon="6.08516">
        <ele>448.59</ele>
        <time>2018-08-26T06:51:09Z</time>
      </trkpt>
      <trkpt lat="47.31897" lon="6.08524">
        <ele>448.59</ele>
        <time>2018-08-26T06:51:11Z</time>
      </trkpt>
      <trkpt lat="47.31899" lon="6.08528">
        <ele>449.07</ele>
        <time>2018-08-26T06:51:12Z</time>
      </trkpt>
      <trkpt lat="47.319" lon="6.08533">
        <ele>448.59</ele>
        <time>2018-08-26T06:51:13Z</time>
      </trkpt>
      <trkpt lat="47.31902" lon="6.08537">
        <ele>449.07</ele>
        <time>2018-08-26T06:51:14Z</time>
      </trkpt>
      <trkpt lat="47.31904" lon="6.08542">
        <ele>449.07</ele>
        <time>2018-08-26T06:51:15Z</time>
      </trkpt>
      <trkpt lat="47.31907" lon="6.08546">
        <ele>449.07</ele>
        <time>2018-08-26T06:51:16Z</time>
      </trkpt>
      <trkpt lat="47.31909" lon="6.0855">
        <ele>449.55</ele>
        <time>2018-08-26T06:51:17Z</time>
      </trkpt>
      <trkpt lat="47.31919" lon="6.08586">
        <ele>451</ele>
        <time>2018-08-26T06:51:26Z</time>
      </trkpt>
      <trkpt lat="47.31919" lon="6.08593">
        <ele>451</ele>
        <time>2018-08-26T06:51:29Z</time>
      </trkpt>
      <trkpt lat="47.31919" lon="6.08595">
        <ele>451</ele>
        <time>2018-08-26T06:51:30Z</time>
      </trkpt>
      <trkpt lat="47.31921" lon="6.08602">
        <ele>451.48</ele>
        <time>2018-08-26T06:51:32Z</time>
      </trkpt>
      <trkpt lat="47.31921" lon="6.08605">
        <ele>451.48</ele>
        <time>2018-08-26T06:51:33Z</time>
      </trkpt>
      <trkpt lat="47.31922" lon="6.08609">
        <ele>451.96</ele>
        <time>2018-08-26T06:51:34Z</time>
      </trkpt>
      <trkpt lat="47.31923" lon="6.08613">
        <ele>451.96</ele>
        <time>2018-08-26T06:51:35Z</time>
      </trkpt>
      <trkpt lat="47.3193" lon="6.08629">
        <ele>452.44</ele>
        <time>2018-08-26T06:51:39Z</time>
      </trkpt>
      <trkpt lat="47.31932" lon="6.08633">
        <ele>452.44</ele>
        <time>2018-08-26T06:51:40Z</time>
      </trkpt>
      <trkpt lat="47.31933" lon="6.08638">
        <ele>452.44</ele>
        <time>2018-08-26T06:51:41Z</time>
      </trkpt>
      <trkpt lat="47.31933" lon="6.0864">
        <ele>452.92</ele>
        <time>2018-08-26T06:51:42Z</time>
      </trkpt>
      <trkpt lat="47.31934" lon="6.08642">
        <ele>452.92</ele>
        <time>2018-08-26T06:51:43Z</time>
      </trkpt>
      <trkpt lat="47.3195" lon="6.08688">
        <ele>453.4</ele>
        <time>2018-08-26T06:51:53Z</time>
      </trkpt>
      <trkpt lat="47.31951" lon="6.08692">
        <ele>453.4</ele>
        <time>2018-08-26T06:51:54Z</time>
      </trkpt>
      <trkpt lat="47.31951" lon="6.08695">
        <ele>453.4</ele>
        <time>2018-08-26T06:51:55Z</time>
      </trkpt>
      <trkpt lat="47.31952" lon="6.08698">
        <ele>453.4</ele>
        <time>2018-08-26T06:51:56Z</time>
      </trkpt>
      <trkpt lat="47.31953" lon="6.08701">
        <ele>453.88</ele>
        <time>2018-08-26T06:51:57Z</time>
      </trkpt>
      <trkpt lat="47.31954" lon="6.08704">
        <ele>453.88</ele>
        <time>2018-08-26T06:51:58Z</time>
      </trkpt>
      <trkpt lat="47.31956" lon="6.08707">
        <ele>453.88</ele>
        <time>2018-08-26T06:51:59Z</time>
      </trkpt>
      <trkpt lat="47.31957" lon="6.0871">
        <ele>453.88</ele>
        <time>2018-08-26T06:52:00Z</time>
      </trkpt>
      <trkpt lat="47.31964" lon="6.08731">
        <ele>454.36</ele>
        <time>2018-08-26T06:52:06Z</time>
      </trkpt>
      <trkpt lat="47.31965" lon="6.08734">
        <ele>454.36</ele>
        <time>2018-08-26T06:52:07Z</time>
      </trkpt>
      <trkpt lat="47.31966" lon="6.08738">
        <ele>454.36</ele>
        <time>2018-08-26T06:52:08Z</time>
      </trkpt>
      <trkpt lat="47.31968" lon="6.08742">
        <ele>454.36</ele>
        <time>2018-08-26T06:52:09Z</time>
      </trkpt>
      <trkpt lat="47.3198" lon="6.08788">
        <ele>455.32</ele>
        <time>2018-08-26T06:52:21Z</time>
      </trkpt>
      <trkpt lat="47.31985" lon="6.08803">
        <ele>455.32</ele>
        <time>2018-08-26T06:52:26Z</time>
      </trkpt>
      <trkpt lat="47.31986" lon="6.08805">
        <ele>455.8</ele>
        <time>2018-08-26T06:52:27Z</time>
      </trkpt>
      <trkpt lat="47.31988" lon="6.08815">
        <ele>456.28</ele>
        <time>2018-08-26T06:52:30Z</time>
      </trkpt>
      <trkpt lat="47.31989" lon="6.08818">
        <ele>456.28</ele>
        <time>2018-08-26T06:52:31Z</time>
      </trkpt>
      <trkpt lat="47.31993" lon="6.08827">
        <ele>456.76</ele>
        <time>2018-08-26T06:52:34Z</time>
      </trkpt>
      <trkpt lat="47.31993" lon="6.0883">
        <ele>456.76</ele>
        <time>2018-08-26T06:52:35Z</time>
      </trkpt>
      <trkpt lat="47.31994" lon="6.08833">
        <ele>456.76</ele>
        <time>2018-08-26T06:52:36Z</time>
      </trkpt>
      <trkpt lat="47.31994" lon="6.08836">
        <ele>456.76</ele>
        <time>2018-08-26T06:52:37Z</time>
      </trkpt>
      <trkpt lat="47.31995" lon="6.08839">
        <ele>457.24</ele>
        <time>2018-08-26T06:52:38Z</time>
      </trkpt>
      <trkpt lat="47.31995" lon="6.08842">
        <ele>457.24</ele>
        <time>2018-08-26T06:52:39Z</time>
      </trkpt>
      <trkpt lat="47.31996" lon="6.08845">
        <ele>457.72</ele>
        <time>2018-08-26T06:52:40Z</time>
      </trkpt>
      <trkpt lat="47.31997" lon="6.08849">
        <ele>457.72</ele>
        <time>2018-08-26T06:52:41Z</time>
      </trkpt>
      <trkpt lat="47.31998" lon="6.08853">
        <ele>457.72</ele>
        <time>2018-08-26T06:52:42Z</time>
      </trkpt>
      <trkpt lat="47.32" lon="6.08857">
        <ele>457.72</ele>
        <time>2018-08-26T06:52:43Z</time>
      </trkpt>
      <trkpt lat="47.32001" lon="6.08861">
        <ele>457.72</ele>
        <time>2018-08-26T06:52:44Z</time>
      </trkpt>
      <trkpt lat="47.32002" lon="6.08865">
        <ele>458.21</ele>
        <time>2018-08-26T06:52:45Z</time>
      </trkpt>
      <trkpt lat="47.32003" lon="6.08868">
        <ele>458.21</ele>
        <time>2018-08-26T06:52:46Z</time>
      </trkpt>
      <trkpt lat="47.32005" lon="6.08871">
        <ele>458.21</ele>
        <time>2018-08-26T06:52:47Z</time>
      </trkpt>
      <trkpt lat="47.32006" lon="6.08875">
        <ele>458.69</ele>
        <time>2018-08-26T06:52:48Z</time>
      </trkpt>
      <trkpt lat="47.32007" lon="6.08879">
        <ele>458.69</ele>
        <time>2018-08-26T06:52:49Z</time>
      </trkpt>
      <trkpt lat="47.32018" lon="6.08915">
        <ele>461.09</ele>
        <time>2018-08-26T06:53:01Z</time>
      </trkpt>
      <trkpt lat="47.32021" lon="6.08924">
        <ele>461.57</ele>
        <time>2018-08-26T06:53:04Z</time>
      </trkpt>
      <trkpt lat="47.32022" lon="6.08928">
        <ele>462.05</ele>
        <time>2018-08-26T06:53:05Z</time>
      </trkpt>
      <trkpt lat="47.32023" lon="6.08931">
        <ele>462.05</ele>
        <time>2018-08-26T06:53:06Z</time>
      </trkpt>
      <trkpt lat="47.32024" lon="6.08934">
        <ele>462.05</ele>
        <time>2018-08-26T06:53:07Z</time>
      </trkpt>
      <trkpt lat="47.32025" lon="6.08938">
        <ele>462.53</ele>
        <time>2018-08-26T06:53:08Z</time>
      </trkpt>
      <trkpt lat="47.32028" lon="6.08951">
        <ele>463.49</ele>
        <time>2018-08-26T06:53:12Z</time>
      </trkpt>
      <trkpt lat="47.32028" lon="6.08953">
        <ele>463.49</ele>
        <time>2018-08-26T06:53:13Z</time>
      </trkpt>
      <trkpt lat="47.32029" lon="6.08955">
        <ele>463.49</ele>
        <time>2018-08-26T06:53:14Z</time>
      </trkpt>
      <trkpt lat="47.32039" lon="6.08983">
        <ele>466.86</ele>
        <time>2018-08-26T06:53:25Z</time>
      </trkpt>
      <trkpt lat="47.32042" lon="6.08991">
        <ele>467.82</ele>
        <time>2018-08-26T06:53:28Z</time>
      </trkpt>
      <trkpt lat="47.32043" lon="6.08994">
        <ele>467.82</ele>
        <time>2018-08-26T06:53:29Z</time>
      </trkpt>
      <trkpt lat="47.32044" lon="6.08996">
        <ele>468.3</ele>
        <time>2018-08-26T06:53:30Z</time>
      </trkpt>
      <trkpt lat="47.32044" lon="6.08999">
        <ele>468.3</ele>
        <time>2018-08-26T06:53:31Z</time>
      </trkpt>
      <trkpt lat="47.32046" lon="6.09002">
        <ele>468.78</ele>
        <time>2018-08-26T06:53:32Z</time>
      </trkpt>
      <trkpt lat="47.32048" lon="6.09004">
        <ele>468.78</ele>
        <time>2018-08-26T06:53:33Z</time>
      </trkpt>
      <trkpt lat="47.32049" lon="6.09007">
        <ele>469.26</ele>
        <time>2018-08-26T06:53:34Z</time>
      </trkpt>
      <trkpt lat="47.32049" lon="6.0901">
        <ele>469.26</ele>
        <time>2018-08-26T06:53:35Z</time>
      </trkpt>
      <trkpt lat="47.32049" lon="6.09012">
        <ele>469.74</ele>
        <time>2018-08-26T06:53:36Z</time>
      </trkpt>
      <trkpt lat="47.32049" lon="6.09016">
        <ele>470.22</ele>
        <time>2018-08-26T06:53:38Z</time>
      </trkpt>
      <trkpt lat="47.32049" lon="6.09019">
        <ele>470.22</ele>
        <time>2018-08-26T06:53:39Z</time>
      </trkpt>
      <trkpt lat="47.3205" lon="6.09021">
        <ele>470.7</ele>
        <time>2018-08-26T06:53:40Z</time>
      </trkpt>
      <trkpt lat="47.32052" lon="6.09024">
        <ele>471.18</ele>
        <time>2018-08-26T06:53:41Z</time>
      </trkpt>
      <trkpt lat="47.32053" lon="6.09026">
        <ele>471.18</ele>
        <time>2018-08-26T06:53:42Z</time>
      </trkpt>
      <trkpt lat="47.32055" lon="6.09029">
        <ele>471.66</ele>
        <time>2018-08-26T06:53:43Z</time>
      </trkpt>
      <trkpt lat="47.32057" lon="6.09031">
        <ele>471.66</ele>
        <time>2018-08-26T06:53:44Z</time>
      </trkpt>
      <trkpt lat="47.32058" lon="6.09034">
        <ele>472.14</ele>
        <time>2018-08-26T06:53:45Z</time>
      </trkpt>
      <trkpt lat="47.32058" lon="6.09035">
        <ele>472.14</ele>
        <time>2018-08-26T06:53:46Z</time>
      </trkpt>
      <trkpt lat="47.32065" lon="6.09051">
        <ele>473.59</ele>
        <time>2018-08-26T06:53:51Z</time>
      </trkpt>
      <trkpt lat="47.32066" lon="6.09054">
        <ele>473.59</ele>
        <time>2018-08-26T06:53:52Z</time>
      </trkpt>
      <trkpt lat="47.32067" lon="6.09056">
        <ele>473.59</ele>
        <time>2018-08-26T06:53:53Z</time>
      </trkpt>
      <trkpt lat="47.32071" lon="6.09069">
        <ele>474.55</ele>
        <time>2018-08-26T06:53:57Z</time>
      </trkpt>
      <trkpt lat="47.32072" lon="6.09072">
        <ele>475.03</ele>
        <time>2018-08-26T06:53:58Z</time>
      </trkpt>
      <trkpt lat="47.32073" lon="6.09075">
        <ele>474.55</ele>
        <time>2018-08-26T06:53:59Z</time>
      </trkpt>
      <trkpt lat="47.32076" lon="6.09086">
        <ele>475.51</ele>
        <time>2018-08-26T06:54:03Z</time>
      </trkpt>
      <trkpt lat="47.32083" lon="6.09103">
        <ele>477.43</ele>
        <time>2018-08-26T06:54:12Z</time>
      </trkpt>
      <trkpt lat="47.32083" lon="6.09106">
        <ele>477.91</ele>
        <time>2018-08-26T06:54:13Z</time>
      </trkpt>
      <trkpt lat="47.32084" lon="6.09108">
        <ele>477.91</ele>
        <time>2018-08-26T06:54:14Z</time>
      </trkpt>
      <trkpt lat="47.32088" lon="6.09123">
        <ele>479.35</ele>
        <time>2018-08-26T06:54:20Z</time>
      </trkpt>
      <trkpt lat="47.32089" lon="6.09126">
        <ele>479.84</ele>
        <time>2018-08-26T06:54:21Z</time>
      </trkpt>
      <trkpt lat="47.3209" lon="6.09128">
        <ele>479.84</ele>
        <time>2018-08-26T06:54:22Z</time>
      </trkpt>
      <trkpt lat="47.32091" lon="6.0913">
        <ele>480.32</ele>
        <time>2018-08-26T06:54:23Z</time>
      </trkpt>
      <trkpt lat="47.32092" lon="6.09133">
        <ele>480.32</ele>
        <time>2018-08-26T06:54:24Z</time>
      </trkpt>
      <trkpt lat="47.32095" lon="6.09139">
        <ele>480.8</ele>
        <time>2018-08-26T06:54:27Z</time>
      </trkpt>
      <trkpt lat="47.32098" lon="6.09143">
        <ele>480.8</ele>
        <time>2018-08-26T06:54:29Z</time>
      </trkpt>
      <trkpt lat="47.321" lon="6.09147">
        <ele>481.28</ele>
        <time>2018-08-26T06:54:30Z</time>
      </trkpt>
      <trkpt lat="47.32101" lon="6.0915">
        <ele>481.28</ele>
        <time>2018-08-26T06:54:31Z</time>
      </trkpt>
      <trkpt lat="47.32102" lon="6.09153">
        <ele>481.76</ele>
        <time>2018-08-26T06:54:32Z</time>
      </trkpt>
      <trkpt lat="47.32103" lon="6.09155">
        <ele>481.76</ele>
        <time>2018-08-26T06:54:33Z</time>
      </trkpt>
      <trkpt lat="47.32105" lon="6.09157">
        <ele>481.76</ele>
        <time>2018-08-26T06:54:34Z</time>
      </trkpt>
      <trkpt lat="47.32106" lon="6.09158">
        <ele>482.24</ele>
        <time>2018-08-26T06:54:35Z</time>
      </trkpt>
      <trkpt lat="47.32115" lon="6.09183">
        <ele>484.16</ele>
        <time>2018-08-26T06:54:45Z</time>
      </trkpt>
      <trkpt lat="47.3212" lon="6.09195">
        <ele>485.12</ele>
        <time>2018-08-26T06:54:51Z</time>
      </trkpt>
      <trkpt lat="47.32121" lon="6.09197">
        <ele>485.6</ele>
        <time>2018-08-26T06:54:52Z</time>
      </trkpt>
      <trkpt lat="47.32123" lon="6.09201">
        <ele>486.08</ele>
        <time>2018-08-26T06:54:54Z</time>
      </trkpt>
      <trkpt lat="47.32124" lon="6.09203">
        <ele>486.56</ele>
        <time>2018-08-26T06:54:55Z</time>
      </trkpt>
      <trkpt lat="47.32124" lon="6.09205">
        <ele>486.56</ele>
        <time>2018-08-26T06:54:56Z</time>
      </trkpt>
      <trkpt lat="47.32128" lon="6.09215">
        <ele>488.01</ele>
        <time>2018-08-26T06:55:00Z</time>
      </trkpt>
      <trkpt lat="47.32139" lon="6.0924">
        <ele>490.89</ele>
        <time>2018-08-26T06:55:12Z</time>
      </trkpt>
      <trkpt lat="47.32139" lon="6.09242">
        <ele>490.89</ele>
        <time>2018-08-26T06:55:13Z</time>
      </trkpt>
      <trkpt lat="47.32146" lon="6.09254">
        <ele>492.33</ele>
        <time>2018-08-26T06:55:20Z</time>
      </trkpt>
      <trkpt lat="47.32147" lon="6.09256">
        <ele>492.81</ele>
        <time>2018-08-26T06:55:21Z</time>
      </trkpt>
      <trkpt lat="47.32148" lon="6.09258">
        <ele>493.29</ele>
        <time>2018-08-26T06:55:22Z</time>
      </trkpt>
      <trkpt lat="47.32156" lon="6.09272">
        <ele>496.18</ele>
        <time>2018-08-26T06:55:32Z</time>
      </trkpt>
      <trkpt lat="47.32158" lon="6.09275">
        <ele>496.66</ele>
        <time>2018-08-26T06:55:34Z</time>
      </trkpt>
      <trkpt lat="47.3216" lon="6.09276">
        <ele>497.14</ele>
        <time>2018-08-26T06:55:35Z</time>
      </trkpt>
      <trkpt lat="47.32167" lon="6.09292">
        <ele>499.54</ele>
        <time>2018-08-26T06:55:46Z</time>
      </trkpt>
      <trkpt lat="47.32171" lon="6.09298">
        <ele>500.5</ele>
        <time>2018-08-26T06:55:50Z</time>
      </trkpt>
      <trkpt lat="47.32171" lon="6.093">
        <ele>500.98</ele>
        <time>2018-08-26T06:55:51Z</time>
      </trkpt>
      <trkpt lat="47.32173" lon="6.09302">
        <ele>500.98</ele>
        <time>2018-08-26T06:55:52Z</time>
      </trkpt>
      <trkpt lat="47.32178" lon="6.09313">
        <ele>502.43</ele>
        <time>2018-08-26T06:55:58Z</time>
      </trkpt>
      <trkpt lat="47.32179" lon="6.09315">
        <ele>502.43</ele>
        <time>2018-08-26T06:55:59Z</time>
      </trkpt>
      <trkpt lat="47.32184" lon="6.09329">
        <ele>503.87</ele>
        <time>2018-08-26T06:56:06Z</time>
      </trkpt>
      <trkpt lat="47.32185" lon="6.09332">
        <ele>503.87</ele>
        <time>2018-08-26T06:56:07Z</time>
      </trkpt>
      <trkpt lat="47.32186" lon="6.09334">
        <ele>504.35</ele>
        <time>2018-08-26T06:56:08Z</time>
      </trkpt>
      <trkpt lat="47.32187" lon="6.09336">
        <ele>504.83</ele>
        <time>2018-08-26T06:56:09Z</time>
      </trkpt>
      <trkpt lat="47.32188" lon="6.09338">
        <ele>504.83</ele>
        <time>2018-08-26T06:56:10Z</time>
      </trkpt>
      <trkpt lat="47.32197" lon="6.09352">
        <ele>506.75</ele>
        <time>2018-08-26T06:56:19Z</time>
      </trkpt>
      <trkpt lat="47.32199" lon="6.09355">
        <ele>506.75</ele>
        <time>2018-08-26T06:56:21Z</time>
      </trkpt>
      <trkpt lat="47.32201" lon="6.09359">
        <ele>507.23</ele>
        <time>2018-08-26T06:56:23Z</time>
      </trkpt>
      <trkpt lat="47.32202" lon="6.09361">
        <ele>507.23</ele>
        <time>2018-08-26T06:56:24Z</time>
      </trkpt>
      <trkpt lat="47.32202" lon="6.09363">
        <ele>507.23</ele>
        <time>2018-08-26T06:56:25Z</time>
      </trkpt>
      <trkpt lat="47.32211" lon="6.09381">
        <ele>510.12</ele>
        <time>2018-08-26T06:56:35Z</time>
      </trkpt>
      <trkpt lat="47.32215" lon="6.09389">
        <ele>510.6</ele>
        <time>2018-08-26T06:56:39Z</time>
      </trkpt>
      <trkpt lat="47.32217" lon="6.09393">
        <ele>511.08</ele>
        <time>2018-08-26T06:56:41Z</time>
      </trkpt>
      <trkpt lat="47.32218" lon="6.09394">
        <ele>511.08</ele>
        <time>2018-08-26T06:56:42Z</time>
      </trkpt>
      <trkpt lat="47.32219" lon="6.09396">
        <ele>511.08</ele>
        <time>2018-08-26T06:56:43Z</time>
      </trkpt>
      <trkpt lat="47.3222" lon="6.09397">
        <ele>511.56</ele>
        <time>2018-08-26T06:56:44Z</time>
      </trkpt>
      <trkpt lat="47.32223" lon="6.09404">
        <ele>512.04</ele>
        <time>2018-08-26T06:56:48Z</time>
      </trkpt>
      <trkpt lat="47.32225" lon="6.09406">
        <ele>512.04</ele>
        <time>2018-08-26T06:56:49Z</time>
      </trkpt>
      <trkpt lat="47.32226" lon="6.09408">
        <ele>512.52</ele>
        <time>2018-08-26T06:56:50Z</time>
      </trkpt>
      <trkpt lat="47.32228" lon="6.09413">
        <ele>512.52</ele>
        <time>2018-08-26T06:56:52Z</time>
      </trkpt>
      <trkpt lat="47.32229" lon="6.09415">
        <ele>513</ele>
        <time>2018-08-26T06:56:53Z</time>
      </trkpt>
      <trkpt lat="47.3223" lon="6.09417">
        <ele>513</ele>
        <time>2018-08-26T06:56:54Z</time>
      </trkpt>
      <trkpt lat="47.32231" lon="6.09419">
        <ele>513.48</ele>
        <time>2018-08-26T06:56:55Z</time>
      </trkpt>
      <trkpt lat="47.32235" lon="6.09432">
        <ele>514.92</ele>
        <time>2018-08-26T06:57:02Z</time>
      </trkpt>
      <trkpt lat="47.32239" lon="6.09439">
        <ele>515.88</ele>
        <time>2018-08-26T06:57:05Z</time>
      </trkpt>
      <trkpt lat="47.32249" lon="6.09463">
        <ele>518.29</ele>
        <time>2018-08-26T06:57:16Z</time>
      </trkpt>
      <trkpt lat="47.32253" lon="6.09469">
        <ele>519.25</ele>
        <time>2018-08-26T06:57:19Z</time>
      </trkpt>
      <trkpt lat="47.32255" lon="6.09473">
        <ele>519.73</ele>
        <time>2018-08-26T06:57:21Z</time>
      </trkpt>
      <trkpt lat="47.32256" lon="6.09475">
        <ele>520.21</ele>
        <time>2018-08-26T06:57:22Z</time>
      </trkpt>
      <trkpt lat="47.32257" lon="6.09477">
        <ele>520.21</ele>
        <time>2018-08-26T06:57:23Z</time>
      </trkpt>
      <trkpt lat="47.32266" lon="6.09495">
        <ele>522.61</ele>
        <time>2018-08-26T06:57:33Z</time>
      </trkpt>
      <trkpt lat="47.32267" lon="6.09498">
        <ele>523.09</ele>
        <time>2018-08-26T06:57:34Z</time>
      </trkpt>
      <trkpt lat="47.32278" lon="6.09519">
        <ele>525.5</ele>
        <time>2018-08-26T06:57:44Z</time>
      </trkpt>
      <trkpt lat="47.32279" lon="6.09521">
        <ele>525.5</ele>
        <time>2018-08-26T06:57:45Z</time>
      </trkpt>
      <trkpt lat="47.32279" lon="6.09524">
        <ele>525.5</ele>
        <time>2018-08-26T06:57:46Z</time>
      </trkpt>
      <trkpt lat="47.32281" lon="6.09526">
        <ele>525.98</ele>
        <time>2018-08-26T06:57:47Z</time>
      </trkpt>
      <trkpt lat="47.32282" lon="6.09529">
        <ele>525.98</ele>
        <time>2018-08-26T06:57:48Z</time>
      </trkpt>
      <trkpt lat="47.32283" lon="6.0953">
        <ele>526.46</ele>
        <time>2018-08-26T06:57:49Z</time>
      </trkpt>
      <trkpt lat="47.32284" lon="6.09533">
        <ele>526.46</ele>
        <time>2018-08-26T06:57:50Z</time>
      </trkpt>
      <trkpt lat="47.32285" lon="6.09535">
        <ele>526.46</ele>
        <time>2018-08-26T06:57:51Z</time>
      </trkpt>
      <trkpt lat="47.32286" lon="6.09537">
        <ele>526.94</ele>
        <time>2018-08-26T06:57:52Z</time>
      </trkpt>
      <trkpt lat="47.32288" lon="6.09539">
        <ele>526.94</ele>
        <time>2018-08-26T06:57:53Z</time>
      </trkpt>
      <trkpt lat="47.32289" lon="6.09541">
        <ele>527.42</ele>
        <time>2018-08-26T06:57:54Z</time>
      </trkpt>
      <trkpt lat="47.3229" lon="6.09543">
        <ele>527.42</ele>
        <time>2018-08-26T06:57:55Z</time>
      </trkpt>
      <trkpt lat="47.32299" lon="6.0956">
        <ele>528.86</ele>
        <time>2018-08-26T06:58:04Z</time>
      </trkpt>
      <trkpt lat="47.323" lon="6.09562">
        <ele>529.34</ele>
        <time>2018-08-26T06:58:05Z</time>
      </trkpt>
      <trkpt lat="47.32301" lon="6.09564">
        <ele>529.34</ele>
        <time>2018-08-26T06:58:06Z</time>
      </trkpt>
      <trkpt lat="47.32304" lon="6.09572">
        <ele>529.82</ele>
        <time>2018-08-26T06:58:10Z</time>
      </trkpt>
      <trkpt lat="47.32305" lon="6.09575">
        <ele>529.82</ele>
        <time>2018-08-26T06:58:11Z</time>
      </trkpt>
      <trkpt lat="47.32308" lon="6.09579">
        <ele>529.82</ele>
        <time>2018-08-26T06:58:13Z</time>
      </trkpt>
      <trkpt lat="47.3231" lon="6.09583">
        <ele>530.3</ele>
        <time>2018-08-26T06:58:15Z</time>
      </trkpt>
      <trkpt lat="47.32315" lon="6.09593">
        <ele>530.79</ele>
        <time>2018-08-26T06:58:19Z</time>
      </trkpt>
      <trkpt lat="47.3232" lon="6.096">
        <ele>530.79</ele>
        <time>2018-08-26T06:58:23Z</time>
      </trkpt>
      <trkpt lat="47.32321" lon="6.09602">
        <ele>530.79</ele>
        <time>2018-08-26T06:58:24Z</time>
      </trkpt>
      <trkpt lat="47.32328" lon="6.09611">
        <ele>531.75</ele>
        <time>2018-08-26T06:58:30Z</time>
      </trkpt>
      <trkpt lat="47.32329" lon="6.09612">
        <ele>531.75</ele>
        <time>2018-08-26T06:58:31Z</time>
      </trkpt>
      <trkpt lat="47.32331" lon="6.09613">
        <ele>532.23</ele>
        <time>2018-08-26T06:58:32Z</time>
      </trkpt>
      <trkpt lat="47.32333" lon="6.09613">
        <ele>532.71</ele>
        <time>2018-08-26T06:58:33Z</time>
      </trkpt>
      <trkpt lat="47.32338" lon="6.0961">
        <ele>535.59</ele>
        <time>2018-08-26T06:58:43Z</time>
      </trkpt>
      <trkpt lat="47.32342" lon="6.09608">
        <ele>537.99</ele>
        <time>2018-08-26T06:58:56Z</time>
      </trkpt>
      <trkpt lat="47.32345" lon="6.09603">
        <ele>539.44</ele>
        <time>2018-08-26T06:59:10Z</time>
      </trkpt>
      <trkpt lat="47.32349" lon="6.09598">
        <ele>541.36</ele>
        <time>2018-08-26T06:59:23Z</time>
      </trkpt>
      <trkpt lat="47.3235" lon="6.09597">
        <ele>541.36</ele>
        <time>2018-08-26T06:59:24Z</time>
      </trkpt>
      <trkpt lat="47.32351" lon="6.09595">
        <ele>541.84</ele>
        <time>2018-08-26T06:59:25Z</time>
      </trkpt>
      <trkpt lat="47.32354" lon="6.09591">
        <ele>542.8</ele>
        <time>2018-08-26T06:59:34Z</time>
      </trkpt>
      <trkpt lat="47.32357" lon="6.09586">
        <ele>544.72</ele>
        <time>2018-08-26T06:59:45Z</time>
      </trkpt>
      <trkpt lat="47.32365" lon="6.09578">
        <ele>546.65</ele>
        <time>2018-08-26T06:59:58Z</time>
      </trkpt>
      <trkpt lat="47.32368" lon="6.09576">
        <ele>548.09</ele>
        <time>2018-08-26T07:00:11Z</time>
      </trkpt>
      <trkpt lat="47.32369" lon="6.09575">
        <ele>549.53</ele>
        <time>2018-08-26T07:00:16Z</time>
      </trkpt>
      <trkpt lat="47.32373" lon="6.09566">
        <ele>551.45</ele>
        <time>2018-08-26T07:00:27Z</time>
      </trkpt>
      <trkpt lat="47.32385" lon="6.09553">
        <ele>553.38</ele>
        <time>2018-08-26T07:00:40Z</time>
      </trkpt>
      <trkpt lat="47.32394" lon="6.09544">
        <ele>555.78</ele>
        <time>2018-08-26T07:00:51Z</time>
      </trkpt>
      <trkpt lat="47.32404" lon="6.09535">
        <ele>558.66</ele>
        <time>2018-08-26T07:01:00Z</time>
      </trkpt>
      <trkpt lat="47.32415" lon="6.09524">
        <ele>561.55</ele>
        <time>2018-08-26T07:01:11Z</time>
      </trkpt>
      <trkpt lat="47.32427" lon="6.0951">
        <ele>563.95</ele>
        <time>2018-08-26T07:01:24Z</time>
      </trkpt>
      <trkpt lat="47.32436" lon="6.09498">
        <ele>565.87</ele>
        <time>2018-08-26T07:01:35Z</time>
      </trkpt>
      <trkpt lat="47.32451" lon="6.09485">
        <ele>568.28</ele>
        <time>2018-08-26T07:01:48Z</time>
      </trkpt>
      <trkpt lat="47.32458" lon="6.09477">
        <ele>569.24</ele>
        <time>2018-08-26T07:01:54Z</time>
      </trkpt>
      <trkpt lat="47.3247" lon="6.09484">
        <ele>570.2</ele>
        <time>2018-08-26T07:02:04Z</time>
      </trkpt>
      <trkpt lat="47.32472" lon="6.09485">
        <ele>569.24</ele>
        <time>2018-08-26T07:02:05Z</time>
      </trkpt>
      <trkpt lat="47.32479" lon="6.09484">
        <ele>571.16</ele>
        <time>2018-08-26T07:02:09Z</time>
      </trkpt>
      <trkpt lat="47.3249" lon="6.09478">
        <ele>572.12</ele>
        <time>2018-08-26T07:02:17Z</time>
      </trkpt>
      <trkpt lat="47.32492" lon="6.09479">
        <ele>572.6</ele>
        <time>2018-08-26T07:02:19Z</time>
      </trkpt>
      <trkpt lat="47.32509" lon="6.09494">
        <ele>574.04</ele>
        <time>2018-08-26T07:02:32Z</time>
      </trkpt>
      <trkpt lat="47.32527" lon="6.09508">
        <ele>575.01</ele>
        <time>2018-08-26T07:02:42Z</time>
      </trkpt>
      <trkpt lat="47.32529" lon="6.0951">
        <ele>575.01</ele>
        <time>2018-08-26T07:02:43Z</time>
      </trkpt>
      <trkpt lat="47.32534" lon="6.09536">
        <ele>574.53</ele>
        <time>2018-08-26T07:02:51Z</time>
      </trkpt>
      <trkpt lat="47.32546" lon="6.09563">
        <ele>574.04</ele>
        <time>2018-08-26T07:03:00Z</time>
      </trkpt>
      <trkpt lat="47.32576" lon="6.09569">
        <ele>573.56</ele>
        <time>2018-08-26T07:03:11Z</time>
      </trkpt>
      <trkpt lat="47.32605" lon="6.09565">
        <ele>570.68</ele>
        <time>2018-08-26T07:03:19Z</time>
      </trkpt>
      <trkpt lat="47.32626" lon="6.09586">
        <ele>568.76</ele>
        <time>2018-08-26T07:03:27Z</time>
      </trkpt>
      <trkpt lat="47.32629" lon="6.09592">
        <ele>568.28</ele>
        <time>2018-08-26T07:03:28Z</time>
      </trkpt>
      <trkpt lat="47.32632" lon="6.09599">
        <ele>568.28</ele>
        <time>2018-08-26T07:03:29Z</time>
      </trkpt>
      <trkpt lat="47.32633" lon="6.09605">
        <ele>567.8</ele>
        <time>2018-08-26T07:03:30Z</time>
      </trkpt>
      <trkpt lat="47.32638" lon="6.09625">
        <ele>566.83</ele>
        <time>2018-08-26T07:03:33Z</time>
      </trkpt>
      <trkpt lat="47.32641" lon="6.09632">
        <ele>566.35</ele>
        <time>2018-08-26T07:03:34Z</time>
      </trkpt>
      <trkpt lat="47.32644" lon="6.09638">
        <ele>566.35</ele>
        <time>2018-08-26T07:03:35Z</time>
      </trkpt>
      <trkpt lat="47.32647" lon="6.09644">
        <ele>566.35</ele>
        <time>2018-08-26T07:03:36Z</time>
      </trkpt>
      <trkpt lat="47.3265" lon="6.0965">
        <ele>566.35</ele>
        <time>2018-08-26T07:03:37Z</time>
      </trkpt>
      <trkpt lat="47.32651" lon="6.09656">
        <ele>566.35</ele>
        <time>2018-08-26T07:03:38Z</time>
      </trkpt>
      <trkpt lat="47.32653" lon="6.09662">
        <ele>565.87</ele>
        <time>2018-08-26T07:03:39Z</time>
      </trkpt>
      <trkpt lat="47.3266" lon="6.09678">
        <ele>565.39</ele>
        <time>2018-08-26T07:03:42Z</time>
      </trkpt>
      <trkpt lat="47.3267" lon="6.09687">
        <ele>565.87</ele>
        <time>2018-08-26T07:03:46Z</time>
      </trkpt>
      <trkpt lat="47.32671" lon="6.09689">
        <ele>565.87</ele>
        <time>2018-08-26T07:03:47Z</time>
      </trkpt>
      <trkpt lat="47.32674" lon="6.09696">
        <ele>565.87</ele>
        <time>2018-08-26T07:03:57Z</time>
      </trkpt>
      <trkpt lat="47.32674" lon="6.09698">
        <ele>565.87</ele>
        <time>2018-08-26T07:03:58Z</time>
      </trkpt>
      <trkpt lat="47.32675" lon="6.09701">
        <ele>565.39</ele>
        <time>2018-08-26T07:03:59Z</time>
      </trkpt>
      <trkpt lat="47.32676" lon="6.09704">
        <ele>566.83</ele>
        <time>2018-08-26T07:04:00Z</time>
      </trkpt>
      <trkpt lat="47.32677" lon="6.09708">
        <ele>565.87</ele>
        <time>2018-08-26T07:04:01Z</time>
      </trkpt>
      <trkpt lat="47.32679" lon="6.09712">
        <ele>565.87</ele>
        <time>2018-08-26T07:04:02Z</time>
      </trkpt>
      <trkpt lat="47.32683" lon="6.09754">
        <ele>568.28</ele>
        <time>2018-08-26T07:04:14Z</time>
      </trkpt>
      <trkpt lat="47.32684" lon="6.09762">
        <ele>568.76</ele>
        <time>2018-08-26T07:04:17Z</time>
      </trkpt>
      <trkpt lat="47.32685" lon="6.09764">
        <ele>569.24</ele>
        <time>2018-08-26T07:04:18Z</time>
      </trkpt>
      <trkpt lat="47.32685" lon="6.09767">
        <ele>569.24</ele>
        <time>2018-08-26T07:04:19Z</time>
      </trkpt>
      <trkpt lat="47.32686" lon="6.09774">
        <ele>569.72</ele>
        <time>2018-08-26T07:04:22Z</time>
      </trkpt>
      <trkpt lat="47.32686" lon="6.09778">
        <ele>570.2</ele>
        <time>2018-08-26T07:04:23Z</time>
      </trkpt>
      <trkpt lat="47.32688" lon="6.09799">
        <ele>571.64</ele>
        <time>2018-08-26T07:04:29Z</time>
      </trkpt>
      <trkpt lat="47.3269" lon="6.09805">
        <ele>572.12</ele>
        <time>2018-08-26T07:04:31Z</time>
      </trkpt>
      <trkpt lat="47.3269" lon="6.09809">
        <ele>572.6</ele>
        <time>2018-08-26T07:04:32Z</time>
      </trkpt>
      <trkpt lat="47.32691" lon="6.09812">
        <ele>572.6</ele>
        <time>2018-08-26T07:04:33Z</time>
      </trkpt>
      <trkpt lat="47.32691" lon="6.09815">
        <ele>573.08</ele>
        <time>2018-08-26T07:04:34Z</time>
      </trkpt>
      <trkpt lat="47.32692" lon="6.09819">
        <ele>573.08</ele>
        <time>2018-08-26T07:04:35Z</time>
      </trkpt>
      <trkpt lat="47.327" lon="6.09849">
        <ele>574.53</ele>
        <time>2018-08-26T07:04:44Z</time>
      </trkpt>
      <trkpt lat="47.32702" lon="6.09852">
        <ele>574.53</ele>
        <time>2018-08-26T07:04:45Z</time>
      </trkpt>
      <trkpt lat="47.32702" lon="6.09855">
        <ele>574.53</ele>
        <time>2018-08-26T07:04:46Z</time>
      </trkpt>
      <trkpt lat="47.32703" lon="6.09858">
        <ele>575.01</ele>
        <time>2018-08-26T07:04:47Z</time>
      </trkpt>
      <trkpt lat="47.32705" lon="6.09862">
        <ele>575.01</ele>
        <time>2018-08-26T07:04:48Z</time>
      </trkpt>
      <trkpt lat="47.32705" lon="6.09865">
        <ele>575.01</ele>
        <time>2018-08-26T07:04:49Z</time>
      </trkpt>
      <trkpt lat="47.32705" lon="6.09869">
        <ele>575.01</ele>
        <time>2018-08-26T07:04:50Z</time>
      </trkpt>
      <trkpt lat="47.32706" lon="6.09872">
        <ele>575.49</ele>
        <time>2018-08-26T07:04:51Z</time>
      </trkpt>
      <trkpt lat="47.32706" lon="6.09875">
        <ele>575.01</ele>
        <time>2018-08-26T07:04:52Z</time>
      </trkpt>
      <trkpt lat="47.32706" lon="6.09878">
        <ele>575.49</ele>
        <time>2018-08-26T07:04:53Z</time>
      </trkpt>
      <trkpt lat="47.32718" lon="6.09921">
        <ele>575.97</ele>
        <time>2018-08-26T07:05:03Z</time>
      </trkpt>
      <trkpt lat="47.32733" lon="6.09969">
        <ele>576.93</ele>
        <time>2018-08-26T07:05:13Z</time>
      </trkpt>
      <trkpt lat="47.32756" lon="6.10022">
        <ele>577.89</ele>
        <time>2018-08-26T07:05:25Z</time>
      </trkpt>
      <trkpt lat="47.32781" lon="6.1006">
        <ele>578.85</ele>
        <time>2018-08-26T07:05:35Z</time>
      </trkpt>
      <trkpt lat="47.32808" lon="6.1008">
        <ele>580.77</ele>
        <time>2018-08-26T07:05:44Z</time>
      </trkpt>
      <trkpt lat="47.32844" lon="6.101">
        <ele>582.7</ele>
        <time>2018-08-26T07:05:54Z</time>
      </trkpt>
      <trkpt lat="47.32867" lon="6.10133">
        <ele>582.7</ele>
        <time>2018-08-26T07:06:03Z</time>
      </trkpt>
      <trkpt lat="47.32872" lon="6.10137">
        <ele>583.18</ele>
        <time>2018-08-26T07:06:12Z</time>
      </trkpt>
      <trkpt lat="47.32872" lon="6.10137">
        <ele>583.18</ele>
        <time>2018-08-26T07:06:36Z</time>
      </trkpt>
      <trkpt lat="47.32874" lon="6.10139">
        <ele>583.18</ele>
        <time>2018-08-26T07:06:56Z</time>
      </trkpt>
      <trkpt lat="47.32879" lon="6.10152">
        <ele>583.18</ele>
        <time>2018-08-26T07:07:05Z</time>
      </trkpt>
      <trkpt lat="47.32881" lon="6.10154">
        <ele>583.18</ele>
        <time>2018-08-26T07:07:06Z</time>
      </trkpt>
      <trkpt lat="47.32882" lon="6.10157">
        <ele>583.18</ele>
        <time>2018-08-26T07:07:07Z</time>
      </trkpt>
      <trkpt lat="47.32892" lon="6.10171">
        <ele>583.18</ele>
        <time>2018-08-26T07:07:11Z</time>
      </trkpt>
      <trkpt lat="47.32894" lon="6.10177">
        <ele>583.18</ele>
        <time>2018-08-26T07:07:13Z</time>
      </trkpt>
      <trkpt lat="47.32898" lon="6.10181">
        <ele>582.7</ele>
        <time>2018-08-26T07:07:14Z</time>
      </trkpt>
      <trkpt lat="47.32901" lon="6.10186">
        <ele>582.7</ele>
        <time>2018-08-26T07:07:15Z</time>
      </trkpt>
      <trkpt lat="47.32904" lon="6.10191">
        <ele>582.7</ele>
        <time>2018-08-26T07:07:16Z</time>
      </trkpt>
      <trkpt lat="47.32908" lon="6.10196">
        <ele>582.22</ele>
        <time>2018-08-26T07:07:17Z</time>
      </trkpt>
      <trkpt lat="47.3293" lon="6.1023">
        <ele>579.33</ele>
        <time>2018-08-26T07:07:25Z</time>
      </trkpt>
      <trkpt lat="47.32933" lon="6.10235">
        <ele>578.85</ele>
        <time>2018-08-26T07:07:26Z</time>
      </trkpt>
      <trkpt lat="47.3294" lon="6.10252">
        <ele>575.97</ele>
        <time>2018-08-26T07:07:29Z</time>
      </trkpt>
      <trkpt lat="47.32943" lon="6.10259">
        <ele>575.01</ele>
        <time>2018-08-26T07:07:30Z</time>
      </trkpt>
      <trkpt lat="47.32947" lon="6.10273">
        <ele>574.04</ele>
        <time>2018-08-26T07:07:32Z</time>
      </trkpt>
      <trkpt lat="47.32963" lon="6.10333">
        <ele>572.6</ele>
        <time>2018-08-26T07:07:39Z</time>
      </trkpt>
      <trkpt lat="47.3297" lon="6.10357">
        <ele>571.64</ele>
        <time>2018-08-26T07:07:42Z</time>
      </trkpt>
      <trkpt lat="47.32971" lon="6.10365">
        <ele>571.16</ele>
        <time>2018-08-26T07:07:43Z</time>
      </trkpt>
      <trkpt lat="47.32974" lon="6.10382">
        <ele>570.2</ele>
        <time>2018-08-26T07:07:45Z</time>
      </trkpt>
      <trkpt lat="47.32977" lon="6.10391">
        <ele>569.72</ele>
        <time>2018-08-26T07:07:46Z</time>
      </trkpt>
      <trkpt lat="47.32981" lon="6.10401">
        <ele>569.24</ele>
        <time>2018-08-26T07:07:47Z</time>
      </trkpt>
      <trkpt lat="47.32988" lon="6.10419">
        <ele>567.32</ele>
        <time>2018-08-26T07:07:49Z</time>
      </trkpt>
      <trkpt lat="47.32993" lon="6.10427">
        <ele>566.83</ele>
        <time>2018-08-26T07:07:50Z</time>
      </trkpt>
      <trkpt lat="47.33003" lon="6.10443">
        <ele>566.83</ele>
        <time>2018-08-26T07:07:52Z</time>
      </trkpt>
      <trkpt lat="47.33007" lon="6.1045">
        <ele>565.87</ele>
        <time>2018-08-26T07:07:53Z</time>
      </trkpt>
      <trkpt lat="47.33028" lon="6.10476">
        <ele>564.91</ele>
        <time>2018-08-26T07:07:57Z</time>
      </trkpt>
      <trkpt lat="47.33037" lon="6.10485">
        <ele>564.91</ele>
        <time>2018-08-26T07:07:59Z</time>
      </trkpt>
      <trkpt lat="47.33041" lon="6.1049">
        <ele>564.91</ele>
        <time>2018-08-26T07:08:00Z</time>
      </trkpt>
      <trkpt lat="47.33053" lon="6.10502">
        <ele>563.95</ele>
        <time>2018-08-26T07:08:02Z</time>
      </trkpt>
      <trkpt lat="47.33066" lon="6.10512">
        <ele>563.47</ele>
        <time>2018-08-26T07:08:04Z</time>
      </trkpt>
      <trkpt lat="47.33078" lon="6.10522">
        <ele>563.47</ele>
        <time>2018-08-26T07:08:06Z</time>
      </trkpt>
      <trkpt lat="47.33083" lon="6.10527">
        <ele>562.99</ele>
        <time>2018-08-26T07:08:07Z</time>
      </trkpt>
      <trkpt lat="47.331" lon="6.10544">
        <ele>562.03</ele>
        <time>2018-08-26T07:08:10Z</time>
      </trkpt>
      <trkpt lat="47.3312" lon="6.10576">
        <ele>558.66</ele>
        <time>2018-08-26T07:08:14Z</time>
      </trkpt>
      <trkpt lat="47.33134" lon="6.10603">
        <ele>556.74</ele>
        <time>2018-08-26T07:08:17Z</time>
      </trkpt>
      <trkpt lat="47.33149" lon="6.10631">
        <ele>554.34</ele>
        <time>2018-08-26T07:08:20Z</time>
      </trkpt>
      <trkpt lat="47.3316" lon="6.10653">
        <ele>552.41</ele>
        <time>2018-08-26T07:08:22Z</time>
      </trkpt>
      <trkpt lat="47.33166" lon="6.10663">
        <ele>551.93</ele>
        <time>2018-08-26T07:08:23Z</time>
      </trkpt>
      <trkpt lat="47.33185" lon="6.10686">
        <ele>550.01</ele>
        <time>2018-08-26T07:08:26Z</time>
      </trkpt>
      <trkpt lat="47.33191" lon="6.10694">
        <ele>550.01</ele>
        <time>2018-08-26T07:08:27Z</time>
      </trkpt>
      <trkpt lat="47.33196" lon="6.107">
        <ele>549.53</ele>
        <time>2018-08-26T07:08:28Z</time>
      </trkpt>
      <trkpt lat="47.33202" lon="6.10706">
        <ele>549.05</ele>
        <time>2018-08-26T07:08:29Z</time>
      </trkpt>
      <trkpt lat="47.33209" lon="6.1071">
        <ele>549.05</ele>
        <time>2018-08-26T07:08:30Z</time>
      </trkpt>
      <trkpt lat="47.33215" lon="6.10715">
        <ele>548.57</ele>
        <time>2018-08-26T07:08:31Z</time>
      </trkpt>
      <trkpt lat="47.33227" lon="6.10723">
        <ele>548.09</ele>
        <time>2018-08-26T07:08:33Z</time>
      </trkpt>
      <trkpt lat="47.33233" lon="6.10725">
        <ele>548.09</ele>
        <time>2018-08-26T07:08:34Z</time>
      </trkpt>
      <trkpt lat="47.33241" lon="6.10727">
        <ele>548.09</ele>
        <time>2018-08-26T07:08:35Z</time>
      </trkpt>
      <trkpt lat="47.33248" lon="6.10727">
        <ele>548.09</ele>
        <time>2018-08-26T07:08:36Z</time>
      </trkpt>
      <trkpt lat="47.33254" lon="6.10728">
        <ele>548.09</ele>
        <time>2018-08-26T07:08:37Z</time>
      </trkpt>
      <trkpt lat="47.3326" lon="6.10731">
        <ele>547.61</ele>
        <time>2018-08-26T07:08:38Z</time>
      </trkpt>
      <trkpt lat="47.33272" lon="6.10736">
        <ele>547.13</ele>
        <time>2018-08-26T07:08:40Z</time>
      </trkpt>
      <trkpt lat="47.33278" lon="6.10739">
        <ele>547.13</ele>
        <time>2018-08-26T07:08:41Z</time>
      </trkpt>
      <trkpt lat="47.33283" lon="6.10742">
        <ele>547.13</ele>
        <time>2018-08-26T07:08:42Z</time>
      </trkpt>
      <trkpt lat="47.33298" lon="6.10756">
        <ele>547.13</ele>
        <time>2018-08-26T07:08:45Z</time>
      </trkpt>
      <trkpt lat="47.33309" lon="6.10775">
        <ele>546.17</ele>
        <time>2018-08-26T07:08:48Z</time>
      </trkpt>
      <trkpt lat="47.33311" lon="6.10781">
        <ele>546.17</ele>
        <time>2018-08-26T07:08:49Z</time>
      </trkpt>
      <trkpt lat="47.33314" lon="6.10788">
        <ele>546.17</ele>
        <time>2018-08-26T07:08:50Z</time>
      </trkpt>
      <trkpt lat="47.33321" lon="6.108">
        <ele>545.2</ele>
        <time>2018-08-26T07:08:52Z</time>
      </trkpt>
      <trkpt lat="47.33339" lon="6.10821">
        <ele>544.24</ele>
        <time>2018-08-26T07:08:56Z</time>
      </trkpt>
      <trkpt lat="47.33344" lon="6.10824">
        <ele>543.76</ele>
        <time>2018-08-26T07:08:57Z</time>
      </trkpt>
      <trkpt lat="47.33353" lon="6.10828">
        <ele>543.28</ele>
        <time>2018-08-26T07:08:59Z</time>
      </trkpt>
      <trkpt lat="47.33377" lon="6.10829">
        <ele>541.36</ele>
        <time>2018-08-26T07:09:07Z</time>
      </trkpt>
      <trkpt lat="47.33381" lon="6.1083">
        <ele>540.88</ele>
        <time>2018-08-26T07:09:08Z</time>
      </trkpt>
      <trkpt lat="47.33386" lon="6.10831">
        <ele>539.92</ele>
        <time>2018-08-26T07:09:09Z</time>
      </trkpt>
      <trkpt lat="47.33391" lon="6.10831">
        <ele>539.44</ele>
        <time>2018-08-26T07:09:10Z</time>
      </trkpt>
      <trkpt lat="47.33398" lon="6.10831">
        <ele>538.48</ele>
        <time>2018-08-26T07:09:11Z</time>
      </trkpt>
      <trkpt lat="47.33404" lon="6.10831">
        <ele>537.51</ele>
        <time>2018-08-26T07:09:12Z</time>
      </trkpt>
      <trkpt lat="47.3341" lon="6.10832">
        <ele>537.03</ele>
        <time>2018-08-26T07:09:13Z</time>
      </trkpt>
      <trkpt lat="47.33415" lon="6.10835">
        <ele>536.07</ele>
        <time>2018-08-26T07:09:14Z</time>
      </trkpt>
      <trkpt lat="47.33425" lon="6.10841">
        <ele>534.63</ele>
        <time>2018-08-26T07:09:16Z</time>
      </trkpt>
      <trkpt lat="47.3343" lon="6.10843">
        <ele>534.15</ele>
        <time>2018-08-26T07:09:17Z</time>
      </trkpt>
      <trkpt lat="47.33435" lon="6.10843">
        <ele>533.19</ele>
        <time>2018-08-26T07:09:18Z</time>
      </trkpt>
      <trkpt lat="47.3344" lon="6.10841">
        <ele>532.71</ele>
        <time>2018-08-26T07:09:19Z</time>
      </trkpt>
      <trkpt lat="47.33448" lon="6.10841">
        <ele>531.75</ele>
        <time>2018-08-26T07:09:20Z</time>
      </trkpt>
      <trkpt lat="47.33456" lon="6.10842">
        <ele>530.79</ele>
        <time>2018-08-26T07:09:21Z</time>
      </trkpt>
      <trkpt lat="47.33464" lon="6.10843">
        <ele>529.82</ele>
        <time>2018-08-26T07:09:22Z</time>
      </trkpt>
      <trkpt lat="47.33471" lon="6.10845">
        <ele>528.86</ele>
        <time>2018-08-26T07:09:23Z</time>
      </trkpt>
      <trkpt lat="47.33477" lon="6.10849">
        <ele>528.38</ele>
        <time>2018-08-26T07:09:24Z</time>
      </trkpt>
      <trkpt lat="47.33511" lon="6.10872">
        <ele>524.06</ele>
        <time>2018-08-26T07:09:29Z</time>
      </trkpt>
      <trkpt lat="47.3353" lon="6.10888">
        <ele>521.17</ele>
        <time>2018-08-26T07:09:32Z</time>
      </trkpt>
      <trkpt lat="47.33542" lon="6.10899">
        <ele>520.21</ele>
        <time>2018-08-26T07:09:34Z</time>
      </trkpt>
      <trkpt lat="47.33546" lon="6.10902">
        <ele>519.73</ele>
        <time>2018-08-26T07:09:35Z</time>
      </trkpt>
      <trkpt lat="47.33551" lon="6.10904">
        <ele>518.77</ele>
        <time>2018-08-26T07:09:36Z</time>
      </trkpt>
      <trkpt lat="47.33559" lon="6.10907">
        <ele>517.81</ele>
        <time>2018-08-26T07:09:38Z</time>
      </trkpt>
      <trkpt lat="47.33563" lon="6.10911">
        <ele>516.37</ele>
        <time>2018-08-26T07:09:39Z</time>
      </trkpt>
      <trkpt lat="47.33567" lon="6.10916">
        <ele>515.88</ele>
        <time>2018-08-26T07:09:40Z</time>
      </trkpt>
      <trkpt lat="47.33584" lon="6.10946">
        <ele>513</ele>
        <time>2018-08-26T07:09:44Z</time>
      </trkpt>
      <trkpt lat="47.33587" lon="6.10955">
        <ele>512.52</ele>
        <time>2018-08-26T07:09:45Z</time>
      </trkpt>
      <trkpt lat="47.33589" lon="6.10964">
        <ele>512.04</ele>
        <time>2018-08-26T07:09:46Z</time>
      </trkpt>
      <trkpt lat="47.3359" lon="6.10974">
        <ele>511.56</ele>
        <time>2018-08-26T07:09:47Z</time>
      </trkpt>
      <trkpt lat="47.33591" lon="6.10984">
        <ele>511.56</ele>
        <time>2018-08-26T07:09:48Z</time>
      </trkpt>
      <trkpt lat="47.33592" lon="6.11002">
        <ele>510.6</ele>
        <time>2018-08-26T07:09:50Z</time>
      </trkpt>
      <trkpt lat="47.336" lon="6.11056">
        <ele>507.23</ele>
        <time>2018-08-26T07:09:55Z</time>
      </trkpt>
      <trkpt lat="47.336" lon="6.11066">
        <ele>507.23</ele>
        <time>2018-08-26T07:09:56Z</time>
      </trkpt>
      <trkpt lat="47.33602" lon="6.11076">
        <ele>506.75</ele>
        <time>2018-08-26T07:09:57Z</time>
      </trkpt>
      <trkpt lat="47.33603" lon="6.11087">
        <ele>506.27</ele>
        <time>2018-08-26T07:09:58Z</time>
      </trkpt>
      <trkpt lat="47.33605" lon="6.11098">
        <ele>505.79</ele>
        <time>2018-08-26T07:09:59Z</time>
      </trkpt>
      <trkpt lat="47.33608" lon="6.11108">
        <ele>505.31</ele>
        <time>2018-08-26T07:10:00Z</time>
      </trkpt>
      <trkpt lat="47.33612" lon="6.11118">
        <ele>504.83</ele>
        <time>2018-08-26T07:10:01Z</time>
      </trkpt>
      <trkpt lat="47.33616" lon="6.11128">
        <ele>504.83</ele>
        <time>2018-08-26T07:10:02Z</time>
      </trkpt>
      <trkpt lat="47.33619" lon="6.11135">
        <ele>504.35</ele>
        <time>2018-08-26T07:10:03Z</time>
      </trkpt>
      <trkpt lat="47.33621" lon="6.11141">
        <ele>503.87</ele>
        <time>2018-08-26T07:10:04Z</time>
      </trkpt>
      <trkpt lat="47.33623" lon="6.11148">
        <ele>503.87</ele>
        <time>2018-08-26T07:10:05Z</time>
      </trkpt>
      <trkpt lat="47.33625" lon="6.11153">
        <ele>503.39</ele>
        <time>2018-08-26T07:10:06Z</time>
      </trkpt>
      <trkpt lat="47.33635" lon="6.11186">
        <ele>501.46</ele>
        <time>2018-08-26T07:10:14Z</time>
      </trkpt>
      <trkpt lat="47.33639" lon="6.11236">
        <ele>499.06</ele>
        <time>2018-08-26T07:10:25Z</time>
      </trkpt>
      <trkpt lat="47.33639" lon="6.11239">
        <ele>499.54</ele>
        <time>2018-08-26T07:10:26Z</time>
      </trkpt>
      <trkpt lat="47.33647" lon="6.11257">
        <ele>498.58</ele>
        <time>2018-08-26T07:10:37Z</time>
      </trkpt>
      <trkpt lat="47.33654" lon="6.1127">
        <ele>497.62</ele>
        <time>2018-08-26T07:10:40Z</time>
      </trkpt>
      <trkpt lat="47.33658" lon="6.11275">
        <ele>497.14</ele>
        <time>2018-08-26T07:10:41Z</time>
      </trkpt>
      <trkpt lat="47.33661" lon="6.11279">
        <ele>496.18</ele>
        <time>2018-08-26T07:10:42Z</time>
      </trkpt>
      <trkpt lat="47.33665" lon="6.11284">
        <ele>496.18</ele>
        <time>2018-08-26T07:10:43Z</time>
      </trkpt>
      <trkpt lat="47.33669" lon="6.11288">
        <ele>495.7</ele>
        <time>2018-08-26T07:10:44Z</time>
      </trkpt>
      <trkpt lat="47.33672" lon="6.11294">
        <ele>495.7</ele>
        <time>2018-08-26T07:10:45Z</time>
      </trkpt>
      <trkpt lat="47.33681" lon="6.11304">
        <ele>494.74</ele>
        <time>2018-08-26T07:10:47Z</time>
      </trkpt>
      <trkpt lat="47.33691" lon="6.11316">
        <ele>494.74</ele>
        <time>2018-08-26T07:10:49Z</time>
      </trkpt>
      <trkpt lat="47.33707" lon="6.11338">
        <ele>495.22</ele>
        <time>2018-08-26T07:10:53Z</time>
      </trkpt>
      <trkpt lat="47.3371" lon="6.11343">
        <ele>495.7</ele>
        <time>2018-08-26T07:10:54Z</time>
      </trkpt>
      <trkpt lat="47.33736" lon="6.11393">
        <ele>496.66</ele>
        <time>2018-08-26T07:11:05Z</time>
      </trkpt>
      <trkpt lat="47.33767" lon="6.11434">
        <ele>497.62</ele>
        <time>2018-08-26T07:11:17Z</time>
      </trkpt>
      <trkpt lat="47.33797" lon="6.11481">
        <ele>498.1</ele>
        <time>2018-08-26T07:11:27Z</time>
      </trkpt>
      <trkpt lat="47.33799" lon="6.11486">
        <ele>497.62</ele>
        <time>2018-08-26T07:11:28Z</time>
      </trkpt>
      <trkpt lat="47.338" lon="6.1149">
        <ele>498.58</ele>
        <time>2018-08-26T07:11:29Z</time>
      </trkpt>
      <trkpt lat="47.33801" lon="6.11493">
        <ele>498.1</ele>
        <time>2018-08-26T07:11:30Z</time>
      </trkpt>
      <trkpt lat="47.33803" lon="6.11497">
        <ele>498.1</ele>
        <time>2018-08-26T07:11:31Z</time>
      </trkpt>
      <trkpt lat="47.33805" lon="6.11501">
        <ele>498.1</ele>
        <time>2018-08-26T07:11:32Z</time>
      </trkpt>
      <trkpt lat="47.33807" lon="6.11504">
        <ele>497.62</ele>
        <time>2018-08-26T07:11:33Z</time>
      </trkpt>
      <trkpt lat="47.33808" lon="6.11508">
        <ele>497.62</ele>
        <time>2018-08-26T07:11:34Z</time>
      </trkpt>
      <trkpt lat="47.33809" lon="6.11512">
        <ele>497.62</ele>
        <time>2018-08-26T07:11:35Z</time>
      </trkpt>
      <trkpt lat="47.33811" lon="6.11516">
        <ele>497.14</ele>
        <time>2018-08-26T07:11:36Z</time>
      </trkpt>
      <trkpt lat="47.33829" lon="6.11546">
        <ele>496.18</ele>
        <time>2018-08-26T07:11:42Z</time>
      </trkpt>
      <trkpt lat="47.33832" lon="6.11551">
        <ele>496.18</ele>
        <time>2018-08-26T07:11:43Z</time>
      </trkpt>
      <trkpt lat="47.33835" lon="6.11557">
        <ele>495.7</ele>
        <time>2018-08-26T07:11:44Z</time>
      </trkpt>
      <trkpt lat="47.33855" lon="6.11576">
        <ele>494.74</ele>
        <time>2018-08-26T07:11:49Z</time>
      </trkpt>
      <trkpt lat="47.33892" lon="6.11618">
        <ele>490.89</ele>
        <time>2018-08-26T07:11:58Z</time>
      </trkpt>
      <trkpt lat="47.33902" lon="6.11628">
        <ele>489.93</ele>
        <time>2018-08-26T07:12:00Z</time>
      </trkpt>
      <trkpt lat="47.33913" lon="6.11637">
        <ele>488.97</ele>
        <time>2018-08-26T07:12:02Z</time>
      </trkpt>
      <trkpt lat="47.33919" lon="6.11642">
        <ele>488.49</ele>
        <time>2018-08-26T07:12:03Z</time>
      </trkpt>
      <trkpt lat="47.33925" lon="6.11647">
        <ele>488.01</ele>
        <time>2018-08-26T07:12:04Z</time>
      </trkpt>
      <trkpt lat="47.3393" lon="6.11652">
        <ele>487.05</ele>
        <time>2018-08-26T07:12:05Z</time>
      </trkpt>
      <trkpt lat="47.33936" lon="6.11657">
        <ele>486.56</ele>
        <time>2018-08-26T07:12:06Z</time>
      </trkpt>
      <trkpt lat="47.33942" lon="6.11662">
        <ele>486.56</ele>
        <time>2018-08-26T07:12:07Z</time>
      </trkpt>
      <trkpt lat="47.33947" lon="6.11667">
        <ele>486.08</ele>
        <time>2018-08-26T07:12:08Z</time>
      </trkpt>
      <trkpt lat="47.33952" lon="6.11669">
        <ele>485.6</ele>
        <time>2018-08-26T07:12:09Z</time>
      </trkpt>
      <trkpt lat="47.33957" lon="6.11671">
        <ele>485.12</ele>
        <time>2018-08-26T07:12:10Z</time>
      </trkpt>
      <trkpt lat="47.33963" lon="6.11673">
        <ele>484.16</ele>
        <time>2018-08-26T07:12:11Z</time>
      </trkpt>
      <trkpt lat="47.33968" lon="6.11676">
        <ele>483.68</ele>
        <time>2018-08-26T07:12:12Z</time>
      </trkpt>
      <trkpt lat="47.33974" lon="6.1168">
        <ele>483.2</ele>
        <time>2018-08-26T07:12:13Z</time>
      </trkpt>
      <trkpt lat="47.3398" lon="6.11683">
        <ele>482.24</ele>
        <time>2018-08-26T07:12:14Z</time>
      </trkpt>
      <trkpt lat="47.33989" lon="6.11693">
        <ele>481.76</ele>
        <time>2018-08-26T07:12:16Z</time>
      </trkpt>
      <trkpt lat="47.33992" lon="6.11699">
        <ele>480.8</ele>
        <time>2018-08-26T07:12:17Z</time>
      </trkpt>
      <trkpt lat="47.33993" lon="6.11703">
        <ele>480.32</ele>
        <time>2018-08-26T07:12:18Z</time>
      </trkpt>
      <trkpt lat="47.33994" lon="6.11708">
        <ele>479.84</ele>
        <time>2018-08-26T07:12:19Z</time>
      </trkpt>
      <trkpt lat="47.33997" lon="6.11714">
        <ele>479.35</ele>
        <time>2018-08-26T07:12:20Z</time>
      </trkpt>
      <trkpt lat="47.33999" lon="6.11717">
        <ele>478.87</ele>
        <time>2018-08-26T07:12:21Z</time>
      </trkpt>
      <trkpt lat="47.34001" lon="6.11719">
        <ele>479.35</ele>
        <time>2018-08-26T07:12:22Z</time>
      </trkpt>
      <trkpt lat="47.34004" lon="6.11721">
        <ele>479.35</ele>
        <time>2018-08-26T07:12:23Z</time>
      </trkpt>
      <trkpt lat="47.34007" lon="6.11724">
        <ele>479.84</ele>
        <time>2018-08-26T07:12:24Z</time>
      </trkpt>
      <trkpt lat="47.34026" lon="6.11749">
        <ele>478.87</ele>
        <time>2018-08-26T07:12:31Z</time>
      </trkpt>
      <trkpt lat="47.34028" lon="6.11755">
        <ele>478.39</ele>
        <time>2018-08-26T07:12:32Z</time>
      </trkpt>
      <trkpt lat="47.3403" lon="6.1176">
        <ele>478.39</ele>
        <time>2018-08-26T07:12:33Z</time>
      </trkpt>
      <trkpt lat="47.34032" lon="6.11766">
        <ele>478.39</ele>
        <time>2018-08-26T07:12:34Z</time>
      </trkpt>
      <trkpt lat="47.34048" lon="6.11796">
        <ele>478.39</ele>
        <time>2018-08-26T07:12:41Z</time>
      </trkpt>
      <trkpt lat="47.3408" lon="6.11853">
        <ele>477.91</ele>
        <time>2018-08-26T07:12:53Z</time>
      </trkpt>
      <trkpt lat="47.34083" lon="6.11862">
        <ele>477.91</ele>
        <time>2018-08-26T07:12:55Z</time>
      </trkpt>
      <trkpt lat="47.341" lon="6.11862">
        <ele>477.43</ele>
        <time>2018-08-26T07:13:01Z</time>
      </trkpt>
      <trkpt lat="47.34124" lon="6.11843">
        <ele>476.47</ele>
        <time>2018-08-26T07:13:07Z</time>
      </trkpt>
      <trkpt lat="47.34128" lon="6.11838">
        <ele>475.99</ele>
        <time>2018-08-26T07:13:08Z</time>
      </trkpt>
      <trkpt lat="47.34131" lon="6.11831">
        <ele>475.51</ele>
        <time>2018-08-26T07:13:09Z</time>
      </trkpt>
      <trkpt lat="47.34134" lon="6.11824">
        <ele>475.03</ele>
        <time>2018-08-26T07:13:10Z</time>
      </trkpt>
      <trkpt lat="47.34135" lon="6.11815">
        <ele>474.07</ele>
        <time>2018-08-26T07:13:11Z</time>
      </trkpt>
      <trkpt lat="47.34136" lon="6.11806">
        <ele>474.07</ele>
        <time>2018-08-26T07:13:12Z</time>
      </trkpt>
      <trkpt lat="47.34136" lon="6.11755">
        <ele>471.18</ele>
        <time>2018-08-26T07:13:17Z</time>
      </trkpt>
      <trkpt lat="47.34131" lon="6.11697">
        <ele>467.82</ele>
        <time>2018-08-26T07:13:22Z</time>
      </trkpt>
      <trkpt lat="47.34119" lon="6.11631">
        <ele>463.97</ele>
        <time>2018-08-26T07:13:27Z</time>
      </trkpt>
      <trkpt lat="47.34116" lon="6.11557">
        <ele>460.61</ele>
        <time>2018-08-26T07:13:32Z</time>
      </trkpt>
      <trkpt lat="47.34112" lon="6.11486">
        <ele>457.24</ele>
        <time>2018-08-26T07:13:37Z</time>
      </trkpt>
      <trkpt lat="47.34112" lon="6.11474">
        <ele>456.28</ele>
        <time>2018-08-26T07:13:38Z</time>
      </trkpt>
      <trkpt lat="47.34114" lon="6.11463">
        <ele>455.32</ele>
        <time>2018-08-26T07:13:39Z</time>
      </trkpt>
      <trkpt lat="47.34117" lon="6.11454">
        <ele>454.84</ele>
        <time>2018-08-26T07:13:40Z</time>
      </trkpt>
      <trkpt lat="47.3412" lon="6.11448">
        <ele>454.84</ele>
        <time>2018-08-26T07:13:41Z</time>
      </trkpt>
      <trkpt lat="47.34124" lon="6.11445">
        <ele>454.84</ele>
        <time>2018-08-26T07:13:42Z</time>
      </trkpt>
      <trkpt lat="47.34129" lon="6.11445">
        <ele>454.36</ele>
        <time>2018-08-26T07:13:43Z</time>
      </trkpt>
      <trkpt lat="47.34133" lon="6.11447">
        <ele>453.88</ele>
        <time>2018-08-26T07:13:44Z</time>
      </trkpt>
      <trkpt lat="47.34137" lon="6.11449">
        <ele>453.88</ele>
        <time>2018-08-26T07:13:45Z</time>
      </trkpt>
      <trkpt lat="47.34149" lon="6.11453">
        <ele>451.96</ele>
        <time>2018-08-26T07:13:48Z</time>
      </trkpt>
      <trkpt lat="47.34155" lon="6.11457">
        <ele>451.48</ele>
        <time>2018-08-26T07:13:49Z</time>
      </trkpt>
      <trkpt lat="47.3416" lon="6.11461">
        <ele>450.52</ele>
        <time>2018-08-26T07:13:50Z</time>
      </trkpt>
      <trkpt lat="47.34166" lon="6.11466">
        <ele>450.52</ele>
        <time>2018-08-26T07:13:51Z</time>
      </trkpt>
      <trkpt lat="47.34172" lon="6.1147">
        <ele>450.03</ele>
        <time>2018-08-26T07:13:52Z</time>
      </trkpt>
      <trkpt lat="47.34178" lon="6.11475">
        <ele>450.03</ele>
        <time>2018-08-26T07:13:53Z</time>
      </trkpt>
      <trkpt lat="47.34214" lon="6.11502">
        <ele>446.19</ele>
        <time>2018-08-26T07:13:59Z</time>
      </trkpt>
      <trkpt lat="47.34237" lon="6.11519">
        <ele>441.86</ele>
        <time>2018-08-26T07:14:02Z</time>
      </trkpt>
      <trkpt lat="47.34254" lon="6.11528">
        <ele>439.94</ele>
        <time>2018-08-26T07:14:04Z</time>
      </trkpt>
      <trkpt lat="47.3427" lon="6.11535">
        <ele>437.54</ele>
        <time>2018-08-26T07:14:06Z</time>
      </trkpt>
      <trkpt lat="47.34286" lon="6.1154">
        <ele>434.65</ele>
        <time>2018-08-26T07:14:08Z</time>
      </trkpt>
      <trkpt lat="47.34294" lon="6.11543">
        <ele>433.69</ele>
        <time>2018-08-26T07:14:09Z</time>
      </trkpt>
      <trkpt lat="47.34301" lon="6.11546">
        <ele>432.25</ele>
        <time>2018-08-26T07:14:10Z</time>
      </trkpt>
      <trkpt lat="47.34309" lon="6.11547">
        <ele>430.33</ele>
        <time>2018-08-26T07:14:11Z</time>
      </trkpt>
      <trkpt lat="47.34317" lon="6.11548">
        <ele>428.89</ele>
        <time>2018-08-26T07:14:12Z</time>
      </trkpt>
      <trkpt lat="47.34326" lon="6.11549">
        <ele>427.44</ele>
        <time>2018-08-26T07:14:13Z</time>
      </trkpt>
      <trkpt lat="47.34333" lon="6.11551">
        <ele>426</ele>
        <time>2018-08-26T07:14:14Z</time>
      </trkpt>
      <trkpt lat="47.34341" lon="6.11553">
        <ele>425.04</ele>
        <time>2018-08-26T07:14:15Z</time>
      </trkpt>
      <trkpt lat="47.34348" lon="6.11556">
        <ele>424.08</ele>
        <time>2018-08-26T07:14:16Z</time>
      </trkpt>
      <trkpt lat="47.34353" lon="6.11559">
        <ele>423.12</ele>
        <time>2018-08-26T07:14:17Z</time>
      </trkpt>
      <trkpt lat="47.34359" lon="6.1156">
        <ele>422.16</ele>
        <time>2018-08-26T07:14:18Z</time>
      </trkpt>
      <trkpt lat="47.34364" lon="6.11561">
        <ele>421.19</ele>
        <time>2018-08-26T07:14:19Z</time>
      </trkpt>
      <trkpt lat="47.34368" lon="6.11565">
        <ele>420.23</ele>
        <time>2018-08-26T07:14:20Z</time>
      </trkpt>
      <trkpt lat="47.34371" lon="6.11571">
        <ele>420.23</ele>
        <time>2018-08-26T07:14:21Z</time>
      </trkpt>
      <trkpt lat="47.34373" lon="6.11576">
        <ele>420.23</ele>
        <time>2018-08-26T07:14:22Z</time>
      </trkpt>
      <trkpt lat="47.34376" lon="6.11581">
        <ele>420.23</ele>
        <time>2018-08-26T07:14:23Z</time>
      </trkpt>
      <trkpt lat="47.3438" lon="6.11586">
        <ele>420.23</ele>
        <time>2018-08-26T07:14:24Z</time>
      </trkpt>
      <trkpt lat="47.34383" lon="6.11591">
        <ele>420.23</ele>
        <time>2018-08-26T07:14:25Z</time>
      </trkpt>
      <trkpt lat="47.34386" lon="6.11595">
        <ele>420.23</ele>
        <time>2018-08-26T07:14:26Z</time>
      </trkpt>
      <trkpt lat="47.34393" lon="6.11604">
        <ele>420.71</ele>
        <time>2018-08-26T07:14:28Z</time>
      </trkpt>
      <trkpt lat="47.34402" lon="6.1162">
        <ele>421.19</ele>
        <time>2018-08-26T07:14:31Z</time>
      </trkpt>
      <trkpt lat="47.34405" lon="6.11625">
        <ele>421.19</ele>
        <time>2018-08-26T07:14:32Z</time>
      </trkpt>
      <trkpt lat="47.34407" lon="6.1163">
        <ele>420.71</ele>
        <time>2018-08-26T07:14:33Z</time>
      </trkpt>
      <trkpt lat="47.34433" lon="6.1168">
        <ele>421.68</ele>
        <time>2018-08-26T07:14:42Z</time>
      </trkpt>
      <trkpt lat="47.34474" lon="6.11747">
        <ele>420.71</ele>
        <time>2018-08-26T07:14:54Z</time>
      </trkpt>
      <trkpt lat="47.34477" lon="6.11753">
        <ele>420.71</ele>
        <time>2018-08-26T07:14:55Z</time>
      </trkpt>
      <trkpt lat="47.34483" lon="6.11765">
        <ele>420.23</ele>
        <time>2018-08-26T07:14:57Z</time>
      </trkpt>
      <trkpt lat="47.34485" lon="6.1177">
        <ele>419.75</ele>
        <time>2018-08-26T07:14:58Z</time>
      </trkpt>
      <trkpt lat="47.34488" lon="6.11776">
        <ele>419.75</ele>
        <time>2018-08-26T07:14:59Z</time>
      </trkpt>
      <trkpt lat="47.34498" lon="6.11794">
        <ele>419.75</ele>
        <time>2018-08-26T07:15:02Z</time>
      </trkpt>
      <trkpt lat="47.34527" lon="6.11864">
        <ele>418.79</ele>
        <time>2018-08-26T07:15:12Z</time>
      </trkpt>
      <trkpt lat="47.34529" lon="6.1187">
        <ele>418.79</ele>
        <time>2018-08-26T07:15:13Z</time>
      </trkpt>
      <trkpt lat="47.34532" lon="6.11876">
        <ele>419.27</ele>
        <time>2018-08-26T07:15:14Z</time>
      </trkpt>
      <trkpt lat="47.34535" lon="6.11884">
        <ele>418.79</ele>
        <time>2018-08-26T07:15:15Z</time>
      </trkpt>
      <trkpt lat="47.34537" lon="6.11891">
        <ele>418.79</ele>
        <time>2018-08-26T07:15:16Z</time>
      </trkpt>
      <trkpt lat="47.34549" lon="6.11919">
        <ele>418.79</ele>
        <time>2018-08-26T07:15:20Z</time>
      </trkpt>
      <trkpt lat="47.34562" lon="6.11948">
        <ele>418.79</ele>
        <time>2018-08-26T07:15:26Z</time>
      </trkpt>
      <trkpt lat="47.34566" lon="6.11947">
        <ele>418.79</ele>
        <time>2018-08-26T07:15:27Z</time>
      </trkpt>
      <trkpt lat="47.34568" lon="6.11944">
        <ele>418.79</ele>
        <time>2018-08-26T07:15:28Z</time>
      </trkpt>
      <trkpt lat="47.34569" lon="6.11941">
        <ele>418.31</ele>
        <time>2018-08-26T07:15:29Z</time>
      </trkpt>
      <trkpt lat="47.34569" lon="6.11938">
        <ele>417.83</ele>
        <time>2018-08-26T07:15:30Z</time>
      </trkpt>
      <trkpt lat="47.34568" lon="6.11927">
        <ele>416.87</ele>
        <time>2018-08-26T07:15:32Z</time>
      </trkpt>
      <trkpt lat="47.34562" lon="6.11895">
        <ele>414.47</ele>
        <time>2018-08-26T07:15:36Z</time>
      </trkpt>
      <trkpt lat="47.34558" lon="6.11869">
        <ele>413.02</ele>
        <time>2018-08-26T07:15:39Z</time>
      </trkpt>
      <trkpt lat="47.34551" lon="6.11828">
        <ele>409.66</ele>
        <time>2018-08-26T07:15:43Z</time>
      </trkpt>
      <trkpt lat="47.34543" lon="6.11781">
        <ele>405.81</ele>
        <time>2018-08-26T07:15:47Z</time>
      </trkpt>
      <trkpt lat="47.34537" lon="6.11756">
        <ele>404.37</ele>
        <time>2018-08-26T07:15:49Z</time>
      </trkpt>
      <trkpt lat="47.34521" lon="6.11706">
        <ele>401.01</ele>
        <time>2018-08-26T07:15:53Z</time>
      </trkpt>
      <trkpt lat="47.345" lon="6.11643">
        <ele>397.64</ele>
        <time>2018-08-26T07:15:58Z</time>
      </trkpt>
      <trkpt lat="47.34489" lon="6.11608">
        <ele>395.24</ele>
        <time>2018-08-26T07:16:01Z</time>
      </trkpt>
      <trkpt lat="47.34481" lon="6.11586">
        <ele>393.8</ele>
        <time>2018-08-26T07:16:03Z</time>
      </trkpt>
      <trkpt lat="47.34477" lon="6.11575">
        <ele>393.32</ele>
        <time>2018-08-26T07:16:04Z</time>
      </trkpt>
      <trkpt lat="47.34464" lon="6.11543">
        <ele>390.43</ele>
        <time>2018-08-26T07:16:07Z</time>
      </trkpt>
      <trkpt lat="47.3446" lon="6.11534">
        <ele>389.95</ele>
        <time>2018-08-26T07:16:08Z</time>
      </trkpt>
      <trkpt lat="47.34455" lon="6.11525">
        <ele>389.47</ele>
        <time>2018-08-26T07:16:09Z</time>
      </trkpt>
      <trkpt lat="47.3445" lon="6.11517">
        <ele>388.99</ele>
        <time>2018-08-26T07:16:10Z</time>
      </trkpt>
      <trkpt lat="47.34445" lon="6.11509">
        <ele>388.51</ele>
        <time>2018-08-26T07:16:11Z</time>
      </trkpt>
      <trkpt lat="47.34423" lon="6.11481">
        <ele>387.55</ele>
        <time>2018-08-26T07:16:15Z</time>
      </trkpt>
      <trkpt lat="47.34408" lon="6.11463">
        <ele>386.59</ele>
        <time>2018-08-26T07:16:18Z</time>
      </trkpt>
      <trkpt lat="47.34397" lon="6.11445">
        <ele>386.11</ele>
        <time>2018-08-26T07:16:21Z</time>
      </trkpt>
      <trkpt lat="47.34396" lon="6.1144">
        <ele>385.63</ele>
        <time>2018-08-26T07:16:22Z</time>
      </trkpt>
      <trkpt lat="47.34396" lon="6.11434">
        <ele>385.15</ele>
        <time>2018-08-26T07:16:23Z</time>
      </trkpt>
      <trkpt lat="47.34398" lon="6.1143">
        <ele>385.15</ele>
        <time>2018-08-26T07:16:24Z</time>
      </trkpt>
      <trkpt lat="47.344" lon="6.11427">
        <ele>384.66</ele>
        <time>2018-08-26T07:16:25Z</time>
      </trkpt>
      <trkpt lat="47.34404" lon="6.11427">
        <ele>384.18</ele>
        <time>2018-08-26T07:16:26Z</time>
      </trkpt>
      <trkpt lat="47.34407" lon="6.11429">
        <ele>383.7</ele>
        <time>2018-08-26T07:16:27Z</time>
      </trkpt>
      <trkpt lat="47.3441" lon="6.1143">
        <ele>383.22</ele>
        <time>2018-08-26T07:16:28Z</time>
      </trkpt>
      <trkpt lat="47.34412" lon="6.11432">
        <ele>383.22</ele>
        <time>2018-08-26T07:16:29Z</time>
      </trkpt>
      <trkpt lat="47.34414" lon="6.11435">
        <ele>382.26</ele>
        <time>2018-08-26T07:16:30Z</time>
      </trkpt>
      <trkpt lat="47.34416" lon="6.1144">
        <ele>381.78</ele>
        <time>2018-08-26T07:16:31Z</time>
      </trkpt>
      <trkpt lat="47.34419" lon="6.11444">
        <ele>381.3</ele>
        <time>2018-08-26T07:16:32Z</time>
      </trkpt>
      <trkpt lat="47.34423" lon="6.11449">
        <ele>380.82</ele>
        <time>2018-08-26T07:16:33Z</time>
      </trkpt>
      <trkpt lat="47.34427" lon="6.11454">
        <ele>380.34</ele>
        <time>2018-08-26T07:16:34Z</time>
      </trkpt>
      <trkpt lat="47.34431" lon="6.1146">
        <ele>380.34</ele>
        <time>2018-08-26T07:16:35Z</time>
      </trkpt>
      <trkpt lat="47.34435" lon="6.11465">
        <ele>379.86</ele>
        <time>2018-08-26T07:16:36Z</time>
      </trkpt>
      <trkpt lat="47.3444" lon="6.1147">
        <ele>379.38</ele>
        <time>2018-08-26T07:16:37Z</time>
      </trkpt>
      <trkpt lat="47.34476" lon="6.11507">
        <ele>376.01</ele>
        <time>2018-08-26T07:16:44Z</time>
      </trkpt>
      <trkpt lat="47.34489" lon="6.11518">
        <ele>374.57</ele>
        <time>2018-08-26T07:16:46Z</time>
      </trkpt>
      <trkpt lat="47.34495" lon="6.11524">
        <ele>374.09</ele>
        <time>2018-08-26T07:16:47Z</time>
      </trkpt>
      <trkpt lat="47.34508" lon="6.11536">
        <ele>372.65</ele>
        <time>2018-08-26T07:16:49Z</time>
      </trkpt>
      <trkpt lat="47.34514" lon="6.11542">
        <ele>372.65</ele>
        <time>2018-08-26T07:16:50Z</time>
      </trkpt>
      <trkpt lat="47.3452" lon="6.11548">
        <ele>372.17</ele>
        <time>2018-08-26T07:16:51Z</time>
      </trkpt>
      <trkpt lat="47.34545" lon="6.11577">
        <ele>369.28</ele>
        <time>2018-08-26T07:16:55Z</time>
      </trkpt>
      <trkpt lat="47.3457" lon="6.11609">
        <ele>365.92</ele>
        <time>2018-08-26T07:16:59Z</time>
      </trkpt>
      <trkpt lat="47.34577" lon="6.11617">
        <ele>365.44</ele>
        <time>2018-08-26T07:17:00Z</time>
      </trkpt>
      <trkpt lat="47.34605" lon="6.11649">
        <ele>362.55</ele>
        <time>2018-08-26T07:17:04Z</time>
      </trkpt>
      <trkpt lat="47.34632" lon="6.11683">
        <ele>359.19</ele>
        <time>2018-08-26T07:17:08Z</time>
      </trkpt>
      <trkpt lat="47.34661" lon="6.11716">
        <ele>355.83</ele>
        <time>2018-08-26T07:17:12Z</time>
      </trkpt>
      <trkpt lat="47.34668" lon="6.11723">
        <ele>354.86</ele>
        <time>2018-08-26T07:17:13Z</time>
      </trkpt>
      <trkpt lat="47.34682" lon="6.1174">
        <ele>352.94</ele>
        <time>2018-08-26T07:17:15Z</time>
      </trkpt>
      <trkpt lat="47.34711" lon="6.11771">
        <ele>350.06</ele>
        <time>2018-08-26T07:17:19Z</time>
      </trkpt>
      <trkpt lat="47.34739" lon="6.11797">
        <ele>346.69</ele>
        <time>2018-08-26T07:17:23Z</time>
      </trkpt>
      <trkpt lat="47.34752" lon="6.11807">
        <ele>345.25</ele>
        <time>2018-08-26T07:17:25Z</time>
      </trkpt>
      <trkpt lat="47.34793" lon="6.11853">
        <ele>341.89</ele>
        <time>2018-08-26T07:17:32Z</time>
      </trkpt>
      <trkpt lat="47.34799" lon="6.11859">
        <ele>341.41</ele>
        <time>2018-08-26T07:17:33Z</time>
      </trkpt>
      <trkpt lat="47.34804" lon="6.11862">
        <ele>340.92</ele>
        <time>2018-08-26T07:17:34Z</time>
      </trkpt>
      <trkpt lat="47.34809" lon="6.11862">
        <ele>339.96</ele>
        <time>2018-08-26T07:17:35Z</time>
      </trkpt>
      <trkpt lat="47.34814" lon="6.11861">
        <ele>339.96</ele>
        <time>2018-08-26T07:17:36Z</time>
      </trkpt>
      <trkpt lat="47.34817" lon="6.11858">
        <ele>339.48</ele>
        <time>2018-08-26T07:17:37Z</time>
      </trkpt>
      <trkpt lat="47.34818" lon="6.11854">
        <ele>338.52</ele>
        <time>2018-08-26T07:17:38Z</time>
      </trkpt>
      <trkpt lat="47.34817" lon="6.1185">
        <ele>338.52</ele>
        <time>2018-08-26T07:17:39Z</time>
      </trkpt>
      <trkpt lat="47.34815" lon="6.11846">
        <ele>338.04</ele>
        <time>2018-08-26T07:17:40Z</time>
      </trkpt>
      <trkpt lat="47.34812" lon="6.11841">
        <ele>337.56</ele>
        <time>2018-08-26T07:17:41Z</time>
      </trkpt>
      <trkpt lat="47.34782" lon="6.11787">
        <ele>334.68</ele>
        <time>2018-08-26T07:17:50Z</time>
      </trkpt>
      <trkpt lat="47.34777" lon="6.11779">
        <ele>334.2</ele>
        <time>2018-08-26T07:17:51Z</time>
      </trkpt>
      <trkpt lat="47.34773" lon="6.11771">
        <ele>333.71</ele>
        <time>2018-08-26T07:17:52Z</time>
      </trkpt>
      <trkpt lat="47.34748" lon="6.11718">
        <ele>330.35</ele>
        <time>2018-08-26T07:17:58Z</time>
      </trkpt>
      <trkpt lat="47.3473" lon="6.11667">
        <ele>326.99</ele>
        <time>2018-08-26T07:18:03Z</time>
      </trkpt>
      <trkpt lat="47.34727" lon="6.11656">
        <ele>326.02</ele>
        <time>2018-08-26T07:18:04Z</time>
      </trkpt>
      <trkpt lat="47.34703" lon="6.11593">
        <ele>322.18</ele>
        <time>2018-08-26T07:18:10Z</time>
      </trkpt>
      <trkpt lat="47.34687" lon="6.11553">
        <ele>319.78</ele>
        <time>2018-08-26T07:18:14Z</time>
      </trkpt>
      <trkpt lat="47.34684" lon="6.11543">
        <ele>319.3</ele>
        <time>2018-08-26T07:18:15Z</time>
      </trkpt>
      <trkpt lat="47.34679" lon="6.11516">
        <ele>315.93</ele>
        <time>2018-08-26T07:18:18Z</time>
      </trkpt>
      <trkpt lat="47.34674" lon="6.11487">
        <ele>312.57</ele>
        <time>2018-08-26T07:18:21Z</time>
      </trkpt>
      <trkpt lat="47.3467" lon="6.11454">
        <ele>308.72</ele>
        <time>2018-08-26T07:18:24Z</time>
      </trkpt>
      <trkpt lat="47.34665" lon="6.1142">
        <ele>304.88</ele>
        <time>2018-08-26T07:18:27Z</time>
      </trkpt>
      <trkpt lat="47.34662" lon="6.1139">
        <ele>301.99</ele>
        <time>2018-08-26T07:18:30Z</time>
      </trkpt>
      <trkpt lat="47.34662" lon="6.11382">
        <ele>301.51</ele>
        <time>2018-08-26T07:18:31Z</time>
      </trkpt>
      <trkpt lat="47.34663" lon="6.11375">
        <ele>300.07</ele>
        <time>2018-08-26T07:18:32Z</time>
      </trkpt>
      <trkpt lat="47.34667" lon="6.11359">
        <ele>297.18</ele>
        <time>2018-08-26T07:18:34Z</time>
      </trkpt>
      <trkpt lat="47.34669" lon="6.1135">
        <ele>296.22</ele>
        <time>2018-08-26T07:18:35Z</time>
      </trkpt>
      <trkpt lat="47.34672" lon="6.11343">
        <ele>294.78</ele>
        <time>2018-08-26T07:18:36Z</time>
      </trkpt>
      <trkpt lat="47.34674" lon="6.11335">
        <ele>293.82</ele>
        <time>2018-08-26T07:18:37Z</time>
      </trkpt>
      <trkpt lat="47.34677" lon="6.11318">
        <ele>291.42</ele>
        <time>2018-08-26T07:18:39Z</time>
      </trkpt>
      <trkpt lat="47.34678" lon="6.11307">
        <ele>290.46</ele>
        <time>2018-08-26T07:18:40Z</time>
      </trkpt>
      <trkpt lat="47.34678" lon="6.11297">
        <ele>289.49</ele>
        <time>2018-08-26T07:18:41Z</time>
      </trkpt>
      <trkpt lat="47.34678" lon="6.11265">
        <ele>286.61</ele>
        <time>2018-08-26T07:18:44Z</time>
      </trkpt>
      <trkpt lat="47.34672" lon="6.11231">
        <ele>284.21</ele>
        <time>2018-08-26T07:18:47Z</time>
      </trkpt>
      <trkpt lat="47.34659" lon="6.11184">
        <ele>280.36</ele>
        <time>2018-08-26T07:18:51Z</time>
      </trkpt>
      <trkpt lat="47.34651" lon="6.11162">
        <ele>278.44</ele>
        <time>2018-08-26T07:18:53Z</time>
      </trkpt>
      <trkpt lat="47.3464" lon="6.11131">
        <ele>276.04</ele>
        <time>2018-08-26T07:18:56Z</time>
      </trkpt>
      <trkpt lat="47.34637" lon="6.11121">
        <ele>275.56</ele>
        <time>2018-08-26T07:18:57Z</time>
      </trkpt>
      <trkpt lat="47.34634" lon="6.11111">
        <ele>274.59</ele>
        <time>2018-08-26T07:18:58Z</time>
      </trkpt>
      <trkpt lat="47.34633" lon="6.11101">
        <ele>273.15</ele>
        <time>2018-08-26T07:18:59Z</time>
      </trkpt>
      <trkpt lat="47.34633" lon="6.11093">
        <ele>272.19</ele>
        <time>2018-08-26T07:19:00Z</time>
      </trkpt>
      <trkpt lat="47.34634" lon="6.11084">
        <ele>270.75</ele>
        <time>2018-08-26T07:19:01Z</time>
      </trkpt>
      <trkpt lat="47.34636" lon="6.11075">
        <ele>269.79</ele>
        <time>2018-08-26T07:19:02Z</time>
      </trkpt>
      <trkpt lat="47.34638" lon="6.11067">
        <ele>268.83</ele>
        <time>2018-08-26T07:19:03Z</time>
      </trkpt>
      <trkpt lat="47.3464" lon="6.1106">
        <ele>267.86</ele>
        <time>2018-08-26T07:19:04Z</time>
      </trkpt>
      <trkpt lat="47.34642" lon="6.11054">
        <ele>267.38</ele>
        <time>2018-08-26T07:19:05Z</time>
      </trkpt>
      <trkpt lat="47.34644" lon="6.11046">
        <ele>266.42</ele>
        <time>2018-08-26T07:19:06Z</time>
      </trkpt>
      <trkpt lat="47.34648" lon="6.11029">
        <ele>264.5</ele>
        <time>2018-08-26T07:19:08Z</time>
      </trkpt>
      <trkpt lat="47.34655" lon="6.11004">
        <ele>262.1</ele>
        <time>2018-08-26T07:19:11Z</time>
      </trkpt>
      <trkpt lat="47.34659" lon="6.10998">
        <ele>261.14</ele>
        <time>2018-08-26T07:19:12Z</time>
      </trkpt>
      <trkpt lat="47.34664" lon="6.10991">
        <ele>260.17</ele>
        <time>2018-08-26T07:19:13Z</time>
      </trkpt>
      <trkpt lat="47.34677" lon="6.10977">
        <ele>258.25</ele>
        <time>2018-08-26T07:19:17Z</time>
      </trkpt>
      <trkpt lat="47.34679" lon="6.10979">
        <ele>258.25</ele>
        <time>2018-08-26T07:19:18Z</time>
      </trkpt>
      <trkpt lat="47.34695" lon="6.11022">
        <ele>259.69</ele>
        <time>2018-08-26T07:19:30Z</time>
      </trkpt>
      <trkpt lat="47.34696" lon="6.11026">
        <ele>259.69</ele>
        <time>2018-08-26T07:19:31Z</time>
      </trkpt>
      <trkpt lat="47.34697" lon="6.1103">
        <ele>260.17</ele>
        <time>2018-08-26T07:19:32Z</time>
      </trkpt>
      <trkpt lat="47.34699" lon="6.11034">
        <ele>260.17</ele>
        <time>2018-08-26T07:19:33Z</time>
      </trkpt>
      <trkpt lat="47.34701" lon="6.11037">
        <ele>260.17</ele>
        <time>2018-08-26T07:19:34Z</time>
      </trkpt>
      <trkpt lat="47.34731" lon="6.11093">
        <ele>262.1</ele>
        <time>2018-08-26T07:19:48Z</time>
      </trkpt>
      <trkpt lat="47.34763" lon="6.11131">
        <ele>264.5</ele>
        <time>2018-08-26T07:20:03Z</time>
      </trkpt>
      <trkpt lat="47.3477" lon="6.11138">
        <ele>264.98</ele>
        <time>2018-08-26T07:20:13Z</time>
      </trkpt>
      <trkpt lat="47.34771" lon="6.11142">
        <ele>264.98</ele>
        <time>2018-08-26T07:20:26Z</time>
      </trkpt>
      <trkpt lat="47.34771" lon="6.11141">
        <ele>264.98</ele>
        <time>2018-08-26T07:20:57Z</time>
      </trkpt>
      <trkpt lat="47.34771" lon="6.1114">
        <ele>264.98</ele>
        <time>2018-08-26T07:21:29Z</time>
      </trkpt>
      <trkpt lat="47.34772" lon="6.11138">
        <ele>264.98</ele>
        <time>2018-08-26T07:22:00Z</time>
      </trkpt>
      <trkpt lat="47.34773" lon="6.11138">
        <ele>264.5</ele>
        <time>2018-08-26T07:22:22Z</time>
      </trkpt>
      <trkpt lat="47.3478" lon="6.11153">
        <ele>265.46</ele>
        <time>2018-08-26T07:22:32Z</time>
      </trkpt>
      <trkpt lat="47.34782" lon="6.11155">
        <ele>265.46</ele>
        <time>2018-08-26T07:22:33Z</time>
      </trkpt>
      <trkpt lat="47.34784" lon="6.1116">
        <ele>265.94</ele>
        <time>2018-08-26T07:22:36Z</time>
      </trkpt>
      <trkpt lat="47.34799" lon="6.11204">
        <ele>269.31</ele>
        <time>2018-08-26T07:22:51Z</time>
      </trkpt>
      <trkpt lat="47.34832" lon="6.11248">
        <ele>272.19</ele>
        <time>2018-08-26T07:23:08Z</time>
      </trkpt>
      <trkpt lat="47.34862" lon="6.11302">
        <ele>271.71</ele>
        <time>2018-08-26T07:23:22Z</time>
      </trkpt>
      <trkpt lat="47.34864" lon="6.11307">
        <ele>271.71</ele>
        <time>2018-08-26T07:23:23Z</time>
      </trkpt>
      <trkpt lat="47.34872" lon="6.11364">
        <ele>268.35</ele>
        <time>2018-08-26T07:23:31Z</time>
      </trkpt>
      <trkpt lat="47.34884" lon="6.11456">
        <ele>266.9</ele>
        <time>2018-08-26T07:23:43Z</time>
      </trkpt>
      <trkpt lat="47.3489" lon="6.11494">
        <ele>267.38</ele>
        <time>2018-08-26T07:23:52Z</time>
      </trkpt>
      <trkpt lat="47.3489" lon="6.11498">
        <ele>267.38</ele>
        <time>2018-08-26T07:23:53Z</time>
      </trkpt>
      <trkpt lat="47.34891" lon="6.11501">
        <ele>267.86</ele>
        <time>2018-08-26T07:23:54Z</time>
      </trkpt>
      <trkpt lat="47.34891" lon="6.11506">
        <ele>268.35</ele>
        <time>2018-08-26T07:23:56Z</time>
      </trkpt>
      <trkpt lat="47.34892" lon="6.11509">
        <ele>268.35</ele>
        <time>2018-08-26T07:23:57Z</time>
      </trkpt>
      <trkpt lat="47.34892" lon="6.11511">
        <ele>268.35</ele>
        <time>2018-08-26T07:23:58Z</time>
      </trkpt>
      <trkpt lat="47.34891" lon="6.11513">
        <ele>268.83</ele>
        <time>2018-08-26T07:23:59Z</time>
      </trkpt>
      <trkpt lat="47.34891" lon="6.11515">
        <ele>269.31</ele>
        <time>2018-08-26T07:24:00Z</time>
      </trkpt>
      <trkpt lat="47.34892" lon="6.11517">
        <ele>269.31</ele>
        <time>2018-08-26T07:24:01Z</time>
      </trkpt>
      <trkpt lat="47.34893" lon="6.11519">
        <ele>269.79</ele>
        <time>2018-08-26T07:24:02Z</time>
      </trkpt>
      <trkpt lat="47.34893" lon="6.11522">
        <ele>269.79</ele>
        <time>2018-08-26T07:24:03Z</time>
      </trkpt>
      <trkpt lat="47.34895" lon="6.11524">
        <ele>269.79</ele>
        <time>2018-08-26T07:24:04Z</time>
      </trkpt>
      <trkpt lat="47.34895" lon="6.11526">
        <ele>270.27</ele>
        <time>2018-08-26T07:24:05Z</time>
      </trkpt>
      <trkpt lat="47.34897" lon="6.11529">
        <ele>270.27</ele>
        <time>2018-08-26T07:24:06Z</time>
      </trkpt>
      <trkpt lat="47.34898" lon="6.11532">
        <ele>270.75</ele>
        <time>2018-08-26T07:24:07Z</time>
      </trkpt>
      <trkpt lat="47.349" lon="6.11535">
        <ele>270.75</ele>
        <time>2018-08-26T07:24:08Z</time>
      </trkpt>
      <trkpt lat="47.34901" lon="6.11538">
        <ele>271.23</ele>
        <time>2018-08-26T07:24:09Z</time>
      </trkpt>
      <trkpt lat="47.34902" lon="6.1154">
        <ele>271.23</ele>
        <time>2018-08-26T07:24:10Z</time>
      </trkpt>
      <trkpt lat="47.34904" lon="6.11543">
        <ele>271.23</ele>
        <time>2018-08-26T07:24:11Z</time>
      </trkpt>
      <trkpt lat="47.34905" lon="6.11547">
        <ele>271.71</ele>
        <time>2018-08-26T07:24:12Z</time>
      </trkpt>
      <trkpt lat="47.34921" lon="6.11582">
        <ele>273.63</ele>
        <time>2018-08-26T07:24:23Z</time>
      </trkpt>
      <trkpt lat="47.34935" lon="6.11613">
        <ele>276.04</ele>
        <time>2018-08-26T07:24:35Z</time>
      </trkpt>
      <trkpt lat="47.34945" lon="6.11641">
        <ele>278.44</ele>
        <time>2018-08-26T07:24:46Z</time>
      </trkpt>
      <trkpt lat="47.34958" lon="6.11673">
        <ele>279.88</ele>
        <time>2018-08-26T07:24:55Z</time>
      </trkpt>
      <trkpt lat="47.34962" lon="6.11682">
        <ele>280.36</ele>
        <time>2018-08-26T07:24:58Z</time>
      </trkpt>
      <trkpt lat="47.34979" lon="6.11721">
        <ele>281.32</ele>
        <time>2018-08-26T07:25:11Z</time>
      </trkpt>
      <trkpt lat="47.34989" lon="6.11754">
        <ele>283.73</ele>
        <time>2018-08-26T07:25:23Z</time>
      </trkpt>
      <trkpt lat="47.34989" lon="6.11758">
        <ele>283.73</ele>
        <time>2018-08-26T07:25:25Z</time>
      </trkpt>
      <trkpt lat="47.34989" lon="6.1176">
        <ele>284.21</ele>
        <time>2018-08-26T07:25:26Z</time>
      </trkpt>
      <trkpt lat="47.34989" lon="6.11762">
        <ele>284.21</ele>
        <time>2018-08-26T07:25:27Z</time>
      </trkpt>
      <trkpt lat="47.34989" lon="6.11764">
        <ele>284.21</ele>
        <time>2018-08-26T07:25:28Z</time>
      </trkpt>
      <trkpt lat="47.3499" lon="6.11767">
        <ele>284.21</ele>
        <time>2018-08-26T07:25:29Z</time>
      </trkpt>
      <trkpt lat="47.34991" lon="6.1177">
        <ele>284.21</ele>
        <time>2018-08-26T07:25:30Z</time>
      </trkpt>
      <trkpt lat="47.34992" lon="6.11772">
        <ele>284.21</ele>
        <time>2018-08-26T07:25:31Z</time>
      </trkpt>
      <trkpt lat="47.34993" lon="6.11775">
        <ele>284.69</ele>
        <time>2018-08-26T07:25:32Z</time>
      </trkpt>
      <trkpt lat="47.34993" lon="6.11777">
        <ele>284.69</ele>
        <time>2018-08-26T07:25:33Z</time>
      </trkpt>
      <trkpt lat="47.34994" lon="6.11789">
        <ele>285.65</ele>
        <time>2018-08-26T07:25:37Z</time>
      </trkpt>
      <trkpt lat="47.34994" lon="6.11792">
        <ele>285.65</ele>
        <time>2018-08-26T07:25:38Z</time>
      </trkpt>
      <trkpt lat="47.34994" lon="6.11797">
        <ele>286.13</ele>
        <time>2018-08-26T07:25:40Z</time>
      </trkpt>
      <trkpt lat="47.34996" lon="6.11839">
        <ele>287.57</ele>
        <time>2018-08-26T07:25:51Z</time>
      </trkpt>
      <trkpt lat="47.34996" lon="6.11882">
        <ele>289.01</ele>
        <time>2018-08-26T07:26:02Z</time>
      </trkpt>
      <trkpt lat="47.34995" lon="6.11894">
        <ele>290.46</ele>
        <time>2018-08-26T07:26:07Z</time>
      </trkpt>
      <trkpt lat="47.34994" lon="6.11896">
        <ele>289.97</ele>
        <time>2018-08-26T07:26:08Z</time>
      </trkpt>
      <trkpt lat="47.34993" lon="6.119">
        <ele>290.46</ele>
        <time>2018-08-26T07:26:10Z</time>
      </trkpt>
      <trkpt lat="47.34988" lon="6.11914">
        <ele>292.38</ele>
        <time>2018-08-26T07:26:17Z</time>
      </trkpt>
      <trkpt lat="47.34988" lon="6.11917">
        <ele>292.38</ele>
        <time>2018-08-26T07:26:18Z</time>
      </trkpt>
      <trkpt lat="47.34988" lon="6.11945">
        <ele>294.3</ele>
        <time>2018-08-26T07:26:27Z</time>
      </trkpt>
      <trkpt lat="47.34987" lon="6.11948">
        <ele>294.3</ele>
        <time>2018-08-26T07:26:28Z</time>
      </trkpt>
      <trkpt lat="47.34989" lon="6.11975">
        <ele>294.78</ele>
        <time>2018-08-26T07:26:36Z</time>
      </trkpt>
      <trkpt lat="47.35004" lon="6.12022">
        <ele>296.7</ele>
        <time>2018-08-26T07:26:48Z</time>
      </trkpt>
      <trkpt lat="47.35007" lon="6.12028">
        <ele>296.7</ele>
        <time>2018-08-26T07:26:50Z</time>
      </trkpt>
      <trkpt lat="47.35007" lon="6.12032">
        <ele>296.7</ele>
        <time>2018-08-26T07:26:51Z</time>
      </trkpt>
      <trkpt lat="47.35007" lon="6.12036">
        <ele>297.18</ele>
        <time>2018-08-26T07:26:52Z</time>
      </trkpt>
      <trkpt lat="47.35007" lon="6.1204">
        <ele>297.67</ele>
        <time>2018-08-26T07:26:53Z</time>
      </trkpt>
      <trkpt lat="47.35007" lon="6.12043">
        <ele>297.67</ele>
        <time>2018-08-26T07:26:54Z</time>
      </trkpt>
      <trkpt lat="47.35007" lon="6.12046">
        <ele>298.15</ele>
        <time>2018-08-26T07:26:55Z</time>
      </trkpt>
      <trkpt lat="47.35008" lon="6.12048">
        <ele>298.15</ele>
        <time>2018-08-26T07:26:56Z</time>
      </trkpt>
      <trkpt lat="47.35008" lon="6.12051">
        <ele>298.15</ele>
        <time>2018-08-26T07:26:57Z</time>
      </trkpt>
      <trkpt lat="47.35009" lon="6.12054">
        <ele>298.15</ele>
        <time>2018-08-26T07:26:58Z</time>
      </trkpt>
      <trkpt lat="47.35009" lon="6.12058">
        <ele>298.63</ele>
        <time>2018-08-26T07:26:59Z</time>
      </trkpt>
      <trkpt lat="47.35009" lon="6.12063">
        <ele>298.63</ele>
        <time>2018-08-26T07:27:00Z</time>
      </trkpt>
      <trkpt lat="47.35009" lon="6.12066">
        <ele>298.63</ele>
        <time>2018-08-26T07:27:01Z</time>
      </trkpt>
      <trkpt lat="47.3501" lon="6.1207">
        <ele>298.63</ele>
        <time>2018-08-26T07:27:02Z</time>
      </trkpt>
      <trkpt lat="47.35008" lon="6.12079">
        <ele>299.11</ele>
        <time>2018-08-26T07:27:05Z</time>
      </trkpt>
      <trkpt lat="47.35007" lon="6.12083">
        <ele>299.11</ele>
        <time>2018-08-26T07:27:06Z</time>
      </trkpt>
      <trkpt lat="47.35006" lon="6.12088">
        <ele>299.59</ele>
        <time>2018-08-26T07:27:07Z</time>
      </trkpt>
      <trkpt lat="47.35005" lon="6.12093">
        <ele>299.59</ele>
        <time>2018-08-26T07:27:08Z</time>
      </trkpt>
      <trkpt lat="47.35004" lon="6.12097">
        <ele>299.59</ele>
        <time>2018-08-26T07:27:09Z</time>
      </trkpt>
      <trkpt lat="47.35002" lon="6.12103">
        <ele>300.07</ele>
        <time>2018-08-26T07:27:10Z</time>
      </trkpt>
      <trkpt lat="47.3499" lon="6.12165">
        <ele>302.95</ele>
        <time>2018-08-26T07:27:23Z</time>
      </trkpt>
      <trkpt lat="47.34989" lon="6.12173">
        <ele>303.43</ele>
        <time>2018-08-26T07:27:26Z</time>
      </trkpt>
      <trkpt lat="47.3499" lon="6.12176">
        <ele>303.91</ele>
        <time>2018-08-26T07:27:27Z</time>
      </trkpt>
      <trkpt lat="47.34992" lon="6.122">
        <ele>306.32</ele>
        <time>2018-08-26T07:27:38Z</time>
      </trkpt>
      <trkpt lat="47.35" lon="6.12228">
        <ele>308.72</ele>
        <time>2018-08-26T07:27:51Z</time>
      </trkpt>
      <trkpt lat="47.35005" lon="6.12244">
        <ele>310.16</ele>
        <time>2018-08-26T07:27:58Z</time>
      </trkpt>
      <trkpt lat="47.35006" lon="6.12246">
        <ele>310.16</ele>
        <time>2018-08-26T07:27:59Z</time>
      </trkpt>
      <trkpt lat="47.35007" lon="6.12249">
        <ele>310.16</ele>
        <time>2018-08-26T07:28:00Z</time>
      </trkpt>
      <trkpt lat="47.35007" lon="6.12251">
        <ele>310.16</ele>
        <time>2018-08-26T07:28:01Z</time>
      </trkpt>
      <trkpt lat="47.35008" lon="6.12254">
        <ele>310.64</ele>
        <time>2018-08-26T07:28:02Z</time>
      </trkpt>
      <trkpt lat="47.35008" lon="6.12259">
        <ele>311.12</ele>
        <time>2018-08-26T07:28:05Z</time>
      </trkpt>
      <trkpt lat="47.35009" lon="6.12261">
        <ele>311.12</ele>
        <time>2018-08-26T07:28:06Z</time>
      </trkpt>
      <trkpt lat="47.35009" lon="6.12264">
        <ele>311.6</ele>
        <time>2018-08-26T07:28:07Z</time>
      </trkpt>
      <trkpt lat="47.3501" lon="6.12267">
        <ele>311.6</ele>
        <time>2018-08-26T07:28:08Z</time>
      </trkpt>
      <trkpt lat="47.3501" lon="6.1227">
        <ele>312.09</ele>
        <time>2018-08-26T07:28:09Z</time>
      </trkpt>
      <trkpt lat="47.35019" lon="6.12297">
        <ele>314.01</ele>
        <time>2018-08-26T07:28:21Z</time>
      </trkpt>
      <trkpt lat="47.35031" lon="6.12327">
        <ele>316.89</ele>
        <time>2018-08-26T07:28:35Z</time>
      </trkpt>
      <trkpt lat="47.35039" lon="6.1235">
        <ele>319.3</ele>
        <time>2018-08-26T07:28:46Z</time>
      </trkpt>
      <trkpt lat="47.35039" lon="6.12353">
        <ele>319.3</ele>
        <time>2018-08-26T07:28:47Z</time>
      </trkpt>
      <trkpt lat="47.35038" lon="6.12356">
        <ele>319.3</ele>
        <time>2018-08-26T07:28:48Z</time>
      </trkpt>
      <trkpt lat="47.35038" lon="6.12358">
        <ele>319.78</ele>
        <time>2018-08-26T07:28:49Z</time>
      </trkpt>
      <trkpt lat="47.35038" lon="6.1236">
        <ele>319.78</ele>
        <time>2018-08-26T07:28:50Z</time>
      </trkpt>
      <trkpt lat="47.3504" lon="6.12364">
        <ele>320.26</ele>
        <time>2018-08-26T07:28:52Z</time>
      </trkpt>
      <trkpt lat="47.35041" lon="6.12366">
        <ele>320.26</ele>
        <time>2018-08-26T07:28:53Z</time>
      </trkpt>
      <trkpt lat="47.35042" lon="6.12368">
        <ele>320.74</ele>
        <time>2018-08-26T07:28:54Z</time>
      </trkpt>
      <trkpt lat="47.35043" lon="6.1237">
        <ele>320.74</ele>
        <time>2018-08-26T07:28:55Z</time>
      </trkpt>
      <trkpt lat="47.35043" lon="6.12373">
        <ele>321.22</ele>
        <time>2018-08-26T07:28:56Z</time>
      </trkpt>
      <trkpt lat="47.35045" lon="6.12375">
        <ele>321.22</ele>
        <time>2018-08-26T07:28:57Z</time>
      </trkpt>
      <trkpt lat="47.35046" lon="6.12377">
        <ele>321.22</ele>
        <time>2018-08-26T07:28:58Z</time>
      </trkpt>
      <trkpt lat="47.35046" lon="6.1238">
        <ele>321.7</ele>
        <time>2018-08-26T07:28:59Z</time>
      </trkpt>
      <trkpt lat="47.35052" lon="6.12402">
        <ele>323.62</ele>
        <time>2018-08-26T07:29:09Z</time>
      </trkpt>
      <trkpt lat="47.35066" lon="6.12433">
        <ele>325.06</ele>
        <time>2018-08-26T07:29:23Z</time>
      </trkpt>
      <trkpt lat="47.35067" lon="6.12438">
        <ele>325.54</ele>
        <time>2018-08-26T07:29:25Z</time>
      </trkpt>
      <trkpt lat="47.35068" lon="6.1244">
        <ele>325.54</ele>
        <time>2018-08-26T07:29:26Z</time>
      </trkpt>
      <trkpt lat="47.3507" lon="6.12442">
        <ele>325.54</ele>
        <time>2018-08-26T07:29:27Z</time>
      </trkpt>
      <trkpt lat="47.35071" lon="6.12444">
        <ele>325.54</ele>
        <time>2018-08-26T07:29:28Z</time>
      </trkpt>
      <trkpt lat="47.35072" lon="6.12447">
        <ele>325.54</ele>
        <time>2018-08-26T07:29:29Z</time>
      </trkpt>
      <trkpt lat="47.3508" lon="6.12468">
        <ele>326.99</ele>
        <time>2018-08-26T07:29:38Z</time>
      </trkpt>
      <trkpt lat="47.35081" lon="6.1247">
        <ele>326.99</ele>
        <time>2018-08-26T07:29:39Z</time>
      </trkpt>
      <trkpt lat="47.35089" lon="6.12491">
        <ele>328.43</ele>
        <time>2018-08-26T07:29:49Z</time>
      </trkpt>
      <trkpt lat="47.3509" lon="6.12496">
        <ele>329.39</ele>
        <time>2018-08-26T07:29:52Z</time>
      </trkpt>
      <trkpt lat="47.35094" lon="6.12509">
        <ele>330.83</ele>
        <time>2018-08-26T07:30:00Z</time>
      </trkpt>
      <trkpt lat="47.35094" lon="6.12511">
        <ele>330.83</ele>
        <time>2018-08-26T07:30:01Z</time>
      </trkpt>
      <trkpt lat="47.35094" lon="6.12514">
        <ele>331.31</ele>
        <time>2018-08-26T07:30:02Z</time>
      </trkpt>
      <trkpt lat="47.35096" lon="6.12523">
        <ele>331.79</ele>
        <time>2018-08-26T07:30:06Z</time>
      </trkpt>
      <trkpt lat="47.35097" lon="6.12526">
        <ele>332.27</ele>
        <time>2018-08-26T07:30:07Z</time>
      </trkpt>
      <trkpt lat="47.35098" lon="6.12528">
        <ele>332.27</ele>
        <time>2018-08-26T07:30:08Z</time>
      </trkpt>
      <trkpt lat="47.35099" lon="6.1253">
        <ele>332.27</ele>
        <time>2018-08-26T07:30:09Z</time>
      </trkpt>
      <trkpt lat="47.351" lon="6.12532">
        <ele>332.27</ele>
        <time>2018-08-26T07:30:10Z</time>
      </trkpt>
      <trkpt lat="47.35101" lon="6.12534">
        <ele>332.75</ele>
        <time>2018-08-26T07:30:11Z</time>
      </trkpt>
      <trkpt lat="47.35102" lon="6.12536">
        <ele>332.75</ele>
        <time>2018-08-26T07:30:12Z</time>
      </trkpt>
      <trkpt lat="47.35102" lon="6.12539">
        <ele>332.75</ele>
        <time>2018-08-26T07:30:13Z</time>
      </trkpt>
      <trkpt lat="47.35104" lon="6.12542">
        <ele>332.75</ele>
        <time>2018-08-26T07:30:14Z</time>
      </trkpt>
      <trkpt lat="47.35105" lon="6.12545">
        <ele>332.75</ele>
        <time>2018-08-26T07:30:15Z</time>
      </trkpt>
      <trkpt lat="47.35107" lon="6.12548">
        <ele>332.75</ele>
        <time>2018-08-26T07:30:16Z</time>
      </trkpt>
      <trkpt lat="47.35109" lon="6.12551">
        <ele>332.75</ele>
        <time>2018-08-26T07:30:17Z</time>
      </trkpt>
      <trkpt lat="47.35111" lon="6.12555">
        <ele>332.75</ele>
        <time>2018-08-26T07:30:18Z</time>
      </trkpt>
      <trkpt lat="47.35113" lon="6.12557">
        <ele>333.23</ele>
        <time>2018-08-26T07:30:19Z</time>
      </trkpt>
      <trkpt lat="47.35114" lon="6.1256">
        <ele>333.23</ele>
        <time>2018-08-26T07:30:20Z</time>
      </trkpt>
      <trkpt lat="47.35127" lon="6.12596">
        <ele>333.71</ele>
        <time>2018-08-26T07:30:31Z</time>
      </trkpt>
      <trkpt lat="47.35128" lon="6.12599">
        <ele>333.71</ele>
        <time>2018-08-26T07:30:32Z</time>
      </trkpt>
      <trkpt lat="47.35129" lon="6.12602">
        <ele>333.71</ele>
        <time>2018-08-26T07:30:33Z</time>
      </trkpt>
      <trkpt lat="47.35132" lon="6.12614">
        <ele>333.71</ele>
        <time>2018-08-26T07:30:37Z</time>
      </trkpt>
      <trkpt lat="47.35146" lon="6.12646">
        <ele>334.2</ele>
        <time>2018-08-26T07:30:47Z</time>
      </trkpt>
      <trkpt lat="47.35151" lon="6.12667">
        <ele>334.2</ele>
        <time>2018-08-26T07:30:54Z</time>
      </trkpt>
      <trkpt lat="47.35152" lon="6.12671">
        <ele>334.2</ele>
        <time>2018-08-26T07:30:55Z</time>
      </trkpt>
      <trkpt lat="47.3516" lon="6.12699">
        <ele>335.64</ele>
        <time>2018-08-26T07:31:05Z</time>
      </trkpt>
      <trkpt lat="47.35163" lon="6.12707">
        <ele>336.12</ele>
        <time>2018-08-26T07:31:08Z</time>
      </trkpt>
      <trkpt lat="47.35165" lon="6.12709">
        <ele>336.12</ele>
        <time>2018-08-26T07:31:09Z</time>
      </trkpt>
      <trkpt lat="47.35168" lon="6.12718">
        <ele>336.6</ele>
        <time>2018-08-26T07:31:12Z</time>
      </trkpt>
      <trkpt lat="47.35169" lon="6.1272">
        <ele>336.6</ele>
        <time>2018-08-26T07:31:13Z</time>
      </trkpt>
      <trkpt lat="47.35176" lon="6.12736">
        <ele>338.04</ele>
        <time>2018-08-26T07:31:20Z</time>
      </trkpt>
      <trkpt lat="47.35183" lon="6.12767">
        <ele>339.48</ele>
        <time>2018-08-26T07:31:31Z</time>
      </trkpt>
      <trkpt lat="47.35184" lon="6.12769">
        <ele>339.48</ele>
        <time>2018-08-26T07:31:32Z</time>
      </trkpt>
      <trkpt lat="47.35187" lon="6.12776">
        <ele>339.96</ele>
        <time>2018-08-26T07:31:35Z</time>
      </trkpt>
      <trkpt lat="47.35188" lon="6.12779">
        <ele>339.96</ele>
        <time>2018-08-26T07:31:36Z</time>
      </trkpt>
      <trkpt lat="47.35188" lon="6.12781">
        <ele>339.96</ele>
        <time>2018-08-26T07:31:37Z</time>
      </trkpt>
      <trkpt lat="47.35189" lon="6.12784">
        <ele>339.48</ele>
        <time>2018-08-26T07:31:38Z</time>
      </trkpt>
      <trkpt lat="47.35189" lon="6.12786">
        <ele>339.48</ele>
        <time>2018-08-26T07:31:39Z</time>
      </trkpt>
      <trkpt lat="47.3519" lon="6.12788">
        <ele>339.48</ele>
        <time>2018-08-26T07:31:40Z</time>
      </trkpt>
      <trkpt lat="47.35191" lon="6.12791">
        <ele>339.48</ele>
        <time>2018-08-26T07:31:41Z</time>
      </trkpt>
      <trkpt lat="47.35199" lon="6.12826">
        <ele>338.52</ele>
        <time>2018-08-26T07:31:53Z</time>
      </trkpt>
      <trkpt lat="47.35206" lon="6.1286">
        <ele>338.04</ele>
        <time>2018-08-26T07:32:03Z</time>
      </trkpt>
      <trkpt lat="47.35216" lon="6.12912">
        <ele>336.6</ele>
        <time>2018-08-26T07:32:13Z</time>
      </trkpt>
      <trkpt lat="47.35223" lon="6.12958">
        <ele>334.68</ele>
        <time>2018-08-26T07:32:23Z</time>
      </trkpt>
      <trkpt lat="47.35228" lon="6.12998">
        <ele>334.2</ele>
        <time>2018-08-26T07:32:33Z</time>
      </trkpt>
      <trkpt lat="47.35229" lon="6.13023">
        <ele>333.23</ele>
        <time>2018-08-26T07:32:40Z</time>
      </trkpt>
      <trkpt lat="47.35233" lon="6.13074">
        <ele>331.79</ele>
        <time>2018-08-26T07:32:51Z</time>
      </trkpt>
      <trkpt lat="47.35244" lon="6.13124">
        <ele>333.23</ele>
        <time>2018-08-26T07:33:01Z</time>
      </trkpt>
      <trkpt lat="47.35244" lon="6.13129">
        <ele>333.23</ele>
        <time>2018-08-26T07:33:02Z</time>
      </trkpt>
      <trkpt lat="47.35251" lon="6.13173">
        <ele>334.68</ele>
        <time>2018-08-26T07:33:14Z</time>
      </trkpt>
      <trkpt lat="47.35252" lon="6.13186">
        <ele>334.68</ele>
        <time>2018-08-26T07:33:18Z</time>
      </trkpt>
      <trkpt lat="47.35255" lon="6.13198">
        <ele>335.16</ele>
        <time>2018-08-26T07:33:21Z</time>
      </trkpt>
      <trkpt lat="47.35271" lon="6.13241">
        <ele>335.64</ele>
        <time>2018-08-26T07:33:35Z</time>
      </trkpt>
      <trkpt lat="47.35279" lon="6.13277">
        <ele>336.6</ele>
        <time>2018-08-26T07:33:46Z</time>
      </trkpt>
      <trkpt lat="47.35288" lon="6.13311">
        <ele>339</ele>
        <time>2018-08-26T07:33:58Z</time>
      </trkpt>
      <trkpt lat="47.35289" lon="6.13341">
        <ele>340.44</ele>
        <time>2018-08-26T07:34:09Z</time>
      </trkpt>
      <trkpt lat="47.3529" lon="6.13373">
        <ele>342.37</ele>
        <time>2018-08-26T07:34:20Z</time>
      </trkpt>
      <trkpt lat="47.35294" lon="6.13414">
        <ele>343.81</ele>
        <time>2018-08-26T07:34:32Z</time>
      </trkpt>
      <trkpt lat="47.35297" lon="6.13445">
        <ele>343.81</ele>
        <time>2018-08-26T07:34:41Z</time>
      </trkpt>
      <trkpt lat="47.3531" lon="6.135">
        <ele>342.85</ele>
        <time>2018-08-26T07:34:55Z</time>
      </trkpt>
      <trkpt lat="47.35311" lon="6.13514">
        <ele>342.85</ele>
        <time>2018-08-26T07:34:59Z</time>
      </trkpt>
      <trkpt lat="47.35315" lon="6.13565">
        <ele>341.89</ele>
        <time>2018-08-26T07:35:11Z</time>
      </trkpt>
      <trkpt lat="47.35316" lon="6.13574">
        <ele>341.41</ele>
        <time>2018-08-26T07:35:13Z</time>
      </trkpt>
      <trkpt lat="47.35327" lon="6.13611">
        <ele>342.85</ele>
        <time>2018-08-26T07:35:23Z</time>
      </trkpt>
      <trkpt lat="47.35326" lon="6.13617">
        <ele>343.33</ele>
        <time>2018-08-26T07:35:25Z</time>
      </trkpt>
      <trkpt lat="47.35335" lon="6.13654">
        <ele>343.81</ele>
        <time>2018-08-26T07:35:35Z</time>
      </trkpt>
      <trkpt lat="47.35335" lon="6.13657">
        <ele>343.81</ele>
        <time>2018-08-26T07:35:36Z</time>
      </trkpt>
      <trkpt lat="47.35339" lon="6.13689">
        <ele>345.73</ele>
        <time>2018-08-26T07:35:48Z</time>
      </trkpt>
      <trkpt lat="47.3534" lon="6.137">
        <ele>346.21</ele>
        <time>2018-08-26T07:35:52Z</time>
      </trkpt>
      <trkpt lat="47.35339" lon="6.1374">
        <ele>348.62</ele>
        <time>2018-08-26T07:36:07Z</time>
      </trkpt>
      <trkpt lat="47.35339" lon="6.13751">
        <ele>349.58</ele>
        <time>2018-08-26T07:36:12Z</time>
      </trkpt>
      <trkpt lat="47.35338" lon="6.13759">
        <ele>349.58</ele>
        <time>2018-08-26T07:36:15Z</time>
      </trkpt>
      <trkpt lat="47.35337" lon="6.13761">
        <ele>350.06</ele>
        <time>2018-08-26T07:36:16Z</time>
      </trkpt>
      <trkpt lat="47.35337" lon="6.13764">
        <ele>350.06</ele>
        <time>2018-08-26T07:36:18Z</time>
      </trkpt>
      <trkpt lat="47.3534" lon="6.13794">
        <ele>352.94</ele>
        <time>2018-08-26T07:36:31Z</time>
      </trkpt>
      <trkpt lat="47.3534" lon="6.13819">
        <ele>355.83</ele>
        <time>2018-08-26T07:36:43Z</time>
      </trkpt>
      <trkpt lat="47.35341" lon="6.13832">
        <ele>357.27</ele>
        <time>2018-08-26T07:36:48Z</time>
      </trkpt>
      <trkpt lat="47.35332" lon="6.13869">
        <ele>359.19</ele>
        <time>2018-08-26T07:37:00Z</time>
      </trkpt>
      <trkpt lat="47.3533" lon="6.13916">
        <ele>356.79</ele>
        <time>2018-08-26T07:37:11Z</time>
      </trkpt>
      <trkpt lat="47.3533" lon="6.13961">
        <ele>357.75</ele>
        <time>2018-08-26T07:37:21Z</time>
      </trkpt>
      <trkpt lat="47.3533" lon="6.13979">
        <ele>358.23</ele>
        <time>2018-08-26T07:37:26Z</time>
      </trkpt>
      <trkpt lat="47.35336" lon="6.13991">
        <ele>357.27</ele>
        <time>2018-08-26T07:37:34Z</time>
      </trkpt>
      <trkpt lat="47.35328" lon="6.14049">
        <ele>354.38</ele>
        <time>2018-08-26T07:37:45Z</time>
      </trkpt>
      <trkpt lat="47.35331" lon="6.14101">
        <ele>354.86</ele>
        <time>2018-08-26T07:37:56Z</time>
      </trkpt>
      <trkpt lat="47.35336" lon="6.1414">
        <ele>356.79</ele>
        <time>2018-08-26T07:38:09Z</time>
      </trkpt>
      <trkpt lat="47.35337" lon="6.1415">
        <ele>356.79</ele>
        <time>2018-08-26T07:38:12Z</time>
      </trkpt>
      <trkpt lat="47.35339" lon="6.14157">
        <ele>357.27</ele>
        <time>2018-08-26T07:38:15Z</time>
      </trkpt>
      <trkpt lat="47.35345" lon="6.14199">
        <ele>359.19</ele>
        <time>2018-08-26T07:38:29Z</time>
      </trkpt>
      <trkpt lat="47.35346" lon="6.14213">
        <ele>359.67</ele>
        <time>2018-08-26T07:38:33Z</time>
      </trkpt>
      <trkpt lat="47.35347" lon="6.14248">
        <ele>361.59</ele>
        <time>2018-08-26T07:38:45Z</time>
      </trkpt>
      <trkpt lat="47.35343" lon="6.14278">
        <ele>363.04</ele>
        <time>2018-08-26T07:38:56Z</time>
      </trkpt>
      <trkpt lat="47.35338" lon="6.14306">
        <ele>364</ele>
        <time>2018-08-26T07:39:07Z</time>
      </trkpt>
      <trkpt lat="47.35337" lon="6.1431">
        <ele>364</ele>
        <time>2018-08-26T07:39:08Z</time>
      </trkpt>
      <trkpt lat="47.35332" lon="6.14322">
        <ele>364.48</ele>
        <time>2018-08-26T07:39:12Z</time>
      </trkpt>
      <trkpt lat="47.35318" lon="6.14341">
        <ele>366.88</ele>
        <time>2018-08-26T07:39:22Z</time>
      </trkpt>
      <trkpt lat="47.35311" lon="6.14349">
        <ele>367.36</ele>
        <time>2018-08-26T07:39:26Z</time>
      </trkpt>
      <trkpt lat="47.35297" lon="6.14375">
        <ele>369.76</ele>
        <time>2018-08-26T07:39:39Z</time>
      </trkpt>
      <trkpt lat="47.35297" lon="6.14387">
        <ele>371.21</ele>
        <time>2018-08-26T07:39:46Z</time>
      </trkpt>
      <trkpt lat="47.35297" lon="6.14391">
        <ele>371.21</ele>
        <time>2018-08-26T07:39:48Z</time>
      </trkpt>
      <trkpt lat="47.35297" lon="6.14408">
        <ele>372.17</ele>
        <time>2018-08-26T07:39:55Z</time>
      </trkpt>
      <trkpt lat="47.35285" lon="6.14435">
        <ele>374.09</ele>
        <time>2018-08-26T07:40:07Z</time>
      </trkpt>
      <trkpt lat="47.35272" lon="6.14458">
        <ele>376.01</ele>
        <time>2018-08-26T07:40:20Z</time>
      </trkpt>
      <trkpt lat="47.35261" lon="6.14472">
        <ele>377.45</ele>
        <time>2018-08-26T07:40:31Z</time>
      </trkpt>
      <trkpt lat="47.35251" lon="6.14463">
        <ele>378.9</ele>
        <time>2018-08-26T07:40:41Z</time>
      </trkpt>
      <trkpt lat="47.35239" lon="6.14452">
        <ele>381.3</ele>
        <time>2018-08-26T07:40:55Z</time>
      </trkpt>
      <trkpt lat="47.35231" lon="6.14451">
        <ele>382.26</ele>
        <time>2018-08-26T07:41:01Z</time>
      </trkpt>
      <trkpt lat="47.35216" lon="6.14447">
        <ele>384.66</ele>
        <time>2018-08-26T07:41:14Z</time>
      </trkpt>
      <trkpt lat="47.35202" lon="6.1444">
        <ele>388.03</ele>
        <time>2018-08-26T07:41:27Z</time>
      </trkpt>
      <trkpt lat="47.35193" lon="6.14437">
        <ele>389.95</ele>
        <time>2018-08-26T07:41:35Z</time>
      </trkpt>
      <trkpt lat="47.35179" lon="6.14426">
        <ele>392.36</ele>
        <time>2018-08-26T07:41:45Z</time>
      </trkpt>
      <trkpt lat="47.35177" lon="6.14425">
        <ele>392.84</ele>
        <time>2018-08-26T07:41:47Z</time>
      </trkpt>
      <trkpt lat="47.35171" lon="6.14422">
        <ele>394.28</ele>
        <time>2018-08-26T07:41:52Z</time>
      </trkpt>
      <trkpt lat="47.35163" lon="6.14421">
        <ele>397.16</ele>
        <time>2018-08-26T07:42:05Z</time>
      </trkpt>
      <trkpt lat="47.35157" lon="6.14423">
        <ele>398.12</ele>
        <time>2018-08-26T07:42:16Z</time>
      </trkpt>
      <trkpt lat="47.35154" lon="6.14422">
        <ele>398.6</ele>
        <time>2018-08-26T07:42:19Z</time>
      </trkpt>
      <trkpt lat="47.35141" lon="6.14416">
        <ele>401.49</ele>
        <time>2018-08-26T07:42:32Z</time>
      </trkpt>
      <trkpt lat="47.35132" lon="6.14409">
        <ele>403.41</ele>
        <time>2018-08-26T07:42:43Z</time>
      </trkpt>
      <trkpt lat="47.3513" lon="6.14406">
        <ele>403.89</ele>
        <time>2018-08-26T07:42:48Z</time>
      </trkpt>
      <trkpt lat="47.35119" lon="6.14398">
        <ele>405.33</ele>
        <time>2018-08-26T07:43:00Z</time>
      </trkpt>
      <trkpt lat="47.35107" lon="6.14396">
        <ele>407.26</ele>
        <time>2018-08-26T07:43:13Z</time>
      </trkpt>
      <trkpt lat="47.35095" lon="6.14396">
        <ele>408.7</ele>
        <time>2018-08-26T07:43:25Z</time>
      </trkpt>
      <trkpt lat="47.35084" lon="6.14395">
        <ele>409.66</ele>
        <time>2018-08-26T07:43:35Z</time>
      </trkpt>
      <trkpt lat="47.35065" lon="6.14388">
        <ele>411.58</ele>
        <time>2018-08-26T07:43:48Z</time>
      </trkpt>
      <trkpt lat="47.35059" lon="6.14383">
        <ele>413.02</ele>
        <time>2018-08-26T07:43:54Z</time>
      </trkpt>
      <trkpt lat="47.3505" lon="6.1438">
        <ele>414.47</ele>
        <time>2018-08-26T07:44:02Z</time>
      </trkpt>
      <trkpt lat="47.35045" lon="6.14376">
        <ele>415.43</ele>
        <time>2018-08-26T07:44:06Z</time>
      </trkpt>
      <trkpt lat="47.35035" lon="6.14363">
        <ele>418.79</ele>
        <time>2018-08-26T07:44:18Z</time>
      </trkpt>
      <trkpt lat="47.35029" lon="6.14355">
        <ele>420.23</ele>
        <time>2018-08-26T07:44:25Z</time>
      </trkpt>
      <trkpt lat="47.35018" lon="6.14332">
        <ele>422.64</ele>
        <time>2018-08-26T07:44:39Z</time>
      </trkpt>
      <trkpt lat="47.35016" lon="6.14322">
        <ele>424.08</ele>
        <time>2018-08-26T07:44:45Z</time>
      </trkpt>
      <trkpt lat="47.35015" lon="6.14299">
        <ele>426.96</ele>
        <time>2018-08-26T07:44:59Z</time>
      </trkpt>
      <trkpt lat="47.35011" lon="6.14281">
        <ele>429.37</ele>
        <time>2018-08-26T07:45:11Z</time>
      </trkpt>
      <trkpt lat="47.3501" lon="6.14274">
        <ele>430.33</ele>
        <time>2018-08-26T07:45:15Z</time>
      </trkpt>
      <trkpt lat="47.35004" lon="6.1426">
        <ele>432.25</ele>
        <time>2018-08-26T07:45:27Z</time>
      </trkpt>
      <trkpt lat="47.34998" lon="6.14243">
        <ele>434.17</ele>
        <time>2018-08-26T07:45:38Z</time>
      </trkpt>
      <trkpt lat="47.34997" lon="6.14237">
        <ele>434.65</ele>
        <time>2018-08-26T07:45:41Z</time>
      </trkpt>
      <trkpt lat="47.34997" lon="6.14221">
        <ele>436.58</ele>
        <time>2018-08-26T07:45:51Z</time>
      </trkpt>
      <trkpt lat="47.34994" lon="6.14209">
        <ele>437.54</ele>
        <time>2018-08-26T07:45:58Z</time>
      </trkpt>
      <trkpt lat="47.34993" lon="6.14204">
        <ele>438.02</ele>
        <time>2018-08-26T07:46:01Z</time>
      </trkpt>
      <trkpt lat="47.34989" lon="6.14183">
        <ele>439.94</ele>
        <time>2018-08-26T07:46:13Z</time>
      </trkpt>
      <trkpt lat="47.34986" lon="6.14164">
        <ele>442.34</ele>
        <time>2018-08-26T07:46:25Z</time>
      </trkpt>
      <trkpt lat="47.34982" lon="6.14147">
        <ele>444.27</ele>
        <time>2018-08-26T07:46:37Z</time>
      </trkpt>
      <trkpt lat="47.34977" lon="6.1413">
        <ele>446.19</ele>
        <time>2018-08-26T07:46:46Z</time>
      </trkpt>
      <trkpt lat="47.34965" lon="6.14111">
        <ele>448.11</ele>
        <time>2018-08-26T07:46:57Z</time>
      </trkpt>
      <trkpt lat="47.34956" lon="6.14092">
        <ele>450.03</ele>
        <time>2018-08-26T07:47:08Z</time>
      </trkpt>
      <trkpt lat="47.34944" lon="6.1407">
        <ele>451.96</ele>
        <time>2018-08-26T07:47:22Z</time>
      </trkpt>
      <trkpt lat="47.3494" lon="6.14062">
        <ele>451.96</ele>
        <time>2018-08-26T07:47:25Z</time>
      </trkpt>
      <trkpt lat="47.34934" lon="6.14042">
        <ele>454.36</ele>
        <time>2018-08-26T07:47:35Z</time>
      </trkpt>
      <trkpt lat="47.34933" lon="6.14038">
        <ele>454.84</ele>
        <time>2018-08-26T07:47:37Z</time>
      </trkpt>
      <trkpt lat="47.34933" lon="6.14034">
        <ele>455.32</ele>
        <time>2018-08-26T07:47:39Z</time>
      </trkpt>
      <trkpt lat="47.34934" lon="6.14026">
        <ele>456.28</ele>
        <time>2018-08-26T07:47:44Z</time>
      </trkpt>
      <trkpt lat="47.34937" lon="6.14">
        <ele>459.17</ele>
        <time>2018-08-26T07:47:57Z</time>
      </trkpt>
      <trkpt lat="47.34941" lon="6.13982">
        <ele>462.53</ele>
        <time>2018-08-26T07:48:09Z</time>
      </trkpt>
      <trkpt lat="47.34941" lon="6.13976">
        <ele>463.01</ele>
        <time>2018-08-26T07:48:12Z</time>
      </trkpt>
      <trkpt lat="47.34935" lon="6.13959">
        <ele>464.93</ele>
        <time>2018-08-26T07:48:23Z</time>
      </trkpt>
      <trkpt lat="47.34935" lon="6.13942">
        <ele>466.86</ele>
        <time>2018-08-26T07:48:32Z</time>
      </trkpt>
      <trkpt lat="47.34929" lon="6.13922">
        <ele>468.78</ele>
        <time>2018-08-26T07:48:42Z</time>
      </trkpt>
      <trkpt lat="47.34927" lon="6.13906">
        <ele>471.66</ele>
        <time>2018-08-26T07:48:52Z</time>
      </trkpt>
      <trkpt lat="47.34925" lon="6.1389">
        <ele>473.59</ele>
        <time>2018-08-26T07:49:02Z</time>
      </trkpt>
      <trkpt lat="47.34921" lon="6.13877">
        <ele>475.99</ele>
        <time>2018-08-26T07:49:11Z</time>
      </trkpt>
      <trkpt lat="47.34918" lon="6.13866">
        <ele>477.91</ele>
        <time>2018-08-26T07:49:18Z</time>
      </trkpt>
      <trkpt lat="47.34915" lon="6.13849">
        <ele>480.8</ele>
        <time>2018-08-26T07:49:29Z</time>
      </trkpt>
      <trkpt lat="47.3491" lon="6.13836">
        <ele>483.68</ele>
        <time>2018-08-26T07:49:38Z</time>
      </trkpt>
      <trkpt lat="47.34905" lon="6.13821">
        <ele>486.56</ele>
        <time>2018-08-26T07:49:47Z</time>
      </trkpt>
      <trkpt lat="47.34904" lon="6.1382">
        <ele>487.05</ele>
        <time>2018-08-26T07:49:48Z</time>
      </trkpt>
      <trkpt lat="47.34896" lon="6.13807">
        <ele>490.41</ele>
        <time>2018-08-26T07:49:58Z</time>
      </trkpt>
      <trkpt lat="47.34891" lon="6.13795">
        <ele>492.33</ele>
        <time>2018-08-26T07:50:12Z</time>
      </trkpt>
      <trkpt lat="47.34887" lon="6.13782">
        <ele>494.26</ele>
        <time>2018-08-26T07:50:24Z</time>
      </trkpt>
      <trkpt lat="47.34883" lon="6.13774">
        <ele>496.66</ele>
        <time>2018-08-26T07:50:36Z</time>
      </trkpt>
      <trkpt lat="47.34882" lon="6.13768">
        <ele>497.62</ele>
        <time>2018-08-26T07:50:48Z</time>
      </trkpt>
      <trkpt lat="47.34882" lon="6.13766">
        <ele>497.62</ele>
        <time>2018-08-26T07:50:53Z</time>
      </trkpt>
      <trkpt lat="47.34885" lon="6.13754">
        <ele>500.02</ele>
        <time>2018-08-26T07:51:04Z</time>
      </trkpt>
      <trkpt lat="47.34884" lon="6.13738">
        <ele>502.91</ele>
        <time>2018-08-26T07:51:16Z</time>
      </trkpt>
      <trkpt lat="47.34877" lon="6.13722">
        <ele>505.79</ele>
        <time>2018-08-26T07:51:28Z</time>
      </trkpt>
      <trkpt lat="47.3487" lon="6.13709">
        <ele>507.23</ele>
        <time>2018-08-26T07:51:38Z</time>
      </trkpt>
      <trkpt lat="47.34862" lon="6.13687">
        <ele>510.12</ele>
        <time>2018-08-26T07:51:51Z</time>
      </trkpt>
      <trkpt lat="47.34853" lon="6.1367">
        <ele>512.04</ele>
        <time>2018-08-26T07:52:03Z</time>
      </trkpt>
      <trkpt lat="47.34842" lon="6.13647">
        <ele>514.44</ele>
        <time>2018-08-26T07:52:17Z</time>
      </trkpt>
      <trkpt lat="47.34835" lon="6.13632">
        <ele>517.33</ele>
        <time>2018-08-26T07:52:27Z</time>
      </trkpt>
      <trkpt lat="47.34835" lon="6.13631">
        <ele>516.37</ele>
        <time>2018-08-26T07:52:28Z</time>
      </trkpt>
      <trkpt lat="47.34818" lon="6.1361">
        <ele>514.92</ele>
        <time>2018-08-26T07:52:41Z</time>
      </trkpt>
      <trkpt lat="47.34817" lon="6.13608">
        <ele>520.21</ele>
        <time>2018-08-26T07:52:42Z</time>
      </trkpt>
      <trkpt lat="47.34807" lon="6.13593">
        <ele>519.25</ele>
        <time>2018-08-26T07:52:51Z</time>
      </trkpt>
      <trkpt lat="47.34802" lon="6.13574">
        <ele>520.69</ele>
        <time>2018-08-26T07:53:01Z</time>
      </trkpt>
      <trkpt lat="47.34796" lon="6.13555">
        <ele>522.13</ele>
        <time>2018-08-26T07:53:10Z</time>
      </trkpt>
      <trkpt lat="47.34793" lon="6.13547">
        <ele>522.61</ele>
        <time>2018-08-26T07:53:14Z</time>
      </trkpt>
      <trkpt lat="47.34776" lon="6.13499">
        <ele>524.06</ele>
        <time>2018-08-26T07:53:26Z</time>
      </trkpt>
      <trkpt lat="47.34772" lon="6.13481">
        <ele>524.54</ele>
        <time>2018-08-26T07:53:30Z</time>
      </trkpt>
      <trkpt lat="47.34768" lon="6.13445">
        <ele>524.54</ele>
        <time>2018-08-26T07:53:40Z</time>
      </trkpt>
      <trkpt lat="47.3477" lon="6.13391">
        <ele>524.54</ele>
        <time>2018-08-26T07:53:51Z</time>
      </trkpt>
      <trkpt lat="47.34761" lon="6.13342">
        <ele>525.5</ele>
        <time>2018-08-26T07:54:01Z</time>
      </trkpt>
      <trkpt lat="47.34765" lon="6.13306">
        <ele>525.98</ele>
        <time>2018-08-26T07:54:10Z</time>
      </trkpt>
      <trkpt lat="47.34769" lon="6.13263">
        <ele>525.02</ele>
        <time>2018-08-26T07:54:18Z</time>
      </trkpt>
      <trkpt lat="47.34773" lon="6.13243">
        <ele>524.54</ele>
        <time>2018-08-26T07:54:21Z</time>
      </trkpt>
      <trkpt lat="47.34777" lon="6.13223">
        <ele>524.06</ele>
        <time>2018-08-26T07:54:24Z</time>
      </trkpt>
      <trkpt lat="47.34785" lon="6.13155">
        <ele>521.17</ele>
        <time>2018-08-26T07:54:33Z</time>
      </trkpt>
      <trkpt lat="47.34771" lon="6.13098">
        <ele>521.17</ele>
        <time>2018-08-26T07:54:43Z</time>
      </trkpt>
      <trkpt lat="47.34765" lon="6.13074">
        <ele>521.17</ele>
        <time>2018-08-26T07:54:49Z</time>
      </trkpt>
      <trkpt lat="47.34737" lon="6.13019">
        <ele>522.13</ele>
        <time>2018-08-26T07:55:00Z</time>
      </trkpt>
      <trkpt lat="47.34728" lon="6.13001">
        <ele>522.61</ele>
        <time>2018-08-26T07:55:04Z</time>
      </trkpt>
      <trkpt lat="47.34697" lon="6.12952">
        <ele>523.09</ele>
        <time>2018-08-26T07:55:15Z</time>
      </trkpt>
      <trkpt lat="47.34673" lon="6.12902">
        <ele>522.13</ele>
        <time>2018-08-26T07:55:26Z</time>
      </trkpt>
      <trkpt lat="47.34662" lon="6.12876">
        <ele>521.17</ele>
        <time>2018-08-26T07:55:30Z</time>
      </trkpt>
      <trkpt lat="47.34625" lon="6.1281">
        <ele>519.25</ele>
        <time>2018-08-26T07:55:43Z</time>
      </trkpt>
      <trkpt lat="47.34613" lon="6.12778">
        <ele>517.81</ele>
        <time>2018-08-26T07:55:48Z</time>
      </trkpt>
      <trkpt lat="47.34597" lon="6.12752">
        <ele>516.37</ele>
        <time>2018-08-26T07:55:53Z</time>
      </trkpt>
      <trkpt lat="47.34576" lon="6.12733">
        <ele>514.92</ele>
        <time>2018-08-26T07:55:58Z</time>
      </trkpt>
      <trkpt lat="47.3457" lon="6.12724">
        <ele>514.92</ele>
        <time>2018-08-26T07:55:59Z</time>
      </trkpt>
      <trkpt lat="47.34566" lon="6.12718">
        <ele>514.44</ele>
        <time>2018-08-26T07:56:00Z</time>
      </trkpt>
      <trkpt lat="47.34561" lon="6.12713">
        <ele>514.44</ele>
        <time>2018-08-26T07:56:01Z</time>
      </trkpt>
      <trkpt lat="47.34556" lon="6.12708">
        <ele>513.96</ele>
        <time>2018-08-26T07:56:02Z</time>
      </trkpt>
      <trkpt lat="47.34546" lon="6.12698">
        <ele>513.48</ele>
        <time>2018-08-26T07:56:04Z</time>
      </trkpt>
      <trkpt lat="47.34537" lon="6.12686">
        <ele>513</ele>
        <time>2018-08-26T07:56:06Z</time>
      </trkpt>
      <trkpt lat="47.34533" lon="6.12681">
        <ele>512.52</ele>
        <time>2018-08-26T07:56:07Z</time>
      </trkpt>
      <trkpt lat="47.34529" lon="6.12673">
        <ele>512.04</ele>
        <time>2018-08-26T07:56:08Z</time>
      </trkpt>
      <trkpt lat="47.34526" lon="6.12666">
        <ele>511.56</ele>
        <time>2018-08-26T07:56:09Z</time>
      </trkpt>
      <trkpt lat="47.34522" lon="6.12659">
        <ele>511.08</ele>
        <time>2018-08-26T07:56:10Z</time>
      </trkpt>
      <trkpt lat="47.345" lon="6.12613">
        <ele>507.71</ele>
        <time>2018-08-26T07:56:16Z</time>
      </trkpt>
      <trkpt lat="47.34478" lon="6.12563">
        <ele>504.83</ele>
        <time>2018-08-26T07:56:21Z</time>
      </trkpt>
      <trkpt lat="47.34466" lon="6.12545">
        <ele>503.39</ele>
        <time>2018-08-26T07:56:23Z</time>
      </trkpt>
      <trkpt lat="47.34459" lon="6.12538">
        <ele>502.91</ele>
        <time>2018-08-26T07:56:24Z</time>
      </trkpt>
      <trkpt lat="47.34453" lon="6.12533">
        <ele>502.43</ele>
        <time>2018-08-26T07:56:25Z</time>
      </trkpt>
      <trkpt lat="47.34446" lon="6.1253">
        <ele>501.95</ele>
        <time>2018-08-26T07:56:26Z</time>
      </trkpt>
      <trkpt lat="47.3444" lon="6.12527">
        <ele>501.46</ele>
        <time>2018-08-26T07:56:27Z</time>
      </trkpt>
      <trkpt lat="47.34425" lon="6.12521">
        <ele>499.54</ele>
        <time>2018-08-26T07:56:29Z</time>
      </trkpt>
      <trkpt lat="47.34418" lon="6.12515">
        <ele>499.06</ele>
        <time>2018-08-26T07:56:30Z</time>
      </trkpt>
      <trkpt lat="47.34411" lon="6.12508">
        <ele>498.1</ele>
        <time>2018-08-26T07:56:31Z</time>
      </trkpt>
      <trkpt lat="47.34406" lon="6.12499">
        <ele>497.62</ele>
        <time>2018-08-26T07:56:32Z</time>
      </trkpt>
      <trkpt lat="47.34401" lon="6.1249">
        <ele>497.14</ele>
        <time>2018-08-26T07:56:33Z</time>
      </trkpt>
      <trkpt lat="47.34395" lon="6.12482">
        <ele>496.66</ele>
        <time>2018-08-26T07:56:34Z</time>
      </trkpt>
      <trkpt lat="47.34367" lon="6.12437">
        <ele>493.29</ele>
        <time>2018-08-26T07:56:39Z</time>
      </trkpt>
      <trkpt lat="47.3436" lon="6.12428">
        <ele>492.81</ele>
        <time>2018-08-26T07:56:40Z</time>
      </trkpt>
      <trkpt lat="47.34354" lon="6.12419">
        <ele>491.85</ele>
        <time>2018-08-26T07:56:41Z</time>
      </trkpt>
      <trkpt lat="47.34332" lon="6.12397">
        <ele>488.97</ele>
        <time>2018-08-26T07:56:44Z</time>
      </trkpt>
      <trkpt lat="47.34325" lon="6.1239">
        <ele>488.49</ele>
        <time>2018-08-26T07:56:45Z</time>
      </trkpt>
      <trkpt lat="47.34277" lon="6.12314">
        <ele>485.12</ele>
        <time>2018-08-26T07:56:54Z</time>
      </trkpt>
      <trkpt lat="47.34242" lon="6.12261">
        <ele>483.68</ele>
        <time>2018-08-26T07:57:01Z</time>
      </trkpt>
      <trkpt lat="47.34223" lon="6.12227">
        <ele>483.68</ele>
        <time>2018-08-26T07:57:06Z</time>
      </trkpt>
      <trkpt lat="47.34219" lon="6.12221">
        <ele>483.2</ele>
        <time>2018-08-26T07:57:07Z</time>
      </trkpt>
      <trkpt lat="47.34211" lon="6.12211">
        <ele>483.2</ele>
        <time>2018-08-26T07:57:09Z</time>
      </trkpt>
      <trkpt lat="47.34203" lon="6.122">
        <ele>483.2</ele>
        <time>2018-08-26T07:57:11Z</time>
      </trkpt>
      <trkpt lat="47.34201" lon="6.12193">
        <ele>483.2</ele>
        <time>2018-08-26T07:57:12Z</time>
      </trkpt>
      <trkpt lat="47.34199" lon="6.12186">
        <ele>483.2</ele>
        <time>2018-08-26T07:57:13Z</time>
      </trkpt>
      <trkpt lat="47.34198" lon="6.12176">
        <ele>483.2</ele>
        <time>2018-08-26T07:57:14Z</time>
      </trkpt>
      <trkpt lat="47.34196" lon="6.12167">
        <ele>483.2</ele>
        <time>2018-08-26T07:57:15Z</time>
      </trkpt>
      <trkpt lat="47.34194" lon="6.12159">
        <ele>483.2</ele>
        <time>2018-08-26T07:57:16Z</time>
      </trkpt>
      <trkpt lat="47.34193" lon="6.12152">
        <ele>483.68</ele>
        <time>2018-08-26T07:57:17Z</time>
      </trkpt>
      <trkpt lat="47.34192" lon="6.12146">
        <ele>483.68</ele>
        <time>2018-08-26T07:57:18Z</time>
      </trkpt>
      <trkpt lat="47.34189" lon="6.12124">
        <ele>482.72</ele>
        <time>2018-08-26T07:57:21Z</time>
      </trkpt>
      <trkpt lat="47.34186" lon="6.12101">
        <ele>482.72</ele>
        <time>2018-08-26T07:57:24Z</time>
      </trkpt>
      <trkpt lat="47.34182" lon="6.12086">
        <ele>482.24</ele>
        <time>2018-08-26T07:57:26Z</time>
      </trkpt>
      <trkpt lat="47.3418" lon="6.12078">
        <ele>482.24</ele>
        <time>2018-08-26T07:57:27Z</time>
      </trkpt>
      <trkpt lat="47.34174" lon="6.12065">
        <ele>481.76</ele>
        <time>2018-08-26T07:57:29Z</time>
      </trkpt>
      <trkpt lat="47.34171" lon="6.12058">
        <ele>481.28</ele>
        <time>2018-08-26T07:57:30Z</time>
      </trkpt>
      <trkpt lat="47.34117" lon="6.11974">
        <ele>478.39</ele>
        <time>2018-08-26T07:57:41Z</time>
      </trkpt>
      <trkpt lat="47.34113" lon="6.11966">
        <ele>477.91</ele>
        <time>2018-08-26T07:57:42Z</time>
      </trkpt>
      <trkpt lat="47.3411" lon="6.11959">
        <ele>477.91</ele>
        <time>2018-08-26T07:57:43Z</time>
      </trkpt>
      <trkpt lat="47.34106" lon="6.11943">
        <ele>477.91</ele>
        <time>2018-08-26T07:57:45Z</time>
      </trkpt>
      <trkpt lat="47.34103" lon="6.11928">
        <ele>477.91</ele>
        <time>2018-08-26T07:57:47Z</time>
      </trkpt>
      <trkpt lat="47.34091" lon="6.119">
        <ele>477.91</ele>
        <time>2018-08-26T07:57:51Z</time>
      </trkpt>
      <trkpt lat="47.34087" lon="6.11896">
        <ele>477.91</ele>
        <time>2018-08-26T07:57:52Z</time>
      </trkpt>
      <trkpt lat="47.34084" lon="6.11895">
        <ele>477.91</ele>
        <time>2018-08-26T07:57:53Z</time>
      </trkpt>
      <trkpt lat="47.3408" lon="6.11894">
        <ele>477.91</ele>
        <time>2018-08-26T07:57:54Z</time>
      </trkpt>
      <trkpt lat="47.34077" lon="6.11895">
        <ele>478.39</ele>
        <time>2018-08-26T07:57:55Z</time>
      </trkpt>
      <trkpt lat="47.34075" lon="6.11895">
        <ele>478.39</ele>
        <time>2018-08-26T07:57:56Z</time>
      </trkpt>
      <trkpt lat="47.3404" lon="6.11896">
        <ele>477.43</ele>
        <time>2018-08-26T07:58:05Z</time>
      </trkpt>
      <trkpt lat="47.34035" lon="6.11895">
        <ele>476.95</ele>
        <time>2018-08-26T07:58:06Z</time>
      </trkpt>
      <trkpt lat="47.3403" lon="6.11893">
        <ele>476.47</ele>
        <time>2018-08-26T07:58:07Z</time>
      </trkpt>
      <trkpt lat="47.34024" lon="6.1189">
        <ele>476.47</ele>
        <time>2018-08-26T07:58:08Z</time>
      </trkpt>
      <trkpt lat="47.34019" lon="6.11886">
        <ele>475.51</ele>
        <time>2018-08-26T07:58:09Z</time>
      </trkpt>
      <trkpt lat="47.34007" lon="6.11876">
        <ele>475.03</ele>
        <time>2018-08-26T07:58:11Z</time>
      </trkpt>
      <trkpt lat="47.34002" lon="6.1187">
        <ele>474.55</ele>
        <time>2018-08-26T07:58:12Z</time>
      </trkpt>
      <trkpt lat="47.33997" lon="6.11863">
        <ele>473.59</ele>
        <time>2018-08-26T07:58:13Z</time>
      </trkpt>
      <trkpt lat="47.33992" lon="6.11856">
        <ele>473.11</ele>
        <time>2018-08-26T07:58:14Z</time>
      </trkpt>
      <trkpt lat="47.33987" lon="6.11848">
        <ele>472.63</ele>
        <time>2018-08-26T07:58:15Z</time>
      </trkpt>
      <trkpt lat="47.33984" lon="6.1184">
        <ele>472.14</ele>
        <time>2018-08-26T07:58:16Z</time>
      </trkpt>
      <trkpt lat="47.33972" lon="6.11821">
        <ele>469.74</ele>
        <time>2018-08-26T07:58:19Z</time>
      </trkpt>
      <trkpt lat="47.33968" lon="6.11819">
        <ele>469.26</ele>
        <time>2018-08-26T07:58:20Z</time>
      </trkpt>
      <trkpt lat="47.33965" lon="6.1182">
        <ele>469.26</ele>
        <time>2018-08-26T07:58:21Z</time>
      </trkpt>
      <trkpt lat="47.33957" lon="6.11827">
        <ele>465.9</ele>
        <time>2018-08-26T07:58:24Z</time>
      </trkpt>
      <trkpt lat="47.33953" lon="6.11829">
        <ele>464.93</ele>
        <time>2018-08-26T07:58:25Z</time>
      </trkpt>
      <trkpt lat="47.3395" lon="6.11831">
        <ele>463.97</ele>
        <time>2018-08-26T07:58:26Z</time>
      </trkpt>
      <trkpt lat="47.33929" lon="6.11846">
        <ele>460.13</ele>
        <time>2018-08-26T07:58:30Z</time>
      </trkpt>
      <trkpt lat="47.33923" lon="6.1185">
        <ele>459.17</ele>
        <time>2018-08-26T07:58:31Z</time>
      </trkpt>
      <trkpt lat="47.33917" lon="6.11853">
        <ele>457.72</ele>
        <time>2018-08-26T07:58:32Z</time>
      </trkpt>
      <trkpt lat="47.33898" lon="6.11868">
        <ele>454.36</ele>
        <time>2018-08-26T07:58:35Z</time>
      </trkpt>
      <trkpt lat="47.33867" lon="6.11889">
        <ele>451.48</ele>
        <time>2018-08-26T07:58:43Z</time>
      </trkpt>
      <trkpt lat="47.33863" lon="6.11894">
        <ele>451</ele>
        <time>2018-08-26T07:58:44Z</time>
      </trkpt>
      <trkpt lat="47.3386" lon="6.11898">
        <ele>450.52</ele>
        <time>2018-08-26T07:58:45Z</time>
      </trkpt>
      <trkpt lat="47.33858" lon="6.11901">
        <ele>450.03</ele>
        <time>2018-08-26T07:58:46Z</time>
      </trkpt>
      <trkpt lat="47.33855" lon="6.11903">
        <ele>449.55</ele>
        <time>2018-08-26T07:58:47Z</time>
      </trkpt>
      <trkpt lat="47.33852" lon="6.11904">
        <ele>449.07</ele>
        <time>2018-08-26T07:58:48Z</time>
      </trkpt>
      <trkpt lat="47.33849" lon="6.11905">
        <ele>448.59</ele>
        <time>2018-08-26T07:58:49Z</time>
      </trkpt>
      <trkpt lat="47.33846" lon="6.11908">
        <ele>448.11</ele>
        <time>2018-08-26T07:58:50Z</time>
      </trkpt>
      <trkpt lat="47.33845" lon="6.11911">
        <ele>447.63</ele>
        <time>2018-08-26T07:58:51Z</time>
      </trkpt>
      <trkpt lat="47.33839" lon="6.11921">
        <ele>446.67</ele>
        <time>2018-08-26T07:58:53Z</time>
      </trkpt>
      <trkpt lat="47.33827" lon="6.11931">
        <ele>444.27</ele>
        <time>2018-08-26T07:58:56Z</time>
      </trkpt>
      <trkpt lat="47.33823" lon="6.11935">
        <ele>443.31</ele>
        <time>2018-08-26T07:58:57Z</time>
      </trkpt>
      <trkpt lat="47.3382" lon="6.11939">
        <ele>442.82</ele>
        <time>2018-08-26T07:58:58Z</time>
      </trkpt>
      <trkpt lat="47.33818" lon="6.11942">
        <ele>442.34</ele>
        <time>2018-08-26T07:58:59Z</time>
      </trkpt>
      <trkpt lat="47.33815" lon="6.11947">
        <ele>441.86</ele>
        <time>2018-08-26T07:59:00Z</time>
      </trkpt>
      <trkpt lat="47.33779" lon="6.11984">
        <ele>436.1</ele>
        <time>2018-08-26T07:59:07Z</time>
      </trkpt>
      <trkpt lat="47.33773" lon="6.11991">
        <ele>435.61</ele>
        <time>2018-08-26T07:59:08Z</time>
      </trkpt>
      <trkpt lat="47.33754" lon="6.12013">
        <ele>432.73</ele>
        <time>2018-08-26T07:59:12Z</time>
      </trkpt>
      <trkpt lat="47.33716" lon="6.12071">
        <ele>428.89</ele>
        <time>2018-08-26T07:59:19Z</time>
      </trkpt>
      <trkpt lat="47.3371" lon="6.12091">
        <ele>428.4</ele>
        <time>2018-08-26T07:59:21Z</time>
      </trkpt>
      <trkpt lat="47.33708" lon="6.12099">
        <ele>428.4</ele>
        <time>2018-08-26T07:59:22Z</time>
      </trkpt>
      <trkpt lat="47.33705" lon="6.12107">
        <ele>427.92</ele>
        <time>2018-08-26T07:59:23Z</time>
      </trkpt>
      <trkpt lat="47.33702" lon="6.12117">
        <ele>427.44</ele>
        <time>2018-08-26T07:59:24Z</time>
      </trkpt>
      <trkpt lat="47.33698" lon="6.12135">
        <ele>426.48</ele>
        <time>2018-08-26T07:59:26Z</time>
      </trkpt>
      <trkpt lat="47.33697" lon="6.12143">
        <ele>426</ele>
        <time>2018-08-26T07:59:27Z</time>
      </trkpt>
      <trkpt lat="47.33683" lon="6.12185">
        <ele>425.52</ele>
        <time>2018-08-26T07:59:33Z</time>
      </trkpt>
      <trkpt lat="47.33678" lon="6.12199">
        <ele>424.56</ele>
        <time>2018-08-26T07:59:35Z</time>
      </trkpt>
      <trkpt lat="47.33673" lon="6.12211">
        <ele>424.56</ele>
        <time>2018-08-26T07:59:37Z</time>
      </trkpt>
      <trkpt lat="47.3366" lon="6.12243">
        <ele>423.12</ele>
        <time>2018-08-26T07:59:43Z</time>
      </trkpt>
      <trkpt lat="47.33641" lon="6.12289">
        <ele>423.12</ele>
        <time>2018-08-26T07:59:53Z</time>
      </trkpt>
      <trkpt lat="47.33634" lon="6.12313">
        <ele>421.19</ele>
        <time>2018-08-26T07:59:57Z</time>
      </trkpt>
      <trkpt lat="47.33628" lon="6.12331">
        <ele>417.35</ele>
        <time>2018-08-26T08:00:01Z</time>
      </trkpt>
      <trkpt lat="47.33625" lon="6.12336">
        <ele>416.39</ele>
        <time>2018-08-26T08:00:02Z</time>
      </trkpt>
      <trkpt lat="47.33618" lon="6.12359">
        <ele>412.06</ele>
        <time>2018-08-26T08:00:07Z</time>
      </trkpt>
      <trkpt lat="47.33606" lon="6.12368">
        <ele>408.7</ele>
        <time>2018-08-26T08:00:11Z</time>
      </trkpt>
      <trkpt lat="47.33595" lon="6.12382">
        <ele>405.81</ele>
        <time>2018-08-26T08:00:15Z</time>
      </trkpt>
      <trkpt lat="47.33566" lon="6.12424">
        <ele>403.89</ele>
        <time>2018-08-26T08:00:25Z</time>
      </trkpt>
      <trkpt lat="47.3354" lon="6.1245">
        <ele>400.53</ele>
        <time>2018-08-26T08:00:32Z</time>
      </trkpt>
      <trkpt lat="47.33534" lon="6.12461">
        <ele>399.57</ele>
        <time>2018-08-26T08:00:34Z</time>
      </trkpt>
      <trkpt lat="47.33526" lon="6.12473">
        <ele>398.12</ele>
        <time>2018-08-26T08:00:36Z</time>
      </trkpt>
      <trkpt lat="47.33517" lon="6.12484">
        <ele>396.68</ele>
        <time>2018-08-26T08:00:38Z</time>
      </trkpt>
      <trkpt lat="47.33513" lon="6.12489">
        <ele>396.2</ele>
        <time>2018-08-26T08:00:39Z</time>
      </trkpt>
      <trkpt lat="47.33506" lon="6.12494">
        <ele>395.24</ele>
        <time>2018-08-26T08:00:41Z</time>
      </trkpt>
      <trkpt lat="47.33501" lon="6.12496">
        <ele>394.76</ele>
        <time>2018-08-26T08:00:43Z</time>
      </trkpt>
      <trkpt lat="47.33493" lon="6.12487">
        <ele>395.72</ele>
        <time>2018-08-26T08:00:50Z</time>
      </trkpt>
      <trkpt lat="47.33481" lon="6.12445">
        <ele>397.16</ele>
        <time>2018-08-26T08:01:01Z</time>
      </trkpt>
      <trkpt lat="47.33478" lon="6.12385">
        <ele>399.08</ele>
        <time>2018-08-26T08:01:13Z</time>
      </trkpt>
      <trkpt lat="47.33476" lon="6.12353">
        <ele>401.49</ele>
        <time>2018-08-26T08:01:23Z</time>
      </trkpt>
      <trkpt lat="47.33477" lon="6.12318">
        <ele>404.85</ele>
        <time>2018-08-26T08:01:34Z</time>
      </trkpt>
      <trkpt lat="47.33478" lon="6.12313">
        <ele>405.33</ele>
        <time>2018-08-26T08:01:36Z</time>
      </trkpt>
      <trkpt lat="47.33483" lon="6.1229">
        <ele>408.7</ele>
        <time>2018-08-26T08:01:47Z</time>
      </trkpt>
      <trkpt lat="47.33483" lon="6.12289">
        <ele>409.18</ele>
        <time>2018-08-26T08:01:48Z</time>
      </trkpt>
      <trkpt lat="47.33481" lon="6.12276">
        <ele>410.14</ele>
        <time>2018-08-26T08:01:52Z</time>
      </trkpt>
      <trkpt lat="47.33478" lon="6.12253">
        <ele>412.06</ele>
        <time>2018-08-26T08:02:00Z</time>
      </trkpt>
      <trkpt lat="47.33479" lon="6.12247">
        <ele>412.54</ele>
        <time>2018-08-26T08:02:03Z</time>
      </trkpt>
      <trkpt lat="47.33477" lon="6.12232">
        <ele>413.5</ele>
        <time>2018-08-26T08:02:08Z</time>
      </trkpt>
      <trkpt lat="47.33475" lon="6.12222">
        <ele>414.47</ele>
        <time>2018-08-26T08:02:12Z</time>
      </trkpt>
      <trkpt lat="47.33471" lon="6.12206">
        <ele>415.43</ele>
        <time>2018-08-26T08:02:18Z</time>
      </trkpt>
      <trkpt lat="47.33468" lon="6.12199">
        <ele>415.91</ele>
        <time>2018-08-26T08:02:21Z</time>
      </trkpt>
      <trkpt lat="47.33443" lon="6.12156">
        <ele>416.39</ele>
        <time>2018-08-26T08:02:33Z</time>
      </trkpt>
      <trkpt lat="47.33424" lon="6.12125">
        <ele>415.43</ele>
        <time>2018-08-26T08:02:43Z</time>
      </trkpt>
      <trkpt lat="47.33413" lon="6.12108">
        <ele>414.47</ele>
        <time>2018-08-26T08:02:48Z</time>
      </trkpt>
      <trkpt lat="47.33409" lon="6.12103">
        <ele>412.54</ele>
        <time>2018-08-26T08:02:50Z</time>
      </trkpt>
      <trkpt lat="47.33407" lon="6.12099">
        <ele>411.1</ele>
        <time>2018-08-26T08:02:51Z</time>
      </trkpt>
      <trkpt lat="47.33392" lon="6.12069">
        <ele>413.98</ele>
        <time>2018-08-26T08:02:56Z</time>
      </trkpt>
      <trkpt lat="47.33382" lon="6.12055">
        <ele>414.47</ele>
        <time>2018-08-26T08:02:59Z</time>
      </trkpt>
      <trkpt lat="47.33379" lon="6.12051">
        <ele>414.47</ele>
        <time>2018-08-26T08:03:00Z</time>
      </trkpt>
      <trkpt lat="47.3337" lon="6.12038">
        <ele>414.95</ele>
        <time>2018-08-26T08:03:03Z</time>
      </trkpt>
      <trkpt lat="47.33366" lon="6.12026">
        <ele>414.95</ele>
        <time>2018-08-26T08:03:05Z</time>
      </trkpt>
      <trkpt lat="47.3334" lon="6.11985">
        <ele>414.47</ele>
        <time>2018-08-26T08:03:14Z</time>
      </trkpt>
      <trkpt lat="47.33313" lon="6.11943">
        <ele>415.43</ele>
        <time>2018-08-26T08:03:24Z</time>
      </trkpt>
      <trkpt lat="47.33285" lon="6.119">
        <ele>414.95</ele>
        <time>2018-08-26T08:03:33Z</time>
      </trkpt>
      <trkpt lat="47.33264" lon="6.11864">
        <ele>414.47</ele>
        <time>2018-08-26T08:03:41Z</time>
      </trkpt>
      <trkpt lat="47.33261" lon="6.1186">
        <ele>414.47</ele>
        <time>2018-08-26T08:03:42Z</time>
      </trkpt>
      <trkpt lat="47.33258" lon="6.11856">
        <ele>414.47</ele>
        <time>2018-08-26T08:03:43Z</time>
      </trkpt>
      <trkpt lat="47.33256" lon="6.11853">
        <ele>414.47</ele>
        <time>2018-08-26T08:03:44Z</time>
      </trkpt>
      <trkpt lat="47.33253" lon="6.1185">
        <ele>414.47</ele>
        <time>2018-08-26T08:03:45Z</time>
      </trkpt>
      <trkpt lat="47.33251" lon="6.11846">
        <ele>413.98</ele>
        <time>2018-08-26T08:03:46Z</time>
      </trkpt>
      <trkpt lat="47.33247" lon="6.1184">
        <ele>413.98</ele>
        <time>2018-08-26T08:03:47Z</time>
      </trkpt>
      <trkpt lat="47.33211" lon="6.11782">
        <ele>413.5</ele>
        <time>2018-08-26T08:03:59Z</time>
      </trkpt>
      <trkpt lat="47.33197" lon="6.11757">
        <ele>412.06</ele>
        <time>2018-08-26T08:04:03Z</time>
      </trkpt>
      <trkpt lat="47.33184" lon="6.11738">
        <ele>413.5</ele>
        <time>2018-08-26T08:04:07Z</time>
      </trkpt>
      <trkpt lat="47.3316" lon="6.11696">
        <ele>414.47</ele>
        <time>2018-08-26T08:04:17Z</time>
      </trkpt>
      <trkpt lat="47.33132" lon="6.11655">
        <ele>415.43</ele>
        <time>2018-08-26T08:04:28Z</time>
      </trkpt>
      <trkpt lat="47.33106" lon="6.11614">
        <ele>415.91</ele>
        <time>2018-08-26T08:04:39Z</time>
      </trkpt>
      <trkpt lat="47.33085" lon="6.11582">
        <ele>417.83</ele>
        <time>2018-08-26T08:04:49Z</time>
      </trkpt>
      <trkpt lat="47.33075" lon="6.11566">
        <ele>418.31</ele>
        <time>2018-08-26T08:04:54Z</time>
      </trkpt>
      <trkpt lat="47.33073" lon="6.11564">
        <ele>418.79</ele>
        <time>2018-08-26T08:04:55Z</time>
      </trkpt>
      <trkpt lat="47.33071" lon="6.11561">
        <ele>418.79</ele>
        <time>2018-08-26T08:04:56Z</time>
      </trkpt>
      <trkpt lat="47.3307" lon="6.11558">
        <ele>419.27</ele>
        <time>2018-08-26T08:04:57Z</time>
      </trkpt>
      <trkpt lat="47.33067" lon="6.11554">
        <ele>419.27</ele>
        <time>2018-08-26T08:04:58Z</time>
      </trkpt>
      <trkpt lat="47.3304" lon="6.1151">
        <ele>421.19</ele>
        <time>2018-08-26T08:05:11Z</time>
      </trkpt>
      <trkpt lat="47.33023" lon="6.11482">
        <ele>424.08</ele>
        <time>2018-08-26T08:05:21Z</time>
      </trkpt>
      <trkpt lat="47.33014" lon="6.11468">
        <ele>426</ele>
        <time>2018-08-26T08:05:29Z</time>
      </trkpt>
      <trkpt lat="47.32989" lon="6.11432">
        <ele>427.44</ele>
        <time>2018-08-26T08:05:40Z</time>
      </trkpt>
      <trkpt lat="47.32965" lon="6.11391">
        <ele>429.37</ele>
        <time>2018-08-26T08:05:50Z</time>
      </trkpt>
      <trkpt lat="47.32945" lon="6.11358">
        <ele>429.85</ele>
        <time>2018-08-26T08:05:59Z</time>
      </trkpt>
      <trkpt lat="47.32937" lon="6.11347">
        <ele>430.81</ele>
        <time>2018-08-26T08:06:04Z</time>
      </trkpt>
      <trkpt lat="47.32936" lon="6.11344">
        <ele>430.81</ele>
        <time>2018-08-26T08:06:05Z</time>
      </trkpt>
      <trkpt lat="47.32935" lon="6.11342">
        <ele>431.29</ele>
        <time>2018-08-26T08:06:06Z</time>
      </trkpt>
      <trkpt lat="47.32934" lon="6.11339">
        <ele>431.29</ele>
        <time>2018-08-26T08:06:07Z</time>
      </trkpt>
      <trkpt lat="47.32933" lon="6.11337">
        <ele>431.29</ele>
        <time>2018-08-26T08:06:08Z</time>
      </trkpt>
      <trkpt lat="47.32931" lon="6.11335">
        <ele>431.29</ele>
        <time>2018-08-26T08:06:09Z</time>
      </trkpt>
      <trkpt lat="47.32929" lon="6.11332">
        <ele>431.29</ele>
        <time>2018-08-26T08:06:10Z</time>
      </trkpt>
      <trkpt lat="47.32928" lon="6.1133">
        <ele>431.29</ele>
        <time>2018-08-26T08:06:11Z</time>
      </trkpt>
      <trkpt lat="47.329" lon="6.11287">
        <ele>432.73</ele>
        <time>2018-08-26T08:06:23Z</time>
      </trkpt>
      <trkpt lat="47.32877" lon="6.1125">
        <ele>434.17</ele>
        <time>2018-08-26T08:06:33Z</time>
      </trkpt>
      <trkpt lat="47.3286" lon="6.11221">
        <ele>435.13</ele>
        <time>2018-08-26T08:06:43Z</time>
      </trkpt>
      <trkpt lat="47.32823" lon="6.11162">
        <ele>435.13</ele>
        <time>2018-08-26T08:06:56Z</time>
      </trkpt>
      <trkpt lat="47.32789" lon="6.11105">
        <ele>434.17</ele>
        <time>2018-08-26T08:07:08Z</time>
      </trkpt>
      <trkpt lat="47.3278" lon="6.11091">
        <ele>433.69</ele>
        <time>2018-08-26T08:07:10Z</time>
      </trkpt>
      <trkpt lat="47.32773" lon="6.11079">
        <ele>433.69</ele>
        <time>2018-08-26T08:07:12Z</time>
      </trkpt>
      <trkpt lat="47.3277" lon="6.11073">
        <ele>433.21</ele>
        <time>2018-08-26T08:07:13Z</time>
      </trkpt>
      <trkpt lat="47.32747" lon="6.11038">
        <ele>432.25</ele>
        <time>2018-08-26T08:07:19Z</time>
      </trkpt>
      <trkpt lat="47.3272" lon="6.10992">
        <ele>430.81</ele>
        <time>2018-08-26T08:07:27Z</time>
      </trkpt>
      <trkpt lat="47.32716" lon="6.10986">
        <ele>430.33</ele>
        <time>2018-08-26T08:07:28Z</time>
      </trkpt>
      <trkpt lat="47.32702" lon="6.10963">
        <ele>428.4</ele>
        <time>2018-08-26T08:07:32Z</time>
      </trkpt>
      <trkpt lat="47.32699" lon="6.10957">
        <ele>427.44</ele>
        <time>2018-08-26T08:07:33Z</time>
      </trkpt>
      <trkpt lat="47.32673" lon="6.10919">
        <ele>425.04</ele>
        <time>2018-08-26T08:07:38Z</time>
      </trkpt>
      <trkpt lat="47.32667" lon="6.10911">
        <ele>425.04</ele>
        <time>2018-08-26T08:07:39Z</time>
      </trkpt>
      <trkpt lat="47.32662" lon="6.10903">
        <ele>424.56</ele>
        <time>2018-08-26T08:07:40Z</time>
      </trkpt>
      <trkpt lat="47.32649" lon="6.10878">
        <ele>424.56</ele>
        <time>2018-08-26T08:07:43Z</time>
      </trkpt>
      <trkpt lat="47.32629" lon="6.10849">
        <ele>424.08</ele>
        <time>2018-08-26T08:07:47Z</time>
      </trkpt>
      <trkpt lat="47.32597" lon="6.10796">
        <ele>424.56</ele>
        <time>2018-08-26T08:07:58Z</time>
      </trkpt>
      <trkpt lat="47.32575" lon="6.10763">
        <ele>425.04</ele>
        <time>2018-08-26T08:08:07Z</time>
      </trkpt>
      <trkpt lat="47.32571" lon="6.10756">
        <ele>425.04</ele>
        <time>2018-08-26T08:08:09Z</time>
      </trkpt>
      <trkpt lat="47.32569" lon="6.10751">
        <ele>425.04</ele>
        <time>2018-08-26T08:08:10Z</time>
      </trkpt>
      <trkpt lat="47.32567" lon="6.10747">
        <ele>425.52</ele>
        <time>2018-08-26T08:08:11Z</time>
      </trkpt>
      <trkpt lat="47.32549" lon="6.10719">
        <ele>426.48</ele>
        <time>2018-08-26T08:08:18Z</time>
      </trkpt>
      <trkpt lat="47.32545" lon="6.10714">
        <ele>426.96</ele>
        <time>2018-08-26T08:08:19Z</time>
      </trkpt>
      <trkpt lat="47.32541" lon="6.10709">
        <ele>427.44</ele>
        <time>2018-08-26T08:08:20Z</time>
      </trkpt>
      <trkpt lat="47.32515" lon="6.10669">
        <ele>429.85</ele>
        <time>2018-08-26T08:08:29Z</time>
      </trkpt>
      <trkpt lat="47.32513" lon="6.10666">
        <ele>429.85</ele>
        <time>2018-08-26T08:08:30Z</time>
      </trkpt>
      <trkpt lat="47.32512" lon="6.10663">
        <ele>430.33</ele>
        <time>2018-08-26T08:08:31Z</time>
      </trkpt>
      <trkpt lat="47.32506" lon="6.10647">
        <ele>430.81</ele>
        <time>2018-08-26T08:08:36Z</time>
      </trkpt>
      <trkpt lat="47.32499" lon="6.10636">
        <ele>430.81</ele>
        <time>2018-08-26T08:08:39Z</time>
      </trkpt>
      <trkpt lat="47.32495" lon="6.1063">
        <ele>430.81</ele>
        <time>2018-08-26T08:08:40Z</time>
      </trkpt>
      <trkpt lat="47.32452" lon="6.10564">
        <ele>430.81</ele>
        <time>2018-08-26T08:08:51Z</time>
      </trkpt>
      <trkpt lat="47.32447" lon="6.10558">
        <ele>430.81</ele>
        <time>2018-08-26T08:08:52Z</time>
      </trkpt>
      <trkpt lat="47.32443" lon="6.10552">
        <ele>430.81</ele>
        <time>2018-08-26T08:08:53Z</time>
      </trkpt>
      <trkpt lat="47.3244" lon="6.10546">
        <ele>430.81</ele>
        <time>2018-08-26T08:08:54Z</time>
      </trkpt>
      <trkpt lat="47.32433" lon="6.10534">
        <ele>430.33</ele>
        <time>2018-08-26T08:08:56Z</time>
      </trkpt>
      <trkpt lat="47.32429" lon="6.10528">
        <ele>430.33</ele>
        <time>2018-08-26T08:08:57Z</time>
      </trkpt>
      <trkpt lat="47.32424" lon="6.10521">
        <ele>430.33</ele>
        <time>2018-08-26T08:08:58Z</time>
      </trkpt>
      <trkpt lat="47.3242" lon="6.10515">
        <ele>430.33</ele>
        <time>2018-08-26T08:08:59Z</time>
      </trkpt>
      <trkpt lat="47.32416" lon="6.10509">
        <ele>430.33</ele>
        <time>2018-08-26T08:09:00Z</time>
      </trkpt>
      <trkpt lat="47.32393" lon="6.10475">
        <ele>428.89</ele>
        <time>2018-08-26T08:09:06Z</time>
      </trkpt>
      <trkpt lat="47.32376" lon="6.10444">
        <ele>427.44</ele>
        <time>2018-08-26T08:09:11Z</time>
      </trkpt>
      <trkpt lat="47.32373" lon="6.10437">
        <ele>426.96</ele>
        <time>2018-08-26T08:09:12Z</time>
      </trkpt>
      <trkpt lat="47.32369" lon="6.10429">
        <ele>426.48</ele>
        <time>2018-08-26T08:09:13Z</time>
      </trkpt>
      <trkpt lat="47.32366" lon="6.10422">
        <ele>426</ele>
        <time>2018-08-26T08:09:14Z</time>
      </trkpt>
      <trkpt lat="47.32362" lon="6.10414">
        <ele>425.52</ele>
        <time>2018-08-26T08:09:15Z</time>
      </trkpt>
      <trkpt lat="47.32357" lon="6.10407">
        <ele>425.04</ele>
        <time>2018-08-26T08:09:16Z</time>
      </trkpt>
      <trkpt lat="47.32332" lon="6.10371">
        <ele>423.12</ele>
        <time>2018-08-26T08:09:21Z</time>
      </trkpt>
      <trkpt lat="47.32302" lon="6.10327">
        <ele>419.27</ele>
        <time>2018-08-26T08:09:27Z</time>
      </trkpt>
      <trkpt lat="47.32276" lon="6.10288">
        <ele>415.91</ele>
        <time>2018-08-26T08:09:32Z</time>
      </trkpt>
      <trkpt lat="47.32254" lon="6.10249">
        <ele>413.02</ele>
        <time>2018-08-26T08:09:37Z</time>
      </trkpt>
      <trkpt lat="47.32242" lon="6.10227">
        <ele>410.62</ele>
        <time>2018-08-26T08:09:40Z</time>
      </trkpt>
      <trkpt lat="47.32237" lon="6.10219">
        <ele>410.14</ele>
        <time>2018-08-26T08:09:41Z</time>
      </trkpt>
      <trkpt lat="47.32213" lon="6.10181">
        <ele>408.22</ele>
        <time>2018-08-26T08:09:45Z</time>
      </trkpt>
      <trkpt lat="47.3217" lon="6.10117">
        <ele>404.85</ele>
        <time>2018-08-26T08:09:52Z</time>
      </trkpt>
      <trkpt lat="47.32137" lon="6.10067">
        <ele>401.49</ele>
        <time>2018-08-26T08:09:57Z</time>
      </trkpt>
      <trkpt lat="47.32111" lon="6.10031">
        <ele>398.6</ele>
        <time>2018-08-26T08:10:01Z</time>
      </trkpt>
      <trkpt lat="47.32099" lon="6.10014">
        <ele>397.64</ele>
        <time>2018-08-26T08:10:03Z</time>
      </trkpt>
      <trkpt lat="47.32079" lon="6.09979">
        <ele>395.72</ele>
        <time>2018-08-26T08:10:07Z</time>
      </trkpt>
      <trkpt lat="47.32076" lon="6.09973">
        <ele>395.24</ele>
        <time>2018-08-26T08:10:08Z</time>
      </trkpt>
      <trkpt lat="47.32072" lon="6.09969">
        <ele>394.76</ele>
        <time>2018-08-26T08:10:09Z</time>
      </trkpt>
      <trkpt lat="47.32068" lon="6.09965">
        <ele>393.8</ele>
        <time>2018-08-26T08:10:10Z</time>
      </trkpt>
      <trkpt lat="47.32063" lon="6.09962">
        <ele>392.84</ele>
        <time>2018-08-26T08:10:11Z</time>
      </trkpt>
      <trkpt lat="47.32059" lon="6.09959">
        <ele>391.87</ele>
        <time>2018-08-26T08:10:12Z</time>
      </trkpt>
      <trkpt lat="47.32054" lon="6.09957">
        <ele>390.43</ele>
        <time>2018-08-26T08:10:13Z</time>
      </trkpt>
      <trkpt lat="47.32049" lon="6.09956">
        <ele>389.95</ele>
        <time>2018-08-26T08:10:14Z</time>
      </trkpt>
      <trkpt lat="47.32045" lon="6.09952">
        <ele>388.99</ele>
        <time>2018-08-26T08:10:15Z</time>
      </trkpt>
      <trkpt lat="47.32042" lon="6.09948">
        <ele>388.99</ele>
        <time>2018-08-26T08:10:16Z</time>
      </trkpt>
      <trkpt lat="47.32041" lon="6.09943">
        <ele>388.99</ele>
        <time>2018-08-26T08:10:17Z</time>
      </trkpt>
      <trkpt lat="47.32039" lon="6.09938">
        <ele>388.99</ele>
        <time>2018-08-26T08:10:18Z</time>
      </trkpt>
      <trkpt lat="47.32037" lon="6.09933">
        <ele>389.47</ele>
        <time>2018-08-26T08:10:19Z</time>
      </trkpt>
      <trkpt lat="47.32035" lon="6.09928">
        <ele>389.47</ele>
        <time>2018-08-26T08:10:20Z</time>
      </trkpt>
      <trkpt lat="47.32034" lon="6.09923">
        <ele>389.47</ele>
        <time>2018-08-26T08:10:21Z</time>
      </trkpt>
      <trkpt lat="47.3202" lon="6.09866">
        <ele>391.39</ele>
        <time>2018-08-26T08:10:32Z</time>
      </trkpt>
      <trkpt lat="47.32001" lon="6.09782">
        <ele>393.32</ele>
        <time>2018-08-26T08:10:47Z</time>
      </trkpt>
      <trkpt lat="47.31988" lon="6.09725">
        <ele>394.28</ele>
        <time>2018-08-26T08:10:56Z</time>
      </trkpt>
      <trkpt lat="47.31987" lon="6.09719">
        <ele>394.28</ele>
        <time>2018-08-26T08:10:57Z</time>
      </trkpt>
      <trkpt lat="47.31985" lon="6.09713">
        <ele>394.28</ele>
        <time>2018-08-26T08:10:58Z</time>
      </trkpt>
      <trkpt lat="47.31984" lon="6.09707">
        <ele>394.76</ele>
        <time>2018-08-26T08:10:59Z</time>
      </trkpt>
      <trkpt lat="47.31982" lon="6.09701">
        <ele>394.76</ele>
        <time>2018-08-26T08:11:00Z</time>
      </trkpt>
      <trkpt lat="47.31968" lon="6.09636">
        <ele>395.24</ele>
        <time>2018-08-26T08:11:10Z</time>
      </trkpt>
      <trkpt lat="47.31966" lon="6.09629">
        <ele>395.24</ele>
        <time>2018-08-26T08:11:11Z</time>
      </trkpt>
      <trkpt lat="47.31966" lon="6.09623">
        <ele>395.24</ele>
        <time>2018-08-26T08:11:12Z</time>
      </trkpt>
      <trkpt lat="47.31965" lon="6.09616">
        <ele>395.24</ele>
        <time>2018-08-26T08:11:13Z</time>
      </trkpt>
      <trkpt lat="47.31964" lon="6.0961">
        <ele>395.24</ele>
        <time>2018-08-26T08:11:14Z</time>
      </trkpt>
      <trkpt lat="47.31959" lon="6.09583">
        <ele>395.72</ele>
        <time>2018-08-26T08:11:18Z</time>
      </trkpt>
      <trkpt lat="47.31959" lon="6.09522">
        <ele>398.12</ele>
        <time>2018-08-26T08:11:30Z</time>
      </trkpt>
      <trkpt lat="47.31957" lon="6.09465">
        <ele>400.53</ele>
        <time>2018-08-26T08:11:42Z</time>
      </trkpt>
      <trkpt lat="47.3195" lon="6.09423">
        <ele>401.49</ele>
        <time>2018-08-26T08:11:51Z</time>
      </trkpt>
      <trkpt lat="47.31949" lon="6.09411">
        <ele>401.49</ele>
        <time>2018-08-26T08:12:02Z</time>
      </trkpt>
      <trkpt lat="47.31947" lon="6.09411">
        <ele>401.49</ele>
        <time>2018-08-26T08:12:27Z</time>
      </trkpt>
      <trkpt lat="47.31947" lon="6.09404">
        <ele>401.97</ele>
        <time>2018-08-26T08:12:48Z</time>
      </trkpt>
      <trkpt lat="47.31947" lon="6.09402">
        <ele>401.97</ele>
        <time>2018-08-26T08:12:49Z</time>
      </trkpt>
      <trkpt lat="47.31947" lon="6.09392">
        <ele>402.45</ele>
        <time>2018-08-26T08:12:53Z</time>
      </trkpt>
      <trkpt lat="47.31947" lon="6.09388">
        <ele>402.45</ele>
        <time>2018-08-26T08:12:54Z</time>
      </trkpt>
      <trkpt lat="47.31947" lon="6.09384">
        <ele>402.45</ele>
        <time>2018-08-26T08:12:55Z</time>
      </trkpt>
      <trkpt lat="47.31947" lon="6.09381">
        <ele>402.93</ele>
        <time>2018-08-26T08:12:56Z</time>
      </trkpt>
      <trkpt lat="47.31947" lon="6.09378">
        <ele>402.93</ele>
        <time>2018-08-26T08:12:57Z</time>
      </trkpt>
      <trkpt lat="47.31948" lon="6.09374">
        <ele>403.41</ele>
        <time>2018-08-26T08:12:58Z</time>
      </trkpt>
      <trkpt lat="47.31948" lon="6.0937">
        <ele>403.41</ele>
        <time>2018-08-26T08:12:59Z</time>
      </trkpt>
      <trkpt lat="47.31948" lon="6.09367">
        <ele>403.41</ele>
        <time>2018-08-26T08:13:00Z</time>
      </trkpt>
      <trkpt lat="47.31948" lon="6.09349">
        <ele>404.37</ele>
        <time>2018-08-26T08:13:04Z</time>
      </trkpt>
      <trkpt lat="47.31948" lon="6.09345">
        <ele>404.85</ele>
        <time>2018-08-26T08:13:05Z</time>
      </trkpt>
      <trkpt lat="47.31948" lon="6.0934">
        <ele>404.85</ele>
        <time>2018-08-26T08:13:06Z</time>
      </trkpt>
      <trkpt lat="47.31948" lon="6.09336">
        <ele>405.33</ele>
        <time>2018-08-26T08:13:07Z</time>
      </trkpt>
      <trkpt lat="47.31948" lon="6.09331">
        <ele>405.33</ele>
        <time>2018-08-26T08:13:08Z</time>
      </trkpt>
      <trkpt lat="47.31943" lon="6.09278">
        <ele>408.22</ele>
        <time>2018-08-26T08:13:19Z</time>
      </trkpt>
      <trkpt lat="47.31936" lon="6.09227">
        <ele>410.14</ele>
        <time>2018-08-26T08:13:29Z</time>
      </trkpt>
      <trkpt lat="47.31928" lon="6.09175">
        <ele>411.1</ele>
        <time>2018-08-26T08:13:39Z</time>
      </trkpt>
      <trkpt lat="47.31916" lon="6.09105">
        <ele>412.54</ele>
        <time>2018-08-26T08:13:52Z</time>
      </trkpt>
      <trkpt lat="47.31909" lon="6.09065">
        <ele>412.54</ele>
        <time>2018-08-26T08:13:59Z</time>
      </trkpt>
      <trkpt lat="47.31901" lon="6.08995">
        <ele>413.02</ele>
        <time>2018-08-26T08:14:11Z</time>
      </trkpt>
      <trkpt lat="47.319" lon="6.08989">
        <ele>413.02</ele>
        <time>2018-08-26T08:14:12Z</time>
      </trkpt>
      <trkpt lat="47.3188" lon="6.08895">
        <ele>411.58</ele>
        <time>2018-08-26T08:14:26Z</time>
      </trkpt>
      <trkpt lat="47.31879" lon="6.08887">
        <ele>411.1</ele>
        <time>2018-08-26T08:14:27Z</time>
      </trkpt>
      <trkpt lat="47.3185" lon="6.08758">
        <ele>410.62</ele>
        <time>2018-08-26T08:14:42Z</time>
      </trkpt>
      <trkpt lat="47.3182" lon="6.08628">
        <ele>410.14</ele>
        <time>2018-08-26T08:14:57Z</time>
      </trkpt>
      <trkpt lat="47.31812" lon="6.08585">
        <ele>410.14</ele>
        <time>2018-08-26T08:15:02Z</time>
      </trkpt>
      <trkpt lat="47.31784" lon="6.08487">
        <ele>406.77</ele>
        <time>2018-08-26T08:15:13Z</time>
      </trkpt>
      <trkpt lat="47.31747" lon="6.08391">
        <ele>404.37</ele>
        <time>2018-08-26T08:15:23Z</time>
      </trkpt>
      <trkpt lat="47.31706" lon="6.08252">
        <ele>402.45</ele>
        <time>2018-08-26T08:15:36Z</time>
      </trkpt>
      <trkpt lat="47.31685" lon="6.08163">
        <ele>401.49</ele>
        <time>2018-08-26T08:15:44Z</time>
      </trkpt>
      <trkpt lat="47.31651" lon="6.0804">
        <ele>401.01</ele>
        <time>2018-08-26T08:15:56Z</time>
      </trkpt>
      <trkpt lat="47.31649" lon="6.0803">
        <ele>400.53</ele>
        <time>2018-08-26T08:15:57Z</time>
      </trkpt>
      <trkpt lat="47.31624" lon="6.07918">
        <ele>400.53</ele>
        <time>2018-08-26T08:16:08Z</time>
      </trkpt>
      <trkpt lat="47.31622" lon="6.07908">
        <ele>400.53</ele>
        <time>2018-08-26T08:16:09Z</time>
      </trkpt>
      <trkpt lat="47.31585" lon="6.0778">
        <ele>398.6</ele>
        <time>2018-08-26T08:16:22Z</time>
      </trkpt>
      <trkpt lat="47.31554" lon="6.07681">
        <ele>397.64</ele>
        <time>2018-08-26T08:16:33Z</time>
      </trkpt>
      <trkpt lat="47.31545" lon="6.07658">
        <ele>396.68</ele>
        <time>2018-08-26T08:16:36Z</time>
      </trkpt>
      <trkpt lat="47.31542" lon="6.07651">
        <ele>396.68</ele>
        <time>2018-08-26T08:16:37Z</time>
      </trkpt>
      <trkpt lat="47.31523" lon="6.07602">
        <ele>396.2</ele>
        <time>2018-08-26T08:16:44Z</time>
      </trkpt>
      <trkpt lat="47.31517" lon="6.07585">
        <ele>396.2</ele>
        <time>2018-08-26T08:16:47Z</time>
      </trkpt>
      <trkpt lat="47.31495" lon="6.07543">
        <ele>391.87</ele>
        <time>2018-08-26T08:16:54Z</time>
      </trkpt>
      <trkpt lat="47.31491" lon="6.07537">
        <ele>396.2</ele>
        <time>2018-08-26T08:16:55Z</time>
      </trkpt>
      <trkpt lat="47.31477" lon="6.07512">
        <ele>392.84</ele>
        <time>2018-08-26T08:16:58Z</time>
      </trkpt>
      <trkpt lat="47.31454" lon="6.0747">
        <ele>390.91</ele>
        <time>2018-08-26T08:17:03Z</time>
      </trkpt>
      <trkpt lat="47.31432" lon="6.07423">
        <ele>388.51</ele>
        <time>2018-08-26T08:17:08Z</time>
      </trkpt>
      <trkpt lat="47.31428" lon="6.07413">
        <ele>388.03</ele>
        <time>2018-08-26T08:17:09Z</time>
      </trkpt>
      <trkpt lat="47.31412" lon="6.07327">
        <ele>388.03</ele>
        <time>2018-08-26T08:17:18Z</time>
      </trkpt>
      <trkpt lat="47.31409" lon="6.07314">
        <ele>388.99</ele>
        <time>2018-08-26T08:17:20Z</time>
      </trkpt>
      <trkpt lat="47.31405" lon="6.07302">
        <ele>388.99</ele>
        <time>2018-08-26T08:17:22Z</time>
      </trkpt>
      <trkpt lat="47.31388" lon="6.07247">
        <ele>389.95</ele>
        <time>2018-08-26T08:17:33Z</time>
      </trkpt>
      <trkpt lat="47.31385" lon="6.0723">
        <ele>389.95</ele>
        <time>2018-08-26T08:17:36Z</time>
      </trkpt>
      <trkpt lat="47.31383" lon="6.07224">
        <ele>389.95</ele>
        <time>2018-08-26T08:17:37Z</time>
      </trkpt>
      <trkpt lat="47.31381" lon="6.07219">
        <ele>389.95</ele>
        <time>2018-08-26T08:17:38Z</time>
      </trkpt>
      <trkpt lat="47.31363" lon="6.07154">
        <ele>391.39</ele>
        <time>2018-08-26T08:17:48Z</time>
      </trkpt>
      <trkpt lat="47.3135" lon="6.07089">
        <ele>393.8</ele>
        <time>2018-08-26T08:18:00Z</time>
      </trkpt>
      <trkpt lat="47.31344" lon="6.07028">
        <ele>397.16</ele>
        <time>2018-08-26T08:18:14Z</time>
      </trkpt>
      <trkpt lat="47.31338" lon="6.06972">
        <ele>400.53</ele>
        <time>2018-08-26T08:18:26Z</time>
      </trkpt>
      <trkpt lat="47.31337" lon="6.06915">
        <ele>403.41</ele>
        <time>2018-08-26T08:18:39Z</time>
      </trkpt>
      <trkpt lat="47.31336" lon="6.06853">
        <ele>406.77</ele>
        <time>2018-08-26T08:18:53Z</time>
      </trkpt>
      <trkpt lat="47.3133" lon="6.06811">
        <ele>408.22</ele>
        <time>2018-08-26T08:19:03Z</time>
      </trkpt>
      <trkpt lat="47.31328" lon="6.06763">
        <ele>410.62</ele>
        <time>2018-08-26T08:19:15Z</time>
      </trkpt>
      <trkpt lat="47.31321" lon="6.06716">
        <ele>412.06</ele>
        <time>2018-08-26T08:19:25Z</time>
      </trkpt>
      <trkpt lat="47.31317" lon="6.0667">
        <ele>414.47</ele>
        <time>2018-08-26T08:19:36Z</time>
      </trkpt>
      <trkpt lat="47.31302" lon="6.06605">
        <ele>416.87</ele>
        <time>2018-08-26T08:19:50Z</time>
      </trkpt>
      <trkpt lat="47.3129" lon="6.06557">
        <ele>418.31</ele>
        <time>2018-08-26T08:20:03Z</time>
      </trkpt>
      <trkpt lat="47.31285" lon="6.06546">
        <ele>418.31</ele>
        <time>2018-08-26T08:20:06Z</time>
      </trkpt>
      <trkpt lat="47.31266" lon="6.06501">
        <ele>419.75</ele>
        <time>2018-08-26T08:20:14Z</time>
      </trkpt>
      <trkpt lat="47.3125" lon="6.06456">
        <ele>421.19</ele>
        <time>2018-08-26T08:20:24Z</time>
      </trkpt>
      <trkpt lat="47.31239" lon="6.06439">
        <ele>422.16</ele>
        <time>2018-08-26T08:20:28Z</time>
      </trkpt>
      <trkpt lat="47.3121" lon="6.06397">
        <ele>422.16</ele>
        <time>2018-08-26T08:20:35Z</time>
      </trkpt>
      <trkpt lat="47.31185" lon="6.06347">
        <ele>423.6</ele>
        <time>2018-08-26T08:20:45Z</time>
      </trkpt>
      <trkpt lat="47.31158" lon="6.06294">
        <ele>423.6</ele>
        <time>2018-08-26T08:20:56Z</time>
      </trkpt>
      <trkpt lat="47.31129" lon="6.06231">
        <ele>424.08</ele>
        <time>2018-08-26T08:21:08Z</time>
      </trkpt>
      <trkpt lat="47.31126" lon="6.06224">
        <ele>424.08</ele>
        <time>2018-08-26T08:21:09Z</time>
      </trkpt>
      <trkpt lat="47.31123" lon="6.06217">
        <ele>424.08</ele>
        <time>2018-08-26T08:21:10Z</time>
      </trkpt>
      <trkpt lat="47.31121" lon="6.06211">
        <ele>424.08</ele>
        <time>2018-08-26T08:21:11Z</time>
      </trkpt>
      <trkpt lat="47.31117" lon="6.06204">
        <ele>424.56</ele>
        <time>2018-08-26T08:21:12Z</time>
      </trkpt>
      <trkpt lat="47.31115" lon="6.06199">
        <ele>424.56</ele>
        <time>2018-08-26T08:21:13Z</time>
      </trkpt>
      <trkpt lat="47.31092" lon="6.06151">
        <ele>425.52</ele>
        <time>2018-08-26T08:21:23Z</time>
      </trkpt>
      <trkpt lat="47.31092" lon="6.06148">
        <ele>426</ele>
        <time>2018-08-26T08:21:24Z</time>
      </trkpt>
      <trkpt lat="47.31094" lon="6.06148">
        <ele>426</ele>
        <time>2018-08-26T08:21:25Z</time>
      </trkpt>
      <trkpt lat="47.31095" lon="6.0615">
        <ele>426.48</ele>
        <time>2018-08-26T08:21:26Z</time>
      </trkpt>
      <trkpt lat="47.31097" lon="6.06151">
        <ele>426.48</ele>
        <time>2018-08-26T08:21:27Z</time>
      </trkpt>
      <trkpt lat="47.31099" lon="6.06152">
        <ele>426.48</ele>
        <time>2018-08-26T08:21:28Z</time>
      </trkpt>
      <trkpt lat="47.311" lon="6.06153">
        <ele>426.96</ele>
        <time>2018-08-26T08:21:29Z</time>
      </trkpt>
      <trkpt lat="47.31102" lon="6.06154">
        <ele>426.96</ele>
        <time>2018-08-26T08:21:30Z</time>
      </trkpt>
      <trkpt lat="47.31121" lon="6.06176">
        <ele>429.37</ele>
        <time>2018-08-26T08:21:42Z</time>
      </trkpt>
      <trkpt lat="47.3113" lon="6.06191">
        <ele>430.33</ele>
        <time>2018-08-26T08:21:51Z</time>
      </trkpt>
      <trkpt lat="47.31132" lon="6.06194">
        <ele>430.81</ele>
        <time>2018-08-26T08:21:52Z</time>
      </trkpt>
      <trkpt lat="47.31147" lon="6.06222">
        <ele>431.77</ele>
        <time>2018-08-26T08:22:01Z</time>
      </trkpt>
      <trkpt lat="47.31168" lon="6.06239">
        <ele>433.69</ele>
        <time>2018-08-26T08:22:10Z</time>
      </trkpt>
      <trkpt lat="47.31194" lon="6.06256">
        <ele>436.58</ele>
        <time>2018-08-26T08:22:21Z</time>
      </trkpt>
      <trkpt lat="47.31213" lon="6.06273">
        <ele>438.5</ele>
        <time>2018-08-26T08:22:31Z</time>
      </trkpt>
      <trkpt lat="47.31227" lon="6.06285">
        <ele>439.46</ele>
        <time>2018-08-26T08:22:39Z</time>
      </trkpt>
      <trkpt lat="47.31235" lon="6.06285">
        <ele>440.9</ele>
        <time>2018-08-26T08:22:44Z</time>
      </trkpt>
      <trkpt lat="47.31244" lon="6.06285">
        <ele>443.31</ele>
        <time>2018-08-26T08:22:53Z</time>
      </trkpt>
      <trkpt lat="47.31246" lon="6.06285">
        <ele>443.31</ele>
        <time>2018-08-26T08:22:54Z</time>
      </trkpt>
      <trkpt lat="47.31252" lon="6.06284">
        <ele>444.75</ele>
        <time>2018-08-26T08:22:59Z</time>
      </trkpt>
      <trkpt lat="47.31261" lon="6.06274">
        <ele>447.15</ele>
        <time>2018-08-26T08:23:09Z</time>
      </trkpt>
      <trkpt lat="47.31266" lon="6.06269">
        <ele>448.59</ele>
        <time>2018-08-26T08:23:13Z</time>
      </trkpt>
      <trkpt lat="47.31271" lon="6.06264">
        <ele>450.03</ele>
        <time>2018-08-26T08:23:18Z</time>
      </trkpt>
      <trkpt lat="47.31283" lon="6.06259">
        <ele>452.92</ele>
        <time>2018-08-26T08:23:30Z</time>
      </trkpt>
      <trkpt lat="47.31289" lon="6.06258">
        <ele>454.36</ele>
        <time>2018-08-26T08:23:37Z</time>
      </trkpt>
      <trkpt lat="47.31299" lon="6.06253">
        <ele>457.24</ele>
        <time>2018-08-26T08:23:49Z</time>
      </trkpt>
      <trkpt lat="47.31304" lon="6.06249">
        <ele>459.65</ele>
        <time>2018-08-26T08:23:58Z</time>
      </trkpt>
      <trkpt lat="47.31314" lon="6.06251">
        <ele>462.53</ele>
        <time>2018-08-26T08:24:08Z</time>
      </trkpt>
      <trkpt lat="47.31318" lon="6.06249">
        <ele>463.97</ele>
        <time>2018-08-26T08:24:19Z</time>
      </trkpt>
      <trkpt lat="47.31324" lon="6.06245">
        <ele>465.42</ele>
        <time>2018-08-26T08:24:32Z</time>
      </trkpt>
      <trkpt lat="47.31329" lon="6.0624">
        <ele>467.82</ele>
        <time>2018-08-26T08:24:46Z</time>
      </trkpt>
      <trkpt lat="47.31338" lon="6.06234">
        <ele>470.22</ele>
        <time>2018-08-26T08:24:59Z</time>
      </trkpt>
      <trkpt lat="47.31342" lon="6.06227">
        <ele>472.14</ele>
        <time>2018-08-26T08:25:13Z</time>
      </trkpt>
      <trkpt lat="47.31347" lon="6.0622">
        <ele>473.59</ele>
        <time>2018-08-26T08:25:32Z</time>
      </trkpt>
      <trkpt lat="47.31352" lon="6.06214">
        <ele>474.55</ele>
        <time>2018-08-26T08:25:36Z</time>
      </trkpt>
      <trkpt lat="47.31363" lon="6.06203">
        <ele>477.91</ele>
        <time>2018-08-26T08:25:47Z</time>
      </trkpt>
      <trkpt lat="47.3137" lon="6.06196">
        <ele>480.32</ele>
        <time>2018-08-26T08:25:58Z</time>
      </trkpt>
      <trkpt lat="47.3138" lon="6.06195">
        <ele>483.68</ele>
        <time>2018-08-26T08:26:10Z</time>
      </trkpt>
      <trkpt lat="47.31385" lon="6.06199">
        <ele>486.56</ele>
        <time>2018-08-26T08:26:17Z</time>
      </trkpt>
      <trkpt lat="47.3139" lon="6.06202">
        <ele>487.53</ele>
        <time>2018-08-26T08:26:19Z</time>
      </trkpt>
      <trkpt lat="47.31395" lon="6.06207">
        <ele>488.49</ele>
        <time>2018-08-26T08:26:22Z</time>
      </trkpt>
      <trkpt lat="47.31409" lon="6.06213">
        <ele>491.37</ele>
        <time>2018-08-26T08:26:35Z</time>
      </trkpt>
      <trkpt lat="47.31419" lon="6.06214">
        <ele>494.74</ele>
        <time>2018-08-26T08:26:47Z</time>
      </trkpt>
      <trkpt lat="47.31423" lon="6.06215">
        <ele>496.18</ele>
        <time>2018-08-26T08:27:10Z</time>
      </trkpt>
      <trkpt lat="47.31431" lon="6.06217">
        <ele>499.06</ele>
        <time>2018-08-26T08:27:20Z</time>
      </trkpt>
      <trkpt lat="47.31439" lon="6.06221">
        <ele>500.98</ele>
        <time>2018-08-26T08:27:31Z</time>
      </trkpt>
      <trkpt lat="47.31448" lon="6.06229">
        <ele>503.39</ele>
        <time>2018-08-26T08:27:41Z</time>
      </trkpt>
      <trkpt lat="47.31456" lon="6.06235">
        <ele>506.27</ele>
        <time>2018-08-26T08:27:52Z</time>
      </trkpt>
      <trkpt lat="47.31463" lon="6.06238">
        <ele>507.23</ele>
        <time>2018-08-26T08:28:03Z</time>
      </trkpt>
      <trkpt lat="47.31471" lon="6.06242">
        <ele>507.71</ele>
        <time>2018-08-26T08:28:20Z</time>
      </trkpt>
      <trkpt lat="47.31477" lon="6.06244">
        <ele>511.56</ele>
        <time>2018-08-26T08:28:31Z</time>
      </trkpt>
      <trkpt lat="47.31489" lon="6.06251">
        <ele>514.44</ele>
        <time>2018-08-26T08:28:41Z</time>
      </trkpt>
      <trkpt lat="47.31491" lon="6.0625">
        <ele>514.92</ele>
        <time>2018-08-26T08:28:43Z</time>
      </trkpt>
      <trkpt lat="47.31492" lon="6.06252">
        <ele>514.92</ele>
        <time>2018-08-26T08:28:44Z</time>
      </trkpt>
      <trkpt lat="47.31498" lon="6.06258">
        <ele>516.37</ele>
        <time>2018-08-26T08:28:50Z</time>
      </trkpt>
      <trkpt lat="47.31509" lon="6.0626">
        <ele>518.77</ele>
        <time>2018-08-26T08:29:00Z</time>
      </trkpt>
      <trkpt lat="47.31518" lon="6.06269">
        <ele>522.13</ele>
        <time>2018-08-26T08:29:11Z</time>
      </trkpt>
      <trkpt lat="47.31522" lon="6.06277">
        <ele>524.54</ele>
        <time>2018-08-26T08:29:23Z</time>
      </trkpt>
      <trkpt lat="47.31528" lon="6.06282">
        <ele>526.94</ele>
        <time>2018-08-26T08:29:35Z</time>
      </trkpt>
      <trkpt lat="47.31532" lon="6.06289">
        <ele>527.9</ele>
        <time>2018-08-26T08:29:40Z</time>
      </trkpt>
      <trkpt lat="47.31545" lon="6.06305">
        <ele>530.79</ele>
        <time>2018-08-26T08:29:53Z</time>
      </trkpt>
      <trkpt lat="47.31554" lon="6.06312">
        <ele>532.23</ele>
        <time>2018-08-26T08:30:02Z</time>
      </trkpt>
      <trkpt lat="47.31563" lon="6.06318">
        <ele>533.67</ele>
        <time>2018-08-26T08:30:11Z</time>
      </trkpt>
      <trkpt lat="47.31572" lon="6.06325">
        <ele>535.59</ele>
        <time>2018-08-26T08:30:22Z</time>
      </trkpt>
      <trkpt lat="47.31581" lon="6.06337">
        <ele>537.51</ele>
        <time>2018-08-26T08:30:34Z</time>
      </trkpt>
      <trkpt lat="47.31596" lon="6.06356">
        <ele>539.44</ele>
        <time>2018-08-26T08:30:45Z</time>
      </trkpt>
      <trkpt lat="47.31607" lon="6.06372">
        <ele>540.88</ele>
        <time>2018-08-26T08:30:54Z</time>
      </trkpt>
      <trkpt lat="47.31619" lon="6.06386">
        <ele>542.32</ele>
        <time>2018-08-26T08:31:03Z</time>
      </trkpt>
      <trkpt lat="47.3163" lon="6.064">
        <ele>543.76</ele>
        <time>2018-08-26T08:31:13Z</time>
      </trkpt>
      <trkpt lat="47.3164" lon="6.06414">
        <ele>544.72</ele>
        <time>2018-08-26T08:31:22Z</time>
      </trkpt>
      <trkpt lat="47.3165" lon="6.06423">
        <ele>545.69</ele>
        <time>2018-08-26T08:31:28Z</time>
      </trkpt>
      <trkpt lat="47.31655" lon="6.06429">
        <ele>547.13</ele>
        <time>2018-08-26T08:31:35Z</time>
      </trkpt>
      <trkpt lat="47.31659" lon="6.06433">
        <ele>547.13</ele>
        <time>2018-08-26T08:31:38Z</time>
      </trkpt>
      <trkpt lat="47.31674" lon="6.06458">
        <ele>548.57</ele>
        <time>2018-08-26T08:31:51Z</time>
      </trkpt>
      <trkpt lat="47.31684" lon="6.06471">
        <ele>549.53</ele>
        <time>2018-08-26T08:31:59Z</time>
      </trkpt>
      <trkpt lat="47.317" lon="6.06495">
        <ele>550.97</ele>
        <time>2018-08-26T08:32:11Z</time>
      </trkpt>
      <trkpt lat="47.31716" lon="6.06515">
        <ele>551.93</ele>
        <time>2018-08-26T08:32:22Z</time>
      </trkpt>
      <trkpt lat="47.31726" lon="6.06539">
        <ele>551.93</ele>
        <time>2018-08-26T08:32:33Z</time>
      </trkpt>
      <trkpt lat="47.31727" lon="6.06542">
        <ele>552.41</ele>
        <time>2018-08-26T08:32:49Z</time>
      </trkpt>
      <trkpt lat="47.31729" lon="6.06546">
        <ele>551.93</ele>
        <time>2018-08-26T08:33:00Z</time>
      </trkpt>
      <trkpt lat="47.31734" lon="6.06553">
        <ele>551.93</ele>
        <time>2018-08-26T08:33:08Z</time>
      </trkpt>
      <trkpt lat="47.31741" lon="6.06567">
        <ele>552.41</ele>
        <time>2018-08-26T08:33:17Z</time>
      </trkpt>
      <trkpt lat="47.31749" lon="6.06572">
        <ele>554.34</ele>
        <time>2018-08-26T08:33:25Z</time>
      </trkpt>
      <trkpt lat="47.3176" lon="6.06574">
        <ele>557.22</ele>
        <time>2018-08-26T08:33:36Z</time>
      </trkpt>
      <trkpt lat="47.31769" lon="6.06572">
        <ele>560.11</ele>
        <time>2018-08-26T08:33:44Z</time>
      </trkpt>
      <trkpt lat="47.31778" lon="6.0657">
        <ele>562.99</ele>
        <time>2018-08-26T08:33:57Z</time>
      </trkpt>
      <trkpt lat="47.31781" lon="6.06568">
        <ele>565.39</ele>
        <time>2018-08-26T08:34:10Z</time>
      </trkpt>
      <trkpt lat="47.31785" lon="6.06566">
        <ele>566.83</ele>
        <time>2018-08-26T08:34:23Z</time>
      </trkpt>
      <trkpt lat="47.31789" lon="6.06566">
        <ele>568.76</ele>
        <time>2018-08-26T08:34:37Z</time>
      </trkpt>
      <trkpt lat="47.31797" lon="6.06564">
        <ele>570.68</ele>
        <time>2018-08-26T08:34:50Z</time>
      </trkpt>
      <trkpt lat="47.31804" lon="6.06559">
        <ele>573.56</ele>
        <time>2018-08-26T08:35:05Z</time>
      </trkpt>
      <trkpt lat="47.3181" lon="6.06558">
        <ele>575.49</ele>
        <time>2018-08-26T08:35:18Z</time>
      </trkpt>
      <trkpt lat="47.3182" lon="6.06554">
        <ele>577.41</ele>
        <time>2018-08-26T08:35:35Z</time>
      </trkpt>
      <trkpt lat="47.31828" lon="6.06554">
        <ele>578.85</ele>
        <time>2018-08-26T08:35:51Z</time>
      </trkpt>
      <trkpt lat="47.31835" lon="6.06549">
        <ele>581.25</ele>
        <time>2018-08-26T08:36:02Z</time>
      </trkpt>
      <trkpt lat="47.31843" lon="6.0655">
        <ele>584.62</ele>
        <time>2018-08-26T08:36:12Z</time>
      </trkpt>
      <trkpt lat="47.31853" lon="6.06547">
        <ele>587.5</ele>
        <time>2018-08-26T08:36:23Z</time>
      </trkpt>
      <trkpt lat="47.31856" lon="6.06546">
        <ele>588.46</ele>
        <time>2018-08-26T08:36:26Z</time>
      </trkpt>
      <trkpt lat="47.31872" lon="6.06538">
        <ele>591.83</ele>
        <time>2018-08-26T08:36:40Z</time>
      </trkpt>
      <trkpt lat="47.31887" lon="6.06531">
        <ele>594.71</ele>
        <time>2018-08-26T08:36:52Z</time>
      </trkpt>
      <trkpt lat="47.31897" lon="6.06525">
        <ele>596.64</ele>
        <time>2018-08-26T08:37:04Z</time>
      </trkpt>
      <trkpt lat="47.3191" lon="6.06519">
        <ele>598.56</ele>
        <time>2018-08-26T08:37:15Z</time>
      </trkpt>
      <trkpt lat="47.31916" lon="6.06518">
        <ele>600</ele>
        <time>2018-08-26T08:37:22Z</time>
      </trkpt>
      <trkpt lat="47.31919" lon="6.06515">
        <ele>600.96</ele>
        <time>2018-08-26T08:37:27Z</time>
      </trkpt>
      <trkpt lat="47.31936" lon="6.0651">
        <ele>602.4</ele>
        <time>2018-08-26T08:37:40Z</time>
      </trkpt>
      <trkpt lat="47.31952" lon="6.06506">
        <ele>603.85</ele>
        <time>2018-08-26T08:37:50Z</time>
      </trkpt>
      <trkpt lat="47.31965" lon="6.06491">
        <ele>605.77</ele>
        <time>2018-08-26T08:38:03Z</time>
      </trkpt>
      <trkpt lat="47.31963" lon="6.06478">
        <ele>606.73</ele>
        <time>2018-08-26T08:38:17Z</time>
      </trkpt>
      <trkpt lat="47.31956" lon="6.0647">
        <ele>607.21</ele>
        <time>2018-08-26T08:38:28Z</time>
      </trkpt>
      <trkpt lat="47.31956" lon="6.06469">
        <ele>606.73</ele>
        <time>2018-08-26T08:38:29Z</time>
      </trkpt>
      <trkpt lat="47.31956" lon="6.06466">
        <ele>606.73</ele>
        <time>2018-08-26T08:38:31Z</time>
      </trkpt>
      <trkpt lat="47.31951" lon="6.06464">
        <ele>606.73</ele>
        <time>2018-08-26T08:38:43Z</time>
      </trkpt>
      <trkpt lat="47.31948" lon="6.06459">
        <ele>606.73</ele>
        <time>2018-08-26T08:39:01Z</time>
      </trkpt>
      <trkpt lat="47.31947" lon="6.06456">
        <ele>606.73</ele>
        <time>2018-08-26T08:39:03Z</time>
      </trkpt>
      <trkpt lat="47.31938" lon="6.06452">
        <ele>606.25</ele>
        <time>2018-08-26T08:39:09Z</time>
      </trkpt>
      <trkpt lat="47.31912" lon="6.06428">
        <ele>605.77</ele>
        <time>2018-08-26T08:39:23Z</time>
      </trkpt>
      <trkpt lat="47.31899" lon="6.06405">
        <ele>607.69</ele>
        <time>2018-08-26T08:39:35Z</time>
      </trkpt>
      <trkpt lat="47.31883" lon="6.06383">
        <ele>611.54</ele>
        <time>2018-08-26T08:39:46Z</time>
      </trkpt>
      <trkpt lat="47.31881" lon="6.06381">
        <ele>607.21</ele>
        <time>2018-08-26T08:39:47Z</time>
      </trkpt>
      <trkpt lat="47.31868" lon="6.06373">
        <ele>607.69</ele>
        <time>2018-08-26T08:39:51Z</time>
      </trkpt>
      <trkpt lat="47.31859" lon="6.06355">
        <ele>607.21</ele>
        <time>2018-08-26T08:39:56Z</time>
      </trkpt>
      <trkpt lat="47.31839" lon="6.06315">
        <ele>605.77</ele>
        <time>2018-08-26T08:40:07Z</time>
      </trkpt>
      <trkpt lat="47.31822" lon="6.06295">
        <ele>604.81</ele>
        <time>2018-08-26T08:40:12Z</time>
      </trkpt>
      <trkpt lat="47.31812" lon="6.0628">
        <ele>604.33</ele>
        <time>2018-08-26T08:40:15Z</time>
      </trkpt>
      <trkpt lat="47.3181" lon="6.06275">
        <ele>603.85</ele>
        <time>2018-08-26T08:40:16Z</time>
      </trkpt>
      <trkpt lat="47.31797" lon="6.06218">
        <ele>605.29</ele>
        <time>2018-08-26T08:40:27Z</time>
      </trkpt>
      <trkpt lat="47.31795" lon="6.0618">
        <ele>606.73</ele>
        <time>2018-08-26T08:40:36Z</time>
      </trkpt>
      <trkpt lat="47.31794" lon="6.06176">
        <ele>606.73</ele>
        <time>2018-08-26T08:40:37Z</time>
      </trkpt>
      <trkpt lat="47.31795" lon="6.06172">
        <ele>607.21</ele>
        <time>2018-08-26T08:40:38Z</time>
      </trkpt>
      <trkpt lat="47.31794" lon="6.06167">
        <ele>607.21</ele>
        <time>2018-08-26T08:40:39Z</time>
      </trkpt>
      <trkpt lat="47.31794" lon="6.06164">
        <ele>606.73</ele>
        <time>2018-08-26T08:40:40Z</time>
      </trkpt>
      <trkpt lat="47.31794" lon="6.0616">
        <ele>606.73</ele>
        <time>2018-08-26T08:40:41Z</time>
      </trkpt>
      <trkpt lat="47.31793" lon="6.06156">
        <ele>607.69</ele>
        <time>2018-08-26T08:40:42Z</time>
      </trkpt>
      <trkpt lat="47.31792" lon="6.06152">
        <ele>608.17</ele>
        <time>2018-08-26T08:40:43Z</time>
      </trkpt>
      <trkpt lat="47.31792" lon="6.06148">
        <ele>608.17</ele>
        <time>2018-08-26T08:40:44Z</time>
      </trkpt>
      <trkpt lat="47.31792" lon="6.06144">
        <ele>608.65</ele>
        <time>2018-08-26T08:40:45Z</time>
      </trkpt>
      <trkpt lat="47.31789" lon="6.06104">
        <ele>609.13</ele>
        <time>2018-08-26T08:40:54Z</time>
      </trkpt>
      <trkpt lat="47.31812" lon="6.06059">
        <ele>608.65</ele>
        <time>2018-08-26T08:41:05Z</time>
      </trkpt>
      <trkpt lat="47.31818" lon="6.06049">
        <ele>608.17</ele>
        <time>2018-08-26T08:41:07Z</time>
      </trkpt>
      <trkpt lat="47.31822" lon="6.06044">
        <ele>608.17</ele>
        <time>2018-08-26T08:41:08Z</time>
      </trkpt>
      <trkpt lat="47.31841" lon="6.0602">
        <ele>606.73</ele>
        <time>2018-08-26T08:41:13Z</time>
      </trkpt>
      <trkpt lat="47.31845" lon="6.06015">
        <ele>606.73</ele>
        <time>2018-08-26T08:41:14Z</time>
      </trkpt>
      <trkpt lat="47.31847" lon="6.06009">
        <ele>606.25</ele>
        <time>2018-08-26T08:41:15Z</time>
      </trkpt>
      <trkpt lat="47.31848" lon="6.06003">
        <ele>605.77</ele>
        <time>2018-08-26T08:41:16Z</time>
      </trkpt>
      <trkpt lat="47.31848" lon="6.05996">
        <ele>605.29</ele>
        <time>2018-08-26T08:41:17Z</time>
      </trkpt>
      <trkpt lat="47.3185" lon="6.05989">
        <ele>604.81</ele>
        <time>2018-08-26T08:41:18Z</time>
      </trkpt>
      <trkpt lat="47.31853" lon="6.05974">
        <ele>603.85</ele>
        <time>2018-08-26T08:41:20Z</time>
      </trkpt>
      <trkpt lat="47.31854" lon="6.05966">
        <ele>603.85</ele>
        <time>2018-08-26T08:41:21Z</time>
      </trkpt>
      <trkpt lat="47.31853" lon="6.05958">
        <ele>602.88</ele>
        <time>2018-08-26T08:41:22Z</time>
      </trkpt>
      <trkpt lat="47.3185" lon="6.05951">
        <ele>602.4</ele>
        <time>2018-08-26T08:41:23Z</time>
      </trkpt>
      <trkpt lat="47.31847" lon="6.05944">
        <ele>601.92</ele>
        <time>2018-08-26T08:41:24Z</time>
      </trkpt>
      <trkpt lat="47.3184" lon="6.05931">
        <ele>600.96</ele>
        <time>2018-08-26T08:41:26Z</time>
      </trkpt>
      <trkpt lat="47.31835" lon="6.05926">
        <ele>600.48</ele>
        <time>2018-08-26T08:41:27Z</time>
      </trkpt>
      <trkpt lat="47.31824" lon="6.05917">
        <ele>600</ele>
        <time>2018-08-26T08:41:29Z</time>
      </trkpt>
      <trkpt lat="47.31799" lon="6.05904">
        <ele>598.56</ele>
        <time>2018-08-26T08:41:33Z</time>
      </trkpt>
      <trkpt lat="47.31793" lon="6.05899">
        <ele>598.08</ele>
        <time>2018-08-26T08:41:34Z</time>
      </trkpt>
      <trkpt lat="47.31787" lon="6.05893">
        <ele>597.6</ele>
        <time>2018-08-26T08:41:35Z</time>
      </trkpt>
      <trkpt lat="47.31774" lon="6.0588">
        <ele>597.12</ele>
        <time>2018-08-26T08:41:37Z</time>
      </trkpt>
      <trkpt lat="47.31754" lon="6.05854">
        <ele>595.67</ele>
        <time>2018-08-26T08:41:41Z</time>
      </trkpt>
      <trkpt lat="47.31748" lon="6.0585">
        <ele>595.67</ele>
        <time>2018-08-26T08:41:42Z</time>
      </trkpt>
      <trkpt lat="47.31742" lon="6.05848">
        <ele>595.19</ele>
        <time>2018-08-26T08:41:43Z</time>
      </trkpt>
      <trkpt lat="47.31735" lon="6.05846">
        <ele>594.71</ele>
        <time>2018-08-26T08:41:44Z</time>
      </trkpt>
      <trkpt lat="47.31729" lon="6.05843">
        <ele>593.75</ele>
        <time>2018-08-26T08:41:45Z</time>
      </trkpt>
      <trkpt lat="47.31722" lon="6.0584">
        <ele>593.27</ele>
        <time>2018-08-26T08:41:46Z</time>
      </trkpt>
      <trkpt lat="47.31688" lon="6.05826">
        <ele>590.39</ele>
        <time>2018-08-26T08:41:51Z</time>
      </trkpt>
      <trkpt lat="47.31674" lon="6.05821">
        <ele>588.46</ele>
        <time>2018-08-26T08:41:53Z</time>
      </trkpt>
      <trkpt lat="47.31667" lon="6.05819">
        <ele>587.98</ele>
        <time>2018-08-26T08:41:54Z</time>
      </trkpt>
      <trkpt lat="47.31643" lon="6.0581">
        <ele>584.62</ele>
        <time>2018-08-26T08:41:57Z</time>
      </trkpt>
      <trkpt lat="47.3163" lon="6.05804">
        <ele>583.18</ele>
        <time>2018-08-26T08:41:59Z</time>
      </trkpt>
      <trkpt lat="47.31624" lon="6.05799">
        <ele>582.7</ele>
        <time>2018-08-26T08:42:00Z</time>
      </trkpt>
      <trkpt lat="47.31613" lon="6.05792">
        <ele>581.73</ele>
        <time>2018-08-26T08:42:02Z</time>
      </trkpt>
      <trkpt lat="47.31601" lon="6.05789">
        <ele>580.29</ele>
        <time>2018-08-26T08:42:04Z</time>
      </trkpt>
      <trkpt lat="47.31594" lon="6.0579">
        <ele>579.33</ele>
        <time>2018-08-26T08:42:05Z</time>
      </trkpt>
      <trkpt lat="47.31582" lon="6.05794">
        <ele>577.89</ele>
        <time>2018-08-26T08:42:07Z</time>
      </trkpt>
      <trkpt lat="47.3157" lon="6.05799">
        <ele>575.97</ele>
        <time>2018-08-26T08:42:09Z</time>
      </trkpt>
      <trkpt lat="47.31565" lon="6.05799">
        <ele>575.01</ele>
        <time>2018-08-26T08:42:10Z</time>
      </trkpt>
      <trkpt lat="47.31561" lon="6.05797">
        <ele>574.53</ele>
        <time>2018-08-26T08:42:11Z</time>
      </trkpt>
      <trkpt lat="47.31551" lon="6.05786">
        <ele>572.6</ele>
        <time>2018-08-26T08:42:14Z</time>
      </trkpt>
      <trkpt lat="47.31547" lon="6.05781">
        <ele>572.12</ele>
        <time>2018-08-26T08:42:15Z</time>
      </trkpt>
      <trkpt lat="47.31542" lon="6.05776">
        <ele>571.64</ele>
        <time>2018-08-26T08:42:16Z</time>
      </trkpt>
      <trkpt lat="47.31536" lon="6.05771">
        <ele>571.16</ele>
        <time>2018-08-26T08:42:17Z</time>
      </trkpt>
      <trkpt lat="47.31508" lon="6.0575">
        <ele>567.8</ele>
        <time>2018-08-26T08:42:21Z</time>
      </trkpt>
      <trkpt lat="47.31487" lon="6.0573">
        <ele>564.91</ele>
        <time>2018-08-26T08:42:25Z</time>
      </trkpt>
      <trkpt lat="47.31463" lon="6.05698">
        <ele>561.55</ele>
        <time>2018-08-26T08:42:30Z</time>
      </trkpt>
      <trkpt lat="47.31453" lon="6.05684">
        <ele>559.62</ele>
        <time>2018-08-26T08:42:32Z</time>
      </trkpt>
      <trkpt lat="47.31429" lon="6.05658">
        <ele>555.78</ele>
        <time>2018-08-26T08:42:36Z</time>
      </trkpt>
      <trkpt lat="47.31418" lon="6.05645">
        <ele>553.86</ele>
        <time>2018-08-26T08:42:38Z</time>
      </trkpt>
      <trkpt lat="47.31399" lon="6.05621">
        <ele>550.49</ele>
        <time>2018-08-26T08:42:41Z</time>
      </trkpt>
      <trkpt lat="47.31378" lon="6.05592">
        <ele>547.13</ele>
        <time>2018-08-26T08:42:44Z</time>
      </trkpt>
      <trkpt lat="47.31364" lon="6.05571">
        <ele>543.76</ele>
        <time>2018-08-26T08:42:46Z</time>
      </trkpt>
      <trkpt lat="47.31342" lon="6.05544">
        <ele>540.88</ele>
        <time>2018-08-26T08:42:49Z</time>
      </trkpt>
      <trkpt lat="47.31315" lon="6.05505">
        <ele>537.03</ele>
        <time>2018-08-26T08:42:53Z</time>
      </trkpt>
      <trkpt lat="47.31292" lon="6.05478">
        <ele>533.67</ele>
        <time>2018-08-26T08:42:56Z</time>
      </trkpt>
      <trkpt lat="47.3127" lon="6.05453">
        <ele>530.79</ele>
        <time>2018-08-26T08:42:59Z</time>
      </trkpt>
      <trkpt lat="47.31242" lon="6.05421">
        <ele>527.42</ele>
        <time>2018-08-26T08:43:03Z</time>
      </trkpt>
      <trkpt lat="47.31221" lon="6.054">
        <ele>524.06</ele>
        <time>2018-08-26T08:43:06Z</time>
      </trkpt>
      <trkpt lat="47.31194" lon="6.0538">
        <ele>520.69</ele>
        <time>2018-08-26T08:43:09Z</time>
      </trkpt>
      <trkpt lat="47.31168" lon="6.0536">
        <ele>516.85</ele>
        <time>2018-08-26T08:43:12Z</time>
      </trkpt>
      <trkpt lat="47.31147" lon="6.05336">
        <ele>513.96</ele>
        <time>2018-08-26T08:43:15Z</time>
      </trkpt>
      <trkpt lat="47.31142" lon="6.05329">
        <ele>513.48</ele>
        <time>2018-08-26T08:43:16Z</time>
      </trkpt>
      <trkpt lat="47.31139" lon="6.05323">
        <ele>513.48</ele>
        <time>2018-08-26T08:43:17Z</time>
      </trkpt>
      <trkpt lat="47.31138" lon="6.05317">
        <ele>513.48</ele>
        <time>2018-08-26T08:43:18Z</time>
      </trkpt>
      <trkpt lat="47.31137" lon="6.05313">
        <ele>514.44</ele>
        <time>2018-08-26T08:43:19Z</time>
      </trkpt>
      <trkpt lat="47.31137" lon="6.05309">
        <ele>514.92</ele>
        <time>2018-08-26T08:43:20Z</time>
      </trkpt>
      <trkpt lat="47.31136" lon="6.05306">
        <ele>515.4</ele>
        <time>2018-08-26T08:43:21Z</time>
      </trkpt>
      <trkpt lat="47.31135" lon="6.05302">
        <ele>515.4</ele>
        <time>2018-08-26T08:43:22Z</time>
      </trkpt>
      <trkpt lat="47.31135" lon="6.05297">
        <ele>515.88</ele>
        <time>2018-08-26T08:43:23Z</time>
      </trkpt>
      <trkpt lat="47.31126" lon="6.05266">
        <ele>517.33</ele>
        <time>2018-08-26T08:43:31Z</time>
      </trkpt>
      <trkpt lat="47.31126" lon="6.05263">
        <ele>516.37</ele>
        <time>2018-08-26T08:43:32Z</time>
      </trkpt>
      <trkpt lat="47.31126" lon="6.0526">
        <ele>518.29</ele>
        <time>2018-08-26T08:43:33Z</time>
      </trkpt>
      <trkpt lat="47.31126" lon="6.05257">
        <ele>518.29</ele>
        <time>2018-08-26T08:43:34Z</time>
      </trkpt>
      <trkpt lat="47.31126" lon="6.05254">
        <ele>517.81</ele>
        <time>2018-08-26T08:43:35Z</time>
      </trkpt>
      <trkpt lat="47.31126" lon="6.05251">
        <ele>518.77</ele>
        <time>2018-08-26T08:43:36Z</time>
      </trkpt>
      <trkpt lat="47.31126" lon="6.05247">
        <ele>518.77</ele>
        <time>2018-08-26T08:43:37Z</time>
      </trkpt>
      <trkpt lat="47.31126" lon="6.05243">
        <ele>518.77</ele>
        <time>2018-08-26T08:43:38Z</time>
      </trkpt>
      <trkpt lat="47.31126" lon="6.0524">
        <ele>518.77</ele>
        <time>2018-08-26T08:43:39Z</time>
      </trkpt>
      <trkpt lat="47.31126" lon="6.05236">
        <ele>519.25</ele>
        <time>2018-08-26T08:43:40Z</time>
      </trkpt>
      <trkpt lat="47.31126" lon="6.05233">
        <ele>519.25</ele>
        <time>2018-08-26T08:43:41Z</time>
      </trkpt>
      <trkpt lat="47.31126" lon="6.0523">
        <ele>519.25</ele>
        <time>2018-08-26T08:43:42Z</time>
      </trkpt>
      <trkpt lat="47.31126" lon="6.05227">
        <ele>519.25</ele>
        <time>2018-08-26T08:43:43Z</time>
      </trkpt>
      <trkpt lat="47.31126" lon="6.05223">
        <ele>519.73</ele>
        <time>2018-08-26T08:43:44Z</time>
      </trkpt>
      <trkpt lat="47.31126" lon="6.0522">
        <ele>519.73</ele>
        <time>2018-08-26T08:43:45Z</time>
      </trkpt>
      <trkpt lat="47.31126" lon="6.05216">
        <ele>519.25</ele>
        <time>2018-08-26T08:43:46Z</time>
      </trkpt>
      <trkpt lat="47.31125" lon="6.05213">
        <ele>520.21</ele>
        <time>2018-08-26T08:43:47Z</time>
      </trkpt>
      <trkpt lat="47.31125" lon="6.05209">
        <ele>519.73</ele>
        <time>2018-08-26T08:43:48Z</time>
      </trkpt>
      <trkpt lat="47.31123" lon="6.05197">
        <ele>520.21</ele>
        <time>2018-08-26T08:43:51Z</time>
      </trkpt>
      <trkpt lat="47.31122" lon="6.05193">
        <ele>520.21</ele>
        <time>2018-08-26T08:43:52Z</time>
      </trkpt>
      <trkpt lat="47.31122" lon="6.0519">
        <ele>520.21</ele>
        <time>2018-08-26T08:43:53Z</time>
      </trkpt>
      <trkpt lat="47.31122" lon="6.05186">
        <ele>519.73</ele>
        <time>2018-08-26T08:43:54Z</time>
      </trkpt>
      <trkpt lat="47.31122" lon="6.05183">
        <ele>518.29</ele>
        <time>2018-08-26T08:43:55Z</time>
      </trkpt>
      <trkpt lat="47.31121" lon="6.0518">
        <ele>523.58</ele>
        <time>2018-08-26T08:43:56Z</time>
      </trkpt>
      <trkpt lat="47.3112" lon="6.05176">
        <ele>519.25</ele>
        <time>2018-08-26T08:43:57Z</time>
      </trkpt>
      <trkpt lat="47.31107" lon="6.05138">
        <ele>519.25</ele>
        <time>2018-08-26T08:44:06Z</time>
      </trkpt>
      <trkpt lat="47.31106" lon="6.05134">
        <ele>518.77</ele>
        <time>2018-08-26T08:44:07Z</time>
      </trkpt>
      <trkpt lat="47.31105" lon="6.05129">
        <ele>518.77</ele>
        <time>2018-08-26T08:44:08Z</time>
      </trkpt>
      <trkpt lat="47.31103" lon="6.05124">
        <ele>518.29</ele>
        <time>2018-08-26T08:44:09Z</time>
      </trkpt>
      <trkpt lat="47.31087" lon="6.05098">
        <ele>515.4</ele>
        <time>2018-08-26T08:44:14Z</time>
      </trkpt>
      <trkpt lat="47.31066" lon="6.05056">
        <ele>512.52</ele>
        <time>2018-08-26T08:44:20Z</time>
      </trkpt>
      <trkpt lat="47.31063" lon="6.05048">
        <ele>512.04</ele>
        <time>2018-08-26T08:44:21Z</time>
      </trkpt>
      <trkpt lat="47.31046" lon="6.04988">
        <ele>511.56</ele>
        <time>2018-08-26T08:44:31Z</time>
      </trkpt>
      <trkpt lat="47.31031" lon="6.0496">
        <ele>509.64</ele>
        <time>2018-08-26T08:44:35Z</time>
      </trkpt>
      <trkpt lat="47.31028" lon="6.04952">
        <ele>509.16</ele>
        <time>2018-08-26T08:44:36Z</time>
      </trkpt>
      <trkpt lat="47.31025" lon="6.04944">
        <ele>508.67</ele>
        <time>2018-08-26T08:44:37Z</time>
      </trkpt>
      <trkpt lat="47.31023" lon="6.04936">
        <ele>508.67</ele>
        <time>2018-08-26T08:44:38Z</time>
      </trkpt>
      <trkpt lat="47.3102" lon="6.04922">
        <ele>509.16</ele>
        <time>2018-08-26T08:44:40Z</time>
      </trkpt>
      <trkpt lat="47.31016" lon="6.04896">
        <ele>514.44</ele>
        <time>2018-08-26T08:44:46Z</time>
      </trkpt>
      <trkpt lat="47.31015" lon="6.04893">
        <ele>510.12</ele>
        <time>2018-08-26T08:44:47Z</time>
      </trkpt>
      <trkpt lat="47.31014" lon="6.04882">
        <ele>511.56</ele>
        <time>2018-08-26T08:44:50Z</time>
      </trkpt>
      <trkpt lat="47.31013" lon="6.04879">
        <ele>511.56</ele>
        <time>2018-08-26T08:44:51Z</time>
      </trkpt>
      <trkpt lat="47.30997" lon="6.04831">
        <ele>512.52</ele>
        <time>2018-08-26T08:45:05Z</time>
      </trkpt>
      <trkpt lat="47.30994" lon="6.04823">
        <ele>513</ele>
        <time>2018-08-26T08:45:07Z</time>
      </trkpt>
      <trkpt lat="47.30991" lon="6.04819">
        <ele>512.52</ele>
        <time>2018-08-26T08:45:08Z</time>
      </trkpt>
      <trkpt lat="47.30989" lon="6.04816">
        <ele>512.52</ele>
        <time>2018-08-26T08:45:09Z</time>
      </trkpt>
      <trkpt lat="47.30968" lon="6.04769">
        <ele>511.08</ele>
        <time>2018-08-26T08:45:19Z</time>
      </trkpt>
      <trkpt lat="47.30938" lon="6.04698">
        <ele>508.67</ele>
        <time>2018-08-26T08:45:31Z</time>
      </trkpt>
      <trkpt lat="47.30933" lon="6.04684">
        <ele>508.19</ele>
        <time>2018-08-26T08:45:33Z</time>
      </trkpt>
      <trkpt lat="47.30927" lon="6.04669">
        <ele>507.23</ele>
        <time>2018-08-26T08:45:35Z</time>
      </trkpt>
      <trkpt lat="47.30923" lon="6.04662">
        <ele>507.23</ele>
        <time>2018-08-26T08:45:36Z</time>
      </trkpt>
      <trkpt lat="47.30919" lon="6.04657">
        <ele>507.23</ele>
        <time>2018-08-26T08:45:37Z</time>
      </trkpt>
      <trkpt lat="47.30898" lon="6.04631">
        <ele>508.67</ele>
        <time>2018-08-26T08:45:43Z</time>
      </trkpt>
      <trkpt lat="47.30881" lon="6.0459">
        <ele>507.71</ele>
        <time>2018-08-26T08:45:52Z</time>
      </trkpt>
      <trkpt lat="47.30879" lon="6.04586">
        <ele>512.52</ele>
        <time>2018-08-26T08:45:53Z</time>
      </trkpt>
      <trkpt lat="47.30867" lon="6.04546">
        <ele>513</ele>
        <time>2018-08-26T08:46:03Z</time>
      </trkpt>
      <trkpt lat="47.30852" lon="6.04501">
        <ele>515.4</ele>
        <time>2018-08-26T08:46:14Z</time>
      </trkpt>
      <trkpt lat="47.30841" lon="6.04463">
        <ele>515.88</ele>
        <time>2018-08-26T08:46:24Z</time>
      </trkpt>
      <trkpt lat="47.30835" lon="6.04438">
        <ele>516.37</ele>
        <time>2018-08-26T08:46:31Z</time>
      </trkpt>
      <trkpt lat="47.30837" lon="6.04429">
        <ele>517.81</ele>
        <time>2018-08-26T08:46:41Z</time>
      </trkpt>
      <trkpt lat="47.30837" lon="6.04428">
        <ele>516.85</ele>
        <time>2018-08-26T08:46:59Z</time>
      </trkpt>
      <trkpt lat="47.30837" lon="6.04428">
        <ele>517.81</ele>
        <time>2018-08-26T08:47:13Z</time>
      </trkpt>
      <trkpt lat="47.30837" lon="6.04425">
        <ele>517.33</ele>
        <time>2018-08-26T08:47:29Z</time>
      </trkpt>
      <trkpt lat="47.30837" lon="6.04413">
        <ele>517.33</ele>
        <time>2018-08-26T08:47:38Z</time>
      </trkpt>
      <trkpt lat="47.30837" lon="6.04411">
        <ele>517.81</ele>
        <time>2018-08-26T08:47:39Z</time>
      </trkpt>
      <trkpt lat="47.30836" lon="6.04407">
        <ele>517.81</ele>
        <time>2018-08-26T08:47:40Z</time>
      </trkpt>
      <trkpt lat="47.30834" lon="6.04391">
        <ele>518.29</ele>
        <time>2018-08-26T08:47:44Z</time>
      </trkpt>
      <trkpt lat="47.30833" lon="6.04387">
        <ele>518.29</ele>
        <time>2018-08-26T08:47:45Z</time>
      </trkpt>
      <trkpt lat="47.30833" lon="6.04384">
        <ele>518.77</ele>
        <time>2018-08-26T08:47:46Z</time>
      </trkpt>
      <trkpt lat="47.30833" lon="6.04381">
        <ele>518.77</ele>
        <time>2018-08-26T08:47:47Z</time>
      </trkpt>
      <trkpt lat="47.30833" lon="6.04377">
        <ele>519.25</ele>
        <time>2018-08-26T08:47:48Z</time>
      </trkpt>
      <trkpt lat="47.30832" lon="6.04374">
        <ele>518.77</ele>
        <time>2018-08-26T08:47:49Z</time>
      </trkpt>
      <trkpt lat="47.3083" lon="6.04372">
        <ele>519.25</ele>
        <time>2018-08-26T08:47:50Z</time>
      </trkpt>
      <trkpt lat="47.30826" lon="6.04359">
        <ele>519.73</ele>
        <time>2018-08-26T08:47:55Z</time>
      </trkpt>
      <trkpt lat="47.30825" lon="6.04358">
        <ele>520.21</ele>
        <time>2018-08-26T08:47:56Z</time>
      </trkpt>
      <trkpt lat="47.30824" lon="6.04355">
        <ele>519.73</ele>
        <time>2018-08-26T08:47:57Z</time>
      </trkpt>
      <trkpt lat="47.30823" lon="6.04353">
        <ele>520.21</ele>
        <time>2018-08-26T08:47:58Z</time>
      </trkpt>
      <trkpt lat="47.30822" lon="6.0435">
        <ele>520.21</ele>
        <time>2018-08-26T08:47:59Z</time>
      </trkpt>
      <trkpt lat="47.30822" lon="6.04346">
        <ele>520.21</ele>
        <time>2018-08-26T08:48:00Z</time>
      </trkpt>
      <trkpt lat="47.30823" lon="6.04342">
        <ele>520.21</ele>
        <time>2018-08-26T08:48:01Z</time>
      </trkpt>
      <trkpt lat="47.30822" lon="6.04337">
        <ele>520.69</ele>
        <time>2018-08-26T08:48:02Z</time>
      </trkpt>
      <trkpt lat="47.30822" lon="6.04334">
        <ele>520.69</ele>
        <time>2018-08-26T08:48:03Z</time>
      </trkpt>
      <trkpt lat="47.30821" lon="6.0433">
        <ele>520.69</ele>
        <time>2018-08-26T08:48:04Z</time>
      </trkpt>
      <trkpt lat="47.3082" lon="6.04324">
        <ele>520.69</ele>
        <time>2018-08-26T08:48:05Z</time>
      </trkpt>
      <trkpt lat="47.30819" lon="6.04319">
        <ele>520.69</ele>
        <time>2018-08-26T08:48:06Z</time>
      </trkpt>
      <trkpt lat="47.30806" lon="6.0425">
        <ele>519.73</ele>
        <time>2018-08-26T08:48:18Z</time>
      </trkpt>
      <trkpt lat="47.30808" lon="6.04185">
        <ele>520.69</ele>
        <time>2018-08-26T08:48:29Z</time>
      </trkpt>
      <trkpt lat="47.30811" lon="6.04166">
        <ele>522.13</ele>
        <time>2018-08-26T08:48:34Z</time>
      </trkpt>
      <trkpt lat="47.30811" lon="6.04163">
        <ele>522.61</ele>
        <time>2018-08-26T08:48:35Z</time>
      </trkpt>
      <trkpt lat="47.3082" lon="6.04129">
        <ele>525.5</ele>
        <time>2018-08-26T08:48:47Z</time>
      </trkpt>
      <trkpt lat="47.30828" lon="6.04105">
        <ele>528.38</ele>
        <time>2018-08-26T08:48:58Z</time>
      </trkpt>
      <trkpt lat="47.30844" lon="6.04084">
        <ele>529.34</ele>
        <time>2018-08-26T08:49:08Z</time>
      </trkpt>
      <trkpt lat="47.30844" lon="6.04075">
        <ele>529.34</ele>
        <time>2018-08-26T08:49:10Z</time>
      </trkpt>
      <trkpt lat="47.30844" lon="6.04072">
        <ele>529.34</ele>
        <time>2018-08-26T08:49:11Z</time>
      </trkpt>
      <trkpt lat="47.30844" lon="6.04067">
        <ele>529.82</ele>
        <time>2018-08-26T08:49:12Z</time>
      </trkpt>
      <trkpt lat="47.30844" lon="6.04063">
        <ele>529.82</ele>
        <time>2018-08-26T08:49:13Z</time>
      </trkpt>
      <trkpt lat="47.30844" lon="6.04057">
        <ele>529.82</ele>
        <time>2018-08-26T08:49:14Z</time>
      </trkpt>
      <trkpt lat="47.30844" lon="6.03998">
        <ele>530.79</ele>
        <time>2018-08-26T08:49:26Z</time>
      </trkpt>
      <trkpt lat="47.3085" lon="6.03947">
        <ele>532.23</ele>
        <time>2018-08-26T08:49:37Z</time>
      </trkpt>
      <trkpt lat="47.30851" lon="6.03939">
        <ele>532.23</ele>
        <time>2018-08-26T08:49:39Z</time>
      </trkpt>
      <trkpt lat="47.30851" lon="6.03934">
        <ele>532.71</ele>
        <time>2018-08-26T08:49:40Z</time>
      </trkpt>
      <trkpt lat="47.30852" lon="6.03929">
        <ele>532.71</ele>
        <time>2018-08-26T08:49:41Z</time>
      </trkpt>
      <trkpt lat="47.30853" lon="6.03925">
        <ele>528.38</ele>
        <time>2018-08-26T08:49:42Z</time>
      </trkpt>
      <trkpt lat="47.30853" lon="6.03922">
        <ele>537.51</ele>
        <time>2018-08-26T08:49:43Z</time>
      </trkpt>
      <trkpt lat="47.30854" lon="6.03918">
        <ele>533.67</ele>
        <time>2018-08-26T08:49:44Z</time>
      </trkpt>
      <trkpt lat="47.30865" lon="6.03859">
        <ele>535.59</ele>
        <time>2018-08-26T08:49:57Z</time>
      </trkpt>
      <trkpt lat="47.30878" lon="6.03806">
        <ele>537.51</ele>
        <time>2018-08-26T08:50:09Z</time>
      </trkpt>
      <trkpt lat="47.30888" lon="6.03752">
        <ele>539.92</ele>
        <time>2018-08-26T08:50:21Z</time>
      </trkpt>
      <trkpt lat="47.30901" lon="6.03703">
        <ele>541.84</ele>
        <time>2018-08-26T08:50:33Z</time>
      </trkpt>
      <trkpt lat="47.30909" lon="6.03676">
        <ele>542.8</ele>
        <time>2018-08-26T08:50:40Z</time>
      </trkpt>
      <trkpt lat="47.3091" lon="6.03672">
        <ele>543.28</ele>
        <time>2018-08-26T08:50:41Z</time>
      </trkpt>
      <trkpt lat="47.30923" lon="6.03621">
        <ele>545.2</ele>
        <time>2018-08-26T08:50:54Z</time>
      </trkpt>
      <trkpt lat="47.30924" lon="6.03618">
        <ele>545.2</ele>
        <time>2018-08-26T08:50:55Z</time>
      </trkpt>
      <trkpt lat="47.30926" lon="6.03615">
        <ele>545.2</ele>
        <time>2018-08-26T08:50:56Z</time>
      </trkpt>
      <trkpt lat="47.30928" lon="6.03613">
        <ele>545.69</ele>
        <time>2018-08-26T08:50:57Z</time>
      </trkpt>
      <trkpt lat="47.3093" lon="6.03611">
        <ele>545.69</ele>
        <time>2018-08-26T08:50:58Z</time>
      </trkpt>
      <trkpt lat="47.30932" lon="6.0361">
        <ele>546.17</ele>
        <time>2018-08-26T08:50:59Z</time>
      </trkpt>
      <trkpt lat="47.30934" lon="6.03609">
        <ele>546.17</ele>
        <time>2018-08-26T08:51:00Z</time>
      </trkpt>
      <trkpt lat="47.30937" lon="6.03609">
        <ele>546.17</ele>
        <time>2018-08-26T08:51:01Z</time>
      </trkpt>
      <trkpt lat="47.30939" lon="6.03608">
        <ele>545.2</ele>
        <time>2018-08-26T08:51:02Z</time>
      </trkpt>
      <trkpt lat="47.30941" lon="6.03608">
        <ele>547.61</ele>
        <time>2018-08-26T08:51:03Z</time>
      </trkpt>
      <trkpt lat="47.30943" lon="6.03609">
        <ele>546.65</ele>
        <time>2018-08-26T08:51:04Z</time>
      </trkpt>
      <trkpt lat="47.30945" lon="6.0361">
        <ele>547.13</ele>
        <time>2018-08-26T08:51:05Z</time>
      </trkpt>
      <trkpt lat="47.30947" lon="6.03611">
        <ele>546.65</ele>
        <time>2018-08-26T08:51:06Z</time>
      </trkpt>
      <trkpt lat="47.30949" lon="6.03613">
        <ele>546.65</ele>
        <time>2018-08-26T08:51:07Z</time>
      </trkpt>
      <trkpt lat="47.30951" lon="6.03613">
        <ele>547.13</ele>
        <time>2018-08-26T08:51:08Z</time>
      </trkpt>
      <trkpt lat="47.30953" lon="6.03614">
        <ele>547.13</ele>
        <time>2018-08-26T08:51:09Z</time>
      </trkpt>
      <trkpt lat="47.30955" lon="6.03614">
        <ele>547.61</ele>
        <time>2018-08-26T08:51:10Z</time>
      </trkpt>
      <trkpt lat="47.30957" lon="6.03613">
        <ele>547.61</ele>
        <time>2018-08-26T08:51:11Z</time>
      </trkpt>
      <trkpt lat="47.30961" lon="6.03612">
        <ele>547.61</ele>
        <time>2018-08-26T08:51:23Z</time>
      </trkpt>
      <trkpt lat="47.30964" lon="6.03612">
        <ele>547.61</ele>
        <time>2018-08-26T08:51:49Z</time>
      </trkpt>
      <trkpt lat="47.30967" lon="6.03611">
        <ele>547.61</ele>
        <time>2018-08-26T08:52:09Z</time>
      </trkpt>
      <trkpt lat="47.30966" lon="6.03612">
        <ele>548.09</ele>
        <time>2018-08-26T08:52:39Z</time>
      </trkpt>
      <trkpt lat="47.30966" lon="6.03609">
        <ele>548.09</ele>
        <time>2018-08-26T08:53:03Z</time>
      </trkpt>
      <trkpt lat="47.30967" lon="6.03608">
        <ele>548.09</ele>
        <time>2018-08-26T08:53:25Z</time>
      </trkpt>
      <trkpt lat="47.30965" lon="6.03606">
        <ele>548.09</ele>
        <time>2018-08-26T08:53:52Z</time>
      </trkpt>
      <trkpt lat="47.30963" lon="6.03606">
        <ele>548.09</ele>
        <time>2018-08-26T08:54:21Z</time>
      </trkpt>
      <trkpt lat="47.30962" lon="6.03608">
        <ele>548.09</ele>
        <time>2018-08-26T08:54:50Z</time>
      </trkpt>
      <trkpt lat="47.30963" lon="6.03608">
        <ele>548.09</ele>
        <time>2018-08-26T08:55:18Z</time>
      </trkpt>
      <trkpt lat="47.30963" lon="6.03608">
        <ele>548.57</ele>
        <time>2018-08-26T08:55:49Z</time>
      </trkpt>
      <trkpt lat="47.30964" lon="6.03608">
        <ele>548.57</ele>
        <time>2018-08-26T08:56:21Z</time>
      </trkpt>
      <trkpt lat="47.30964" lon="6.03606">
        <ele>548.57</ele>
        <time>2018-08-26T08:56:48Z</time>
      </trkpt>
      <trkpt lat="47.30965" lon="6.03607">
        <ele>548.57</ele>
        <time>2018-08-26T08:57:18Z</time>
      </trkpt>
      <trkpt lat="47.30966" lon="6.03607">
        <ele>548.57</ele>
        <time>2018-08-26T08:57:48Z</time>
      </trkpt>
      <trkpt lat="47.30966" lon="6.03607">
        <ele>548.57</ele>
        <time>2018-08-26T08:58:01Z</time>
      </trkpt>
      <trkpt lat="47.30965" lon="6.03606">
        <ele>548.09</ele>
        <time>2018-08-26T08:58:25Z</time>
      </trkpt>
      <trkpt lat="47.30965" lon="6.03606">
        <ele>548.57</ele>
        <time>2018-08-26T08:58:51Z</time>
      </trkpt>
      <trkpt lat="47.30966" lon="6.03605">
        <ele>548.09</ele>
        <time>2018-08-26T08:59:00Z</time>
      </trkpt>
      <trkpt lat="47.30968" lon="6.03604">
        <ele>548.09</ele>
        <time>2018-08-26T08:59:01Z</time>
      </trkpt>
      <trkpt lat="47.30971" lon="6.03604">
        <ele>547.61</ele>
        <time>2018-08-26T08:59:03Z</time>
      </trkpt>
      <trkpt lat="47.30973" lon="6.03605">
        <ele>547.61</ele>
        <time>2018-08-26T08:59:04Z</time>
      </trkpt>
      <trkpt lat="47.31" lon="6.03612">
        <ele>544.24</ele>
        <time>2018-08-26T08:59:13Z</time>
      </trkpt>
      <trkpt lat="47.31002" lon="6.03614">
        <ele>544.24</ele>
        <time>2018-08-26T08:59:14Z</time>
      </trkpt>
      <trkpt lat="47.31003" lon="6.03617">
        <ele>544.24</ele>
        <time>2018-08-26T08:59:15Z</time>
      </trkpt>
      <trkpt lat="47.31004" lon="6.0362">
        <ele>543.76</ele>
        <time>2018-08-26T08:59:16Z</time>
      </trkpt>
      <trkpt lat="47.31005" lon="6.03624">
        <ele>543.76</ele>
        <time>2018-08-26T08:59:17Z</time>
      </trkpt>
      <trkpt lat="47.31006" lon="6.03628">
        <ele>543.28</ele>
        <time>2018-08-26T08:59:18Z</time>
      </trkpt>
      <trkpt lat="47.31006" lon="6.03633">
        <ele>543.28</ele>
        <time>2018-08-26T08:59:19Z</time>
      </trkpt>
      <trkpt lat="47.31006" lon="6.0366">
        <ele>539.92</ele>
        <time>2018-08-26T08:59:27Z</time>
      </trkpt>
      <trkpt lat="47.3101" lon="6.03692">
        <ele>536.55</ele>
        <time>2018-08-26T08:59:33Z</time>
      </trkpt>
      <trkpt lat="47.31025" lon="6.03749">
        <ele>534.15</ele>
        <time>2018-08-26T08:59:42Z</time>
      </trkpt>
      <trkpt lat="47.3103" lon="6.03758">
        <ele>533.67</ele>
        <time>2018-08-26T08:59:55Z</time>
      </trkpt>
      <trkpt lat="47.31033" lon="6.03764">
        <ele>533.67</ele>
        <time>2018-08-26T09:00:05Z</time>
      </trkpt>
      <trkpt lat="47.31035" lon="6.03773">
        <ele>532.71</ele>
        <time>2018-08-26T09:00:10Z</time>
      </trkpt>
      <trkpt lat="47.31036" lon="6.03782">
        <ele>532.71</ele>
        <time>2018-08-26T09:00:16Z</time>
      </trkpt>
      <trkpt lat="47.31039" lon="6.03792">
        <ele>531.27</ele>
        <time>2018-08-26T09:00:20Z</time>
      </trkpt>
      <trkpt lat="47.31039" lon="6.03795">
        <ele>530.79</ele>
        <time>2018-08-26T09:00:21Z</time>
      </trkpt>
      <trkpt lat="47.3104" lon="6.03804">
        <ele>530.3</ele>
        <time>2018-08-26T09:00:23Z</time>
      </trkpt>
      <trkpt lat="47.31041" lon="6.03809">
        <ele>529.82</ele>
        <time>2018-08-26T09:00:24Z</time>
      </trkpt>
      <trkpt lat="47.31047" lon="6.03836">
        <ele>528.38</ele>
        <time>2018-08-26T09:00:28Z</time>
      </trkpt>
      <trkpt lat="47.31053" lon="6.03852">
        <ele>526.94</ele>
        <time>2018-08-26T09:00:31Z</time>
      </trkpt>
      <trkpt lat="47.31058" lon="6.03878">
        <ele>524.06</ele>
        <time>2018-08-26T09:00:35Z</time>
      </trkpt>
      <trkpt lat="47.31066" lon="6.03909">
        <ele>521.17</ele>
        <time>2018-08-26T09:00:39Z</time>
      </trkpt>
      <trkpt lat="47.31067" lon="6.03916">
        <ele>520.21</ele>
        <time>2018-08-26T09:00:40Z</time>
      </trkpt>
      <trkpt lat="47.31076" lon="6.03948">
        <ele>517.33</ele>
        <time>2018-08-26T09:00:45Z</time>
      </trkpt>
      <trkpt lat="47.31084" lon="6.03973">
        <ele>514.44</ele>
        <time>2018-08-26T09:00:49Z</time>
      </trkpt>
      <trkpt lat="47.31088" lon="6.03985">
        <ele>511.56</ele>
        <time>2018-08-26T09:00:53Z</time>
      </trkpt>
      <trkpt lat="47.31093" lon="6.03982">
        <ele>511.08</ele>
        <time>2018-08-26T09:00:54Z</time>
      </trkpt>
      <trkpt lat="47.31096" lon="6.03979">
        <ele>510.6</ele>
        <time>2018-08-26T09:00:55Z</time>
      </trkpt>
      <trkpt lat="47.31102" lon="6.0397">
        <ele>509.64</ele>
        <time>2018-08-26T09:00:58Z</time>
      </trkpt>
      <trkpt lat="47.31105" lon="6.03959">
        <ele>507.23</ele>
        <time>2018-08-26T09:01:02Z</time>
      </trkpt>
      <trkpt lat="47.31109" lon="6.03935">
        <ele>504.35</ele>
        <time>2018-08-26T09:01:07Z</time>
      </trkpt>
      <trkpt lat="47.3111" lon="6.03919">
        <ele>502.91</ele>
        <time>2018-08-26T09:01:09Z</time>
      </trkpt>
      <trkpt lat="47.31109" lon="6.0391">
        <ele>502.43</ele>
        <time>2018-08-26T09:01:10Z</time>
      </trkpt>
      <trkpt lat="47.31105" lon="6.03881">
        <ele>500.02</ele>
        <time>2018-08-26T09:01:13Z</time>
      </trkpt>
      <trkpt lat="47.31112" lon="6.03837">
        <ele>497.62</ele>
        <time>2018-08-26T09:01:19Z</time>
      </trkpt>
      <trkpt lat="47.31117" lon="6.03824">
        <ele>496.18</ele>
        <time>2018-08-26T09:01:21Z</time>
      </trkpt>
      <trkpt lat="47.31118" lon="6.03817">
        <ele>496.18</ele>
        <time>2018-08-26T09:01:22Z</time>
      </trkpt>
      <trkpt lat="47.3112" lon="6.03808">
        <ele>496.18</ele>
        <time>2018-08-26T09:01:23Z</time>
      </trkpt>
      <trkpt lat="47.31121" lon="6.03799">
        <ele>495.22</ele>
        <time>2018-08-26T09:01:24Z</time>
      </trkpt>
      <trkpt lat="47.31122" lon="6.03792">
        <ele>495.22</ele>
        <time>2018-08-26T09:01:25Z</time>
      </trkpt>
      <trkpt lat="47.31124" lon="6.03788">
        <ele>494.74</ele>
        <time>2018-08-26T09:01:26Z</time>
      </trkpt>
      <trkpt lat="47.31128" lon="6.03789">
        <ele>493.77</ele>
        <time>2018-08-26T09:01:28Z</time>
      </trkpt>
      <trkpt lat="47.3113" lon="6.03813">
        <ele>489.93</ele>
        <time>2018-08-26T09:01:36Z</time>
      </trkpt>
      <trkpt lat="47.3113" lon="6.03817">
        <ele>493.77</ele>
        <time>2018-08-26T09:01:37Z</time>
      </trkpt>
      <trkpt lat="47.31132" lon="6.03826">
        <ele>490.89</ele>
        <time>2018-08-26T09:01:40Z</time>
      </trkpt>
      <trkpt lat="47.31143" lon="6.03864">
        <ele>487.53</ele>
        <time>2018-08-26T09:01:46Z</time>
      </trkpt>
      <trkpt lat="47.31153" lon="6.03898">
        <ele>484.16</ele>
        <time>2018-08-26T09:01:50Z</time>
      </trkpt>
      <trkpt lat="47.31156" lon="6.03906">
        <ele>483.68</ele>
        <time>2018-08-26T09:01:51Z</time>
      </trkpt>
      <trkpt lat="47.31161" lon="6.03919">
        <ele>481.76</ele>
        <time>2018-08-26T09:01:53Z</time>
      </trkpt>
      <trkpt lat="47.31169" lon="6.03934">
        <ele>480.32</ele>
        <time>2018-08-26T09:01:56Z</time>
      </trkpt>
      <trkpt lat="47.31174" lon="6.03943">
        <ele>475.99</ele>
        <time>2018-08-26T09:01:58Z</time>
      </trkpt>
      <trkpt lat="47.31176" lon="6.03947">
        <ele>485.12</ele>
        <time>2018-08-26T09:01:59Z</time>
      </trkpt>
      <trkpt lat="47.31177" lon="6.0395">
        <ele>479.84</ele>
        <time>2018-08-26T09:02:00Z</time>
      </trkpt>
      <trkpt lat="47.31184" lon="6.03954">
        <ele>476.47</ele>
        <time>2018-08-26T09:02:07Z</time>
      </trkpt>
      <trkpt lat="47.31191" lon="6.03957">
        <ele>477.43</ele>
        <time>2018-08-26T09:02:18Z</time>
      </trkpt>
      <trkpt lat="47.31193" lon="6.03955">
        <ele>476.95</ele>
        <time>2018-08-26T09:02:19Z</time>
      </trkpt>
      <trkpt lat="47.31196" lon="6.03951">
        <ele>475.99</ele>
        <time>2018-08-26T09:02:21Z</time>
      </trkpt>
      <trkpt lat="47.31198" lon="6.03949">
        <ele>475.03</ele>
        <time>2018-08-26T09:02:22Z</time>
      </trkpt>
      <trkpt lat="47.31201" lon="6.03945">
        <ele>473.59</ele>
        <time>2018-08-26T09:02:23Z</time>
      </trkpt>
      <trkpt lat="47.31205" lon="6.03941">
        <ele>472.63</ele>
        <time>2018-08-26T09:02:24Z</time>
      </trkpt>
      <trkpt lat="47.31207" lon="6.03938">
        <ele>471.18</ele>
        <time>2018-08-26T09:02:25Z</time>
      </trkpt>
      <trkpt lat="47.31208" lon="6.03935">
        <ele>469.74</ele>
        <time>2018-08-26T09:02:26Z</time>
      </trkpt>
      <trkpt lat="47.3121" lon="6.03933">
        <ele>468.78</ele>
        <time>2018-08-26T09:02:27Z</time>
      </trkpt>
      <trkpt lat="47.31212" lon="6.03931">
        <ele>467.34</ele>
        <time>2018-08-26T09:02:28Z</time>
      </trkpt>
      <trkpt lat="47.31214" lon="6.03929">
        <ele>466.38</ele>
        <time>2018-08-26T09:02:29Z</time>
      </trkpt>
      <trkpt lat="47.31217" lon="6.03927">
        <ele>464.45</ele>
        <time>2018-08-26T09:02:30Z</time>
      </trkpt>
      <trkpt lat="47.31221" lon="6.03926">
        <ele>463.49</ele>
        <time>2018-08-26T09:02:31Z</time>
      </trkpt>
      <trkpt lat="47.3123" lon="6.03924">
        <ele>460.61</ele>
        <time>2018-08-26T09:02:33Z</time>
      </trkpt>
      <trkpt lat="47.31236" lon="6.03924">
        <ele>458.69</ele>
        <time>2018-08-26T09:02:34Z</time>
      </trkpt>
      <trkpt lat="47.31248" lon="6.03926">
        <ele>455.8</ele>
        <time>2018-08-26T09:02:36Z</time>
      </trkpt>
      <trkpt lat="47.31261" lon="6.03928">
        <ele>452.92</ele>
        <time>2018-08-26T09:02:38Z</time>
      </trkpt>
      <trkpt lat="47.31267" lon="6.03928">
        <ele>451.48</ele>
        <time>2018-08-26T09:02:39Z</time>
      </trkpt>
      <trkpt lat="47.3128" lon="6.03928">
        <ele>447.63</ele>
        <time>2018-08-26T09:02:41Z</time>
      </trkpt>
      <trkpt lat="47.31286" lon="6.03929">
        <ele>446.19</ele>
        <time>2018-08-26T09:02:42Z</time>
      </trkpt>
      <trkpt lat="47.31308" lon="6.03928">
        <ele>441.86</ele>
        <time>2018-08-26T09:02:45Z</time>
      </trkpt>
      <trkpt lat="47.31314" lon="6.03927">
        <ele>440.42</ele>
        <time>2018-08-26T09:02:46Z</time>
      </trkpt>
      <trkpt lat="47.3132" lon="6.03925">
        <ele>438.5</ele>
        <time>2018-08-26T09:02:47Z</time>
      </trkpt>
      <trkpt lat="47.3133" lon="6.03921">
        <ele>435.61</ele>
        <time>2018-08-26T09:02:49Z</time>
      </trkpt>
      <trkpt lat="47.31345" lon="6.03912">
        <ele>431.29</ele>
        <time>2018-08-26T09:02:52Z</time>
      </trkpt>
      <trkpt lat="47.3136" lon="6.039">
        <ele>428.4</ele>
        <time>2018-08-26T09:02:55Z</time>
      </trkpt>
      <trkpt lat="47.31368" lon="6.03893">
        <ele>425.52</ele>
        <time>2018-08-26T09:02:57Z</time>
      </trkpt>
      <trkpt lat="47.31373" lon="6.03889">
        <ele>424.56</ele>
        <time>2018-08-26T09:02:58Z</time>
      </trkpt>
      <trkpt lat="47.31378" lon="6.03885">
        <ele>422.64</ele>
        <time>2018-08-26T09:02:59Z</time>
      </trkpt>
      <trkpt lat="47.31382" lon="6.03882">
        <ele>421.19</ele>
        <time>2018-08-26T09:03:00Z</time>
      </trkpt>
      <trkpt lat="47.31386" lon="6.0388">
        <ele>419.75</ele>
        <time>2018-08-26T09:03:01Z</time>
      </trkpt>
      <trkpt lat="47.3139" lon="6.0388">
        <ele>418.31</ele>
        <time>2018-08-26T09:03:02Z</time>
      </trkpt>
      <trkpt lat="47.31393" lon="6.0388">
        <ele>417.35</ele>
        <time>2018-08-26T09:03:03Z</time>
      </trkpt>
      <trkpt lat="47.31396" lon="6.03882">
        <ele>415.91</ele>
        <time>2018-08-26T09:03:04Z</time>
      </trkpt>
      <trkpt lat="47.31399" lon="6.03883">
        <ele>413.98</ele>
        <time>2018-08-26T09:03:05Z</time>
      </trkpt>
      <trkpt lat="47.31411" lon="6.03887">
        <ele>410.62</ele>
        <time>2018-08-26T09:03:08Z</time>
      </trkpt>
      <trkpt lat="47.31422" lon="6.03889">
        <ele>407.74</ele>
        <time>2018-08-26T09:03:10Z</time>
      </trkpt>
      <trkpt lat="47.31427" lon="6.03891">
        <ele>406.77</ele>
        <time>2018-08-26T09:03:11Z</time>
      </trkpt>
      <trkpt lat="47.31429" lon="6.03893">
        <ele>405.81</ele>
        <time>2018-08-26T09:03:12Z</time>
      </trkpt>
      <trkpt lat="47.3143" lon="6.03895">
        <ele>404.85</ele>
        <time>2018-08-26T09:03:13Z</time>
      </trkpt>
      <trkpt lat="47.31432" lon="6.03898">
        <ele>404.37</ele>
        <time>2018-08-26T09:03:14Z</time>
      </trkpt>
      <trkpt lat="47.31434" lon="6.03901">
        <ele>402.93</ele>
        <time>2018-08-26T09:03:15Z</time>
      </trkpt>
      <trkpt lat="47.31441" lon="6.03909">
        <ele>399.08</ele>
        <time>2018-08-26T09:03:18Z</time>
      </trkpt>
      <trkpt lat="47.31444" lon="6.03913">
        <ele>396.68</ele>
        <time>2018-08-26T09:03:20Z</time>
      </trkpt>
      <trkpt lat="47.31446" lon="6.03917">
        <ele>395.72</ele>
        <time>2018-08-26T09:03:21Z</time>
      </trkpt>
      <trkpt lat="47.3145" lon="6.03923">
        <ele>395.24</ele>
        <time>2018-08-26T09:03:22Z</time>
      </trkpt>
      <trkpt lat="47.31456" lon="6.03935">
        <ele>392.36</ele>
        <time>2018-08-26T09:03:24Z</time>
      </trkpt>
      <trkpt lat="47.31472" lon="6.03945">
        <ele>388.99</ele>
        <time>2018-08-26T09:03:28Z</time>
      </trkpt>
      <trkpt lat="47.31497" lon="6.03948">
        <ele>386.11</ele>
        <time>2018-08-26T09:03:31Z</time>
      </trkpt>
      <trkpt lat="47.31507" lon="6.03944">
        <ele>383.7</ele>
        <time>2018-08-26T09:03:32Z</time>
      </trkpt>
      <trkpt lat="47.31515" lon="6.03937">
        <ele>382.74</ele>
        <time>2018-08-26T09:03:33Z</time>
      </trkpt>
      <trkpt lat="47.31534" lon="6.03924">
        <ele>381.3</ele>
        <time>2018-08-26T09:03:35Z</time>
      </trkpt>
      <trkpt lat="47.31554" lon="6.03914">
        <ele>379.38</ele>
        <time>2018-08-26T09:03:37Z</time>
      </trkpt>
      <trkpt lat="47.31585" lon="6.03904">
        <ele>376.49</ele>
        <time>2018-08-26T09:03:40Z</time>
      </trkpt>
      <trkpt lat="47.31599" lon="6.03901">
        <ele>375.53</ele>
        <time>2018-08-26T09:03:41Z</time>
      </trkpt>
      <trkpt lat="47.31633" lon="6.03898">
        <ele>372.17</ele>
        <time>2018-08-26T09:03:44Z</time>
      </trkpt>
      <trkpt lat="47.3167" lon="6.03895">
        <ele>369.28</ele>
        <time>2018-08-26T09:03:47Z</time>
      </trkpt>
      <trkpt lat="47.31707" lon="6.03899">
        <ele>365.92</ele>
        <time>2018-08-26T09:03:51Z</time>
      </trkpt>
      <trkpt lat="47.31734" lon="6.03907">
        <ele>362.07</ele>
        <time>2018-08-26T09:03:54Z</time>
      </trkpt>
      <trkpt lat="47.31743" lon="6.03911">
        <ele>360.15</ele>
        <time>2018-08-26T09:03:55Z</time>
      </trkpt>
      <trkpt lat="47.31762" lon="6.03926">
        <ele>357.75</ele>
        <time>2018-08-26T09:03:57Z</time>
      </trkpt>
      <trkpt lat="47.3179" lon="6.03946">
        <ele>353.9</ele>
        <time>2018-08-26T09:04:00Z</time>
      </trkpt>
      <trkpt lat="47.31817" lon="6.03961">
        <ele>350.54</ele>
        <time>2018-08-26T09:04:03Z</time>
      </trkpt>
      <trkpt lat="47.31825" lon="6.03966">
        <ele>349.58</ele>
        <time>2018-08-26T09:04:04Z</time>
      </trkpt>
      <trkpt lat="47.31833" lon="6.03971">
        <ele>348.62</ele>
        <time>2018-08-26T09:04:05Z</time>
      </trkpt>
      <trkpt lat="47.3184" lon="6.03975">
        <ele>348.13</ele>
        <time>2018-08-26T09:04:06Z</time>
      </trkpt>
      <trkpt lat="47.31861" lon="6.03992">
        <ele>344.77</ele>
        <time>2018-08-26T09:04:09Z</time>
      </trkpt>
      <trkpt lat="47.31874" lon="6.04003">
        <ele>342.85</ele>
        <time>2018-08-26T09:04:11Z</time>
      </trkpt>
      <trkpt lat="47.31886" lon="6.04016">
        <ele>341.41</ele>
        <time>2018-08-26T09:04:13Z</time>
      </trkpt>
      <trkpt lat="47.31903" lon="6.04034">
        <ele>338.52</ele>
        <time>2018-08-26T09:04:16Z</time>
      </trkpt>
      <trkpt lat="47.31908" lon="6.04038">
        <ele>338.04</ele>
        <time>2018-08-26T09:04:17Z</time>
      </trkpt>
      <trkpt lat="47.31913" lon="6.04041">
        <ele>337.56</ele>
        <time>2018-08-26T09:04:18Z</time>
      </trkpt>
      <trkpt lat="47.31928" lon="6.04036">
        <ele>336.6</ele>
        <time>2018-08-26T09:04:22Z</time>
      </trkpt>
      <trkpt lat="47.3193" lon="6.04036">
        <ele>336.12</ele>
        <time>2018-08-26T09:04:23Z</time>
      </trkpt>
      <trkpt lat="47.31933" lon="6.04037">
        <ele>336.12</ele>
        <time>2018-08-26T09:04:24Z</time>
      </trkpt>
      <trkpt lat="47.31934" lon="6.04037">
        <ele>336.12</ele>
        <time>2018-08-26T09:04:25Z</time>
      </trkpt>
      <trkpt lat="47.31935" lon="6.04038">
        <ele>335.64</ele>
        <time>2018-08-26T09:04:26Z</time>
      </trkpt>
      <trkpt lat="47.31937" lon="6.04038">
        <ele>339.48</ele>
        <time>2018-08-26T09:04:30Z</time>
      </trkpt>
      <trkpt lat="47.31938" lon="6.04038">
        <ele>336.6</ele>
        <time>2018-08-26T09:04:31Z</time>
      </trkpt>
      <trkpt lat="47.31941" lon="6.04037">
        <ele>336.12</ele>
        <time>2018-08-26T09:04:37Z</time>
      </trkpt>
      <trkpt lat="47.31944" lon="6.04037">
        <ele>335.64</ele>
        <time>2018-08-26T09:04:39Z</time>
      </trkpt>
      <trkpt lat="47.31946" lon="6.04037">
        <ele>335.64</ele>
        <time>2018-08-26T09:04:40Z</time>
      </trkpt>
      <trkpt lat="47.31947" lon="6.04037">
        <ele>335.64</ele>
        <time>2018-08-26T09:04:41Z</time>
      </trkpt>
      <trkpt lat="47.3195" lon="6.04037">
        <ele>335.16</ele>
        <time>2018-08-26T09:04:42Z</time>
      </trkpt>
      <trkpt lat="47.31952" lon="6.04037">
        <ele>335.16</ele>
        <time>2018-08-26T09:04:43Z</time>
      </trkpt>
      <trkpt lat="47.31982" lon="6.04034">
        <ele>331.79</ele>
        <time>2018-08-26T09:04:50Z</time>
      </trkpt>
      <trkpt lat="47.31986" lon="6.04034">
        <ele>331.79</ele>
        <time>2018-08-26T09:04:51Z</time>
      </trkpt>
      <trkpt lat="47.32009" lon="6.04026">
        <ele>327.95</ele>
        <time>2018-08-26T09:04:59Z</time>
      </trkpt>
      <trkpt lat="47.32017" lon="6.04034">
        <ele>324.1</ele>
        <time>2018-08-26T09:05:03Z</time>
      </trkpt>
      <trkpt lat="47.32019" lon="6.04037">
        <ele>324.1</ele>
        <time>2018-08-26T09:05:04Z</time>
      </trkpt>
      <trkpt lat="47.32031" lon="6.04046">
        <ele>320.26</ele>
        <time>2018-08-26T09:05:07Z</time>
      </trkpt>
      <trkpt lat="47.32127" lon="6.04058">
        <ele>318.81</ele>
        <time>2018-08-26T09:05:08Z</time>
      </trkpt>
      <trkpt lat="47.32137" lon="6.04062">
        <ele>316.89</ele>
        <time>2018-08-26T09:05:09Z</time>
      </trkpt>
      <trkpt lat="47.32164" lon="6.04076">
        <ele>313.53</ele>
        <time>2018-08-26T09:05:12Z</time>
      </trkpt>
      <trkpt lat="47.32184" lon="6.04085">
        <ele>310.16</ele>
        <time>2018-08-26T09:05:14Z</time>
      </trkpt>
      <trkpt lat="47.32226" lon="6.04096">
        <ele>306.8</ele>
        <time>2018-08-26T09:05:18Z</time>
      </trkpt>
      <trkpt lat="47.32236" lon="6.04098">
        <ele>307.28</ele>
        <time>2018-08-26T09:05:19Z</time>
      </trkpt>
      <trkpt lat="47.32243" lon="6.04098">
        <ele>307.28</ele>
        <time>2018-08-26T09:05:20Z</time>
      </trkpt>
      <trkpt lat="47.32249" lon="6.04095">
        <ele>306.8</ele>
        <time>2018-08-26T09:05:21Z</time>
      </trkpt>
      <trkpt lat="47.32255" lon="6.04092">
        <ele>306.32</ele>
        <time>2018-08-26T09:05:22Z</time>
      </trkpt>
      <trkpt lat="47.32261" lon="6.04087">
        <ele>305.84</ele>
        <time>2018-08-26T09:05:23Z</time>
      </trkpt>
      <trkpt lat="47.32275" lon="6.04078">
        <ele>303.43</ele>
        <time>2018-08-26T09:05:25Z</time>
      </trkpt>
      <trkpt lat="47.32281" lon="6.0407">
        <ele>302.47</ele>
        <time>2018-08-26T09:05:26Z</time>
      </trkpt>
      <trkpt lat="47.32303" lon="6.04041">
        <ele>299.59</ele>
        <time>2018-08-26T09:05:30Z</time>
      </trkpt>
      <trkpt lat="47.32314" lon="6.04024">
        <ele>296.22</ele>
        <time>2018-08-26T09:05:32Z</time>
      </trkpt>
      <trkpt lat="47.3232" lon="6.04014">
        <ele>294.78</ele>
        <time>2018-08-26T09:05:33Z</time>
      </trkpt>
      <trkpt lat="47.32327" lon="6.04005">
        <ele>293.82</ele>
        <time>2018-08-26T09:05:34Z</time>
      </trkpt>
      <trkpt lat="47.32351" lon="6.03983">
        <ele>290.46</ele>
        <time>2018-08-26T09:05:37Z</time>
      </trkpt>
      <trkpt lat="47.32364" lon="6.03968">
        <ele>289.01</ele>
        <time>2018-08-26T09:05:39Z</time>
      </trkpt>
      <trkpt lat="47.32375" lon="6.03952">
        <ele>287.09</ele>
        <time>2018-08-26T09:05:41Z</time>
      </trkpt>
      <trkpt lat="47.32399" lon="6.03909">
        <ele>283.73</ele>
        <time>2018-08-26T09:05:46Z</time>
      </trkpt>
      <trkpt lat="47.32404" lon="6.03898">
        <ele>282.77</ele>
        <time>2018-08-26T09:05:47Z</time>
      </trkpt>
      <trkpt lat="47.32409" lon="6.03889">
        <ele>282.28</ele>
        <time>2018-08-26T09:05:48Z</time>
      </trkpt>
      <trkpt lat="47.32415" lon="6.0388">
        <ele>281.8</ele>
        <time>2018-08-26T09:05:49Z</time>
      </trkpt>
      <trkpt lat="47.3242" lon="6.03872">
        <ele>280.84</ele>
        <time>2018-08-26T09:05:50Z</time>
      </trkpt>
      <trkpt lat="47.3244" lon="6.03838">
        <ele>278.92</ele>
        <time>2018-08-26T09:05:54Z</time>
      </trkpt>
      <trkpt lat="47.32443" lon="6.03829">
        <ele>278.44</ele>
        <time>2018-08-26T09:05:55Z</time>
      </trkpt>
      <trkpt lat="47.32445" lon="6.03819">
        <ele>278.44</ele>
        <time>2018-08-26T09:05:56Z</time>
      </trkpt>
      <trkpt lat="47.32447" lon="6.0381">
        <ele>277.96</ele>
        <time>2018-08-26T09:05:57Z</time>
      </trkpt>
      <trkpt lat="47.32451" lon="6.03804">
        <ele>277.48</ele>
        <time>2018-08-26T09:05:58Z</time>
      </trkpt>
      <trkpt lat="47.32455" lon="6.038">
        <ele>277</ele>
        <time>2018-08-26T09:05:59Z</time>
      </trkpt>
      <trkpt lat="47.32458" lon="6.03798">
        <ele>276.52</ele>
        <time>2018-08-26T09:06:00Z</time>
      </trkpt>
      <trkpt lat="47.32461" lon="6.03797">
        <ele>276.04</ele>
        <time>2018-08-26T09:06:01Z</time>
      </trkpt>
      <trkpt lat="47.32463" lon="6.03797">
        <ele>276.04</ele>
        <time>2018-08-26T09:06:02Z</time>
      </trkpt>
      <trkpt lat="47.32464" lon="6.03798">
        <ele>275.07</ele>
        <time>2018-08-26T09:06:03Z</time>
      </trkpt>
      <trkpt lat="47.32465" lon="6.03798">
        <ele>276.52</ele>
        <time>2018-08-26T09:06:04Z</time>
      </trkpt>
      <trkpt lat="47.32466" lon="6.038">
        <ele>275.56</ele>
        <time>2018-08-26T09:06:05Z</time>
      </trkpt>
      <trkpt lat="47.32467" lon="6.038">
        <ele>275.56</ele>
        <time>2018-08-26T09:06:06Z</time>
      </trkpt>
      <trkpt lat="47.32468" lon="6.03801">
        <ele>269.79</ele>
        <time>2018-08-26T09:06:09Z</time>
      </trkpt>
      <trkpt lat="47.32468" lon="6.038">
        <ele>279.88</ele>
        <time>2018-08-26T09:06:10Z</time>
      </trkpt>
      <trkpt lat="47.32468" lon="6.038">
        <ele>276.52</ele>
        <time>2018-08-26T09:06:11Z</time>
      </trkpt>
      <trkpt lat="47.32468" lon="6.038">
        <ele>275.56</ele>
        <time>2018-08-26T09:06:13Z</time>
      </trkpt>
      <trkpt lat="47.32468" lon="6.03797">
        <ele>275.56</ele>
        <time>2018-08-26T09:06:19Z</time>
      </trkpt>
      <trkpt lat="47.32454" lon="6.03781">
        <ele>276.04</ele>
        <time>2018-08-26T09:06:29Z</time>
      </trkpt>
      <trkpt lat="47.32432" lon="6.03769">
        <ele>277.96</ele>
        <time>2018-08-26T09:06:39Z</time>
      </trkpt>
      <trkpt lat="47.3242" lon="6.03765">
        <ele>278.92</ele>
        <time>2018-08-26T09:06:45Z</time>
      </trkpt>
      <trkpt lat="47.32419" lon="6.03764">
        <ele>278.92</ele>
        <time>2018-08-26T09:06:46Z</time>
      </trkpt>
      <trkpt lat="47.32417" lon="6.03763">
        <ele>278.92</ele>
        <time>2018-08-26T09:06:47Z</time>
      </trkpt>
      <trkpt lat="47.32415" lon="6.03762">
        <ele>279.4</ele>
        <time>2018-08-26T09:06:48Z</time>
      </trkpt>
      <trkpt lat="47.32412" lon="6.0376">
        <ele>278.92</ele>
        <time>2018-08-26T09:06:49Z</time>
      </trkpt>
      <trkpt lat="47.32405" lon="6.0375">
        <ele>279.4</ele>
        <time>2018-08-26T09:06:53Z</time>
      </trkpt>
      <trkpt lat="47.32383" lon="6.03704">
        <ele>278.92</ele>
        <time>2018-08-26T09:07:04Z</time>
      </trkpt>
      <trkpt lat="47.3235" lon="6.03663">
        <ele>277.48</ele>
        <time>2018-08-26T09:07:14Z</time>
      </trkpt>
      <trkpt lat="47.32309" lon="6.03639">
        <ele>275.07</ele>
        <time>2018-08-26T09:07:25Z</time>
      </trkpt>
      <trkpt lat="47.32304" lon="6.03639">
        <ele>275.07</ele>
        <time>2018-08-26T09:07:26Z</time>
      </trkpt>
      <trkpt lat="47.32299" lon="6.03637">
        <ele>274.59</ele>
        <time>2018-08-26T09:07:27Z</time>
      </trkpt>
      <trkpt lat="47.32295" lon="6.03635">
        <ele>274.59</ele>
        <time>2018-08-26T09:07:28Z</time>
      </trkpt>
      <trkpt lat="47.32268" lon="6.03629">
        <ele>275.56</ele>
        <time>2018-08-26T09:07:36Z</time>
      </trkpt>
      <trkpt lat="47.32253" lon="6.03629">
        <ele>278.44</ele>
        <time>2018-08-26T09:07:42Z</time>
      </trkpt>
      <trkpt lat="47.32251" lon="6.03628">
        <ele>278.92</ele>
        <time>2018-08-26T09:07:43Z</time>
      </trkpt>
      <trkpt lat="47.32249" lon="6.03626">
        <ele>278.92</ele>
        <time>2018-08-26T09:07:44Z</time>
      </trkpt>
      <trkpt lat="47.32247" lon="6.03625">
        <ele>279.4</ele>
        <time>2018-08-26T09:07:45Z</time>
      </trkpt>
      <trkpt lat="47.32245" lon="6.03624">
        <ele>279.4</ele>
        <time>2018-08-26T09:07:46Z</time>
      </trkpt>
      <trkpt lat="47.32243" lon="6.03623">
        <ele>279.88</ele>
        <time>2018-08-26T09:07:47Z</time>
      </trkpt>
      <trkpt lat="47.32241" lon="6.03621">
        <ele>279.88</ele>
        <time>2018-08-26T09:07:48Z</time>
      </trkpt>
      <trkpt lat="47.32239" lon="6.03621">
        <ele>279.88</ele>
        <time>2018-08-26T09:07:49Z</time>
      </trkpt>
      <trkpt lat="47.32237" lon="6.0362">
        <ele>280.36</ele>
        <time>2018-08-26T09:07:50Z</time>
      </trkpt>
      <trkpt lat="47.32235" lon="6.03619">
        <ele>280.36</ele>
        <time>2018-08-26T09:07:51Z</time>
      </trkpt>
      <trkpt lat="47.32217" lon="6.03591">
        <ele>278.92</ele>
        <time>2018-08-26T09:08:02Z</time>
      </trkpt>
      <trkpt lat="47.32212" lon="6.03574">
        <ele>277.48</ele>
        <time>2018-08-26T09:08:05Z</time>
      </trkpt>
      <trkpt lat="47.3221" lon="6.03569">
        <ele>277</ele>
        <time>2018-08-26T09:08:06Z</time>
      </trkpt>
      <trkpt lat="47.32208" lon="6.03562">
        <ele>277</ele>
        <time>2018-08-26T09:08:07Z</time>
      </trkpt>
      <trkpt lat="47.32207" lon="6.03555">
        <ele>276.52</ele>
        <time>2018-08-26T09:08:08Z</time>
      </trkpt>
      <trkpt lat="47.32204" lon="6.03548">
        <ele>275.56</ele>
        <time>2018-08-26T09:08:09Z</time>
      </trkpt>
      <trkpt lat="47.32202" lon="6.03541">
        <ele>275.56</ele>
        <time>2018-08-26T09:08:10Z</time>
      </trkpt>
      <trkpt lat="47.322" lon="6.03534">
        <ele>275.07</ele>
        <time>2018-08-26T09:08:11Z</time>
      </trkpt>
      <trkpt lat="47.32198" lon="6.03527">
        <ele>275.07</ele>
        <time>2018-08-26T09:08:12Z</time>
      </trkpt>
      <trkpt lat="47.32196" lon="6.03521">
        <ele>275.07</ele>
        <time>2018-08-26T09:08:13Z</time>
      </trkpt>
      <trkpt lat="47.32194" lon="6.03515">
        <ele>275.07</ele>
        <time>2018-08-26T09:08:14Z</time>
      </trkpt>
      <trkpt lat="47.32191" lon="6.03507">
        <ele>274.59</ele>
        <time>2018-08-26T09:08:15Z</time>
      </trkpt>
      <trkpt lat="47.3218" lon="6.03461">
        <ele>275.07</ele>
        <time>2018-08-26T09:08:23Z</time>
      </trkpt>
      <trkpt lat="47.32175" lon="6.03441">
        <ele>275.07</ele>
        <time>2018-08-26T09:08:27Z</time>
      </trkpt>
      <trkpt lat="47.32172" lon="6.03435">
        <ele>275.07</ele>
        <time>2018-08-26T09:08:28Z</time>
      </trkpt>
      <trkpt lat="47.3217" lon="6.03429">
        <ele>275.07</ele>
        <time>2018-08-26T09:08:29Z</time>
      </trkpt>
      <trkpt lat="47.32169" lon="6.03424">
        <ele>274.59</ele>
        <time>2018-08-26T09:08:30Z</time>
      </trkpt>
      <trkpt lat="47.32169" lon="6.03419">
        <ele>274.59</ele>
        <time>2018-08-26T09:08:31Z</time>
      </trkpt>
      <trkpt lat="47.32169" lon="6.03415">
        <ele>274.59</ele>
        <time>2018-08-26T09:08:32Z</time>
      </trkpt>
      <trkpt lat="47.32168" lon="6.0341">
        <ele>274.11</ele>
        <time>2018-08-26T09:08:33Z</time>
      </trkpt>
      <trkpt lat="47.32167" lon="6.03405">
        <ele>273.63</ele>
        <time>2018-08-26T09:08:34Z</time>
      </trkpt>
      <trkpt lat="47.32165" lon="6.03398">
        <ele>273.63</ele>
        <time>2018-08-26T09:08:35Z</time>
      </trkpt>
      <trkpt lat="47.32158" lon="6.03375">
        <ele>272.19</ele>
        <time>2018-08-26T09:08:38Z</time>
      </trkpt>
      <trkpt lat="47.32156" lon="6.03367">
        <ele>272.19</ele>
        <time>2018-08-26T09:08:39Z</time>
      </trkpt>
      <trkpt lat="47.3215" lon="6.03329">
        <ele>272.67</ele>
        <time>2018-08-26T09:08:46Z</time>
      </trkpt>
      <trkpt lat="47.32148" lon="6.03325">
        <ele>275.56</ele>
        <time>2018-08-26T09:08:47Z</time>
      </trkpt>
      <trkpt lat="47.32147" lon="6.03321">
        <ele>273.15</ele>
        <time>2018-08-26T09:08:48Z</time>
      </trkpt>
      <trkpt lat="47.32146" lon="6.03318">
        <ele>273.15</ele>
        <time>2018-08-26T09:08:49Z</time>
      </trkpt>
      <trkpt lat="47.32145" lon="6.03314">
        <ele>273.15</ele>
        <time>2018-08-26T09:08:50Z</time>
      </trkpt>
      <trkpt lat="47.32145" lon="6.03309">
        <ele>273.15</ele>
        <time>2018-08-26T09:08:51Z</time>
      </trkpt>
      <trkpt lat="47.32144" lon="6.03304">
        <ele>272.67</ele>
        <time>2018-08-26T09:08:52Z</time>
      </trkpt>
      <trkpt lat="47.32144" lon="6.03293">
        <ele>272.19</ele>
        <time>2018-08-26T09:08:54Z</time>
      </trkpt>
      <trkpt lat="47.32143" lon="6.03288">
        <ele>272.19</ele>
        <time>2018-08-26T09:08:55Z</time>
      </trkpt>
      <trkpt lat="47.32142" lon="6.03281">
        <ele>271.71</ele>
        <time>2018-08-26T09:08:56Z</time>
      </trkpt>
      <trkpt lat="47.32141" lon="6.03273">
        <ele>271.71</ele>
        <time>2018-08-26T09:08:57Z</time>
      </trkpt>
      <trkpt lat="47.3214" lon="6.03266">
        <ele>271.23</ele>
        <time>2018-08-26T09:08:58Z</time>
      </trkpt>
      <trkpt lat="47.32134" lon="6.03243">
        <ele>271.23</ele>
        <time>2018-08-26T09:09:02Z</time>
      </trkpt>
      <trkpt lat="47.32133" lon="6.03235">
        <ele>270.27</ele>
        <time>2018-08-26T09:09:03Z</time>
      </trkpt>
      <trkpt lat="47.32132" lon="6.03227">
        <ele>270.27</ele>
        <time>2018-08-26T09:09:04Z</time>
      </trkpt>
      <trkpt lat="47.32132" lon="6.0322">
        <ele>269.79</ele>
        <time>2018-08-26T09:09:05Z</time>
      </trkpt>
      <trkpt lat="47.32118" lon="6.03167">
        <ele>268.35</ele>
        <time>2018-08-26T09:09:13Z</time>
      </trkpt>
      <trkpt lat="47.32116" lon="6.03152">
        <ele>267.38</ele>
        <time>2018-08-26T09:09:15Z</time>
      </trkpt>
      <trkpt lat="47.32115" lon="6.03136">
        <ele>266.9</ele>
        <time>2018-08-26T09:09:17Z</time>
      </trkpt>
      <trkpt lat="47.32113" lon="6.03123">
        <ele>266.42</ele>
        <time>2018-08-26T09:09:19Z</time>
      </trkpt>
      <trkpt lat="47.32113" lon="6.03116">
        <ele>266.42</ele>
        <time>2018-08-26T09:09:20Z</time>
      </trkpt>
      <trkpt lat="47.32111" lon="6.03108">
        <ele>265.94</ele>
        <time>2018-08-26T09:09:21Z</time>
      </trkpt>
      <trkpt lat="47.32108" lon="6.03094">
        <ele>266.9</ele>
        <time>2018-08-26T09:09:23Z</time>
      </trkpt>
      <trkpt lat="47.32108" lon="6.03088">
        <ele>266.9</ele>
        <time>2018-08-26T09:09:24Z</time>
      </trkpt>
      <trkpt lat="47.32108" lon="6.03082">
        <ele>266.9</ele>
        <time>2018-08-26T09:09:25Z</time>
      </trkpt>
      <trkpt lat="47.32108" lon="6.03078">
        <ele>267.38</ele>
        <time>2018-08-26T09:09:26Z</time>
      </trkpt>
      <trkpt lat="47.32109" lon="6.03074">
        <ele>267.86</ele>
        <time>2018-08-26T09:09:27Z</time>
      </trkpt>
      <trkpt lat="47.32111" lon="6.03072">
        <ele>267.86</ele>
        <time>2018-08-26T09:09:28Z</time>
      </trkpt>
      <trkpt lat="47.32113" lon="6.0307">
        <ele>267.86</ele>
        <time>2018-08-26T09:09:29Z</time>
      </trkpt>
      <trkpt lat="47.32114" lon="6.03068">
        <ele>267.86</ele>
        <time>2018-08-26T09:09:30Z</time>
      </trkpt>
      <trkpt lat="47.32115" lon="6.03065">
        <ele>267.38</ele>
        <time>2018-08-26T09:09:31Z</time>
      </trkpt>
      <trkpt lat="47.32118" lon="6.03046">
        <ele>269.79</ele>
        <time>2018-08-26T09:09:39Z</time>
      </trkpt>
      <trkpt lat="47.32118" lon="6.03043">
        <ele>269.79</ele>
        <time>2018-08-26T09:09:40Z</time>
      </trkpt>
      <trkpt lat="47.32119" lon="6.03035">
        <ele>271.23</ele>
        <time>2018-08-26T09:09:43Z</time>
      </trkpt>
      <trkpt lat="47.32117" lon="6.0303">
        <ele>272.19</ele>
        <time>2018-08-26T09:09:44Z</time>
      </trkpt>
      <trkpt lat="47.32116" lon="6.03024">
        <ele>272.19</ele>
        <time>2018-08-26T09:09:45Z</time>
      </trkpt>
      <trkpt lat="47.32116" lon="6.03021">
        <ele>272.67</ele>
        <time>2018-08-26T09:09:46Z</time>
      </trkpt>
      <trkpt lat="47.32115" lon="6.03017">
        <ele>273.15</ele>
        <time>2018-08-26T09:09:47Z</time>
      </trkpt>
      <trkpt lat="47.32115" lon="6.03011">
        <ele>273.63</ele>
        <time>2018-08-26T09:09:49Z</time>
      </trkpt>
      <trkpt lat="47.32115" lon="6.03009">
        <ele>273.63</ele>
        <time>2018-08-26T09:09:50Z</time>
      </trkpt>
      <trkpt lat="47.32115" lon="6.03006">
        <ele>274.11</ele>
        <time>2018-08-26T09:09:51Z</time>
      </trkpt>
      <trkpt lat="47.32115" lon="6.03003">
        <ele>274.11</ele>
        <time>2018-08-26T09:09:52Z</time>
      </trkpt>
      <trkpt lat="47.32115" lon="6.02999">
        <ele>274.11</ele>
        <time>2018-08-26T09:09:53Z</time>
      </trkpt>
      <trkpt lat="47.32115" lon="6.02996">
        <ele>274.59</ele>
        <time>2018-08-26T09:09:54Z</time>
      </trkpt>
      <trkpt lat="47.32115" lon="6.02991">
        <ele>275.07</ele>
        <time>2018-08-26T09:09:56Z</time>
      </trkpt>
      <trkpt lat="47.32114" lon="6.02986">
        <ele>275.56</ele>
        <time>2018-08-26T09:09:57Z</time>
      </trkpt>
      <trkpt lat="47.32113" lon="6.02983">
        <ele>276.04</ele>
        <time>2018-08-26T09:09:58Z</time>
      </trkpt>
      <trkpt lat="47.3211" lon="6.02964">
        <ele>277.48</ele>
        <time>2018-08-26T09:10:03Z</time>
      </trkpt>
      <trkpt lat="47.32108" lon="6.02924">
        <ele>275.07</ele>
        <time>2018-08-26T09:10:11Z</time>
      </trkpt>
      <trkpt lat="47.32105" lon="6.02883">
        <ele>272.19</ele>
        <time>2018-08-26T09:10:15Z</time>
      </trkpt>
      <trkpt lat="47.32102" lon="6.0286">
        <ele>271.71</ele>
        <time>2018-08-26T09:10:17Z</time>
      </trkpt>
      <trkpt lat="47.321" lon="6.02837">
        <ele>270.75</ele>
        <time>2018-08-26T09:10:19Z</time>
      </trkpt>
      <trkpt lat="47.32099" lon="6.02827">
        <ele>270.75</ele>
        <time>2018-08-26T09:10:20Z</time>
      </trkpt>
      <trkpt lat="47.32097" lon="6.02781">
        <ele>273.15</ele>
        <time>2018-08-26T09:10:26Z</time>
      </trkpt>
      <trkpt lat="47.32097" lon="6.02751">
        <ele>276.04</ele>
        <time>2018-08-26T09:10:33Z</time>
      </trkpt>
      <trkpt lat="47.32096" lon="6.02729">
        <ele>277</ele>
        <time>2018-08-26T09:10:39Z</time>
      </trkpt>
      <trkpt lat="47.32093" lon="6.02684">
        <ele>278.92</ele>
        <time>2018-08-26T09:10:50Z</time>
      </trkpt>
      <trkpt lat="47.32087" lon="6.02626">
        <ele>277.96</ele>
        <time>2018-08-26T09:11:02Z</time>
      </trkpt>
      <trkpt lat="47.32085" lon="6.02583">
        <ele>282.28</ele>
        <time>2018-08-26T09:11:11Z</time>
      </trkpt>
      <trkpt lat="47.32084" lon="6.0258">
        <ele>279.88</ele>
        <time>2018-08-26T09:11:12Z</time>
      </trkpt>
      <trkpt lat="47.32084" lon="6.02577">
        <ele>280.36</ele>
        <time>2018-08-26T09:11:13Z</time>
      </trkpt>
      <trkpt lat="47.32083" lon="6.02574">
        <ele>280.36</ele>
        <time>2018-08-26T09:11:14Z</time>
      </trkpt>
      <trkpt lat="47.32083" lon="6.02571">
        <ele>280.84</ele>
        <time>2018-08-26T09:11:15Z</time>
      </trkpt>
      <trkpt lat="47.32083" lon="6.02568">
        <ele>280.84</ele>
        <time>2018-08-26T09:11:16Z</time>
      </trkpt>
      <trkpt lat="47.32083" lon="6.02565">
        <ele>281.32</ele>
        <time>2018-08-26T09:11:17Z</time>
      </trkpt>
      <trkpt lat="47.32083" lon="6.02562">
        <ele>281.32</ele>
        <time>2018-08-26T09:11:18Z</time>
      </trkpt>
      <trkpt lat="47.32083" lon="6.02559">
        <ele>281.8</ele>
        <time>2018-08-26T09:11:19Z</time>
      </trkpt>
      <trkpt lat="47.32082" lon="6.02556">
        <ele>281.8</ele>
        <time>2018-08-26T09:11:20Z</time>
      </trkpt>
      <trkpt lat="47.32082" lon="6.02553">
        <ele>280.36</ele>
        <time>2018-08-26T09:11:21Z</time>
      </trkpt>
      <trkpt lat="47.32082" lon="6.02551">
        <ele>280.36</ele>
        <time>2018-08-26T09:11:22Z</time>
      </trkpt>
      <trkpt lat="47.32082" lon="6.02549">
        <ele>283.73</ele>
        <time>2018-08-26T09:11:23Z</time>
      </trkpt>
      <trkpt lat="47.32082" lon="6.02546">
        <ele>283.25</ele>
        <time>2018-08-26T09:11:24Z</time>
      </trkpt>
      <trkpt lat="47.32083" lon="6.02527">
        <ele>284.69</ele>
        <time>2018-08-26T09:11:30Z</time>
      </trkpt>
      <trkpt lat="47.32084" lon="6.02525">
        <ele>285.17</ele>
        <time>2018-08-26T09:11:31Z</time>
      </trkpt>
      <trkpt lat="47.32085" lon="6.02523">
        <ele>285.17</ele>
        <time>2018-08-26T09:11:32Z</time>
      </trkpt>
      <trkpt lat="47.32087" lon="6.02522">
        <ele>285.17</ele>
        <time>2018-08-26T09:11:33Z</time>
      </trkpt>
      <trkpt lat="47.32088" lon="6.02521">
        <ele>285.17</ele>
        <time>2018-08-26T09:11:34Z</time>
      </trkpt>
      <trkpt lat="47.32091" lon="6.02523">
        <ele>283.73</ele>
        <time>2018-08-26T09:11:36Z</time>
      </trkpt>
      <trkpt lat="47.32092" lon="6.02525">
        <ele>283.25</ele>
        <time>2018-08-26T09:11:37Z</time>
      </trkpt>
      <trkpt lat="47.32095" lon="6.02527">
        <ele>282.77</ele>
        <time>2018-08-26T09:11:38Z</time>
      </trkpt>
      <trkpt lat="47.32099" lon="6.02531">
        <ele>281.8</ele>
        <time>2018-08-26T09:11:39Z</time>
      </trkpt>
      <trkpt lat="47.32117" lon="6.02543">
        <ele>279.88</ele>
        <time>2018-08-26T09:11:44Z</time>
      </trkpt>
      <trkpt lat="47.32144" lon="6.02537">
        <ele>277</ele>
        <time>2018-08-26T09:11:50Z</time>
      </trkpt>
      <trkpt lat="47.32153" lon="6.02534">
        <ele>275.56</ele>
        <time>2018-08-26T09:11:51Z</time>
      </trkpt>
      <trkpt lat="47.32165" lon="6.02529">
        <ele>274.59</ele>
        <time>2018-08-26T09:11:52Z</time>
      </trkpt>
      <trkpt lat="47.32206" lon="6.02507">
        <ele>271.71</ele>
        <time>2018-08-26T09:11:57Z</time>
      </trkpt>
      <trkpt lat="47.3221" lon="6.02503">
        <ele>271.71</ele>
        <time>2018-08-26T09:11:58Z</time>
      </trkpt>
      <trkpt lat="47.32211" lon="6.025">
        <ele>271.71</ele>
        <time>2018-08-26T09:11:59Z</time>
      </trkpt>
      <trkpt lat="47.32209" lon="6.02485">
        <ele>271.71</ele>
        <time>2018-08-26T09:12:04Z</time>
      </trkpt>
      <trkpt lat="47.3221" lon="6.02471">
        <ele>270.27</ele>
        <time>2018-08-26T09:12:07Z</time>
      </trkpt>
      <trkpt lat="47.3221" lon="6.02463">
        <ele>269.79</ele>
        <time>2018-08-26T09:12:08Z</time>
      </trkpt>
      <trkpt lat="47.3221" lon="6.02454">
        <ele>269.31</ele>
        <time>2018-08-26T09:12:09Z</time>
      </trkpt>
      <trkpt lat="47.3221" lon="6.02445">
        <ele>268.83</ele>
        <time>2018-08-26T09:12:10Z</time>
      </trkpt>
      <trkpt lat="47.3221" lon="6.02435">
        <ele>268.35</ele>
        <time>2018-08-26T09:12:11Z</time>
      </trkpt>
      <trkpt lat="47.3221" lon="6.02425">
        <ele>267.86</ele>
        <time>2018-08-26T09:12:12Z</time>
      </trkpt>
      <trkpt lat="47.3221" lon="6.02415">
        <ele>266.9</ele>
        <time>2018-08-26T09:12:13Z</time>
      </trkpt>
      <trkpt lat="47.32209" lon="6.02404">
        <ele>265.94</ele>
        <time>2018-08-26T09:12:14Z</time>
      </trkpt>
      <trkpt lat="47.32206" lon="6.02348">
        <ele>262.58</ele>
        <time>2018-08-26T09:12:19Z</time>
      </trkpt>
      <trkpt lat="47.32206" lon="6.02316">
        <ele>262.58</ele>
        <time>2018-08-26T09:12:22Z</time>
      </trkpt>
      <trkpt lat="47.32206" lon="6.02307">
        <ele>262.58</ele>
        <time>2018-08-26T09:12:23Z</time>
      </trkpt>
      <trkpt lat="47.32206" lon="6.02298">
        <ele>262.58</ele>
        <time>2018-08-26T09:12:24Z</time>
      </trkpt>
      <trkpt lat="47.32207" lon="6.02291">
        <ele>263.06</ele>
        <time>2018-08-26T09:12:25Z</time>
      </trkpt>
      <trkpt lat="47.32208" lon="6.02285">
        <ele>263.06</ele>
        <time>2018-08-26T09:12:26Z</time>
      </trkpt>
      <trkpt lat="47.32208" lon="6.02279">
        <ele>263.54</ele>
        <time>2018-08-26T09:12:27Z</time>
      </trkpt>
      <trkpt lat="47.32208" lon="6.02263">
        <ele>258.73</ele>
        <time>2018-08-26T09:12:30Z</time>
      </trkpt>
      <trkpt lat="47.32208" lon="6.02257">
        <ele>264.5</ele>
        <time>2018-08-26T09:12:31Z</time>
      </trkpt>
      <trkpt lat="47.32208" lon="6.02251">
        <ele>268.35</ele>
        <time>2018-08-26T09:12:32Z</time>
      </trkpt>
      <trkpt lat="47.32207" lon="6.02245">
        <ele>264.02</ele>
        <time>2018-08-26T09:12:33Z</time>
      </trkpt>
      <trkpt lat="47.32206" lon="6.02239">
        <ele>264.02</ele>
        <time>2018-08-26T09:12:34Z</time>
      </trkpt>
      <trkpt lat="47.32205" lon="6.02232">
        <ele>263.54</ele>
        <time>2018-08-26T09:12:35Z</time>
      </trkpt>
      <trkpt lat="47.32199" lon="6.02163">
        <ele>262.1</ele>
        <time>2018-08-26T09:12:46Z</time>
      </trkpt>
      <trkpt lat="47.32201" lon="6.02138">
        <ele>260.65</ele>
        <time>2018-08-26T09:12:50Z</time>
      </trkpt>
      <trkpt lat="47.32201" lon="6.0212">
        <ele>259.21</ele>
        <time>2018-08-26T09:12:52Z</time>
      </trkpt>
      <trkpt lat="47.32199" lon="6.0211">
        <ele>258.73</ele>
        <time>2018-08-26T09:12:53Z</time>
      </trkpt>
      <trkpt lat="47.32194" lon="6.02082">
        <ele>256.81</ele>
        <time>2018-08-26T09:12:56Z</time>
      </trkpt>
      <trkpt lat="47.32191" lon="6.0207">
        <ele>255.85</ele>
        <time>2018-08-26T09:12:58Z</time>
      </trkpt>
      <trkpt lat="47.32186" lon="6.0205">
        <ele>254.41</ele>
        <time>2018-08-26T09:13:03Z</time>
      </trkpt>
      <trkpt lat="47.32184" lon="6.02048">
        <ele>254.41</ele>
        <time>2018-08-26T09:13:04Z</time>
      </trkpt>
      <trkpt lat="47.32182" lon="6.02044">
        <ele>253.93</ele>
        <time>2018-08-26T09:13:05Z</time>
      </trkpt>
      <trkpt lat="47.32181" lon="6.02038">
        <ele>253.93</ele>
        <time>2018-08-26T09:13:06Z</time>
      </trkpt>
      <trkpt lat="47.3218" lon="6.02032">
        <ele>253.93</ele>
        <time>2018-08-26T09:13:07Z</time>
      </trkpt>
      <trkpt lat="47.32178" lon="6.02027">
        <ele>253.93</ele>
        <time>2018-08-26T09:13:08Z</time>
      </trkpt>
      <trkpt lat="47.32177" lon="6.0202">
        <ele>253.93</ele>
        <time>2018-08-26T09:13:09Z</time>
      </trkpt>
      <trkpt lat="47.32175" lon="6.02012">
        <ele>253.44</ele>
        <time>2018-08-26T09:13:10Z</time>
      </trkpt>
      <trkpt lat="47.32173" lon="6.02005">
        <ele>253.44</ele>
        <time>2018-08-26T09:13:11Z</time>
      </trkpt>
      <trkpt lat="47.32172" lon="6.01998">
        <ele>253.93</ele>
        <time>2018-08-26T09:13:12Z</time>
      </trkpt>
      <trkpt lat="47.3216" lon="6.01947">
        <ele>257.29</ele>
        <time>2018-08-26T09:13:24Z</time>
      </trkpt>
      <trkpt lat="47.3216" lon="6.01944">
        <ele>257.29</ele>
        <time>2018-08-26T09:13:25Z</time>
      </trkpt>
      <trkpt lat="47.32157" lon="6.01932">
        <ele>259.69</ele>
        <time>2018-08-26T09:13:30Z</time>
      </trkpt>
      <trkpt lat="47.32149" lon="6.01898">
        <ele>262.58</ele>
        <time>2018-08-26T09:13:43Z</time>
      </trkpt>
      <trkpt lat="47.32148" lon="6.01895">
        <ele>262.58</ele>
        <time>2018-08-26T09:13:44Z</time>
      </trkpt>
      <trkpt lat="47.32148" lon="6.01892">
        <ele>262.58</ele>
        <time>2018-08-26T09:13:45Z</time>
      </trkpt>
      <trkpt lat="47.32147" lon="6.01889">
        <ele>263.06</ele>
        <time>2018-08-26T09:13:46Z</time>
      </trkpt>
      <trkpt lat="47.32147" lon="6.01887">
        <ele>263.06</ele>
        <time>2018-08-26T09:13:47Z</time>
      </trkpt>
      <trkpt lat="47.32146" lon="6.01884">
        <ele>263.54</ele>
        <time>2018-08-26T09:13:48Z</time>
      </trkpt>
      <trkpt lat="47.32145" lon="6.01882">
        <ele>263.54</ele>
        <time>2018-08-26T09:13:49Z</time>
      </trkpt>
      <trkpt lat="47.32144" lon="6.01881">
        <ele>264.02</ele>
        <time>2018-08-26T09:13:50Z</time>
      </trkpt>
      <trkpt lat="47.32143" lon="6.01879">
        <ele>264.02</ele>
        <time>2018-08-26T09:13:51Z</time>
      </trkpt>
      <trkpt lat="47.32142" lon="6.01876">
        <ele>264.02</ele>
        <time>2018-08-26T09:13:52Z</time>
      </trkpt>
      <trkpt lat="47.32142" lon="6.01874">
        <ele>264.5</ele>
        <time>2018-08-26T09:13:53Z</time>
      </trkpt>
      <trkpt lat="47.32141" lon="6.01871">
        <ele>264.5</ele>
        <time>2018-08-26T09:13:54Z</time>
      </trkpt>
      <trkpt lat="47.32142" lon="6.01868">
        <ele>264.5</ele>
        <time>2018-08-26T09:13:55Z</time>
      </trkpt>
      <trkpt lat="47.32144" lon="6.01866">
        <ele>264.5</ele>
        <time>2018-08-26T09:13:56Z</time>
      </trkpt>
      <trkpt lat="47.32146" lon="6.01863">
        <ele>264.02</ele>
        <time>2018-08-26T09:13:57Z</time>
      </trkpt>
      <trkpt lat="47.32149" lon="6.01861">
        <ele>264.02</ele>
        <time>2018-08-26T09:13:58Z</time>
      </trkpt>
      <trkpt lat="47.32157" lon="6.01849">
        <ele>263.06</ele>
        <time>2018-08-26T09:14:01Z</time>
      </trkpt>
      <trkpt lat="47.3216" lon="6.01843">
        <ele>262.58</ele>
        <time>2018-08-26T09:14:02Z</time>
      </trkpt>
      <trkpt lat="47.32163" lon="6.01836">
        <ele>262.1</ele>
        <time>2018-08-26T09:14:03Z</time>
      </trkpt>
      <trkpt lat="47.32167" lon="6.01829">
        <ele>261.62</ele>
        <time>2018-08-26T09:14:04Z</time>
      </trkpt>
      <trkpt lat="47.3217" lon="6.01822">
        <ele>261.14</ele>
        <time>2018-08-26T09:14:05Z</time>
      </trkpt>
      <trkpt lat="47.32173" lon="6.01815">
        <ele>260.65</ele>
        <time>2018-08-26T09:14:06Z</time>
      </trkpt>
      <trkpt lat="47.32177" lon="6.01808">
        <ele>260.17</ele>
        <time>2018-08-26T09:14:07Z</time>
      </trkpt>
      <trkpt lat="47.32198" lon="6.01761">
        <ele>261.62</ele>
        <time>2018-08-26T09:14:16Z</time>
      </trkpt>
      <trkpt lat="47.32199" lon="6.01751">
        <ele>262.1</ele>
        <time>2018-08-26T09:14:18Z</time>
      </trkpt>
      <trkpt lat="47.32193" lon="6.01707">
        <ele>256.81</ele>
        <time>2018-08-26T09:14:26Z</time>
      </trkpt>
      <trkpt lat="47.32192" lon="6.01703">
        <ele>271.71</ele>
        <time>2018-08-26T09:14:27Z</time>
      </trkpt>
      <trkpt lat="47.3219" lon="6.01698">
        <ele>264.98</ele>
        <time>2018-08-26T09:14:28Z</time>
      </trkpt>
      <trkpt lat="47.32176" lon="6.01655">
        <ele>265.46</ele>
        <time>2018-08-26T09:14:38Z</time>
      </trkpt>
      <trkpt lat="47.32148" lon="6.01602">
        <ele>266.9</ele>
        <time>2018-08-26T09:14:50Z</time>
      </trkpt>
      <trkpt lat="47.32135" lon="6.01561">
        <ele>262.58</ele>
        <time>2018-08-26T09:15:00Z</time>
      </trkpt>
      <trkpt lat="47.32134" lon="6.01556">
        <ele>270.27</ele>
        <time>2018-08-26T09:15:01Z</time>
      </trkpt>
      <trkpt lat="47.32133" lon="6.01551">
        <ele>277</ele>
        <time>2018-08-26T09:15:02Z</time>
      </trkpt>
      <trkpt lat="47.32132" lon="6.01546">
        <ele>270.75</ele>
        <time>2018-08-26T09:15:03Z</time>
      </trkpt>
      <trkpt lat="47.3213" lon="6.01536">
        <ele>269.79</ele>
        <time>2018-08-26T09:15:05Z</time>
      </trkpt>
      <trkpt lat="47.32114" lon="6.01464">
        <ele>270.75</ele>
        <time>2018-08-26T09:15:18Z</time>
      </trkpt>
      <trkpt lat="47.32109" lon="6.01436">
        <ele>271.23</ele>
        <time>2018-08-26T09:15:23Z</time>
      </trkpt>
      <trkpt lat="47.32089" lon="6.01374">
        <ele>273.15</ele>
        <time>2018-08-26T09:15:37Z</time>
      </trkpt>
      <trkpt lat="47.32076" lon="6.01325">
        <ele>272.67</ele>
        <time>2018-08-26T09:15:48Z</time>
      </trkpt>
      <trkpt lat="47.32073" lon="6.01324">
        <ele>272.67</ele>
        <time>2018-08-26T09:15:49Z</time>
      </trkpt>
      <trkpt lat="47.3207" lon="6.01324">
        <ele>273.15</ele>
        <time>2018-08-26T09:15:50Z</time>
      </trkpt>
      <trkpt lat="47.32068" lon="6.01326">
        <ele>269.31</ele>
        <time>2018-08-26T09:15:51Z</time>
      </trkpt>
      <trkpt lat="47.32066" lon="6.01327">
        <ele>273.63</ele>
        <time>2018-08-26T09:15:52Z</time>
      </trkpt>
      <trkpt lat="47.32064" lon="6.01329">
        <ele>277</ele>
        <time>2018-08-26T09:15:53Z</time>
      </trkpt>
      <trkpt lat="47.32062" lon="6.01331">
        <ele>274.11</ele>
        <time>2018-08-26T09:15:54Z</time>
      </trkpt>
      <trkpt lat="47.3205" lon="6.0135">
        <ele>275.56</ele>
        <time>2018-08-26T09:16:02Z</time>
      </trkpt>
      <trkpt lat="47.32048" lon="6.01351">
        <ele>275.56</ele>
        <time>2018-08-26T09:16:03Z</time>
      </trkpt>
      <trkpt lat="47.32048" lon="6.01349">
        <ele>275.56</ele>
        <time>2018-08-26T09:16:05Z</time>
      </trkpt>
      <trkpt lat="47.32048" lon="6.01347">
        <ele>275.56</ele>
        <time>2018-08-26T09:16:06Z</time>
      </trkpt>
      <trkpt lat="47.3205" lon="6.01345">
        <ele>275.56</ele>
        <time>2018-08-26T09:16:07Z</time>
      </trkpt>
      <trkpt lat="47.32051" lon="6.01342">
        <ele>275.07</ele>
        <time>2018-08-26T09:16:08Z</time>
      </trkpt>
      <trkpt lat="47.32054" lon="6.0134">
        <ele>275.07</ele>
        <time>2018-08-26T09:16:09Z</time>
      </trkpt>
      <trkpt lat="47.3207" lon="6.01314">
        <ele>273.63</ele>
        <time>2018-08-26T09:16:16Z</time>
      </trkpt>
      <trkpt lat="47.32068" lon="6.01311">
        <ele>273.15</ele>
        <time>2018-08-26T09:16:17Z</time>
      </trkpt>
      <trkpt lat="47.32066" lon="6.01308">
        <ele>273.15</ele>
        <time>2018-08-26T09:16:18Z</time>
      </trkpt>
      <trkpt lat="47.32033" lon="6.01276">
        <ele>274.11</ele>
        <time>2018-08-26T09:16:29Z</time>
      </trkpt>
      <trkpt lat="47.32029" lon="6.01275">
        <ele>274.11</ele>
        <time>2018-08-26T09:16:30Z</time>
      </trkpt>
      <trkpt lat="47.31974" lon="6.01278">
        <ele>273.63</ele>
        <time>2018-08-26T09:16:43Z</time>
      </trkpt>
      <trkpt lat="47.31927" lon="6.01282">
        <ele>274.11</ele>
        <time>2018-08-26T09:16:53Z</time>
      </trkpt>
      <trkpt lat="47.31913" lon="6.01281">
        <ele>273.63</ele>
        <time>2018-08-26T09:16:56Z</time>
      </trkpt>
      <trkpt lat="47.31909" lon="6.01281">
        <ele>273.63</ele>
        <time>2018-08-26T09:16:57Z</time>
      </trkpt>
      <trkpt lat="47.31892" lon="6.01278">
        <ele>274.59</ele>
        <time>2018-08-26T09:17:01Z</time>
      </trkpt>
      <trkpt lat="47.31888" lon="6.01277">
        <ele>274.59</ele>
        <time>2018-08-26T09:17:02Z</time>
      </trkpt>
      <trkpt lat="47.31884" lon="6.01276">
        <ele>274.59</ele>
        <time>2018-08-26T09:17:03Z</time>
      </trkpt>
      <trkpt lat="47.3188" lon="6.01273">
        <ele>275.07</ele>
        <time>2018-08-26T09:17:04Z</time>
      </trkpt>
      <trkpt lat="47.31877" lon="6.0127">
        <ele>275.07</ele>
        <time>2018-08-26T09:17:05Z</time>
      </trkpt>
      <trkpt lat="47.31873" lon="6.01267">
        <ele>275.07</ele>
        <time>2018-08-26T09:17:06Z</time>
      </trkpt>
      <trkpt lat="47.3187" lon="6.01265">
        <ele>275.07</ele>
        <time>2018-08-26T09:17:07Z</time>
      </trkpt>
      <trkpt lat="47.31867" lon="6.01263">
        <ele>275.56</ele>
        <time>2018-08-26T09:17:08Z</time>
      </trkpt>
      <trkpt lat="47.31836" lon="6.01238">
        <ele>277.96</ele>
        <time>2018-08-26T09:17:18Z</time>
      </trkpt>
      <trkpt lat="47.31818" lon="6.0123">
        <ele>280.36</ele>
        <time>2018-08-26T09:17:25Z</time>
      </trkpt>
      <trkpt lat="47.31816" lon="6.0123">
        <ele>280.84</ele>
        <time>2018-08-26T09:17:26Z</time>
      </trkpt>
      <trkpt lat="47.318" lon="6.01223">
        <ele>284.21</ele>
        <time>2018-08-26T09:17:34Z</time>
      </trkpt>
      <trkpt lat="47.31799" lon="6.01222">
        <ele>283.25</ele>
        <time>2018-08-26T09:17:35Z</time>
      </trkpt>
      <trkpt lat="47.31775" lon="6.01216">
        <ele>285.65</ele>
        <time>2018-08-26T09:17:47Z</time>
      </trkpt>
      <trkpt lat="47.31748" lon="6.01209">
        <ele>288.05</ele>
        <time>2018-08-26T09:18:00Z</time>
      </trkpt>
      <trkpt lat="47.31745" lon="6.01208">
        <ele>288.53</ele>
        <time>2018-08-26T09:18:02Z</time>
      </trkpt>
      <trkpt lat="47.31743" lon="6.01208">
        <ele>288.53</ele>
        <time>2018-08-26T09:18:03Z</time>
      </trkpt>
      <trkpt lat="47.31741" lon="6.01208">
        <ele>289.01</ele>
        <time>2018-08-26T09:18:04Z</time>
      </trkpt>
      <trkpt lat="47.31739" lon="6.01208">
        <ele>289.01</ele>
        <time>2018-08-26T09:18:05Z</time>
      </trkpt>
      <trkpt lat="47.31737" lon="6.01208">
        <ele>289.01</ele>
        <time>2018-08-26T09:18:06Z</time>
      </trkpt>
      <trkpt lat="47.31735" lon="6.01207">
        <ele>289.49</ele>
        <time>2018-08-26T09:18:07Z</time>
      </trkpt>
      <trkpt lat="47.31733" lon="6.01207">
        <ele>289.49</ele>
        <time>2018-08-26T09:18:08Z</time>
      </trkpt>
      <trkpt lat="47.31709" lon="6.01206">
        <ele>292.38</ele>
        <time>2018-08-26T09:18:20Z</time>
      </trkpt>
      <trkpt lat="47.31698" lon="6.01204">
        <ele>292.86</ele>
        <time>2018-08-26T09:18:25Z</time>
      </trkpt>
      <trkpt lat="47.31674" lon="6.01203">
        <ele>294.78</ele>
        <time>2018-08-26T09:18:37Z</time>
      </trkpt>
      <trkpt lat="47.31665" lon="6.01202">
        <ele>295.74</ele>
        <time>2018-08-26T09:18:42Z</time>
      </trkpt>
      <trkpt lat="47.31663" lon="6.01201">
        <ele>295.74</ele>
        <time>2018-08-26T09:18:43Z</time>
      </trkpt>
      <trkpt lat="47.31661" lon="6.01201">
        <ele>296.22</ele>
        <time>2018-08-26T09:18:44Z</time>
      </trkpt>
      <trkpt lat="47.31659" lon="6.01201">
        <ele>296.22</ele>
        <time>2018-08-26T09:18:45Z</time>
      </trkpt>
      <trkpt lat="47.31656" lon="6.012">
        <ele>296.22</ele>
        <time>2018-08-26T09:18:46Z</time>
      </trkpt>
      <trkpt lat="47.31654" lon="6.012">
        <ele>296.22</ele>
        <time>2018-08-26T09:18:47Z</time>
      </trkpt>
      <trkpt lat="47.31652" lon="6.012">
        <ele>296.22</ele>
        <time>2018-08-26T09:18:48Z</time>
      </trkpt>
      <trkpt lat="47.3165" lon="6.01199">
        <ele>296.7</ele>
        <time>2018-08-26T09:18:49Z</time>
      </trkpt>
      <trkpt lat="47.31647" lon="6.01199">
        <ele>296.7</ele>
        <time>2018-08-26T09:18:50Z</time>
      </trkpt>
      <trkpt lat="47.31625" lon="6.01193">
        <ele>299.11</ele>
        <time>2018-08-26T09:19:02Z</time>
      </trkpt>
      <trkpt lat="47.31621" lon="6.01191">
        <ele>300.07</ele>
        <time>2018-08-26T09:19:05Z</time>
      </trkpt>
      <trkpt lat="47.31619" lon="6.01191">
        <ele>300.55</ele>
        <time>2018-08-26T09:19:06Z</time>
      </trkpt>
      <trkpt lat="47.31617" lon="6.0119">
        <ele>300.55</ele>
        <time>2018-08-26T09:19:07Z</time>
      </trkpt>
      <trkpt lat="47.31616" lon="6.01189">
        <ele>301.03</ele>
        <time>2018-08-26T09:19:08Z</time>
      </trkpt>
      <trkpt lat="47.31615" lon="6.01189">
        <ele>301.03</ele>
        <time>2018-08-26T09:19:09Z</time>
      </trkpt>
      <trkpt lat="47.31613" lon="6.01189">
        <ele>301.51</ele>
        <time>2018-08-26T09:19:10Z</time>
      </trkpt>
      <trkpt lat="47.31611" lon="6.01189">
        <ele>301.99</ele>
        <time>2018-08-26T09:19:12Z</time>
      </trkpt>
      <trkpt lat="47.31609" lon="6.01189">
        <ele>301.99</ele>
        <time>2018-08-26T09:19:13Z</time>
      </trkpt>
      <trkpt lat="47.31601" lon="6.01186">
        <ele>303.91</ele>
        <time>2018-08-26T09:19:20Z</time>
      </trkpt>
      <trkpt lat="47.31598" lon="6.01184">
        <ele>304.88</ele>
        <time>2018-08-26T09:19:24Z</time>
      </trkpt>
      <trkpt lat="47.31593" lon="6.01182">
        <ele>304.88</ele>
        <time>2018-08-26T09:19:26Z</time>
      </trkpt>
      <trkpt lat="47.31591" lon="6.01181">
        <ele>304.88</ele>
        <time>2018-08-26T09:19:27Z</time>
      </trkpt>
      <trkpt lat="47.31586" lon="6.01181">
        <ele>305.84</ele>
        <time>2018-08-26T09:19:29Z</time>
      </trkpt>
      <trkpt lat="47.31585" lon="6.0118">
        <ele>305.84</ele>
        <time>2018-08-26T09:19:30Z</time>
      </trkpt>
      <trkpt lat="47.31583" lon="6.0118">
        <ele>305.84</ele>
        <time>2018-08-26T09:19:31Z</time>
      </trkpt>
      <trkpt lat="47.31581" lon="6.01181">
        <ele>306.32</ele>
        <time>2018-08-26T09:19:32Z</time>
      </trkpt>
      <trkpt lat="47.3158" lon="6.01182">
        <ele>306.32</ele>
        <time>2018-08-26T09:19:33Z</time>
      </trkpt>
      <trkpt lat="47.31578" lon="6.01182">
        <ele>306.32</ele>
        <time>2018-08-26T09:19:34Z</time>
      </trkpt>
      <trkpt lat="47.31557" lon="6.01188">
        <ele>308.24</ele>
        <time>2018-08-26T09:19:45Z</time>
      </trkpt>
      <trkpt lat="47.31551" lon="6.01192">
        <ele>309.2</ele>
        <time>2018-08-26T09:19:50Z</time>
      </trkpt>
      <trkpt lat="47.31549" lon="6.01194">
        <ele>308.24</ele>
        <time>2018-08-26T09:19:51Z</time>
      </trkpt>
      <trkpt lat="47.31547" lon="6.01196">
        <ele>306.8</ele>
        <time>2018-08-26T09:19:52Z</time>
      </trkpt>
      <trkpt lat="47.31546" lon="6.01197">
        <ele>312.09</ele>
        <time>2018-08-26T09:19:53Z</time>
      </trkpt>
      <trkpt lat="47.31545" lon="6.01198">
        <ele>309.68</ele>
        <time>2018-08-26T09:19:54Z</time>
      </trkpt>
      <trkpt lat="47.31543" lon="6.01201">
        <ele>310.16</ele>
        <time>2018-08-26T09:19:56Z</time>
      </trkpt>
      <trkpt lat="47.31541" lon="6.01202">
        <ele>310.16</ele>
        <time>2018-08-26T09:19:57Z</time>
      </trkpt>
      <trkpt lat="47.31539" lon="6.01203">
        <ele>310.64</ele>
        <time>2018-08-26T09:19:58Z</time>
      </trkpt>
      <trkpt lat="47.31537" lon="6.01203">
        <ele>310.64</ele>
        <time>2018-08-26T09:19:59Z</time>
      </trkpt>
      <trkpt lat="47.31535" lon="6.01204">
        <ele>310.64</ele>
        <time>2018-08-26T09:20:00Z</time>
      </trkpt>
      <trkpt lat="47.31516" lon="6.01202">
        <ele>313.05</ele>
        <time>2018-08-26T09:20:10Z</time>
      </trkpt>
      <trkpt lat="47.31514" lon="6.01203">
        <ele>313.05</ele>
        <time>2018-08-26T09:20:11Z</time>
      </trkpt>
      <trkpt lat="47.31496" lon="6.01201">
        <ele>314.49</ele>
        <time>2018-08-26T09:20:21Z</time>
      </trkpt>
      <trkpt lat="47.31487" lon="6.01202">
        <ele>314.97</ele>
        <time>2018-08-26T09:20:27Z</time>
      </trkpt>
      <trkpt lat="47.31486" lon="6.01203">
        <ele>315.45</ele>
        <time>2018-08-26T09:20:28Z</time>
      </trkpt>
      <trkpt lat="47.31484" lon="6.01204">
        <ele>315.45</ele>
        <time>2018-08-26T09:20:29Z</time>
      </trkpt>
      <trkpt lat="47.31482" lon="6.01204">
        <ele>315.93</ele>
        <time>2018-08-26T09:20:30Z</time>
      </trkpt>
      <trkpt lat="47.3148" lon="6.01205">
        <ele>315.93</ele>
        <time>2018-08-26T09:20:31Z</time>
      </trkpt>
      <trkpt lat="47.31476" lon="6.01205">
        <ele>316.41</ele>
        <time>2018-08-26T09:20:33Z</time>
      </trkpt>
      <trkpt lat="47.31474" lon="6.01206">
        <ele>316.41</ele>
        <time>2018-08-26T09:20:34Z</time>
      </trkpt>
      <trkpt lat="47.31471" lon="6.01206">
        <ele>316.41</ele>
        <time>2018-08-26T09:20:35Z</time>
      </trkpt>
      <trkpt lat="47.31469" lon="6.01207">
        <ele>316.89</ele>
        <time>2018-08-26T09:20:36Z</time>
      </trkpt>
      <trkpt lat="47.31467" lon="6.01208">
        <ele>316.89</ele>
        <time>2018-08-26T09:20:37Z</time>
      </trkpt>
      <trkpt lat="47.31466" lon="6.01208">
        <ele>317.37</ele>
        <time>2018-08-26T09:20:38Z</time>
      </trkpt>
      <trkpt lat="47.31455" lon="6.01214">
        <ele>318.33</ele>
        <time>2018-08-26T09:20:43Z</time>
      </trkpt>
      <trkpt lat="47.31452" lon="6.01217">
        <ele>318.81</ele>
        <time>2018-08-26T09:20:45Z</time>
      </trkpt>
      <trkpt lat="47.3145" lon="6.01218">
        <ele>318.81</ele>
        <time>2018-08-26T09:20:46Z</time>
      </trkpt>
      <trkpt lat="47.31446" lon="6.01219">
        <ele>319.78</ele>
        <time>2018-08-26T09:20:50Z</time>
      </trkpt>
      <trkpt lat="47.31434" lon="6.01219">
        <ele>321.22</ele>
        <time>2018-08-26T09:20:55Z</time>
      </trkpt>
      <trkpt lat="47.31432" lon="6.01219">
        <ele>321.22</ele>
        <time>2018-08-26T09:20:56Z</time>
      </trkpt>
      <trkpt lat="47.3143" lon="6.01219">
        <ele>321.22</ele>
        <time>2018-08-26T09:20:57Z</time>
      </trkpt>
      <trkpt lat="47.31428" lon="6.01219">
        <ele>321.7</ele>
        <time>2018-08-26T09:20:58Z</time>
      </trkpt>
      <trkpt lat="47.31426" lon="6.01219">
        <ele>321.7</ele>
        <time>2018-08-26T09:20:59Z</time>
      </trkpt>
      <trkpt lat="47.31423" lon="6.01219">
        <ele>322.18</ele>
        <time>2018-08-26T09:21:02Z</time>
      </trkpt>
      <trkpt lat="47.31421" lon="6.01219">
        <ele>322.18</ele>
        <time>2018-08-26T09:21:03Z</time>
      </trkpt>
      <trkpt lat="47.3141" lon="6.0122">
        <ele>323.62</ele>
        <time>2018-08-26T09:21:09Z</time>
      </trkpt>
      <trkpt lat="47.31408" lon="6.0122">
        <ele>323.62</ele>
        <time>2018-08-26T09:21:10Z</time>
      </trkpt>
      <trkpt lat="47.31392" lon="6.01219">
        <ele>325.54</ele>
        <time>2018-08-26T09:21:19Z</time>
      </trkpt>
      <trkpt lat="47.31389" lon="6.0122">
        <ele>326.02</ele>
        <time>2018-08-26T09:21:21Z</time>
      </trkpt>
      <trkpt lat="47.31388" lon="6.01221">
        <ele>326.02</ele>
        <time>2018-08-26T09:21:22Z</time>
      </trkpt>
      <trkpt lat="47.31386" lon="6.01221">
        <ele>326.02</ele>
        <time>2018-08-26T09:21:23Z</time>
      </trkpt>
      <trkpt lat="47.31358" lon="6.01215">
        <ele>328.43</ele>
        <time>2018-08-26T09:21:36Z</time>
      </trkpt>
      <trkpt lat="47.31351" lon="6.01212">
        <ele>329.39</ele>
        <time>2018-08-26T09:21:41Z</time>
      </trkpt>
      <trkpt lat="47.3135" lon="6.01211">
        <ele>329.87</ele>
        <time>2018-08-26T09:21:42Z</time>
      </trkpt>
      <trkpt lat="47.31336" lon="6.01205">
        <ele>331.31</ele>
        <time>2018-08-26T09:21:53Z</time>
      </trkpt>
      <trkpt lat="47.31326" lon="6.012">
        <ele>332.27</ele>
        <time>2018-08-26T09:21:59Z</time>
      </trkpt>
      <trkpt lat="47.31323" lon="6.01199">
        <ele>336.12</ele>
        <time>2018-08-26T09:22:01Z</time>
      </trkpt>
      <trkpt lat="47.31322" lon="6.01199">
        <ele>332.75</ele>
        <time>2018-08-26T09:22:02Z</time>
      </trkpt>
      <trkpt lat="47.31316" lon="6.01197">
        <ele>333.71</ele>
        <time>2018-08-26T09:22:06Z</time>
      </trkpt>
      <trkpt lat="47.31311" lon="6.01195">
        <ele>334.2</ele>
        <time>2018-08-26T09:22:09Z</time>
      </trkpt>
      <trkpt lat="47.31299" lon="6.01185">
        <ele>336.6</ele>
        <time>2018-08-26T09:22:17Z</time>
      </trkpt>
      <trkpt lat="47.31282" lon="6.01175">
        <ele>338.04</ele>
        <time>2018-08-26T09:22:27Z</time>
      </trkpt>
      <trkpt lat="47.31264" lon="6.01163">
        <ele>340.44</ele>
        <time>2018-08-26T09:22:39Z</time>
      </trkpt>
      <trkpt lat="47.31241" lon="6.01154">
        <ele>341.89</ele>
        <time>2018-08-26T09:22:50Z</time>
      </trkpt>
      <trkpt lat="47.3122" lon="6.01145">
        <ele>343.81</ele>
        <time>2018-08-26T09:23:01Z</time>
      </trkpt>
      <trkpt lat="47.31218" lon="6.01145">
        <ele>343.81</ele>
        <time>2018-08-26T09:23:02Z</time>
      </trkpt>
      <trkpt lat="47.31216" lon="6.01145">
        <ele>344.29</ele>
        <time>2018-08-26T09:23:03Z</time>
      </trkpt>
      <trkpt lat="47.31214" lon="6.01144">
        <ele>344.29</ele>
        <time>2018-08-26T09:23:04Z</time>
      </trkpt>
      <trkpt lat="47.31212" lon="6.01142">
        <ele>344.77</ele>
        <time>2018-08-26T09:23:05Z</time>
      </trkpt>
      <trkpt lat="47.3121" lon="6.01141">
        <ele>344.77</ele>
        <time>2018-08-26T09:23:06Z</time>
      </trkpt>
      <trkpt lat="47.31187" lon="6.0113">
        <ele>347.65</ele>
        <time>2018-08-26T09:23:20Z</time>
      </trkpt>
      <trkpt lat="47.31183" lon="6.01127">
        <ele>348.13</ele>
        <time>2018-08-26T09:23:24Z</time>
      </trkpt>
      <trkpt lat="47.31182" lon="6.01126">
        <ele>348.62</ele>
        <time>2018-08-26T09:23:25Z</time>
      </trkpt>
      <trkpt lat="47.31178" lon="6.01122">
        <ele>349.58</ele>
        <time>2018-08-26T09:23:29Z</time>
      </trkpt>
      <trkpt lat="47.31176" lon="6.01122">
        <ele>349.58</ele>
        <time>2018-08-26T09:23:30Z</time>
      </trkpt>
      <trkpt lat="47.31175" lon="6.01121">
        <ele>350.06</ele>
        <time>2018-08-26T09:23:31Z</time>
      </trkpt>
      <trkpt lat="47.31163" lon="6.01114">
        <ele>351.98</ele>
        <time>2018-08-26T09:23:41Z</time>
      </trkpt>
      <trkpt lat="47.31161" lon="6.01113">
        <ele>352.46</ele>
        <time>2018-08-26T09:23:43Z</time>
      </trkpt>
      <trkpt lat="47.3116" lon="6.01112">
        <ele>352.94</ele>
        <time>2018-08-26T09:23:44Z</time>
      </trkpt>
      <trkpt lat="47.31154" lon="6.01104">
        <ele>353.42</ele>
        <time>2018-08-26T09:23:49Z</time>
      </trkpt>
      <trkpt lat="47.31153" lon="6.01102">
        <ele>353.9</ele>
        <time>2018-08-26T09:23:50Z</time>
      </trkpt>
      <trkpt lat="47.31152" lon="6.011">
        <ele>353.9</ele>
        <time>2018-08-26T09:23:51Z</time>
      </trkpt>
      <trkpt lat="47.31151" lon="6.01098">
        <ele>353.9</ele>
        <time>2018-08-26T09:23:52Z</time>
      </trkpt>
      <trkpt lat="47.31141" lon="6.01092">
        <ele>355.83</ele>
        <time>2018-08-26T09:24:03Z</time>
      </trkpt>
      <trkpt lat="47.31135" lon="6.01086">
        <ele>357.27</ele>
        <time>2018-08-26T09:24:08Z</time>
      </trkpt>
      <trkpt lat="47.3112" lon="6.01068">
        <ele>360.15</ele>
        <time>2018-08-26T09:24:22Z</time>
      </trkpt>
      <trkpt lat="47.31108" lon="6.01052">
        <ele>362.55</ele>
        <time>2018-08-26T09:24:35Z</time>
      </trkpt>
      <trkpt lat="47.31092" lon="6.01038">
        <ele>364.48</ele>
        <time>2018-08-26T09:24:46Z</time>
      </trkpt>
      <trkpt lat="47.31077" lon="6.01018">
        <ele>366.4</ele>
        <time>2018-08-26T09:24:57Z</time>
      </trkpt>
      <trkpt lat="47.31071" lon="6.01011">
        <ele>367.84</ele>
        <time>2018-08-26T09:25:02Z</time>
      </trkpt>
      <trkpt lat="47.31063" lon="6.00999">
        <ele>370.24</ele>
        <time>2018-08-26T09:25:13Z</time>
      </trkpt>
      <trkpt lat="47.31057" lon="6.00988">
        <ele>372.65</ele>
        <time>2018-08-26T09:25:24Z</time>
      </trkpt>
      <trkpt lat="47.31052" lon="6.00985">
        <ele>373.61</ele>
        <time>2018-08-26T09:25:29Z</time>
      </trkpt>
      <trkpt lat="47.31047" lon="6.00983">
        <ele>374.57</ele>
        <time>2018-08-26T09:25:34Z</time>
      </trkpt>
      <trkpt lat="47.31046" lon="6.00984">
        <ele>375.05</ele>
        <time>2018-08-26T09:25:35Z</time>
      </trkpt>
      <trkpt lat="47.31039" lon="6.00987">
        <ele>375.53</ele>
        <time>2018-08-26T09:25:45Z</time>
      </trkpt>
      <trkpt lat="47.3104" lon="6.00997">
        <ele>376.01</ele>
        <time>2018-08-26T09:25:51Z</time>
      </trkpt>
      <trkpt lat="47.3105" lon="6.01026">
        <ele>374.09</ele>
        <time>2018-08-26T09:25:58Z</time>
      </trkpt>
      <trkpt lat="47.31054" lon="6.01037">
        <ele>373.61</ele>
        <time>2018-08-26T09:26:00Z</time>
      </trkpt>
      <trkpt lat="47.31055" lon="6.01041">
        <ele>373.61</ele>
        <time>2018-08-26T09:26:01Z</time>
      </trkpt>
      <trkpt lat="47.31056" lon="6.01046">
        <ele>373.61</ele>
        <time>2018-08-26T09:26:02Z</time>
      </trkpt>
      <trkpt lat="47.31074" lon="6.01099">
        <ele>372.17</ele>
        <time>2018-08-26T09:26:12Z</time>
      </trkpt>
      <trkpt lat="47.31076" lon="6.01104">
        <ele>371.69</ele>
        <time>2018-08-26T09:26:13Z</time>
      </trkpt>
      <trkpt lat="47.31081" lon="6.01118">
        <ele>371.21</ele>
        <time>2018-08-26T09:26:15Z</time>
      </trkpt>
      <trkpt lat="47.31083" lon="6.01124">
        <ele>371.21</ele>
        <time>2018-08-26T09:26:16Z</time>
      </trkpt>
      <trkpt lat="47.31087" lon="6.01137">
        <ele>370.73</ele>
        <time>2018-08-26T09:26:18Z</time>
      </trkpt>
      <trkpt lat="47.3109" lon="6.01143">
        <ele>370.73</ele>
        <time>2018-08-26T09:26:19Z</time>
      </trkpt>
      <trkpt lat="47.31096" lon="6.01154">
        <ele>369.76</ele>
        <time>2018-08-26T09:26:21Z</time>
      </trkpt>
      <trkpt lat="47.311" lon="6.01159">
        <ele>369.28</ele>
        <time>2018-08-26T09:26:22Z</time>
      </trkpt>
      <trkpt lat="47.31104" lon="6.01164">
        <ele>369.28</ele>
        <time>2018-08-26T09:26:23Z</time>
      </trkpt>
      <trkpt lat="47.31107" lon="6.0117">
        <ele>369.28</ele>
        <time>2018-08-26T09:26:24Z</time>
      </trkpt>
      <trkpt lat="47.31109" lon="6.01174">
        <ele>368.8</ele>
        <time>2018-08-26T09:26:25Z</time>
      </trkpt>
      <trkpt lat="47.31118" lon="6.01189">
        <ele>367.84</ele>
        <time>2018-08-26T09:26:27Z</time>
      </trkpt>
      <trkpt lat="47.31122" lon="6.01195">
        <ele>367.36</ele>
        <time>2018-08-26T09:26:28Z</time>
      </trkpt>
      <trkpt lat="47.31154" lon="6.01229">
        <ele>367.84</ele>
        <time>2018-08-26T09:26:36Z</time>
      </trkpt>
      <trkpt lat="47.31157" lon="6.01233">
        <ele>367.84</ele>
        <time>2018-08-26T09:26:37Z</time>
      </trkpt>
      <trkpt lat="47.31164" lon="6.01241">
        <ele>366.88</ele>
        <time>2018-08-26T09:26:39Z</time>
      </trkpt>
      <trkpt lat="47.31168" lon="6.01244">
        <ele>366.88</ele>
        <time>2018-08-26T09:26:40Z</time>
      </trkpt>
      <trkpt lat="47.31182" lon="6.01265">
        <ele>364.96</ele>
        <time>2018-08-26T09:26:45Z</time>
      </trkpt>
      <trkpt lat="47.31185" lon="6.01269">
        <ele>364.48</ele>
        <time>2018-08-26T09:26:46Z</time>
      </trkpt>
      <trkpt lat="47.3119" lon="6.01274">
        <ele>364.48</ele>
        <time>2018-08-26T09:26:47Z</time>
      </trkpt>
      <trkpt lat="47.31194" lon="6.01278">
        <ele>364.48</ele>
        <time>2018-08-26T09:26:48Z</time>
      </trkpt>
      <trkpt lat="47.31199" lon="6.01282">
        <ele>364</ele>
        <time>2018-08-26T09:26:49Z</time>
      </trkpt>
      <trkpt lat="47.31203" lon="6.01285">
        <ele>364</ele>
        <time>2018-08-26T09:26:50Z</time>
      </trkpt>
      <trkpt lat="47.31207" lon="6.01289">
        <ele>364.48</ele>
        <time>2018-08-26T09:26:51Z</time>
      </trkpt>
      <trkpt lat="47.31211" lon="6.01293">
        <ele>364.48</ele>
        <time>2018-08-26T09:26:52Z</time>
      </trkpt>
      <trkpt lat="47.31244" lon="6.01325">
        <ele>364.48</ele>
        <time>2018-08-26T09:27:02Z</time>
      </trkpt>
      <trkpt lat="47.31252" lon="6.01331">
        <ele>364.48</ele>
        <time>2018-08-26T09:27:05Z</time>
      </trkpt>
      <trkpt lat="47.31253" lon="6.01333">
        <ele>362.07</ele>
        <time>2018-08-26T09:27:06Z</time>
      </trkpt>
      <trkpt lat="47.31255" lon="6.01334">
        <ele>366.4</ele>
        <time>2018-08-26T09:27:07Z</time>
      </trkpt>
      <trkpt lat="47.31258" lon="6.01336">
        <ele>363.52</ele>
        <time>2018-08-26T09:27:08Z</time>
      </trkpt>
      <trkpt lat="47.3126" lon="6.01336">
        <ele>363.52</ele>
        <time>2018-08-26T09:27:09Z</time>
      </trkpt>
      <trkpt lat="47.31265" lon="6.01339">
        <ele>363.04</ele>
        <time>2018-08-26T09:27:10Z</time>
      </trkpt>
      <trkpt lat="47.31268" lon="6.01342">
        <ele>363.52</ele>
        <time>2018-08-26T09:27:11Z</time>
      </trkpt>
      <trkpt lat="47.31304" lon="6.01375">
        <ele>363.52</ele>
        <time>2018-08-26T09:27:21Z</time>
      </trkpt>
      <trkpt lat="47.31315" lon="6.01388">
        <ele>363.52</ele>
        <time>2018-08-26T09:27:24Z</time>
      </trkpt>
      <trkpt lat="47.31319" lon="6.0139">
        <ele>363.52</ele>
        <time>2018-08-26T09:27:25Z</time>
      </trkpt>
      <trkpt lat="47.31324" lon="6.01393">
        <ele>363.04</ele>
        <time>2018-08-26T09:27:26Z</time>
      </trkpt>
      <trkpt lat="47.31327" lon="6.01396">
        <ele>362.55</ele>
        <time>2018-08-26T09:27:27Z</time>
      </trkpt>
      <trkpt lat="47.3133" lon="6.01398">
        <ele>362.55</ele>
        <time>2018-08-26T09:27:28Z</time>
      </trkpt>
      <trkpt lat="47.31365" lon="6.01416">
        <ele>361.59</ele>
        <time>2018-08-26T09:27:39Z</time>
      </trkpt>
      <trkpt lat="47.31398" lon="6.01434">
        <ele>363.52</ele>
        <time>2018-08-26T09:27:48Z</time>
      </trkpt>
      <trkpt lat="47.31401" lon="6.01435">
        <ele>363.52</ele>
        <time>2018-08-26T09:27:49Z</time>
      </trkpt>
      <trkpt lat="47.31404" lon="6.01438">
        <ele>363.52</ele>
        <time>2018-08-26T09:27:50Z</time>
      </trkpt>
      <trkpt lat="47.31434" lon="6.01482">
        <ele>363.04</ele>
        <time>2018-08-26T09:28:01Z</time>
      </trkpt>
      <trkpt lat="47.31454" lon="6.01513">
        <ele>361.11</ele>
        <time>2018-08-26T09:28:09Z</time>
      </trkpt>
      <trkpt lat="47.31455" lon="6.01523">
        <ele>362.07</ele>
        <time>2018-08-26T09:28:12Z</time>
      </trkpt>
      <trkpt lat="47.31456" lon="6.01526">
        <ele>360.63</ele>
        <time>2018-08-26T09:28:13Z</time>
      </trkpt>
      <trkpt lat="47.31485" lon="6.01567">
        <ele>359.67</ele>
        <time>2018-08-26T09:28:24Z</time>
      </trkpt>
      <trkpt lat="47.31504" lon="6.01591">
        <ele>356.31</ele>
        <time>2018-08-26T09:28:31Z</time>
      </trkpt>
      <trkpt lat="47.3151" lon="6.016">
        <ele>361.11</ele>
        <time>2018-08-26T09:28:33Z</time>
      </trkpt>
      <trkpt lat="47.31512" lon="6.01604">
        <ele>359.67</ele>
        <time>2018-08-26T09:28:34Z</time>
      </trkpt>
      <trkpt lat="47.31517" lon="6.01613">
        <ele>358.71</ele>
        <time>2018-08-26T09:28:36Z</time>
      </trkpt>
      <trkpt lat="47.31542" lon="6.01656">
        <ele>357.27</ele>
        <time>2018-08-26T09:28:45Z</time>
      </trkpt>
      <trkpt lat="47.31544" lon="6.01662">
        <ele>357.27</ele>
        <time>2018-08-26T09:28:46Z</time>
      </trkpt>
      <trkpt lat="47.31546" lon="6.01667">
        <ele>357.27</ele>
        <time>2018-08-26T09:28:47Z</time>
      </trkpt>
      <trkpt lat="47.31548" lon="6.01671">
        <ele>357.75</ele>
        <time>2018-08-26T09:28:48Z</time>
      </trkpt>
      <trkpt lat="47.3155" lon="6.01674">
        <ele>358.23</ele>
        <time>2018-08-26T09:28:49Z</time>
      </trkpt>
      <trkpt lat="47.3157" lon="6.01708">
        <ele>359.67</ele>
        <time>2018-08-26T09:29:00Z</time>
      </trkpt>
      <trkpt lat="47.31571" lon="6.01711">
        <ele>359.67</ele>
        <time>2018-08-26T09:29:01Z</time>
      </trkpt>
      <trkpt lat="47.31572" lon="6.01713">
        <ele>359.67</ele>
        <time>2018-08-26T09:29:02Z</time>
      </trkpt>
      <trkpt lat="47.31573" lon="6.01716">
        <ele>360.15</ele>
        <time>2018-08-26T09:29:03Z</time>
      </trkpt>
      <trkpt lat="47.31574" lon="6.01719">
        <ele>360.15</ele>
        <time>2018-08-26T09:29:04Z</time>
      </trkpt>
      <trkpt lat="47.31578" lon="6.01726">
        <ele>360.63</ele>
        <time>2018-08-26T09:29:07Z</time>
      </trkpt>
      <trkpt lat="47.31584" lon="6.01746">
        <ele>363.04</ele>
        <time>2018-08-26T09:29:17Z</time>
      </trkpt>
      <trkpt lat="47.31584" lon="6.01748">
        <ele>363.04</ele>
        <time>2018-08-26T09:29:18Z</time>
      </trkpt>
      <trkpt lat="47.3159" lon="6.01769">
        <ele>365.92</ele>
        <time>2018-08-26T09:29:28Z</time>
      </trkpt>
      <trkpt lat="47.31601" lon="6.01796">
        <ele>367.84</ele>
        <time>2018-08-26T09:29:39Z</time>
      </trkpt>
      <trkpt lat="47.3161" lon="6.01819">
        <ele>368.8</ele>
        <time>2018-08-26T09:29:46Z</time>
      </trkpt>
      <trkpt lat="47.3162" lon="6.01856">
        <ele>368.8</ele>
        <time>2018-08-26T09:29:56Z</time>
      </trkpt>
      <trkpt lat="47.3162" lon="6.01863">
        <ele>369.28</ele>
        <time>2018-08-26T09:29:58Z</time>
      </trkpt>
      <trkpt lat="47.31629" lon="6.01897">
        <ele>371.21</ele>
        <time>2018-08-26T09:30:09Z</time>
      </trkpt>
      <trkpt lat="47.31633" lon="6.01906">
        <ele>372.17</ele>
        <time>2018-08-26T09:30:13Z</time>
      </trkpt>
      <trkpt lat="47.31635" lon="6.01908">
        <ele>372.17</ele>
        <time>2018-08-26T09:30:14Z</time>
      </trkpt>
      <trkpt lat="47.31637" lon="6.01911">
        <ele>372.17</ele>
        <time>2018-08-26T09:30:15Z</time>
      </trkpt>
      <trkpt lat="47.31639" lon="6.01915">
        <ele>372.17</ele>
        <time>2018-08-26T09:30:16Z</time>
      </trkpt>
      <trkpt lat="47.31641" lon="6.0192">
        <ele>372.17</ele>
        <time>2018-08-26T09:30:17Z</time>
      </trkpt>
      <trkpt lat="47.31644" lon="6.01924">
        <ele>372.17</ele>
        <time>2018-08-26T09:30:18Z</time>
      </trkpt>
      <trkpt lat="47.31668" lon="6.01962">
        <ele>370.73</ele>
        <time>2018-08-26T09:30:27Z</time>
      </trkpt>
      <trkpt lat="47.31692" lon="6.02016">
        <ele>371.69</ele>
        <time>2018-08-26T09:30:38Z</time>
      </trkpt>
      <trkpt lat="47.31711" lon="6.02041">
        <ele>373.13</ele>
        <time>2018-08-26T09:30:48Z</time>
      </trkpt>
      <trkpt lat="47.3172" lon="6.02069">
        <ele>376.01</ele>
        <time>2018-08-26T09:30:59Z</time>
      </trkpt>
      <trkpt lat="47.31721" lon="6.02088">
        <ele>377.94</ele>
        <time>2018-08-26T09:31:07Z</time>
      </trkpt>
      <trkpt lat="47.31721" lon="6.0209">
        <ele>378.42</ele>
        <time>2018-08-26T09:31:08Z</time>
      </trkpt>
      <trkpt lat="47.3172" lon="6.02093">
        <ele>378.42</ele>
        <time>2018-08-26T09:31:09Z</time>
      </trkpt>
      <trkpt lat="47.3172" lon="6.02095">
        <ele>378.9</ele>
        <time>2018-08-26T09:31:10Z</time>
      </trkpt>
      <trkpt lat="47.31721" lon="6.02098">
        <ele>379.38</ele>
        <time>2018-08-26T09:31:11Z</time>
      </trkpt>
      <trkpt lat="47.3172" lon="6.02124">
        <ele>382.74</ele>
        <time>2018-08-26T09:31:21Z</time>
      </trkpt>
      <trkpt lat="47.31725" lon="6.0215">
        <ele>387.55</ele>
        <time>2018-08-26T09:31:32Z</time>
      </trkpt>
      <trkpt lat="47.31725" lon="6.02153">
        <ele>384.18</ele>
        <time>2018-08-26T09:31:33Z</time>
      </trkpt>
      <trkpt lat="47.31731" lon="6.02172">
        <ele>387.55</ele>
        <time>2018-08-26T09:31:42Z</time>
      </trkpt>
      <trkpt lat="47.31731" lon="6.02177">
        <ele>388.03</ele>
        <time>2018-08-26T09:31:44Z</time>
      </trkpt>
      <trkpt lat="47.31731" lon="6.0218">
        <ele>388.03</ele>
        <time>2018-08-26T09:31:45Z</time>
      </trkpt>
      <trkpt lat="47.31738" lon="6.02214">
        <ele>391.39</ele>
        <time>2018-08-26T09:31:57Z</time>
      </trkpt>
      <trkpt lat="47.31746" lon="6.02243">
        <ele>394.28</ele>
        <time>2018-08-26T09:32:09Z</time>
      </trkpt>
      <trkpt lat="47.31747" lon="6.02247">
        <ele>394.76</ele>
        <time>2018-08-26T09:32:11Z</time>
      </trkpt>
      <trkpt lat="47.31748" lon="6.02249">
        <ele>394.76</ele>
        <time>2018-08-26T09:32:12Z</time>
      </trkpt>
      <trkpt lat="47.31749" lon="6.02252">
        <ele>394.76</ele>
        <time>2018-08-26T09:32:13Z</time>
      </trkpt>
      <trkpt lat="47.3175" lon="6.02255">
        <ele>394.76</ele>
        <time>2018-08-26T09:32:14Z</time>
      </trkpt>
      <trkpt lat="47.31751" lon="6.02257">
        <ele>395.24</ele>
        <time>2018-08-26T09:32:15Z</time>
      </trkpt>
      <trkpt lat="47.31755" lon="6.02267">
        <ele>395.24</ele>
        <time>2018-08-26T09:32:19Z</time>
      </trkpt>
      <trkpt lat="47.31756" lon="6.02269">
        <ele>395.24</ele>
        <time>2018-08-26T09:32:20Z</time>
      </trkpt>
      <trkpt lat="47.31765" lon="6.02313">
        <ele>396.68</ele>
        <time>2018-08-26T09:32:34Z</time>
      </trkpt>
      <trkpt lat="47.31766" lon="6.02327">
        <ele>397.64</ele>
        <time>2018-08-26T09:32:39Z</time>
      </trkpt>
      <trkpt lat="47.31766" lon="6.02329">
        <ele>397.64</ele>
        <time>2018-08-26T09:32:40Z</time>
      </trkpt>
      <trkpt lat="47.31766" lon="6.02331">
        <ele>398.12</ele>
        <time>2018-08-26T09:32:41Z</time>
      </trkpt>
      <trkpt lat="47.31764" lon="6.02362">
        <ele>399.08</ele>
        <time>2018-08-26T09:32:52Z</time>
      </trkpt>
      <trkpt lat="47.3176" lon="6.02403">
        <ele>399.57</ele>
        <time>2018-08-26T09:33:03Z</time>
      </trkpt>
      <trkpt lat="47.3176" lon="6.02405">
        <ele>399.57</ele>
        <time>2018-08-26T09:33:04Z</time>
      </trkpt>
      <trkpt lat="47.31758" lon="6.02424">
        <ele>396.2</ele>
        <time>2018-08-26T09:33:09Z</time>
      </trkpt>
      <trkpt lat="47.31758" lon="6.02426">
        <ele>402.93</ele>
        <time>2018-08-26T09:33:10Z</time>
      </trkpt>
      <trkpt lat="47.31758" lon="6.02429">
        <ele>402.93</ele>
        <time>2018-08-26T09:33:11Z</time>
      </trkpt>
      <trkpt lat="47.31757" lon="6.02432">
        <ele>401.49</ele>
        <time>2018-08-26T09:33:13Z</time>
      </trkpt>
      <trkpt lat="47.31756" lon="6.02435">
        <ele>401.97</ele>
        <time>2018-08-26T09:33:15Z</time>
      </trkpt>
      <trkpt lat="47.31755" lon="6.02438">
        <ele>401.97</ele>
        <time>2018-08-26T09:33:16Z</time>
      </trkpt>
      <trkpt lat="47.31755" lon="6.02441">
        <ele>402.45</ele>
        <time>2018-08-26T09:33:17Z</time>
      </trkpt>
      <trkpt lat="47.31755" lon="6.02444">
        <ele>402.45</ele>
        <time>2018-08-26T09:33:18Z</time>
      </trkpt>
      <trkpt lat="47.31755" lon="6.02447">
        <ele>402.93</ele>
        <time>2018-08-26T09:33:19Z</time>
      </trkpt>
      <trkpt lat="47.31755" lon="6.0245">
        <ele>402.93</ele>
        <time>2018-08-26T09:33:20Z</time>
      </trkpt>
      <trkpt lat="47.31755" lon="6.02453">
        <ele>402.93</ele>
        <time>2018-08-26T09:33:21Z</time>
      </trkpt>
      <trkpt lat="47.31754" lon="6.02467">
        <ele>403.89</ele>
        <time>2018-08-26T09:33:25Z</time>
      </trkpt>
      <trkpt lat="47.31754" lon="6.0247">
        <ele>403.89</ele>
        <time>2018-08-26T09:33:26Z</time>
      </trkpt>
      <trkpt lat="47.31755" lon="6.02474">
        <ele>403.89</ele>
        <time>2018-08-26T09:33:27Z</time>
      </trkpt>
      <trkpt lat="47.31755" lon="6.02477">
        <ele>404.37</ele>
        <time>2018-08-26T09:33:28Z</time>
      </trkpt>
      <trkpt lat="47.31755" lon="6.0248">
        <ele>404.37</ele>
        <time>2018-08-26T09:33:29Z</time>
      </trkpt>
      <trkpt lat="47.31754" lon="6.02483">
        <ele>404.37</ele>
        <time>2018-08-26T09:33:30Z</time>
      </trkpt>
      <trkpt lat="47.31754" lon="6.02486">
        <ele>404.85</ele>
        <time>2018-08-26T09:33:31Z</time>
      </trkpt>
      <trkpt lat="47.31754" lon="6.02489">
        <ele>404.85</ele>
        <time>2018-08-26T09:33:32Z</time>
      </trkpt>
      <trkpt lat="47.31754" lon="6.02492">
        <ele>405.33</ele>
        <time>2018-08-26T09:33:33Z</time>
      </trkpt>
      <trkpt lat="47.31748" lon="6.02524">
        <ele>408.22</ele>
        <time>2018-08-26T09:33:46Z</time>
      </trkpt>
      <trkpt lat="47.31748" lon="6.02526">
        <ele>408.22</ele>
        <time>2018-08-26T09:33:47Z</time>
      </trkpt>
      <trkpt lat="47.31748" lon="6.0253">
        <ele>408.7</ele>
        <time>2018-08-26T09:33:48Z</time>
      </trkpt>
      <trkpt lat="47.31747" lon="6.02533">
        <ele>408.7</ele>
        <time>2018-08-26T09:33:49Z</time>
      </trkpt>
      <trkpt lat="47.31747" lon="6.02535">
        <ele>409.18</ele>
        <time>2018-08-26T09:33:50Z</time>
      </trkpt>
      <trkpt lat="47.31747" lon="6.02538">
        <ele>409.18</ele>
        <time>2018-08-26T09:33:51Z</time>
      </trkpt>
      <trkpt lat="47.31746" lon="6.02548">
        <ele>409.66</ele>
        <time>2018-08-26T09:33:55Z</time>
      </trkpt>
      <trkpt lat="47.31746" lon="6.02551">
        <ele>410.14</ele>
        <time>2018-08-26T09:33:56Z</time>
      </trkpt>
      <trkpt lat="47.31747" lon="6.02581">
        <ele>412.54</ele>
        <time>2018-08-26T09:34:08Z</time>
      </trkpt>
      <trkpt lat="47.31747" lon="6.02583">
        <ele>413.02</ele>
        <time>2018-08-26T09:34:09Z</time>
      </trkpt>
      <trkpt lat="47.31745" lon="6.02587">
        <ele>413.5</ele>
        <time>2018-08-26T09:34:11Z</time>
      </trkpt>
      <trkpt lat="47.31744" lon="6.02589">
        <ele>413.98</ele>
        <time>2018-08-26T09:34:12Z</time>
      </trkpt>
      <trkpt lat="47.31743" lon="6.02591">
        <ele>412.06</ele>
        <time>2018-08-26T09:34:13Z</time>
      </trkpt>
      <trkpt lat="47.31742" lon="6.02593">
        <ele>415.43</ele>
        <time>2018-08-26T09:34:14Z</time>
      </trkpt>
      <trkpt lat="47.31741" lon="6.02595">
        <ele>414.47</ele>
        <time>2018-08-26T09:34:15Z</time>
      </trkpt>
      <trkpt lat="47.31741" lon="6.02597">
        <ele>414.95</ele>
        <time>2018-08-26T09:34:16Z</time>
      </trkpt>
      <trkpt lat="47.31741" lon="6.02599">
        <ele>414.95</ele>
        <time>2018-08-26T09:34:17Z</time>
      </trkpt>
      <trkpt lat="47.3174" lon="6.02601">
        <ele>415.43</ele>
        <time>2018-08-26T09:34:18Z</time>
      </trkpt>
      <trkpt lat="47.3174" lon="6.02604">
        <ele>415.43</ele>
        <time>2018-08-26T09:34:19Z</time>
      </trkpt>
      <trkpt lat="47.31738" lon="6.02611">
        <ele>416.39</ele>
        <time>2018-08-26T09:34:23Z</time>
      </trkpt>
      <trkpt lat="47.31735" lon="6.02616">
        <ele>417.35</ele>
        <time>2018-08-26T09:34:27Z</time>
      </trkpt>
      <trkpt lat="47.31734" lon="6.02618">
        <ele>417.35</ele>
        <time>2018-08-26T09:34:28Z</time>
      </trkpt>
      <trkpt lat="47.31728" lon="6.02632">
        <ele>419.75</ele>
        <time>2018-08-26T09:34:36Z</time>
      </trkpt>
      <trkpt lat="47.31727" lon="6.02633">
        <ele>420.23</ele>
        <time>2018-08-26T09:34:37Z</time>
      </trkpt>
      <trkpt lat="47.31725" lon="6.02635">
        <ele>420.23</ele>
        <time>2018-08-26T09:34:38Z</time>
      </trkpt>
      <trkpt lat="47.31724" lon="6.02637">
        <ele>420.23</ele>
        <time>2018-08-26T09:34:39Z</time>
      </trkpt>
      <trkpt lat="47.31723" lon="6.02639">
        <ele>420.71</ele>
        <time>2018-08-26T09:34:40Z</time>
      </trkpt>
      <trkpt lat="47.31719" lon="6.02649">
        <ele>422.16</ele>
        <time>2018-08-26T09:34:46Z</time>
      </trkpt>
      <trkpt lat="47.31716" lon="6.02652">
        <ele>422.64</ele>
        <time>2018-08-26T09:34:49Z</time>
      </trkpt>
      <trkpt lat="47.31703" lon="6.02674">
        <ele>424.56</ele>
        <time>2018-08-26T09:35:00Z</time>
      </trkpt>
      <trkpt lat="47.317" lon="6.02679">
        <ele>425.04</ele>
        <time>2018-08-26T09:35:04Z</time>
      </trkpt>
      <trkpt lat="47.31699" lon="6.02681">
        <ele>425.04</ele>
        <time>2018-08-26T09:35:05Z</time>
      </trkpt>
      <trkpt lat="47.31697" lon="6.02684">
        <ele>424.56</ele>
        <time>2018-08-26T09:35:06Z</time>
      </trkpt>
      <trkpt lat="47.31694" lon="6.02687">
        <ele>424.56</ele>
        <time>2018-08-26T09:35:07Z</time>
      </trkpt>
      <trkpt lat="47.31691" lon="6.02691">
        <ele>424.08</ele>
        <time>2018-08-26T09:35:08Z</time>
      </trkpt>
      <trkpt lat="47.31679" lon="6.02715">
        <ele>424.08</ele>
        <time>2018-08-26T09:35:15Z</time>
      </trkpt>
      <trkpt lat="47.31678" lon="6.02718">
        <ele>424.56</ele>
        <time>2018-08-26T09:35:16Z</time>
      </trkpt>
      <trkpt lat="47.31677" lon="6.0272">
        <ele>424.56</ele>
        <time>2018-08-26T09:35:17Z</time>
      </trkpt>
      <trkpt lat="47.31676" lon="6.02723">
        <ele>424.56</ele>
        <time>2018-08-26T09:35:18Z</time>
      </trkpt>
      <trkpt lat="47.31675" lon="6.02726">
        <ele>425.04</ele>
        <time>2018-08-26T09:35:19Z</time>
      </trkpt>
      <trkpt lat="47.31669" lon="6.02745">
        <ele>426.48</ele>
        <time>2018-08-26T09:35:26Z</time>
      </trkpt>
      <trkpt lat="47.31661" lon="6.02762">
        <ele>428.4</ele>
        <time>2018-08-26T09:35:34Z</time>
      </trkpt>
      <trkpt lat="47.31659" lon="6.02764">
        <ele>428.4</ele>
        <time>2018-08-26T09:35:35Z</time>
      </trkpt>
      <trkpt lat="47.31655" lon="6.02776">
        <ele>426.96</ele>
        <time>2018-08-26T09:35:40Z</time>
      </trkpt>
      <trkpt lat="47.31653" lon="6.02777">
        <ele>430.81</ele>
        <time>2018-08-26T09:35:41Z</time>
      </trkpt>
      <trkpt lat="47.31652" lon="6.02779">
        <ele>430.33</ele>
        <time>2018-08-26T09:35:42Z</time>
      </trkpt>
      <trkpt lat="47.31649" lon="6.02784">
        <ele>429.37</ele>
        <time>2018-08-26T09:35:44Z</time>
      </trkpt>
      <trkpt lat="47.31632" lon="6.02812">
        <ele>430.81</ele>
        <time>2018-08-26T09:35:56Z</time>
      </trkpt>
      <trkpt lat="47.31613" lon="6.02835">
        <ele>432.25</ele>
        <time>2018-08-26T09:36:08Z</time>
      </trkpt>
      <trkpt lat="47.31588" lon="6.02864">
        <ele>435.13</ele>
        <time>2018-08-26T09:36:21Z</time>
      </trkpt>
      <trkpt lat="47.31563" lon="6.02882">
        <ele>438.02</ele>
        <time>2018-08-26T09:36:33Z</time>
      </trkpt>
      <trkpt lat="47.31541" lon="6.02896">
        <ele>441.38</ele>
        <time>2018-08-26T09:36:46Z</time>
      </trkpt>
      <trkpt lat="47.31528" lon="6.029">
        <ele>443.31</ele>
        <time>2018-08-26T09:36:55Z</time>
      </trkpt>
      <trkpt lat="47.31526" lon="6.02901">
        <ele>443.31</ele>
        <time>2018-08-26T09:36:56Z</time>
      </trkpt>
      <trkpt lat="47.31525" lon="6.02902">
        <ele>443.79</ele>
        <time>2018-08-26T09:36:57Z</time>
      </trkpt>
      <trkpt lat="47.31523" lon="6.02903">
        <ele>443.79</ele>
        <time>2018-08-26T09:36:58Z</time>
      </trkpt>
      <trkpt lat="47.31521" lon="6.02903">
        <ele>443.79</ele>
        <time>2018-08-26T09:36:59Z</time>
      </trkpt>
      <trkpt lat="47.31516" lon="6.02904">
        <ele>444.27</ele>
        <time>2018-08-26T09:37:02Z</time>
      </trkpt>
      <trkpt lat="47.31502" lon="6.02895">
        <ele>441.38</ele>
        <time>2018-08-26T09:37:10Z</time>
      </trkpt>
      <trkpt lat="47.315" lon="6.02894">
        <ele>450.03</ele>
        <time>2018-08-26T09:37:11Z</time>
      </trkpt>
      <trkpt lat="47.31499" lon="6.02892">
        <ele>445.71</ele>
        <time>2018-08-26T09:37:12Z</time>
      </trkpt>
      <trkpt lat="47.31481" lon="6.02867">
        <ele>447.15</ele>
        <time>2018-08-26T09:37:24Z</time>
      </trkpt>
      <trkpt lat="47.31472" lon="6.02848">
        <ele>447.63</ele>
        <time>2018-08-26T09:37:30Z</time>
      </trkpt>
      <trkpt lat="47.3147" lon="6.02847">
        <ele>448.11</ele>
        <time>2018-08-26T09:37:31Z</time>
      </trkpt>
      <trkpt lat="47.31469" lon="6.02845">
        <ele>448.11</ele>
        <time>2018-08-26T09:37:32Z</time>
      </trkpt>
      <trkpt lat="47.31468" lon="6.02844">
        <ele>448.59</ele>
        <time>2018-08-26T09:37:33Z</time>
      </trkpt>
      <trkpt lat="47.31465" lon="6.02842">
        <ele>448.59</ele>
        <time>2018-08-26T09:37:34Z</time>
      </trkpt>
      <trkpt lat="47.31463" lon="6.0284">
        <ele>448.59</ele>
        <time>2018-08-26T09:37:35Z</time>
      </trkpt>
      <trkpt lat="47.31461" lon="6.02839">
        <ele>449.07</ele>
        <time>2018-08-26T09:37:36Z</time>
      </trkpt>
      <trkpt lat="47.3146" lon="6.02837">
        <ele>449.07</ele>
        <time>2018-08-26T09:37:37Z</time>
      </trkpt>
      <trkpt lat="47.31458" lon="6.02835">
        <ele>449.07</ele>
        <time>2018-08-26T09:37:38Z</time>
      </trkpt>
      <trkpt lat="47.31456" lon="6.02834">
        <ele>449.55</ele>
        <time>2018-08-26T09:37:39Z</time>
      </trkpt>
      <trkpt lat="47.31455" lon="6.02832">
        <ele>450.03</ele>
        <time>2018-08-26T09:37:40Z</time>
      </trkpt>
      <trkpt lat="47.31453" lon="6.0283">
        <ele>450.03</ele>
        <time>2018-08-26T09:37:41Z</time>
      </trkpt>
      <trkpt lat="47.31451" lon="6.02829">
        <ele>450.03</ele>
        <time>2018-08-26T09:37:42Z</time>
      </trkpt>
      <trkpt lat="47.31429" lon="6.02813">
        <ele>451.96</ele>
        <time>2018-08-26T09:37:53Z</time>
      </trkpt>
      <trkpt lat="47.31407" lon="6.0279">
        <ele>454.36</ele>
        <time>2018-08-26T09:38:04Z</time>
      </trkpt>
      <trkpt lat="47.31386" lon="6.02765">
        <ele>457.72</ele>
        <time>2018-08-26T09:38:16Z</time>
      </trkpt>
      <trkpt lat="47.31366" lon="6.02755">
        <ele>461.09</ele>
        <time>2018-08-26T09:38:26Z</time>
      </trkpt>
      <trkpt lat="47.31365" lon="6.02755">
        <ele>461.09</ele>
        <time>2018-08-26T09:38:27Z</time>
      </trkpt>
      <trkpt lat="47.31363" lon="6.02754">
        <ele>461.09</ele>
        <time>2018-08-26T09:38:28Z</time>
      </trkpt>
      <trkpt lat="47.3136" lon="6.02752">
        <ele>461.57</ele>
        <time>2018-08-26T09:38:29Z</time>
      </trkpt>
      <trkpt lat="47.31358" lon="6.02751">
        <ele>461.57</ele>
        <time>2018-08-26T09:38:30Z</time>
      </trkpt>
      <trkpt lat="47.31355" lon="6.0275">
        <ele>459.65</ele>
        <time>2018-08-26T09:38:31Z</time>
      </trkpt>
      <trkpt lat="47.31351" lon="6.02747">
        <ele>466.38</ele>
        <time>2018-08-26T09:38:33Z</time>
      </trkpt>
      <trkpt lat="47.31349" lon="6.02746">
        <ele>462.53</ele>
        <time>2018-08-26T09:38:34Z</time>
      </trkpt>
      <trkpt lat="47.31323" lon="6.02725">
        <ele>464.45</ele>
        <time>2018-08-26T09:38:46Z</time>
      </trkpt>
      <trkpt lat="47.31294" lon="6.02705">
        <ele>465.42</ele>
        <time>2018-08-26T09:38:58Z</time>
      </trkpt>
      <trkpt lat="47.31287" lon="6.02703">
        <ele>465.9</ele>
        <time>2018-08-26T09:39:01Z</time>
      </trkpt>
      <trkpt lat="47.31283" lon="6.02703">
        <ele>465.9</ele>
        <time>2018-08-26T09:39:02Z</time>
      </trkpt>
      <trkpt lat="47.31246" lon="6.02727">
        <ele>466.38</ele>
        <time>2018-08-26T09:39:14Z</time>
      </trkpt>
      <trkpt lat="47.31226" lon="6.02732">
        <ele>464.45</ele>
        <time>2018-08-26T09:39:19Z</time>
      </trkpt>
      <trkpt lat="47.31222" lon="6.02731">
        <ele>464.45</ele>
        <time>2018-08-26T09:39:20Z</time>
      </trkpt>
      <trkpt lat="47.31212" lon="6.02729">
        <ele>463.97</ele>
        <time>2018-08-26T09:39:22Z</time>
      </trkpt>
      <trkpt lat="47.31207" lon="6.02726">
        <ele>463.49</ele>
        <time>2018-08-26T09:39:23Z</time>
      </trkpt>
      <trkpt lat="47.31202" lon="6.02723">
        <ele>463.01</ele>
        <time>2018-08-26T09:39:24Z</time>
      </trkpt>
      <trkpt lat="47.31198" lon="6.0272">
        <ele>463.01</ele>
        <time>2018-08-26T09:39:25Z</time>
      </trkpt>
      <trkpt lat="47.31195" lon="6.02716">
        <ele>463.01</ele>
        <time>2018-08-26T09:39:26Z</time>
      </trkpt>
      <trkpt lat="47.31193" lon="6.02711">
        <ele>462.53</ele>
        <time>2018-08-26T09:39:27Z</time>
      </trkpt>
      <trkpt lat="47.31193" lon="6.02705">
        <ele>462.05</ele>
        <time>2018-08-26T09:39:28Z</time>
      </trkpt>
      <trkpt lat="47.31195" lon="6.02701">
        <ele>462.05</ele>
        <time>2018-08-26T09:39:29Z</time>
      </trkpt>
      <trkpt lat="47.31196" lon="6.02697">
        <ele>462.05</ele>
        <time>2018-08-26T09:39:30Z</time>
      </trkpt>
      <trkpt lat="47.31197" lon="6.02694">
        <ele>462.53</ele>
        <time>2018-08-26T09:39:31Z</time>
      </trkpt>
      <trkpt lat="47.31198" lon="6.0269">
        <ele>462.53</ele>
        <time>2018-08-26T09:39:32Z</time>
      </trkpt>
      <trkpt lat="47.312" lon="6.02688">
        <ele>462.53</ele>
        <time>2018-08-26T09:39:33Z</time>
      </trkpt>
      <trkpt lat="47.31202" lon="6.02686">
        <ele>463.01</ele>
        <time>2018-08-26T09:39:34Z</time>
      </trkpt>
      <trkpt lat="47.31205" lon="6.02683">
        <ele>463.49</ele>
        <time>2018-08-26T09:39:35Z</time>
      </trkpt>
      <trkpt lat="47.31207" lon="6.02681">
        <ele>463.49</ele>
        <time>2018-08-26T09:39:36Z</time>
      </trkpt>
      <trkpt lat="47.31214" lon="6.02674">
        <ele>463.97</ele>
        <time>2018-08-26T09:39:39Z</time>
      </trkpt>
      <trkpt lat="47.31227" lon="6.02622">
        <ele>465.9</ele>
        <time>2018-08-26T09:39:52Z</time>
      </trkpt>
      <trkpt lat="47.31228" lon="6.02615">
        <ele>465.9</ele>
        <time>2018-08-26T09:39:54Z</time>
      </trkpt>
      <trkpt lat="47.31228" lon="6.02612">
        <ele>465.9</ele>
        <time>2018-08-26T09:39:55Z</time>
      </trkpt>
      <trkpt lat="47.31227" lon="6.02609">
        <ele>465.9</ele>
        <time>2018-08-26T09:39:56Z</time>
      </trkpt>
      <trkpt lat="47.31225" lon="6.02607">
        <ele>466.38</ele>
        <time>2018-08-26T09:39:57Z</time>
      </trkpt>
      <trkpt lat="47.31223" lon="6.02605">
        <ele>466.38</ele>
        <time>2018-08-26T09:39:58Z</time>
      </trkpt>
      <trkpt lat="47.31221" lon="6.02606">
        <ele>466.38</ele>
        <time>2018-08-26T09:39:59Z</time>
      </trkpt>
      <trkpt lat="47.31192" lon="6.0262">
        <ele>463.97</ele>
        <time>2018-08-26T09:40:10Z</time>
      </trkpt>
      <trkpt lat="47.31184" lon="6.02627">
        <ele>462.53</ele>
        <time>2018-08-26T09:40:12Z</time>
      </trkpt>
      <trkpt lat="47.3117" lon="6.02635">
        <ele>461.57</ele>
        <time>2018-08-26T09:40:15Z</time>
      </trkpt>
      <trkpt lat="47.31165" lon="6.02638">
        <ele>461.09</ele>
        <time>2018-08-26T09:40:16Z</time>
      </trkpt>
      <trkpt lat="47.3116" lon="6.02641">
        <ele>460.13</ele>
        <time>2018-08-26T09:40:18Z</time>
      </trkpt>
      <trkpt lat="47.31158" lon="6.02642">
        <ele>459.65</ele>
        <time>2018-08-26T09:40:21Z</time>
      </trkpt>
      <trkpt lat="47.3115" lon="6.0261">
        <ele>459.65</ele>
        <time>2018-08-26T09:40:29Z</time>
      </trkpt>
      <trkpt lat="47.31144" lon="6.02589">
        <ele>459.65</ele>
        <time>2018-08-26T09:40:33Z</time>
      </trkpt>
      <trkpt lat="47.31127" lon="6.0255">
        <ele>459.65</ele>
        <time>2018-08-26T09:40:42Z</time>
      </trkpt>
      <trkpt lat="47.31108" lon="6.02517">
        <ele>459.17</ele>
        <time>2018-08-26T09:40:50Z</time>
      </trkpt>
      <trkpt lat="47.31096" lon="6.02498">
        <ele>452.92</ele>
        <time>2018-08-26T09:40:56Z</time>
      </trkpt>
      <trkpt lat="47.31093" lon="6.02498">
        <ele>464.93</ele>
        <time>2018-08-26T09:40:57Z</time>
      </trkpt>
      <trkpt lat="47.31074" lon="6.02488">
        <ele>456.28</ele>
        <time>2018-08-26T09:41:02Z</time>
      </trkpt>
      <trkpt lat="47.3106" lon="6.02469">
        <ele>455.32</ele>
        <time>2018-08-26T09:41:06Z</time>
      </trkpt>
      <trkpt lat="47.31053" lon="6.02459">
        <ele>456.28</ele>
        <time>2018-08-26T09:41:08Z</time>
      </trkpt>
      <trkpt lat="47.31049" lon="6.02453">
        <ele>455.8</ele>
        <time>2018-08-26T09:41:09Z</time>
      </trkpt>
      <trkpt lat="47.31041" lon="6.02443">
        <ele>454.84</ele>
        <time>2018-08-26T09:41:11Z</time>
      </trkpt>
      <trkpt lat="47.3103" lon="6.02424">
        <ele>454.84</ele>
        <time>2018-08-26T09:41:16Z</time>
      </trkpt>
      <trkpt lat="47.31039" lon="6.02408">
        <ele>456.76</ele>
        <time>2018-08-26T09:41:25Z</time>
      </trkpt>
      <trkpt lat="47.3105" lon="6.02392">
        <ele>458.69</ele>
        <time>2018-08-26T09:41:35Z</time>
      </trkpt>
      <trkpt lat="47.31054" lon="6.02387">
        <ele>459.65</ele>
        <time>2018-08-26T09:41:38Z</time>
      </trkpt>
      <trkpt lat="47.3107" lon="6.02369">
        <ele>461.57</ele>
        <time>2018-08-26T09:41:49Z</time>
      </trkpt>
      <trkpt lat="47.31085" lon="6.02351">
        <ele>463.97</ele>
        <time>2018-08-26T09:41:59Z</time>
      </trkpt>
      <trkpt lat="47.31088" lon="6.02347">
        <ele>464.45</ele>
        <time>2018-08-26T09:42:01Z</time>
      </trkpt>
      <trkpt lat="47.31101" lon="6.02336">
        <ele>465.9</ele>
        <time>2018-08-26T09:42:10Z</time>
      </trkpt>
      <trkpt lat="47.31113" lon="6.0232">
        <ele>467.82</ele>
        <time>2018-08-26T09:42:20Z</time>
      </trkpt>
      <trkpt lat="47.31119" lon="6.02313">
        <ele>468.3</ele>
        <time>2018-08-26T09:42:24Z</time>
      </trkpt>
      <trkpt lat="47.31132" lon="6.02299">
        <ele>469.74</ele>
        <time>2018-08-26T09:42:33Z</time>
      </trkpt>
      <trkpt lat="47.31142" lon="6.02285">
        <ele>470.22</ele>
        <time>2018-08-26T09:42:40Z</time>
      </trkpt>
      <trkpt lat="47.31149" lon="6.02278">
        <ele>470.7</ele>
        <time>2018-08-26T09:42:44Z</time>
      </trkpt>
      <trkpt lat="47.31168" lon="6.02256">
        <ele>472.14</ele>
        <time>2018-08-26T09:42:56Z</time>
      </trkpt>
      <trkpt lat="47.31179" lon="6.02246">
        <ele>472.63</ele>
        <time>2018-08-26T09:43:02Z</time>
      </trkpt>
      <trkpt lat="47.31209" lon="6.02237">
        <ele>473.59</ele>
        <time>2018-08-26T09:43:17Z</time>
      </trkpt>
      <trkpt lat="47.31217" lon="6.02234">
        <ele>474.07</ele>
        <time>2018-08-26T09:43:21Z</time>
      </trkpt>
      <trkpt lat="47.31231" lon="6.02262">
        <ele>474.55</ele>
        <time>2018-08-26T09:43:33Z</time>
      </trkpt>
      <trkpt lat="47.31249" lon="6.02306">
        <ele>474.55</ele>
        <time>2018-08-26T09:43:48Z</time>
      </trkpt>
      <trkpt lat="47.31257" lon="6.02325">
        <ele>474.55</ele>
        <time>2018-08-26T09:44:01Z</time>
      </trkpt>
      <trkpt lat="47.31257" lon="6.02325">
        <ele>474.55</ele>
        <time>2018-08-26T09:44:16Z</time>
      </trkpt>
      <trkpt lat="47.31257" lon="6.02324">
        <ele>474.55</ele>
        <time>2018-08-26T09:44:22Z</time>
      </trkpt>
      <trkpt lat="47.3126" lon="6.02324">
        <ele>474.55</ele>
        <time>2018-08-26T09:44:25Z</time>
      </trkpt>
      <trkpt lat="47.31269" lon="6.02301">
        <ele>475.51</ele>
        <time>2018-08-26T09:44:35Z</time>
      </trkpt>
      <trkpt lat="47.31276" lon="6.02272">
        <ele>476.47</ele>
        <time>2018-08-26T09:44:43Z</time>
      </trkpt>
      <trkpt lat="47.31277" lon="6.02265">
        <ele>476.47</ele>
        <time>2018-08-26T09:44:45Z</time>
      </trkpt>
      <trkpt lat="47.3128" lon="6.02246">
        <ele>476.95</ele>
        <time>2018-08-26T09:44:50Z</time>
      </trkpt>
      <trkpt lat="47.31274" lon="6.02167">
        <ele>475.51</ele>
        <time>2018-08-26T09:45:04Z</time>
      </trkpt>
      <trkpt lat="47.31273" lon="6.0216">
        <ele>475.51</ele>
        <time>2018-08-26T09:45:05Z</time>
      </trkpt>
      <trkpt lat="47.31272" lon="6.02152">
        <ele>475.03</ele>
        <time>2018-08-26T09:45:06Z</time>
      </trkpt>
      <trkpt lat="47.31271" lon="6.02138">
        <ele>474.07</ele>
        <time>2018-08-26T09:45:08Z</time>
      </trkpt>
      <trkpt lat="47.3127" lon="6.02131">
        <ele>473.59</ele>
        <time>2018-08-26T09:45:09Z</time>
      </trkpt>
      <trkpt lat="47.31269" lon="6.02125">
        <ele>473.11</ele>
        <time>2018-08-26T09:45:10Z</time>
      </trkpt>
      <trkpt lat="47.31267" lon="6.021">
        <ele>472.14</ele>
        <time>2018-08-26T09:45:13Z</time>
      </trkpt>
      <trkpt lat="47.31266" lon="6.02092">
        <ele>471.66</ele>
        <time>2018-08-26T09:45:14Z</time>
      </trkpt>
      <trkpt lat="47.31265" lon="6.02085">
        <ele>471.18</ele>
        <time>2018-08-26T09:45:15Z</time>
      </trkpt>
      <trkpt lat="47.31264" lon="6.02078">
        <ele>470.7</ele>
        <time>2018-08-26T09:45:16Z</time>
      </trkpt>
      <trkpt lat="47.31262" lon="6.02071">
        <ele>470.22</ele>
        <time>2018-08-26T09:45:17Z</time>
      </trkpt>
      <trkpt lat="47.31258" lon="6.02062">
        <ele>469.74</ele>
        <time>2018-08-26T09:45:18Z</time>
      </trkpt>
      <trkpt lat="47.31241" lon="6.02023">
        <ele>466.86</ele>
        <time>2018-08-26T09:45:22Z</time>
      </trkpt>
      <trkpt lat="47.31236" lon="6.02015">
        <ele>466.86</ele>
        <time>2018-08-26T09:45:23Z</time>
      </trkpt>
      <trkpt lat="47.31208" lon="6.01972">
        <ele>463.49</ele>
        <time>2018-08-26T09:45:28Z</time>
      </trkpt>
      <trkpt lat="47.31192" lon="6.01946">
        <ele>461.09</ele>
        <time>2018-08-26T09:45:31Z</time>
      </trkpt>
      <trkpt lat="47.31187" lon="6.01935">
        <ele>460.13</ele>
        <time>2018-08-26T09:45:32Z</time>
      </trkpt>
      <trkpt lat="47.31161" lon="6.0188">
        <ele>456.76</ele>
        <time>2018-08-26T09:45:37Z</time>
      </trkpt>
      <trkpt lat="47.31128" lon="6.01817">
        <ele>454.36</ele>
        <time>2018-08-26T09:45:43Z</time>
      </trkpt>
      <trkpt lat="47.31123" lon="6.01809">
        <ele>453.88</ele>
        <time>2018-08-26T09:45:44Z</time>
      </trkpt>
      <trkpt lat="47.31118" lon="6.01803">
        <ele>453.88</ele>
        <time>2018-08-26T09:45:45Z</time>
      </trkpt>
      <trkpt lat="47.31113" lon="6.01799">
        <ele>453.4</ele>
        <time>2018-08-26T09:45:46Z</time>
      </trkpt>
      <trkpt lat="47.31109" lon="6.01796">
        <ele>453.4</ele>
        <time>2018-08-26T09:45:47Z</time>
      </trkpt>
      <trkpt lat="47.31105" lon="6.01794">
        <ele>451</ele>
        <time>2018-08-26T09:45:48Z</time>
      </trkpt>
      <trkpt lat="47.31101" lon="6.01793">
        <ele>451.48</ele>
        <time>2018-08-26T09:45:49Z</time>
      </trkpt>
      <trkpt lat="47.31096" lon="6.01792">
        <ele>453.4</ele>
        <time>2018-08-26T09:45:50Z</time>
      </trkpt>
      <trkpt lat="47.31057" lon="6.01782">
        <ele>450.03</ele>
        <time>2018-08-26T09:45:57Z</time>
      </trkpt>
      <trkpt lat="47.3105" lon="6.0178">
        <ele>450.03</ele>
        <time>2018-08-26T09:45:58Z</time>
      </trkpt>
      <trkpt lat="47.31044" lon="6.01777">
        <ele>450.03</ele>
        <time>2018-08-26T09:45:59Z</time>
      </trkpt>
      <trkpt lat="47.31039" lon="6.01776">
        <ele>449.55</ele>
        <time>2018-08-26T09:46:00Z</time>
      </trkpt>
      <trkpt lat="47.31005" lon="6.01768">
        <ele>449.55</ele>
        <time>2018-08-26T09:46:06Z</time>
      </trkpt>
      <trkpt lat="47.31" lon="6.01767">
        <ele>449.55</ele>
        <time>2018-08-26T09:46:07Z</time>
      </trkpt>
      <trkpt lat="47.30995" lon="6.01766">
        <ele>449.55</ele>
        <time>2018-08-26T09:46:08Z</time>
      </trkpt>
      <trkpt lat="47.30989" lon="6.01766">
        <ele>449.55</ele>
        <time>2018-08-26T09:46:09Z</time>
      </trkpt>
      <trkpt lat="47.30985" lon="6.01767">
        <ele>450.03</ele>
        <time>2018-08-26T09:46:10Z</time>
      </trkpt>
      <trkpt lat="47.3098" lon="6.01768">
        <ele>450.03</ele>
        <time>2018-08-26T09:46:11Z</time>
      </trkpt>
      <trkpt lat="47.3097" lon="6.0177">
        <ele>450.52</ele>
        <time>2018-08-26T09:46:13Z</time>
      </trkpt>
      <trkpt lat="47.30966" lon="6.01773">
        <ele>451</ele>
        <time>2018-08-26T09:46:14Z</time>
      </trkpt>
      <trkpt lat="47.30961" lon="6.01775">
        <ele>451</ele>
        <time>2018-08-26T09:46:15Z</time>
      </trkpt>
      <trkpt lat="47.30957" lon="6.01778">
        <ele>451</ele>
        <time>2018-08-26T09:46:16Z</time>
      </trkpt>
      <trkpt lat="47.30953" lon="6.01781">
        <ele>451.48</ele>
        <time>2018-08-26T09:46:17Z</time>
      </trkpt>
      <trkpt lat="47.30949" lon="6.01783">
        <ele>451.48</ele>
        <time>2018-08-26T09:46:18Z</time>
      </trkpt>
      <trkpt lat="47.30944" lon="6.01785">
        <ele>451.96</ele>
        <time>2018-08-26T09:46:19Z</time>
      </trkpt>
      <trkpt lat="47.30939" lon="6.01785">
        <ele>451.96</ele>
        <time>2018-08-26T09:46:20Z</time>
      </trkpt>
      <trkpt lat="47.30935" lon="6.01784">
        <ele>451.96</ele>
        <time>2018-08-26T09:46:21Z</time>
      </trkpt>
      <trkpt lat="47.30931" lon="6.01781">
        <ele>452.44</ele>
        <time>2018-08-26T09:46:22Z</time>
      </trkpt>
      <trkpt lat="47.30927" lon="6.01778">
        <ele>452.44</ele>
        <time>2018-08-26T09:46:23Z</time>
      </trkpt>
      <trkpt lat="47.30923" lon="6.01775">
        <ele>452.44</ele>
        <time>2018-08-26T09:46:24Z</time>
      </trkpt>
      <trkpt lat="47.30919" lon="6.01771">
        <ele>452.44</ele>
        <time>2018-08-26T09:46:25Z</time>
      </trkpt>
      <trkpt lat="47.30916" lon="6.01767">
        <ele>452.44</ele>
        <time>2018-08-26T09:46:26Z</time>
      </trkpt>
      <trkpt lat="47.30912" lon="6.01764">
        <ele>452.92</ele>
        <time>2018-08-26T09:46:27Z</time>
      </trkpt>
      <trkpt lat="47.30909" lon="6.01762">
        <ele>452.92</ele>
        <time>2018-08-26T09:46:28Z</time>
      </trkpt>
      <trkpt lat="47.30906" lon="6.01759">
        <ele>452.92</ele>
        <time>2018-08-26T09:46:29Z</time>
      </trkpt>
      <trkpt lat="47.30903" lon="6.01757">
        <ele>452.92</ele>
        <time>2018-08-26T09:46:30Z</time>
      </trkpt>
      <trkpt lat="47.30899" lon="6.01754">
        <ele>453.4</ele>
        <time>2018-08-26T09:46:31Z</time>
      </trkpt>
      <trkpt lat="47.30895" lon="6.01752">
        <ele>453.88</ele>
        <time>2018-08-26T09:46:32Z</time>
      </trkpt>
      <trkpt lat="47.30873" lon="6.01736">
        <ele>453.88</ele>
        <time>2018-08-26T09:46:38Z</time>
      </trkpt>
      <trkpt lat="47.30869" lon="6.01733">
        <ele>453.88</ele>
        <time>2018-08-26T09:46:39Z</time>
      </trkpt>
      <trkpt lat="47.30821" lon="6.01698">
        <ele>452.44</ele>
        <time>2018-08-26T09:46:50Z</time>
      </trkpt>
      <trkpt lat="47.30817" lon="6.01694">
        <ele>451.96</ele>
        <time>2018-08-26T09:46:51Z</time>
      </trkpt>
      <trkpt lat="47.30812" lon="6.0169">
        <ele>451.96</ele>
        <time>2018-08-26T09:46:52Z</time>
      </trkpt>
      <trkpt lat="47.30784" lon="6.01669">
        <ele>450.03</ele>
        <time>2018-08-26T09:46:57Z</time>
      </trkpt>
      <trkpt lat="47.30779" lon="6.01666">
        <ele>450.03</ele>
        <time>2018-08-26T09:46:58Z</time>
      </trkpt>
      <trkpt lat="47.30762" lon="6.01651">
        <ele>448.11</ele>
        <time>2018-08-26T09:47:01Z</time>
      </trkpt>
      <trkpt lat="47.30722" lon="6.0162">
        <ele>445.71</ele>
        <time>2018-08-26T09:47:07Z</time>
      </trkpt>
      <trkpt lat="47.307" lon="6.01589">
        <ele>444.75</ele>
        <time>2018-08-26T09:47:14Z</time>
      </trkpt>
      <trkpt lat="47.30698" lon="6.01555">
        <ele>437.06</ele>
        <time>2018-08-26T09:47:21Z</time>
      </trkpt>
      <trkpt lat="47.30698" lon="6.0155">
        <ele>451</ele>
        <time>2018-08-26T09:47:22Z</time>
      </trkpt>
      <trkpt lat="47.30698" lon="6.01545">
        <ele>448.59</ele>
        <time>2018-08-26T09:47:23Z</time>
      </trkpt>
      <trkpt lat="47.30699" lon="6.01535">
        <ele>447.15</ele>
        <time>2018-08-26T09:47:25Z</time>
      </trkpt>
      <trkpt lat="47.30705" lon="6.01462">
        <ele>448.59</ele>
        <time>2018-08-26T09:47:39Z</time>
      </trkpt>
      <trkpt lat="47.30705" lon="6.01426">
        <ele>447.63</ele>
        <time>2018-08-26T09:47:44Z</time>
      </trkpt>
      <trkpt lat="47.30704" lon="6.01418">
        <ele>447.15</ele>
        <time>2018-08-26T09:47:45Z</time>
      </trkpt>
      <trkpt lat="47.30703" lon="6.01409">
        <ele>441.86</ele>
        <time>2018-08-26T09:47:46Z</time>
      </trkpt>
      <trkpt lat="47.30702" lon="6.01401">
        <ele>450.03</ele>
        <time>2018-08-26T09:47:47Z</time>
      </trkpt>
      <trkpt lat="47.30701" lon="6.01392">
        <ele>446.67</ele>
        <time>2018-08-26T09:47:48Z</time>
      </trkpt>
      <trkpt lat="47.307" lon="6.01372">
        <ele>445.71</ele>
        <time>2018-08-26T09:47:50Z</time>
      </trkpt>
      <trkpt lat="47.30686" lon="6.01224">
        <ele>443.79</ele>
        <time>2018-08-26T09:48:05Z</time>
      </trkpt>
      <trkpt lat="47.3068" lon="6.01077">
        <ele>443.79</ele>
        <time>2018-08-26T09:48:23Z</time>
      </trkpt>
      <trkpt lat="47.30667" lon="6.00945">
        <ele>442.34</ele>
        <time>2018-08-26T09:48:38Z</time>
      </trkpt>
      <trkpt lat="47.30642" lon="6.00839">
        <ele>442.34</ele>
        <time>2018-08-26T09:48:51Z</time>
      </trkpt>
      <trkpt lat="47.30616" lon="6.00798">
        <ele>441.86</ele>
        <time>2018-08-26T09:48:58Z</time>
      </trkpt>
      <trkpt lat="47.30579" lon="6.0077">
        <ele>437.54</ele>
        <time>2018-08-26T09:49:05Z</time>
      </trkpt>
      <trkpt lat="47.30574" lon="6.00767">
        <ele>444.75</ele>
        <time>2018-08-26T09:49:06Z</time>
      </trkpt>
      <trkpt lat="47.30567" lon="6.00764">
        <ele>440.42</ele>
        <time>2018-08-26T09:49:07Z</time>
      </trkpt>
      <trkpt lat="47.30529" lon="6.0074">
        <ele>438.02</ele>
        <time>2018-08-26T09:49:13Z</time>
      </trkpt>
      <trkpt lat="47.30492" lon="6.00696">
        <ele>429.85</ele>
        <time>2018-08-26T09:49:19Z</time>
      </trkpt>
      <trkpt lat="47.30486" lon="6.00688">
        <ele>441.86</ele>
        <time>2018-08-26T09:49:20Z</time>
      </trkpt>
      <trkpt lat="47.30479" lon="6.0068">
        <ele>435.61</ele>
        <time>2018-08-26T09:49:21Z</time>
      </trkpt>
      <trkpt lat="47.3046" lon="6.00655">
        <ele>434.17</ele>
        <time>2018-08-26T09:49:24Z</time>
      </trkpt>
      <trkpt lat="47.30412" lon="6.00593">
        <ele>430.33</ele>
        <time>2018-08-26T09:49:31Z</time>
      </trkpt>
      <trkpt lat="47.30372" lon="6.00534">
        <ele>426.96</ele>
        <time>2018-08-26T09:49:37Z</time>
      </trkpt>
      <trkpt lat="47.30354" lon="6.00499">
        <ele>421.19</ele>
        <time>2018-08-26T09:49:40Z</time>
      </trkpt>
      <trkpt lat="47.30349" lon="6.00487">
        <ele>422.64</ele>
        <time>2018-08-26T09:49:41Z</time>
      </trkpt>
      <trkpt lat="47.30343" lon="6.00475">
        <ele>429.37</ele>
        <time>2018-08-26T09:49:42Z</time>
      </trkpt>
      <trkpt lat="47.30338" lon="6.00462">
        <ele>422.64</ele>
        <time>2018-08-26T09:49:43Z</time>
      </trkpt>
      <trkpt lat="47.30319" lon="6.00412">
        <ele>419.75</ele>
        <time>2018-08-26T09:49:47Z</time>
      </trkpt>
      <trkpt lat="47.30315" lon="6.004">
        <ele>418.79</ele>
        <time>2018-08-26T09:49:48Z</time>
      </trkpt>
      <trkpt lat="47.30313" lon="6.00389">
        <ele>418.31</ele>
        <time>2018-08-26T09:49:49Z</time>
      </trkpt>
      <trkpt lat="47.30312" lon="6.0038">
        <ele>417.83</ele>
        <time>2018-08-26T09:49:50Z</time>
      </trkpt>
      <trkpt lat="47.30312" lon="6.00373">
        <ele>417.83</ele>
        <time>2018-08-26T09:49:51Z</time>
      </trkpt>
      <trkpt lat="47.30313" lon="6.00367">
        <ele>417.35</ele>
        <time>2018-08-26T09:49:52Z</time>
      </trkpt>
      <trkpt lat="47.30313" lon="6.00362">
        <ele>417.35</ele>
        <time>2018-08-26T09:49:53Z</time>
      </trkpt>
      <trkpt lat="47.30312" lon="6.00357">
        <ele>417.35</ele>
        <time>2018-08-26T09:49:54Z</time>
      </trkpt>
      <trkpt lat="47.30311" lon="6.00352">
        <ele>416.87</ele>
        <time>2018-08-26T09:49:55Z</time>
      </trkpt>
      <trkpt lat="47.30306" lon="6.00341">
        <ele>416.39</ele>
        <time>2018-08-26T09:49:57Z</time>
      </trkpt>
      <trkpt lat="47.30301" lon="6.00329">
        <ele>415.91</ele>
        <time>2018-08-26T09:49:59Z</time>
      </trkpt>
      <trkpt lat="47.30299" lon="6.00323">
        <ele>415.91</ele>
        <time>2018-08-26T09:50:00Z</time>
      </trkpt>
      <trkpt lat="47.30296" lon="6.00317">
        <ele>411.58</ele>
        <time>2018-08-26T09:50:01Z</time>
      </trkpt>
      <trkpt lat="47.30293" lon="6.00311">
        <ele>419.27</ele>
        <time>2018-08-26T09:50:02Z</time>
      </trkpt>
      <trkpt lat="47.3029" lon="6.00305">
        <ele>415.43</ele>
        <time>2018-08-26T09:50:03Z</time>
      </trkpt>
      <trkpt lat="47.30231" lon="6.00225">
        <ele>413.02</ele>
        <time>2018-08-26T09:50:17Z</time>
      </trkpt>
      <trkpt lat="47.30227" lon="6.0022">
        <ele>412.54</ele>
        <time>2018-08-26T09:50:18Z</time>
      </trkpt>
      <trkpt lat="47.30218" lon="6.00213">
        <ele>413.02</ele>
        <time>2018-08-26T09:50:20Z</time>
      </trkpt>
      <trkpt lat="47.30214" lon="6.0021">
        <ele>413.02</ele>
        <time>2018-08-26T09:50:21Z</time>
      </trkpt>
      <trkpt lat="47.30205" lon="6.00205">
        <ele>413.02</ele>
        <time>2018-08-26T09:50:23Z</time>
      </trkpt>
      <trkpt lat="47.30187" lon="6.00193">
        <ele>413.02</ele>
        <time>2018-08-26T09:50:28Z</time>
      </trkpt>
      <trkpt lat="47.30183" lon="6.00194">
        <ele>413.5</ele>
        <time>2018-08-26T09:50:29Z</time>
      </trkpt>
      <trkpt lat="47.30123" lon="6.00206">
        <ele>412.54</ele>
        <time>2018-08-26T09:50:42Z</time>
      </trkpt>
      <trkpt lat="47.30072" lon="6.00186">
        <ele>409.18</ele>
        <time>2018-08-26T09:50:50Z</time>
      </trkpt>
      <trkpt lat="47.30029" lon="6.00152">
        <ele>406.29</ele>
        <time>2018-08-26T09:50:56Z</time>
      </trkpt>
      <trkpt lat="47.29997" lon="6.00127">
        <ele>395.24</ele>
        <time>2018-08-26T09:51:00Z</time>
      </trkpt>
      <trkpt lat="47.29988" lon="6.0012">
        <ele>410.62</ele>
        <time>2018-08-26T09:51:01Z</time>
      </trkpt>
      <trkpt lat="47.2998" lon="6.00113">
        <ele>402.45</ele>
        <time>2018-08-26T09:51:02Z</time>
      </trkpt>
      <trkpt lat="47.29947" lon="6.00085">
        <ele>399.57</ele>
        <time>2018-08-26T09:51:06Z</time>
      </trkpt>
      <trkpt lat="47.29922" lon="6.00066">
        <ele>396.2</ele>
        <time>2018-08-26T09:51:09Z</time>
      </trkpt>
      <trkpt lat="47.29888" lon="6.00044">
        <ele>393.32</ele>
        <time>2018-08-26T09:51:13Z</time>
      </trkpt>
      <trkpt lat="47.2987" lon="6.00035">
        <ele>391.39</ele>
        <time>2018-08-26T09:51:15Z</time>
      </trkpt>
      <trkpt lat="47.29833" lon="6.00026">
        <ele>388.03</ele>
        <time>2018-08-26T09:51:19Z</time>
      </trkpt>
      <trkpt lat="47.29825" lon="6.00023">
        <ele>386.59</ele>
        <time>2018-08-26T09:51:20Z</time>
      </trkpt>
      <trkpt lat="47.29816" lon="6.00019">
        <ele>385.63</ele>
        <time>2018-08-26T09:51:21Z</time>
      </trkpt>
      <trkpt lat="47.29778" lon="5.99996">
        <ele>381.78</ele>
        <time>2018-08-26T09:51:25Z</time>
      </trkpt>
      <trkpt lat="47.29744" lon="5.99979">
        <ele>377.94</ele>
        <time>2018-08-26T09:51:28Z</time>
      </trkpt>
      <trkpt lat="47.29722" lon="5.99971">
        <ele>375.53</ele>
        <time>2018-08-26T09:51:30Z</time>
      </trkpt>
      <trkpt lat="47.29711" lon="5.99969">
        <ele>374.09</ele>
        <time>2018-08-26T09:51:31Z</time>
      </trkpt>
      <trkpt lat="47.29699" lon="5.99968">
        <ele>372.65</ele>
        <time>2018-08-26T09:51:32Z</time>
      </trkpt>
      <trkpt lat="47.29688" lon="5.99968">
        <ele>371.69</ele>
        <time>2018-08-26T09:51:33Z</time>
      </trkpt>
      <trkpt lat="47.29679" lon="5.9997">
        <ele>370.24</ele>
        <time>2018-08-26T09:51:34Z</time>
      </trkpt>
      <trkpt lat="47.29669" lon="5.99973">
        <ele>369.28</ele>
        <time>2018-08-26T09:51:35Z</time>
      </trkpt>
      <trkpt lat="47.29658" lon="5.99976">
        <ele>366.88</ele>
        <time>2018-08-26T09:51:36Z</time>
      </trkpt>
      <trkpt lat="47.29647" lon="5.99979">
        <ele>365.44</ele>
        <time>2018-08-26T09:51:37Z</time>
      </trkpt>
      <trkpt lat="47.29613" lon="5.99994">
        <ele>362.07</ele>
        <time>2018-08-26T09:51:41Z</time>
      </trkpt>
      <trkpt lat="47.29558" lon="6.00021">
        <ele>357.75</ele>
        <time>2018-08-26T09:51:50Z</time>
      </trkpt>
      <trkpt lat="47.29555" lon="6.00022">
        <ele>364.48</ele>
        <time>2018-08-26T09:51:51Z</time>
      </trkpt>
      <trkpt lat="47.29553" lon="6.00023">
        <ele>361.11</ele>
        <time>2018-08-26T09:51:52Z</time>
      </trkpt>
      <trkpt lat="47.29549" lon="6.00023">
        <ele>361.11</ele>
        <time>2018-08-26T09:52:02Z</time>
      </trkpt>
      <trkpt lat="47.29548" lon="6.00024">
        <ele>360.63</ele>
        <time>2018-08-26T09:52:03Z</time>
      </trkpt>
      <trkpt lat="47.29545" lon="6.00025">
        <ele>360.63</ele>
        <time>2018-08-26T09:52:04Z</time>
      </trkpt>
      <trkpt lat="47.29542" lon="6.00026">
        <ele>360.63</ele>
        <time>2018-08-26T09:52:05Z</time>
      </trkpt>
      <trkpt lat="47.2954" lon="6.00028">
        <ele>360.63</ele>
        <time>2018-08-26T09:52:06Z</time>
      </trkpt>
      <trkpt lat="47.29532" lon="6.00031">
        <ele>360.63</ele>
        <time>2018-08-26T09:52:08Z</time>
      </trkpt>
      <trkpt lat="47.29528" lon="6.00031">
        <ele>360.15</ele>
        <time>2018-08-26T09:52:09Z</time>
      </trkpt>
      <trkpt lat="47.29518" lon="6.00032">
        <ele>360.15</ele>
        <time>2018-08-26T09:52:11Z</time>
      </trkpt>
      <trkpt lat="47.29485" lon="6.00041">
        <ele>359.67</ele>
        <time>2018-08-26T09:52:18Z</time>
      </trkpt>
      <trkpt lat="47.29481" lon="6.00042">
        <ele>360.15</ele>
        <time>2018-08-26T09:52:19Z</time>
      </trkpt>
      <trkpt lat="47.29476" lon="6.00043">
        <ele>360.15</ele>
        <time>2018-08-26T09:52:20Z</time>
      </trkpt>
      <trkpt lat="47.29434" lon="6.00054">
        <ele>361.59</ele>
        <time>2018-08-26T09:52:33Z</time>
      </trkpt>
      <trkpt lat="47.29409" lon="6.00044">
        <ele>362.07</ele>
        <time>2018-08-26T09:52:44Z</time>
      </trkpt>
      <trkpt lat="47.2937" lon="6.00027">
        <ele>362.07</ele>
        <time>2018-08-26T09:52:56Z</time>
      </trkpt>
      <trkpt lat="47.29352" lon="6.00023">
        <ele>363.52</ele>
        <time>2018-08-26T09:53:03Z</time>
      </trkpt>
      <trkpt lat="47.29351" lon="6.00023">
        <ele>363.52</ele>
        <time>2018-08-26T09:53:04Z</time>
      </trkpt>
      <trkpt lat="47.29349" lon="6.00025">
        <ele>364</ele>
        <time>2018-08-26T09:53:08Z</time>
      </trkpt>
      <trkpt lat="47.29354" lon="6.00031">
        <ele>363.52</ele>
        <time>2018-08-26T09:53:15Z</time>
      </trkpt>
      <trkpt lat="47.2935" lon="6.00036">
        <ele>364.48</ele>
        <time>2018-08-26T09:53:18Z</time>
      </trkpt>
      <trkpt lat="47.29345" lon="6.00045">
        <ele>364.96</ele>
        <time>2018-08-26T09:53:23Z</time>
      </trkpt>
      <trkpt lat="47.29337" lon="6.00059">
        <ele>364.96</ele>
        <time>2018-08-26T09:53:30Z</time>
      </trkpt>
      <trkpt lat="47.29336" lon="6.00061">
        <ele>367.84</ele>
        <time>2018-08-26T09:53:31Z</time>
      </trkpt>
      <trkpt lat="47.29335" lon="6.00064">
        <ele>366.4</ele>
        <time>2018-08-26T09:53:32Z</time>
      </trkpt>
      <trkpt lat="47.29308" lon="6.00096">
        <ele>366.4</ele>
        <time>2018-08-26T09:53:46Z</time>
      </trkpt>
      <trkpt lat="47.29281" lon="6.00119">
        <ele>366.4</ele>
        <time>2018-08-26T09:53:58Z</time>
      </trkpt>
      <trkpt lat="47.29267" lon="6.00134">
        <ele>368.32</ele>
        <time>2018-08-26T09:54:09Z</time>
      </trkpt>
      <trkpt lat="47.29266" lon="6.00147">
        <ele>370.24</ele>
        <time>2018-08-26T09:54:19Z</time>
      </trkpt>
      <trkpt lat="47.29272" lon="6.00156">
        <ele>366.88</ele>
        <time>2018-08-26T09:54:24Z</time>
      </trkpt>
      <trkpt lat="47.29273" lon="6.00157">
        <ele>376.49</ele>
        <time>2018-08-26T09:54:25Z</time>
      </trkpt>
      <trkpt lat="47.29274" lon="6.00159">
        <ele>371.21</ele>
        <time>2018-08-26T09:54:26Z</time>
      </trkpt>
      <trkpt lat="47.29288" lon="6.00179">
        <ele>373.61</ele>
        <time>2018-08-26T09:54:40Z</time>
      </trkpt>
      <trkpt lat="47.29304" lon="6.002">
        <ele>376.01</ele>
        <time>2018-08-26T09:54:53Z</time>
      </trkpt>
      <trkpt lat="47.29311" lon="6.00212">
        <ele>377.45</ele>
        <time>2018-08-26T09:54:59Z</time>
      </trkpt>
      <trkpt lat="47.29317" lon="6.00227">
        <ele>378.9</ele>
        <time>2018-08-26T09:55:06Z</time>
      </trkpt>
      <trkpt lat="47.29321" lon="6.00247">
        <ele>381.3</ele>
        <time>2018-08-26T09:55:19Z</time>
      </trkpt>
      <trkpt lat="47.29316" lon="6.00253">
        <ele>382.26</ele>
        <time>2018-08-26T09:55:25Z</time>
      </trkpt>
      <trkpt lat="47.29308" lon="6.00256">
        <ele>383.7</ele>
        <time>2018-08-26T09:55:32Z</time>
      </trkpt>
      <trkpt lat="47.29289" lon="6.00251">
        <ele>385.15</ele>
        <time>2018-08-26T09:55:45Z</time>
      </trkpt>
      <trkpt lat="47.29263" lon="6.00231">
        <ele>384.66</ele>
        <time>2018-08-26T09:55:57Z</time>
      </trkpt>
      <trkpt lat="47.29235" lon="6.00212">
        <ele>385.15</ele>
        <time>2018-08-26T09:56:08Z</time>
      </trkpt>
      <trkpt lat="47.29199" lon="6.00189">
        <ele>385.63</ele>
        <time>2018-08-26T09:56:20Z</time>
      </trkpt>
      <trkpt lat="47.29171" lon="6.00171">
        <ele>385.63</ele>
        <time>2018-08-26T09:56:30Z</time>
      </trkpt>
      <trkpt lat="47.29152" lon="6.00164">
        <ele>386.59</ele>
        <time>2018-08-26T09:56:37Z</time>
      </trkpt>
      <trkpt lat="47.29144" lon="6.00161">
        <ele>387.07</ele>
        <time>2018-08-26T09:56:41Z</time>
      </trkpt>
      <trkpt lat="47.29118" lon="6.00156">
        <ele>387.55</ele>
        <time>2018-08-26T09:56:51Z</time>
      </trkpt>
      <trkpt lat="47.29108" lon="6.00156">
        <ele>388.51</ele>
        <time>2018-08-26T09:56:55Z</time>
      </trkpt>
      <trkpt lat="47.291" lon="6.00153">
        <ele>389.95</ele>
        <time>2018-08-26T09:56:59Z</time>
      </trkpt>
      <trkpt lat="47.29097" lon="6.00158">
        <ele>391.39</ele>
        <time>2018-08-26T09:57:02Z</time>
      </trkpt>
      <trkpt lat="47.29091" lon="6.00175">
        <ele>394.76</ele>
        <time>2018-08-26T09:57:12Z</time>
      </trkpt>
      <trkpt lat="47.29085" lon="6.00187">
        <ele>398.12</ele>
        <time>2018-08-26T09:57:21Z</time>
      </trkpt>
      <trkpt lat="47.29083" lon="6.00188">
        <ele>398.12</ele>
        <time>2018-08-26T09:57:23Z</time>
      </trkpt>
      <trkpt lat="47.29076" lon="6.00191">
        <ele>399.08</ele>
        <time>2018-08-26T09:57:35Z</time>
      </trkpt>
      <trkpt lat="47.29068" lon="6.00198">
        <ele>401.01</ele>
        <time>2018-08-26T09:57:48Z</time>
      </trkpt>
      <trkpt lat="47.29066" lon="6.00201">
        <ele>401.49</ele>
        <time>2018-08-26T09:57:57Z</time>
      </trkpt>
      <trkpt lat="47.29054" lon="6.00209">
        <ele>405.33</ele>
        <time>2018-08-26T09:58:09Z</time>
      </trkpt>
      <trkpt lat="47.29054" lon="6.00209">
        <ele>403.89</ele>
        <time>2018-08-26T09:58:10Z</time>
      </trkpt>
      <trkpt lat="47.29038" lon="6.00216">
        <ele>404.85</ele>
        <time>2018-08-26T09:58:21Z</time>
      </trkpt>
      <trkpt lat="47.29032" lon="6.0022">
        <ele>404.85</ele>
        <time>2018-08-26T09:58:25Z</time>
      </trkpt>
      <trkpt lat="47.2904" lon="6.00236">
        <ele>405.81</ele>
        <time>2018-08-26T09:58:34Z</time>
      </trkpt>
      <trkpt lat="47.29049" lon="6.0025">
        <ele>407.74</ele>
        <time>2018-08-26T09:58:43Z</time>
      </trkpt>
      <trkpt lat="47.29058" lon="6.00265">
        <ele>409.18</ele>
        <time>2018-08-26T09:58:52Z</time>
      </trkpt>
      <trkpt lat="47.29078" lon="6.00284">
        <ele>412.06</ele>
        <time>2018-08-26T09:59:06Z</time>
      </trkpt>
      <trkpt lat="47.29087" lon="6.00295">
        <ele>413.02</ele>
        <time>2018-08-26T09:59:13Z</time>
      </trkpt>
      <trkpt lat="47.29107" lon="6.00317">
        <ele>414.95</ele>
        <time>2018-08-26T09:59:25Z</time>
      </trkpt>
      <trkpt lat="47.29123" lon="6.00331">
        <ele>416.87</ele>
        <time>2018-08-26T09:59:35Z</time>
      </trkpt>
      <trkpt lat="47.2914" lon="6.00347">
        <ele>419.27</ele>
        <time>2018-08-26T09:59:48Z</time>
      </trkpt>
      <trkpt lat="47.29156" lon="6.00363">
        <ele>421.19</ele>
        <time>2018-08-26T09:59:58Z</time>
      </trkpt>
      <trkpt lat="47.29162" lon="6.00367">
        <ele>422.16</ele>
        <time>2018-08-26T10:00:02Z</time>
      </trkpt>
      <trkpt lat="47.29176" lon="6.00378">
        <ele>423.12</ele>
        <time>2018-08-26T10:00:11Z</time>
      </trkpt>
      <trkpt lat="47.29185" lon="6.00384">
        <ele>424.56</ele>
        <time>2018-08-26T10:00:17Z</time>
      </trkpt>
      <trkpt lat="47.29204" lon="6.00401">
        <ele>426.96</ele>
        <time>2018-08-26T10:00:31Z</time>
      </trkpt>
      <trkpt lat="47.29222" lon="6.00422">
        <ele>428.89</ele>
        <time>2018-08-26T10:00:43Z</time>
      </trkpt>
      <trkpt lat="47.29244" lon="6.00452">
        <ele>430.81</ele>
        <time>2018-08-26T10:00:56Z</time>
      </trkpt>
      <trkpt lat="47.29253" lon="6.00464">
        <ele>431.77</ele>
        <time>2018-08-26T10:01:02Z</time>
      </trkpt>
      <trkpt lat="47.2926" lon="6.00474">
        <ele>432.25</ele>
        <time>2018-08-26T10:01:06Z</time>
      </trkpt>
      <trkpt lat="47.29282" lon="6.00513">
        <ele>434.17</ele>
        <time>2018-08-26T10:01:19Z</time>
      </trkpt>
      <trkpt lat="47.29299" lon="6.00548">
        <ele>435.13</ele>
        <time>2018-08-26T10:01:30Z</time>
      </trkpt>
      <trkpt lat="47.2932" lon="6.00594">
        <ele>436.1</ele>
        <time>2018-08-26T10:01:42Z</time>
      </trkpt>
      <trkpt lat="47.2934" lon="6.00641">
        <ele>436.58</ele>
        <time>2018-08-26T10:01:52Z</time>
      </trkpt>
      <trkpt lat="47.2936" lon="6.00686">
        <ele>436.1</ele>
        <time>2018-08-26T10:02:02Z</time>
      </trkpt>
      <trkpt lat="47.29378" lon="6.00739">
        <ele>434.65</ele>
        <time>2018-08-26T10:02:13Z</time>
      </trkpt>
      <trkpt lat="47.29397" lon="6.00773">
        <ele>433.69</ele>
        <time>2018-08-26T10:02:21Z</time>
      </trkpt>
      <trkpt lat="47.29417" lon="6.00817">
        <ele>431.77</ele>
        <time>2018-08-26T10:02:30Z</time>
      </trkpt>
      <trkpt lat="47.2942" lon="6.00822">
        <ele>431.29</ele>
        <time>2018-08-26T10:02:31Z</time>
      </trkpt>
      <trkpt lat="47.29424" lon="6.00828">
        <ele>431.29</ele>
        <time>2018-08-26T10:02:32Z</time>
      </trkpt>
      <trkpt lat="47.29427" lon="6.00834">
        <ele>430.81</ele>
        <time>2018-08-26T10:02:33Z</time>
      </trkpt>
      <trkpt lat="47.29429" lon="6.0084">
        <ele>430.81</ele>
        <time>2018-08-26T10:02:34Z</time>
      </trkpt>
      <trkpt lat="47.29432" lon="6.00847">
        <ele>430.33</ele>
        <time>2018-08-26T10:02:35Z</time>
      </trkpt>
      <trkpt lat="47.29435" lon="6.00853">
        <ele>429.85</ele>
        <time>2018-08-26T10:02:36Z</time>
      </trkpt>
      <trkpt lat="47.29439" lon="6.00859">
        <ele>429.37</ele>
        <time>2018-08-26T10:02:37Z</time>
      </trkpt>
      <trkpt lat="47.29446" lon="6.00873">
        <ele>428.89</ele>
        <time>2018-08-26T10:02:39Z</time>
      </trkpt>
      <trkpt lat="47.2945" lon="6.0088">
        <ele>428.4</ele>
        <time>2018-08-26T10:02:40Z</time>
      </trkpt>
      <trkpt lat="47.29454" lon="6.00888">
        <ele>427.92</ele>
        <time>2018-08-26T10:02:41Z</time>
      </trkpt>
      <trkpt lat="47.29461" lon="6.00905">
        <ele>426.96</ele>
        <time>2018-08-26T10:02:43Z</time>
      </trkpt>
      <trkpt lat="47.29465" lon="6.00914">
        <ele>426</ele>
        <time>2018-08-26T10:02:44Z</time>
      </trkpt>
      <trkpt lat="47.29469" lon="6.00922">
        <ele>425.52</ele>
        <time>2018-08-26T10:02:45Z</time>
      </trkpt>
      <trkpt lat="47.29479" lon="6.00948">
        <ele>423.6</ele>
        <time>2018-08-26T10:02:48Z</time>
      </trkpt>
      <trkpt lat="47.29483" lon="6.00957">
        <ele>423.12</ele>
        <time>2018-08-26T10:02:49Z</time>
      </trkpt>
      <trkpt lat="47.29487" lon="6.00966">
        <ele>422.64</ele>
        <time>2018-08-26T10:02:50Z</time>
      </trkpt>
      <trkpt lat="47.2949" lon="6.00975">
        <ele>422.16</ele>
        <time>2018-08-26T10:02:51Z</time>
      </trkpt>
      <trkpt lat="47.29493" lon="6.00982">
        <ele>421.68</ele>
        <time>2018-08-26T10:02:52Z</time>
      </trkpt>
      <trkpt lat="47.29496" lon="6.00989">
        <ele>421.19</ele>
        <time>2018-08-26T10:02:53Z</time>
      </trkpt>
      <trkpt lat="47.29498" lon="6.00995">
        <ele>420.23</ele>
        <time>2018-08-26T10:02:54Z</time>
      </trkpt>
      <trkpt lat="47.295" lon="6.01001">
        <ele>419.75</ele>
        <time>2018-08-26T10:02:55Z</time>
      </trkpt>
      <trkpt lat="47.29509" lon="6.01019">
        <ele>416.39</ele>
        <time>2018-08-26T10:02:59Z</time>
      </trkpt>
      <trkpt lat="47.29511" lon="6.01026">
        <ele>415.43</ele>
        <time>2018-08-26T10:03:00Z</time>
      </trkpt>
      <trkpt lat="47.29514" lon="6.01032">
        <ele>415.43</ele>
        <time>2018-08-26T10:03:01Z</time>
      </trkpt>
      <trkpt lat="47.29528" lon="6.01067">
        <ele>411.58</ele>
        <time>2018-08-26T10:03:07Z</time>
      </trkpt>
      <trkpt lat="47.2953" lon="6.01077">
        <ele>410.14</ele>
        <time>2018-08-26T10:03:09Z</time>
      </trkpt>
      <trkpt lat="47.29531" lon="6.01082">
        <ele>409.18</ele>
        <time>2018-08-26T10:03:10Z</time>
      </trkpt>
      <trkpt lat="47.29531" lon="6.01087">
        <ele>408.7</ele>
        <time>2018-08-26T10:03:11Z</time>
      </trkpt>
      <trkpt lat="47.2953" lon="6.011">
        <ele>406.77</ele>
        <time>2018-08-26T10:03:15Z</time>
      </trkpt>
      <trkpt lat="47.29528" lon="6.01102">
        <ele>405.81</ele>
        <time>2018-08-26T10:03:16Z</time>
      </trkpt>
      <trkpt lat="47.29525" lon="6.01106">
        <ele>405.33</ele>
        <time>2018-08-26T10:03:17Z</time>
      </trkpt>
      <trkpt lat="47.29523" lon="6.01109">
        <ele>404.85</ele>
        <time>2018-08-26T10:03:18Z</time>
      </trkpt>
      <trkpt lat="47.2952" lon="6.01114">
        <ele>404.37</ele>
        <time>2018-08-26T10:03:19Z</time>
      </trkpt>
      <trkpt lat="47.29517" lon="6.0112">
        <ele>403.41</ele>
        <time>2018-08-26T10:03:20Z</time>
      </trkpt>
      <trkpt lat="47.29513" lon="6.01124">
        <ele>402.45</ele>
        <time>2018-08-26T10:03:21Z</time>
      </trkpt>
      <trkpt lat="47.29509" lon="6.01127">
        <ele>401.49</ele>
        <time>2018-08-26T10:03:22Z</time>
      </trkpt>
      <trkpt lat="47.29505" lon="6.01129">
        <ele>400.05</ele>
        <time>2018-08-26T10:03:23Z</time>
      </trkpt>
      <trkpt lat="47.29495" lon="6.01133">
        <ele>397.64</ele>
        <time>2018-08-26T10:03:25Z</time>
      </trkpt>
      <trkpt lat="47.29489" lon="6.01137">
        <ele>396.2</ele>
        <time>2018-08-26T10:03:26Z</time>
      </trkpt>
      <trkpt lat="47.29474" lon="6.0115">
        <ele>392.84</ele>
        <time>2018-08-26T10:03:29Z</time>
      </trkpt>
      <trkpt lat="47.29468" lon="6.01154">
        <ele>391.39</ele>
        <time>2018-08-26T10:03:30Z</time>
      </trkpt>
      <trkpt lat="47.29462" lon="6.01158">
        <ele>389.95</ele>
        <time>2018-08-26T10:03:31Z</time>
      </trkpt>
      <trkpt lat="47.29456" lon="6.01161">
        <ele>388.99</ele>
        <time>2018-08-26T10:03:32Z</time>
      </trkpt>
      <trkpt lat="47.29442" lon="6.0117">
        <ele>386.59</ele>
        <time>2018-08-26T10:03:34Z</time>
      </trkpt>
      <trkpt lat="47.29435" lon="6.0117">
        <ele>385.63</ele>
        <time>2018-08-26T10:03:35Z</time>
      </trkpt>
      <trkpt lat="47.2942" lon="6.01171">
        <ele>383.7</ele>
        <time>2018-08-26T10:03:37Z</time>
      </trkpt>
      <trkpt lat="47.29413" lon="6.01173">
        <ele>383.22</ele>
        <time>2018-08-26T10:03:38Z</time>
      </trkpt>
      <trkpt lat="47.29375" lon="6.01171">
        <ele>379.86</ele>
        <time>2018-08-26T10:03:43Z</time>
      </trkpt>
      <trkpt lat="47.2936" lon="6.01168">
        <ele>378.9</ele>
        <time>2018-08-26T10:03:45Z</time>
      </trkpt>
      <trkpt lat="47.2933" lon="6.01157">
        <ele>376.01</ele>
        <time>2018-08-26T10:03:49Z</time>
      </trkpt>
      <trkpt lat="47.29323" lon="6.01157">
        <ele>375.05</ele>
        <time>2018-08-26T10:03:50Z</time>
      </trkpt>
      <trkpt lat="47.29315" lon="6.01158">
        <ele>374.57</ele>
        <time>2018-08-26T10:03:51Z</time>
      </trkpt>
      <trkpt lat="47.29302" lon="6.01163">
        <ele>372.65</ele>
        <time>2018-08-26T10:03:53Z</time>
      </trkpt>
      <trkpt lat="47.29296" lon="6.01167">
        <ele>372.17</ele>
        <time>2018-08-26T10:03:54Z</time>
      </trkpt>
      <trkpt lat="47.29292" lon="6.01174">
        <ele>371.21</ele>
        <time>2018-08-26T10:03:55Z</time>
      </trkpt>
      <trkpt lat="47.29287" lon="6.01181">
        <ele>370.24</ele>
        <time>2018-08-26T10:03:56Z</time>
      </trkpt>
      <trkpt lat="47.29282" lon="6.01188">
        <ele>369.28</ele>
        <time>2018-08-26T10:03:57Z</time>
      </trkpt>
      <trkpt lat="47.29276" lon="6.01194">
        <ele>368.32</ele>
        <time>2018-08-26T10:03:58Z</time>
      </trkpt>
      <trkpt lat="47.29269" lon="6.01199">
        <ele>367.84</ele>
        <time>2018-08-26T10:03:59Z</time>
      </trkpt>
      <trkpt lat="47.29261" lon="6.01203">
        <ele>366.88</ele>
        <time>2018-08-26T10:04:00Z</time>
      </trkpt>
      <trkpt lat="47.29254" lon="6.01207">
        <ele>365.92</ele>
        <time>2018-08-26T10:04:01Z</time>
      </trkpt>
      <trkpt lat="47.29246" lon="6.01212">
        <ele>364.96</ele>
        <time>2018-08-26T10:04:02Z</time>
      </trkpt>
      <trkpt lat="47.29216" lon="6.0123">
        <ele>363.52</ele>
        <time>2018-08-26T10:04:06Z</time>
      </trkpt>
      <trkpt lat="47.29209" lon="6.01235">
        <ele>363.52</ele>
        <time>2018-08-26T10:04:07Z</time>
      </trkpt>
      <trkpt lat="47.29174" lon="6.01246">
        <ele>365.92</ele>
        <time>2018-08-26T10:04:15Z</time>
      </trkpt>
      <trkpt lat="47.29165" lon="6.01241">
        <ele>367.36</ele>
        <time>2018-08-26T10:04:19Z</time>
      </trkpt>
      <trkpt lat="47.29141" lon="6.01241">
        <ele>370.24</ele>
        <time>2018-08-26T10:04:30Z</time>
      </trkpt>
      <trkpt lat="47.29116" lon="6.01232">
        <ele>371.69</ele>
        <time>2018-08-26T10:04:40Z</time>
      </trkpt>
      <trkpt lat="47.2907" lon="6.01231">
        <ele>371.21</ele>
        <time>2018-08-26T10:04:53Z</time>
      </trkpt>
      <trkpt lat="47.29043" lon="6.01232">
        <ele>369.28</ele>
        <time>2018-08-26T10:04:58Z</time>
      </trkpt>
      <trkpt lat="47.29023" lon="6.01233">
        <ele>367.36</ele>
        <time>2018-08-26T10:05:01Z</time>
      </trkpt>
      <trkpt lat="47.29018" lon="6.01234">
        <ele>367.36</ele>
        <time>2018-08-26T10:05:02Z</time>
      </trkpt>
      <trkpt lat="47.29016" lon="6.01238">
        <ele>366.88</ele>
        <time>2018-08-26T10:05:03Z</time>
      </trkpt>
      <trkpt lat="47.29017" lon="6.01242">
        <ele>366.4</ele>
        <time>2018-08-26T10:05:04Z</time>
      </trkpt>
      <trkpt lat="47.29019" lon="6.01246">
        <ele>365.92</ele>
        <time>2018-08-26T10:05:05Z</time>
      </trkpt>
      <trkpt lat="47.29021" lon="6.0125">
        <ele>365.92</ele>
        <time>2018-08-26T10:05:06Z</time>
      </trkpt>
      <trkpt lat="47.29024" lon="6.01255">
        <ele>365.44</ele>
        <time>2018-08-26T10:05:07Z</time>
      </trkpt>
      <trkpt lat="47.29024" lon="6.0126">
        <ele>364.96</ele>
        <time>2018-08-26T10:05:08Z</time>
      </trkpt>
      <trkpt lat="47.29024" lon="6.01265">
        <ele>364.96</ele>
        <time>2018-08-26T10:05:09Z</time>
      </trkpt>
      <trkpt lat="47.29023" lon="6.01267">
        <ele>364.48</ele>
        <time>2018-08-26T10:05:10Z</time>
      </trkpt>
      <trkpt lat="47.29021" lon="6.01268">
        <ele>364</ele>
        <time>2018-08-26T10:05:11Z</time>
      </trkpt>
      <trkpt lat="47.29018" lon="6.01268">
        <ele>363.52</ele>
        <time>2018-08-26T10:05:12Z</time>
      </trkpt>
      <trkpt lat="47.29013" lon="6.01267">
        <ele>363.04</ele>
        <time>2018-08-26T10:05:13Z</time>
      </trkpt>
      <trkpt lat="47.29009" lon="6.01266">
        <ele>363.04</ele>
        <time>2018-08-26T10:05:14Z</time>
      </trkpt>
      <trkpt lat="47.29005" lon="6.01266">
        <ele>362.55</ele>
        <time>2018-08-26T10:05:15Z</time>
      </trkpt>
      <trkpt lat="47.29" lon="6.01267">
        <ele>361.59</ele>
        <time>2018-08-26T10:05:16Z</time>
      </trkpt>
      <trkpt lat="47.28996" lon="6.01269">
        <ele>361.59</ele>
        <time>2018-08-26T10:05:17Z</time>
      </trkpt>
      <trkpt lat="47.28991" lon="6.01272">
        <ele>360.63</ele>
        <time>2018-08-26T10:05:18Z</time>
      </trkpt>
      <trkpt lat="47.28988" lon="6.01277">
        <ele>360.15</ele>
        <time>2018-08-26T10:05:19Z</time>
      </trkpt>
      <trkpt lat="47.28986" lon="6.01285">
        <ele>359.19</ele>
        <time>2018-08-26T10:05:20Z</time>
      </trkpt>
      <trkpt lat="47.28986" lon="6.01293">
        <ele>358.23</ele>
        <time>2018-08-26T10:05:21Z</time>
      </trkpt>
      <trkpt lat="47.28987" lon="6.01299">
        <ele>358.23</ele>
        <time>2018-08-26T10:05:22Z</time>
      </trkpt>
      <trkpt lat="47.28987" lon="6.01304">
        <ele>357.75</ele>
        <time>2018-08-26T10:05:23Z</time>
      </trkpt>
      <trkpt lat="47.28988" lon="6.01309">
        <ele>357.75</ele>
        <time>2018-08-26T10:05:24Z</time>
      </trkpt>
      <trkpt lat="47.28988" lon="6.01314">
        <ele>357.75</ele>
        <time>2018-08-26T10:05:25Z</time>
      </trkpt>
      <trkpt lat="47.28988" lon="6.0132">
        <ele>357.75</ele>
        <time>2018-08-26T10:05:26Z</time>
      </trkpt>
      <trkpt lat="47.28988" lon="6.01325">
        <ele>357.27</ele>
        <time>2018-08-26T10:05:27Z</time>
      </trkpt>
      <trkpt lat="47.28987" lon="6.01331">
        <ele>357.27</ele>
        <time>2018-08-26T10:05:28Z</time>
      </trkpt>
      <trkpt lat="47.28984" lon="6.01338">
        <ele>356.31</ele>
        <time>2018-08-26T10:05:29Z</time>
      </trkpt>
      <trkpt lat="47.28981" lon="6.01344">
        <ele>356.31</ele>
        <time>2018-08-26T10:05:30Z</time>
      </trkpt>
      <trkpt lat="47.28977" lon="6.01351">
        <ele>355.34</ele>
        <time>2018-08-26T10:05:31Z</time>
      </trkpt>
      <trkpt lat="47.28973" lon="6.01358">
        <ele>354.38</ele>
        <time>2018-08-26T10:05:32Z</time>
      </trkpt>
      <trkpt lat="47.28962" lon="6.01378">
        <ele>353.42</ele>
        <time>2018-08-26T10:05:35Z</time>
      </trkpt>
      <trkpt lat="47.28948" lon="6.01402">
        <ele>351.98</ele>
        <time>2018-08-26T10:05:38Z</time>
      </trkpt>
      <trkpt lat="47.28943" lon="6.01409">
        <ele>351.5</ele>
        <time>2018-08-26T10:05:39Z</time>
      </trkpt>
      <trkpt lat="47.28937" lon="6.01415">
        <ele>350.54</ele>
        <time>2018-08-26T10:05:40Z</time>
      </trkpt>
      <trkpt lat="47.28931" lon="6.01419">
        <ele>349.58</ele>
        <time>2018-08-26T10:05:41Z</time>
      </trkpt>
      <trkpt lat="47.28926" lon="6.01421">
        <ele>349.58</ele>
        <time>2018-08-26T10:05:42Z</time>
      </trkpt>
      <trkpt lat="47.28919" lon="6.01421">
        <ele>348.62</ele>
        <time>2018-08-26T10:05:43Z</time>
      </trkpt>
      <trkpt lat="47.28912" lon="6.01419">
        <ele>348.13</ele>
        <time>2018-08-26T10:05:44Z</time>
      </trkpt>
      <trkpt lat="47.28905" lon="6.01415">
        <ele>348.13</ele>
        <time>2018-08-26T10:05:45Z</time>
      </trkpt>
      <trkpt lat="47.28899" lon="6.0141">
        <ele>347.65</ele>
        <time>2018-08-26T10:05:46Z</time>
      </trkpt>
      <trkpt lat="47.28894" lon="6.01404">
        <ele>347.65</ele>
        <time>2018-08-26T10:05:47Z</time>
      </trkpt>
      <trkpt lat="47.28889" lon="6.01398">
        <ele>347.65</ele>
        <time>2018-08-26T10:05:48Z</time>
      </trkpt>
      <trkpt lat="47.28885" lon="6.01391">
        <ele>347.65</ele>
        <time>2018-08-26T10:05:49Z</time>
      </trkpt>
      <trkpt lat="47.28881" lon="6.01384">
        <ele>348.13</ele>
        <time>2018-08-26T10:05:50Z</time>
      </trkpt>
      <trkpt lat="47.2887" lon="6.01368">
        <ele>348.13</ele>
        <time>2018-08-26T10:05:53Z</time>
      </trkpt>
      <trkpt lat="47.28865" lon="6.01363">
        <ele>348.13</ele>
        <time>2018-08-26T10:05:54Z</time>
      </trkpt>
      <trkpt lat="47.28826" lon="6.01329">
        <ele>346.21</ele>
        <time>2018-08-26T10:06:01Z</time>
      </trkpt>
      <trkpt lat="47.28808" lon="6.01306">
        <ele>346.69</ele>
        <time>2018-08-26T10:06:05Z</time>
      </trkpt>
      <trkpt lat="47.28805" lon="6.013">
        <ele>347.17</ele>
        <time>2018-08-26T10:06:06Z</time>
      </trkpt>
      <trkpt lat="47.28799" lon="6.01289">
        <ele>348.13</ele>
        <time>2018-08-26T10:06:08Z</time>
      </trkpt>
      <trkpt lat="47.28754" lon="6.01232">
        <ele>347.17</ele>
        <time>2018-08-26T10:06:20Z</time>
      </trkpt>
      <trkpt lat="47.28743" lon="6.01222">
        <ele>346.21</ele>
        <time>2018-08-26T10:06:22Z</time>
      </trkpt>
      <trkpt lat="47.28719" lon="6.01211">
        <ele>342.37</ele>
        <time>2018-08-26T10:06:25Z</time>
      </trkpt>
      <trkpt lat="47.28702" lon="6.01207">
        <ele>339.48</ele>
        <time>2018-08-26T10:06:27Z</time>
      </trkpt>
      <trkpt lat="47.28683" lon="6.01205">
        <ele>335.64</ele>
        <time>2018-08-26T10:06:29Z</time>
      </trkpt>
      <trkpt lat="47.28673" lon="6.01203">
        <ele>333.71</ele>
        <time>2018-08-26T10:06:30Z</time>
      </trkpt>
      <trkpt lat="47.28663" lon="6.01201">
        <ele>329.87</ele>
        <time>2018-08-26T10:06:31Z</time>
      </trkpt>
      <trkpt lat="47.28654" lon="6.01199">
        <ele>328.43</ele>
        <time>2018-08-26T10:06:32Z</time>
      </trkpt>
      <trkpt lat="47.28645" lon="6.01197">
        <ele>326.99</ele>
        <time>2018-08-26T10:06:33Z</time>
      </trkpt>
      <trkpt lat="47.28638" lon="6.01198">
        <ele>326.02</ele>
        <time>2018-08-26T10:06:34Z</time>
      </trkpt>
      <trkpt lat="47.2863" lon="6.01202">
        <ele>324.58</ele>
        <time>2018-08-26T10:06:35Z</time>
      </trkpt>
      <trkpt lat="47.28621" lon="6.01207">
        <ele>323.14</ele>
        <time>2018-08-26T10:06:36Z</time>
      </trkpt>
      <trkpt lat="47.28612" lon="6.01211">
        <ele>321.7</ele>
        <time>2018-08-26T10:06:37Z</time>
      </trkpt>
      <trkpt lat="47.28606" lon="6.01215">
        <ele>320.74</ele>
        <time>2018-08-26T10:06:38Z</time>
      </trkpt>
      <trkpt lat="47.28601" lon="6.0122">
        <ele>320.26</ele>
        <time>2018-08-26T10:06:39Z</time>
      </trkpt>
      <trkpt lat="47.28597" lon="6.01226">
        <ele>319.3</ele>
        <time>2018-08-26T10:06:40Z</time>
      </trkpt>
      <trkpt lat="47.28596" lon="6.01233">
        <ele>318.33</ele>
        <time>2018-08-26T10:06:41Z</time>
      </trkpt>
      <trkpt lat="47.28595" lon="6.0124">
        <ele>317.37</ele>
        <time>2018-08-26T10:06:42Z</time>
      </trkpt>
      <trkpt lat="47.28591" lon="6.01267">
        <ele>314.97</ele>
        <time>2018-08-26T10:06:45Z</time>
      </trkpt>
      <trkpt lat="47.28591" lon="6.01274">
        <ele>314.49</ele>
        <time>2018-08-26T10:06:46Z</time>
      </trkpt>
      <trkpt lat="47.28592" lon="6.0128">
        <ele>314.49</ele>
        <time>2018-08-26T10:06:47Z</time>
      </trkpt>
      <trkpt lat="47.28595" lon="6.01284">
        <ele>314.49</ele>
        <time>2018-08-26T10:06:48Z</time>
      </trkpt>
      <trkpt lat="47.28598" lon="6.01283">
        <ele>314.49</ele>
        <time>2018-08-26T10:06:49Z</time>
      </trkpt>
      <trkpt lat="47.286" lon="6.01282">
        <ele>314.97</ele>
        <time>2018-08-26T10:06:50Z</time>
      </trkpt>
      <trkpt lat="47.28602" lon="6.0128">
        <ele>314.97</ele>
        <time>2018-08-26T10:06:51Z</time>
      </trkpt>
      <trkpt lat="47.28606" lon="6.01281">
        <ele>315.45</ele>
        <time>2018-08-26T10:06:52Z</time>
      </trkpt>
      <trkpt lat="47.2861" lon="6.01283">
        <ele>315.45</ele>
        <time>2018-08-26T10:06:53Z</time>
      </trkpt>
      <trkpt lat="47.28615" lon="6.01285">
        <ele>314.97</ele>
        <time>2018-08-26T10:06:54Z</time>
      </trkpt>
      <trkpt lat="47.28619" lon="6.01288">
        <ele>314.49</ele>
        <time>2018-08-26T10:06:55Z</time>
      </trkpt>
      <trkpt lat="47.28624" lon="6.01292">
        <ele>314.49</ele>
        <time>2018-08-26T10:06:56Z</time>
      </trkpt>
      <trkpt lat="47.28633" lon="6.01299">
        <ele>314.49</ele>
        <time>2018-08-26T10:06:58Z</time>
      </trkpt>
      <trkpt lat="47.28637" lon="6.01301">
        <ele>314.49</ele>
        <time>2018-08-26T10:06:59Z</time>
      </trkpt>
      <trkpt lat="47.28642" lon="6.01305">
        <ele>314.49</ele>
        <time>2018-08-26T10:07:00Z</time>
      </trkpt>
      <trkpt lat="47.28664" lon="6.01324">
        <ele>315.45</ele>
        <time>2018-08-26T10:07:05Z</time>
      </trkpt>
      <trkpt lat="47.28668" lon="6.01327">
        <ele>315.93</ele>
        <time>2018-08-26T10:07:06Z</time>
      </trkpt>
      <trkpt lat="47.28681" lon="6.01336">
        <ele>316.89</ele>
        <time>2018-08-26T10:07:09Z</time>
      </trkpt>
      <trkpt lat="47.28684" lon="6.0134">
        <ele>317.37</ele>
        <time>2018-08-26T10:07:10Z</time>
      </trkpt>
      <trkpt lat="47.28721" lon="6.01375">
        <ele>318.81</ele>
        <time>2018-08-26T10:07:20Z</time>
      </trkpt>
      <trkpt lat="47.28724" lon="6.0138">
        <ele>319.3</ele>
        <time>2018-08-26T10:07:21Z</time>
      </trkpt>
      <trkpt lat="47.28736" lon="6.014">
        <ele>318.81</ele>
        <time>2018-08-26T10:07:25Z</time>
      </trkpt>
      <trkpt lat="47.28763" lon="6.01455">
        <ele>319.3</ele>
        <time>2018-08-26T10:07:34Z</time>
      </trkpt>
      <trkpt lat="47.28784" lon="6.01512">
        <ele>320.26</ele>
        <time>2018-08-26T10:07:42Z</time>
      </trkpt>
      <trkpt lat="47.28786" lon="6.01518">
        <ele>320.26</ele>
        <time>2018-08-26T10:07:43Z</time>
      </trkpt>
      <trkpt lat="47.28789" lon="6.01524">
        <ele>320.74</ele>
        <time>2018-08-26T10:07:44Z</time>
      </trkpt>
      <trkpt lat="47.28791" lon="6.0153">
        <ele>320.74</ele>
        <time>2018-08-26T10:07:45Z</time>
      </trkpt>
      <trkpt lat="47.28794" lon="6.01537">
        <ele>320.26</ele>
        <time>2018-08-26T10:07:46Z</time>
      </trkpt>
      <trkpt lat="47.28797" lon="6.01543">
        <ele>319.78</ele>
        <time>2018-08-26T10:07:47Z</time>
      </trkpt>
      <trkpt lat="47.28801" lon="6.01549">
        <ele>319.3</ele>
        <time>2018-08-26T10:07:48Z</time>
      </trkpt>
      <trkpt lat="47.28805" lon="6.01554">
        <ele>318.81</ele>
        <time>2018-08-26T10:07:49Z</time>
      </trkpt>
      <trkpt lat="47.28823" lon="6.0158">
        <ele>316.41</ele>
        <time>2018-08-26T10:07:53Z</time>
      </trkpt>
      <trkpt lat="47.28828" lon="6.01586">
        <ele>315.93</ele>
        <time>2018-08-26T10:07:54Z</time>
      </trkpt>
      <trkpt lat="47.28839" lon="6.01595">
        <ele>316.41</ele>
        <time>2018-08-26T10:07:56Z</time>
      </trkpt>
      <trkpt lat="47.28862" lon="6.01606">
        <ele>317.85</ele>
        <time>2018-08-26T10:08:00Z</time>
      </trkpt>
      <trkpt lat="47.28867" lon="6.01609">
        <ele>318.33</ele>
        <time>2018-08-26T10:08:01Z</time>
      </trkpt>
      <trkpt lat="47.28875" lon="6.01613">
        <ele>319.3</ele>
        <time>2018-08-26T10:08:03Z</time>
      </trkpt>
      <trkpt lat="47.28879" lon="6.01616">
        <ele>319.3</ele>
        <time>2018-08-26T10:08:04Z</time>
      </trkpt>
      <trkpt lat="47.28883" lon="6.0162">
        <ele>319.3</ele>
        <time>2018-08-26T10:08:05Z</time>
      </trkpt>
      <trkpt lat="47.28887" lon="6.01623">
        <ele>319.78</ele>
        <time>2018-08-26T10:08:06Z</time>
      </trkpt>
      <trkpt lat="47.28892" lon="6.01626">
        <ele>319.78</ele>
        <time>2018-08-26T10:08:07Z</time>
      </trkpt>
      <trkpt lat="47.2893" lon="6.01657">
        <ele>320.26</ele>
        <time>2018-08-26T10:08:16Z</time>
      </trkpt>
      <trkpt lat="47.28934" lon="6.01661">
        <ele>320.26</ele>
        <time>2018-08-26T10:08:17Z</time>
      </trkpt>
      <trkpt lat="47.28939" lon="6.01665">
        <ele>320.26</ele>
        <time>2018-08-26T10:08:18Z</time>
      </trkpt>
      <trkpt lat="47.28943" lon="6.0167">
        <ele>320.26</ele>
        <time>2018-08-26T10:08:19Z</time>
      </trkpt>
      <trkpt lat="47.28946" lon="6.01675">
        <ele>320.74</ele>
        <time>2018-08-26T10:08:20Z</time>
      </trkpt>
      <trkpt lat="47.28951" lon="6.01681">
        <ele>320.26</ele>
        <time>2018-08-26T10:08:21Z</time>
      </trkpt>
      <trkpt lat="47.28955" lon="6.01687">
        <ele>320.74</ele>
        <time>2018-08-26T10:08:22Z</time>
      </trkpt>
      <trkpt lat="47.28968" lon="6.01709">
        <ele>321.7</ele>
        <time>2018-08-26T10:08:26Z</time>
      </trkpt>
      <trkpt lat="47.28978" lon="6.01725">
        <ele>322.66</ele>
        <time>2018-08-26T10:08:29Z</time>
      </trkpt>
      <trkpt lat="47.29017" lon="6.01783">
        <ele>321.7</ele>
        <time>2018-08-26T10:08:41Z</time>
      </trkpt>
      <trkpt lat="47.29045" lon="6.0181">
        <ele>320.74</ele>
        <time>2018-08-26T10:08:48Z</time>
      </trkpt>
      <trkpt lat="47.2905" lon="6.01816">
        <ele>320.74</ele>
        <time>2018-08-26T10:08:49Z</time>
      </trkpt>
      <trkpt lat="47.29054" lon="6.01823">
        <ele>320.74</ele>
        <time>2018-08-26T10:08:50Z</time>
      </trkpt>
      <trkpt lat="47.29058" lon="6.0183">
        <ele>321.22</ele>
        <time>2018-08-26T10:08:51Z</time>
      </trkpt>
      <trkpt lat="47.29061" lon="6.01837">
        <ele>321.7</ele>
        <time>2018-08-26T10:08:52Z</time>
      </trkpt>
      <trkpt lat="47.29074" lon="6.0187">
        <ele>323.62</ele>
        <time>2018-08-26T10:08:57Z</time>
      </trkpt>
      <trkpt lat="47.29077" lon="6.01876">
        <ele>324.1</ele>
        <time>2018-08-26T10:08:58Z</time>
      </trkpt>
      <trkpt lat="47.29081" lon="6.01881">
        <ele>324.1</ele>
        <time>2018-08-26T10:08:59Z</time>
      </trkpt>
      <trkpt lat="47.29092" lon="6.01898">
        <ele>325.54</ele>
        <time>2018-08-26T10:09:02Z</time>
      </trkpt>
      <trkpt lat="47.29107" lon="6.01918">
        <ele>326.5</ele>
        <time>2018-08-26T10:09:06Z</time>
      </trkpt>
      <trkpt lat="47.29132" lon="6.01947">
        <ele>326.99</ele>
        <time>2018-08-26T10:09:13Z</time>
      </trkpt>
      <trkpt lat="47.29139" lon="6.01956">
        <ele>326.99</ele>
        <time>2018-08-26T10:09:15Z</time>
      </trkpt>
      <trkpt lat="47.29142" lon="6.01962">
        <ele>327.47</ele>
        <time>2018-08-26T10:09:16Z</time>
      </trkpt>
      <trkpt lat="47.29148" lon="6.01973">
        <ele>327.47</ele>
        <time>2018-08-26T10:09:18Z</time>
      </trkpt>
      <trkpt lat="47.29154" lon="6.01982">
        <ele>326.99</ele>
        <time>2018-08-26T10:09:20Z</time>
      </trkpt>
      <trkpt lat="47.29159" lon="6.01985">
        <ele>326.99</ele>
        <time>2018-08-26T10:09:21Z</time>
      </trkpt>
      <trkpt lat="47.29163" lon="6.01988">
        <ele>326.99</ele>
        <time>2018-08-26T10:09:22Z</time>
      </trkpt>
      <trkpt lat="47.29188" lon="6.02005">
        <ele>327.47</ele>
        <time>2018-08-26T10:09:28Z</time>
      </trkpt>
      <trkpt lat="47.29224" lon="6.02059">
        <ele>329.39</ele>
        <time>2018-08-26T10:09:41Z</time>
      </trkpt>
      <trkpt lat="47.29223" lon="6.02069">
        <ele>330.35</ele>
        <time>2018-08-26T10:09:43Z</time>
      </trkpt>
      <trkpt lat="47.29207" lon="6.02087">
        <ele>332.27</ele>
        <time>2018-08-26T10:09:50Z</time>
      </trkpt>
      <trkpt lat="47.29157" lon="6.02106">
        <ele>332.75</ele>
        <time>2018-08-26T10:10:03Z</time>
      </trkpt>
      <trkpt lat="47.29149" lon="6.02111">
        <ele>332.75</ele>
        <time>2018-08-26T10:10:05Z</time>
      </trkpt>
      <trkpt lat="47.29145" lon="6.02115">
        <ele>332.75</ele>
        <time>2018-08-26T10:10:06Z</time>
      </trkpt>
      <trkpt lat="47.29141" lon="6.02119">
        <ele>332.75</ele>
        <time>2018-08-26T10:10:07Z</time>
      </trkpt>
      <trkpt lat="47.29138" lon="6.02124">
        <ele>332.75</ele>
        <time>2018-08-26T10:10:08Z</time>
      </trkpt>
      <trkpt lat="47.29135" lon="6.02128">
        <ele>333.23</ele>
        <time>2018-08-26T10:10:09Z</time>
      </trkpt>
      <trkpt lat="47.29131" lon="6.02132">
        <ele>333.23</ele>
        <time>2018-08-26T10:10:10Z</time>
      </trkpt>
      <trkpt lat="47.29128" lon="6.02137">
        <ele>333.23</ele>
        <time>2018-08-26T10:10:11Z</time>
      </trkpt>
      <trkpt lat="47.29105" lon="6.02181">
        <ele>334.2</ele>
        <time>2018-08-26T10:10:21Z</time>
      </trkpt>
      <trkpt lat="47.29104" lon="6.0222">
        <ele>333.23</ele>
        <time>2018-08-26T10:10:30Z</time>
      </trkpt>
      <trkpt lat="47.29104" lon="6.02226">
        <ele>332.75</ele>
        <time>2018-08-26T10:10:31Z</time>
      </trkpt>
      <trkpt lat="47.29104" lon="6.0225">
        <ele>331.31</ele>
        <time>2018-08-26T10:10:34Z</time>
      </trkpt>
      <trkpt lat="47.29109" lon="6.02272">
        <ele>331.79</ele>
        <time>2018-08-26T10:10:37Z</time>
      </trkpt>
      <trkpt lat="47.29111" lon="6.02279">
        <ele>331.31</ele>
        <time>2018-08-26T10:10:38Z</time>
      </trkpt>
      <trkpt lat="47.2912" lon="6.02305">
        <ele>332.75</ele>
        <time>2018-08-26T10:10:44Z</time>
      </trkpt>
      <trkpt lat="47.29119" lon="6.02307">
        <ele>333.23</ele>
        <time>2018-08-26T10:10:45Z</time>
      </trkpt>
      <trkpt lat="47.29111" lon="6.02344">
        <ele>334.2</ele>
        <time>2018-08-26T10:10:57Z</time>
      </trkpt>
      <trkpt lat="47.2909" lon="6.02376">
        <ele>335.16</ele>
        <time>2018-08-26T10:11:08Z</time>
      </trkpt>
      <trkpt lat="47.29076" lon="6.02392">
        <ele>336.12</ele>
        <time>2018-08-26T10:11:16Z</time>
      </trkpt>
      <trkpt lat="47.29074" lon="6.02394">
        <ele>336.6</ele>
        <time>2018-08-26T10:11:17Z</time>
      </trkpt>
      <trkpt lat="47.29072" lon="6.02395">
        <ele>336.6</ele>
        <time>2018-08-26T10:11:18Z</time>
      </trkpt>
      <trkpt lat="47.2907" lon="6.02395">
        <ele>336.6</ele>
        <time>2018-08-26T10:11:19Z</time>
      </trkpt>
      <trkpt lat="47.29067" lon="6.02396">
        <ele>336.6</ele>
        <time>2018-08-26T10:11:20Z</time>
      </trkpt>
      <trkpt lat="47.29065" lon="6.02396">
        <ele>336.6</ele>
        <time>2018-08-26T10:11:21Z</time>
      </trkpt>
      <trkpt lat="47.29064" lon="6.02396">
        <ele>336.6</ele>
        <time>2018-08-26T10:11:22Z</time>
      </trkpt>
      <trkpt lat="47.29062" lon="6.02396">
        <ele>336.6</ele>
        <time>2018-08-26T10:11:23Z</time>
      </trkpt>
      <trkpt lat="47.29049" lon="6.02402">
        <ele>336.6</ele>
        <time>2018-08-26T10:11:28Z</time>
      </trkpt>
      <trkpt lat="47.29046" lon="6.02404">
        <ele>337.56</ele>
        <time>2018-08-26T10:11:29Z</time>
      </trkpt>
      <trkpt lat="47.29043" lon="6.02407">
        <ele>337.08</ele>
        <time>2018-08-26T10:11:30Z</time>
      </trkpt>
      <trkpt lat="47.2904" lon="6.02409">
        <ele>337.08</ele>
        <time>2018-08-26T10:11:31Z</time>
      </trkpt>
      <trkpt lat="47.29037" lon="6.0241">
        <ele>337.08</ele>
        <time>2018-08-26T10:11:32Z</time>
      </trkpt>
      <trkpt lat="47.29034" lon="6.0241">
        <ele>337.08</ele>
        <time>2018-08-26T10:11:33Z</time>
      </trkpt>
      <trkpt lat="47.28993" lon="6.02425">
        <ele>336.6</ele>
        <time>2018-08-26T10:11:44Z</time>
      </trkpt>
      <trkpt lat="47.2898" lon="6.02436">
        <ele>336.6</ele>
        <time>2018-08-26T10:11:48Z</time>
      </trkpt>
      <trkpt lat="47.28978" lon="6.02439">
        <ele>336.6</ele>
        <time>2018-08-26T10:11:49Z</time>
      </trkpt>
      <trkpt lat="47.28975" lon="6.02444">
        <ele>336.6</ele>
        <time>2018-08-26T10:11:50Z</time>
      </trkpt>
      <trkpt lat="47.28953" lon="6.02478">
        <ele>338.04</ele>
        <time>2018-08-26T10:12:00Z</time>
      </trkpt>
      <trkpt lat="47.28952" lon="6.0248">
        <ele>338.04</ele>
        <time>2018-08-26T10:12:01Z</time>
      </trkpt>
      <trkpt lat="47.2895" lon="6.02482">
        <ele>338.52</ele>
        <time>2018-08-26T10:12:02Z</time>
      </trkpt>
      <trkpt lat="47.28948" lon="6.02484">
        <ele>338.52</ele>
        <time>2018-08-26T10:12:03Z</time>
      </trkpt>
      <trkpt lat="47.28946" lon="6.02485">
        <ele>338.52</ele>
        <time>2018-08-26T10:12:04Z</time>
      </trkpt>
      <trkpt lat="47.28944" lon="6.02486">
        <ele>339</ele>
        <time>2018-08-26T10:12:05Z</time>
      </trkpt>
      <trkpt lat="47.28942" lon="6.02487">
        <ele>338.52</ele>
        <time>2018-08-26T10:12:06Z</time>
      </trkpt>
      <trkpt lat="47.2894" lon="6.02488">
        <ele>338.52</ele>
        <time>2018-08-26T10:12:07Z</time>
      </trkpt>
      <trkpt lat="47.28938" lon="6.02487">
        <ele>338.52</ele>
        <time>2018-08-26T10:12:08Z</time>
      </trkpt>
      <trkpt lat="47.28936" lon="6.02486">
        <ele>338.52</ele>
        <time>2018-08-26T10:12:09Z</time>
      </trkpt>
      <trkpt lat="47.28933" lon="6.02484">
        <ele>338.52</ele>
        <time>2018-08-26T10:12:10Z</time>
      </trkpt>
      <trkpt lat="47.28909" lon="6.02482">
        <ele>339.96</ele>
        <time>2018-08-26T10:12:18Z</time>
      </trkpt>
      <trkpt lat="47.28907" lon="6.02483">
        <ele>339.96</ele>
        <time>2018-08-26T10:12:19Z</time>
      </trkpt>
      <trkpt lat="47.28904" lon="6.02483">
        <ele>339.96</ele>
        <time>2018-08-26T10:12:20Z</time>
      </trkpt>
      <trkpt lat="47.28876" lon="6.02499">
        <ele>341.89</ele>
        <time>2018-08-26T10:12:30Z</time>
      </trkpt>
      <trkpt lat="47.28874" lon="6.025">
        <ele>342.37</ele>
        <time>2018-08-26T10:12:31Z</time>
      </trkpt>
      <trkpt lat="47.28871" lon="6.02501">
        <ele>342.37</ele>
        <time>2018-08-26T10:12:32Z</time>
      </trkpt>
      <trkpt lat="47.28844" lon="6.025">
        <ele>343.33</ele>
        <time>2018-08-26T10:12:42Z</time>
      </trkpt>
      <trkpt lat="47.28821" lon="6.0249">
        <ele>341.89</ele>
        <time>2018-08-26T10:12:48Z</time>
      </trkpt>
      <trkpt lat="47.28817" lon="6.02487">
        <ele>341.89</ele>
        <time>2018-08-26T10:12:49Z</time>
      </trkpt>
      <trkpt lat="47.28813" lon="6.02483">
        <ele>341.89</ele>
        <time>2018-08-26T10:12:50Z</time>
      </trkpt>
      <trkpt lat="47.28786" lon="6.02458">
        <ele>342.37</ele>
        <time>2018-08-26T10:12:59Z</time>
      </trkpt>
      <trkpt lat="47.28749" lon="6.02466">
        <ele>342.37</ele>
        <time>2018-08-26T10:13:10Z</time>
      </trkpt>
      <trkpt lat="47.28716" lon="6.02472">
        <ele>343.33</ele>
        <time>2018-08-26T10:13:20Z</time>
      </trkpt>
      <trkpt lat="47.28699" lon="6.02479">
        <ele>343.81</ele>
        <time>2018-08-26T10:13:26Z</time>
      </trkpt>
      <trkpt lat="47.28697" lon="6.02481">
        <ele>344.29</ele>
        <time>2018-08-26T10:13:27Z</time>
      </trkpt>
      <trkpt lat="47.28695" lon="6.02481">
        <ele>344.29</ele>
        <time>2018-08-26T10:13:28Z</time>
      </trkpt>
      <trkpt lat="47.28667" lon="6.02496">
        <ele>345.25</ele>
        <time>2018-08-26T10:13:38Z</time>
      </trkpt>
      <trkpt lat="47.28663" lon="6.02498">
        <ele>345.25</ele>
        <time>2018-08-26T10:13:39Z</time>
      </trkpt>
      <trkpt lat="47.28647" lon="6.02504">
        <ele>346.21</ele>
        <time>2018-08-26T10:13:45Z</time>
      </trkpt>
      <trkpt lat="47.28645" lon="6.02503">
        <ele>346.21</ele>
        <time>2018-08-26T10:13:46Z</time>
      </trkpt>
      <trkpt lat="47.28642" lon="6.02503">
        <ele>346.21</ele>
        <time>2018-08-26T10:13:47Z</time>
      </trkpt>
      <trkpt lat="47.2864" lon="6.02504">
        <ele>346.69</ele>
        <time>2018-08-26T10:13:48Z</time>
      </trkpt>
      <trkpt lat="47.28638" lon="6.02505">
        <ele>346.69</ele>
        <time>2018-08-26T10:13:49Z</time>
      </trkpt>
      <trkpt lat="47.28636" lon="6.02504">
        <ele>347.17</ele>
        <time>2018-08-26T10:13:50Z</time>
      </trkpt>
      <trkpt lat="47.28633" lon="6.02505">
        <ele>347.17</ele>
        <time>2018-08-26T10:13:51Z</time>
      </trkpt>
      <trkpt lat="47.2862" lon="6.02513">
        <ele>348.13</ele>
        <time>2018-08-26T10:13:58Z</time>
      </trkpt>
      <trkpt lat="47.28618" lon="6.02515">
        <ele>348.13</ele>
        <time>2018-08-26T10:13:59Z</time>
      </trkpt>
      <trkpt lat="47.28617" lon="6.02517">
        <ele>348.62</ele>
        <time>2018-08-26T10:14:00Z</time>
      </trkpt>
      <trkpt lat="47.28616" lon="6.02519">
        <ele>348.62</ele>
        <time>2018-08-26T10:14:01Z</time>
      </trkpt>
      <trkpt lat="47.28614" lon="6.02521">
        <ele>349.1</ele>
        <time>2018-08-26T10:14:02Z</time>
      </trkpt>
      <trkpt lat="47.28609" lon="6.02523">
        <ele>349.58</ele>
        <time>2018-08-26T10:14:05Z</time>
      </trkpt>
      <trkpt lat="47.28607" lon="6.02524">
        <ele>350.06</ele>
        <time>2018-08-26T10:14:06Z</time>
      </trkpt>
      <trkpt lat="47.28606" lon="6.02525">
        <ele>350.06</ele>
        <time>2018-08-26T10:14:07Z</time>
      </trkpt>
      <trkpt lat="47.28603" lon="6.02525">
        <ele>350.06</ele>
        <time>2018-08-26T10:14:08Z</time>
      </trkpt>
      <trkpt lat="47.28601" lon="6.02526">
        <ele>350.54</ele>
        <time>2018-08-26T10:14:09Z</time>
      </trkpt>
      <trkpt lat="47.286" lon="6.02526">
        <ele>350.54</ele>
        <time>2018-08-26T10:14:10Z</time>
      </trkpt>
      <trkpt lat="47.28591" lon="6.02525">
        <ele>351.02</ele>
        <time>2018-08-26T10:14:14Z</time>
      </trkpt>
      <trkpt lat="47.28589" lon="6.02526">
        <ele>351.5</ele>
        <time>2018-08-26T10:14:15Z</time>
      </trkpt>
      <trkpt lat="47.28587" lon="6.02526">
        <ele>351.5</ele>
        <time>2018-08-26T10:14:16Z</time>
      </trkpt>
      <trkpt lat="47.28585" lon="6.02525">
        <ele>351.5</ele>
        <time>2018-08-26T10:14:17Z</time>
      </trkpt>
      <trkpt lat="47.28583" lon="6.02525">
        <ele>351.98</ele>
        <time>2018-08-26T10:14:18Z</time>
      </trkpt>
      <trkpt lat="47.28581" lon="6.02525">
        <ele>351.98</ele>
        <time>2018-08-26T10:14:19Z</time>
      </trkpt>
      <trkpt lat="47.28578" lon="6.02524">
        <ele>352.46</ele>
        <time>2018-08-26T10:14:21Z</time>
      </trkpt>
      <trkpt lat="47.28576" lon="6.02524">
        <ele>352.46</ele>
        <time>2018-08-26T10:14:22Z</time>
      </trkpt>
      <trkpt lat="47.28554" lon="6.02524">
        <ele>354.38</ele>
        <time>2018-08-26T10:14:33Z</time>
      </trkpt>
      <trkpt lat="47.28547" lon="6.02521">
        <ele>355.34</ele>
        <time>2018-08-26T10:14:37Z</time>
      </trkpt>
      <trkpt lat="47.28545" lon="6.0252">
        <ele>355.34</ele>
        <time>2018-08-26T10:14:38Z</time>
      </trkpt>
      <trkpt lat="47.28542" lon="6.02519">
        <ele>355.83</ele>
        <time>2018-08-26T10:14:39Z</time>
      </trkpt>
      <trkpt lat="47.28541" lon="6.02519">
        <ele>355.83</ele>
        <time>2018-08-26T10:14:40Z</time>
      </trkpt>
      <trkpt lat="47.28539" lon="6.02518">
        <ele>355.83</ele>
        <time>2018-08-26T10:14:41Z</time>
      </trkpt>
      <trkpt lat="47.28537" lon="6.02518">
        <ele>355.83</ele>
        <time>2018-08-26T10:14:42Z</time>
      </trkpt>
      <trkpt lat="47.28534" lon="6.02518">
        <ele>356.31</ele>
        <time>2018-08-26T10:14:43Z</time>
      </trkpt>
      <trkpt lat="47.28511" lon="6.02517">
        <ele>358.23</ele>
        <time>2018-08-26T10:14:55Z</time>
      </trkpt>
      <trkpt lat="47.28501" lon="6.02518">
        <ele>359.19</ele>
        <time>2018-08-26T10:15:01Z</time>
      </trkpt>
      <trkpt lat="47.28499" lon="6.02519">
        <ele>359.67</ele>
        <time>2018-08-26T10:15:02Z</time>
      </trkpt>
      <trkpt lat="47.28497" lon="6.0252">
        <ele>359.67</ele>
        <time>2018-08-26T10:15:03Z</time>
      </trkpt>
      <trkpt lat="47.28496" lon="6.0252">
        <ele>360.15</ele>
        <time>2018-08-26T10:15:04Z</time>
      </trkpt>
      <trkpt lat="47.28494" lon="6.02519">
        <ele>360.15</ele>
        <time>2018-08-26T10:15:05Z</time>
      </trkpt>
      <trkpt lat="47.28492" lon="6.02518">
        <ele>360.63</ele>
        <time>2018-08-26T10:15:06Z</time>
      </trkpt>
      <trkpt lat="47.2849" lon="6.02517">
        <ele>360.63</ele>
        <time>2018-08-26T10:15:07Z</time>
      </trkpt>
      <trkpt lat="47.28473" lon="6.02516">
        <ele>362.55</ele>
        <time>2018-08-26T10:15:15Z</time>
      </trkpt>
      <trkpt lat="47.28471" lon="6.02516">
        <ele>362.55</ele>
        <time>2018-08-26T10:15:16Z</time>
      </trkpt>
      <trkpt lat="47.28468" lon="6.02515">
        <ele>363.04</ele>
        <time>2018-08-26T10:15:17Z</time>
      </trkpt>
      <trkpt lat="47.28454" lon="6.02514">
        <ele>364.96</ele>
        <time>2018-08-26T10:15:25Z</time>
      </trkpt>
      <trkpt lat="47.28451" lon="6.02514">
        <ele>364.96</ele>
        <time>2018-08-26T10:15:26Z</time>
      </trkpt>
      <trkpt lat="47.28421" lon="6.0251">
        <ele>366.88</ele>
        <time>2018-08-26T10:15:39Z</time>
      </trkpt>
      <trkpt lat="47.28402" lon="6.0252">
        <ele>368.8</ele>
        <time>2018-08-26T10:15:49Z</time>
      </trkpt>
      <trkpt lat="47.28401" lon="6.02522">
        <ele>368.8</ele>
        <time>2018-08-26T10:15:50Z</time>
      </trkpt>
      <trkpt lat="47.284" lon="6.02522">
        <ele>369.28</ele>
        <time>2018-08-26T10:15:51Z</time>
      </trkpt>
      <trkpt lat="47.28398" lon="6.02523">
        <ele>369.28</ele>
        <time>2018-08-26T10:15:52Z</time>
      </trkpt>
      <trkpt lat="47.28396" lon="6.02526">
        <ele>369.76</ele>
        <time>2018-08-26T10:15:54Z</time>
      </trkpt>
      <trkpt lat="47.28394" lon="6.02528">
        <ele>369.76</ele>
        <time>2018-08-26T10:15:55Z</time>
      </trkpt>
      <trkpt lat="47.28391" lon="6.02531">
        <ele>370.24</ele>
        <time>2018-08-26T10:15:57Z</time>
      </trkpt>
      <trkpt lat="47.28387" lon="6.02533">
        <ele>370.73</ele>
        <time>2018-08-26T10:15:59Z</time>
      </trkpt>
      <trkpt lat="47.28385" lon="6.02533">
        <ele>370.73</ele>
        <time>2018-08-26T10:16:00Z</time>
      </trkpt>
      <trkpt lat="47.28383" lon="6.02534">
        <ele>370.73</ele>
        <time>2018-08-26T10:16:01Z</time>
      </trkpt>
      <trkpt lat="47.28377" lon="6.02539">
        <ele>371.69</ele>
        <time>2018-08-26T10:16:04Z</time>
      </trkpt>
      <trkpt lat="47.28376" lon="6.0254">
        <ele>371.69</ele>
        <time>2018-08-26T10:16:05Z</time>
      </trkpt>
      <trkpt lat="47.28373" lon="6.0254">
        <ele>372.17</ele>
        <time>2018-08-26T10:16:06Z</time>
      </trkpt>
      <trkpt lat="47.28347" lon="6.02551">
        <ele>374.09</ele>
        <time>2018-08-26T10:16:20Z</time>
      </trkpt>
      <trkpt lat="47.28329" lon="6.0256">
        <ele>375.53</ele>
        <time>2018-08-26T10:16:29Z</time>
      </trkpt>
      <trkpt lat="47.28303" lon="6.02552">
        <ele>375.53</ele>
        <time>2018-08-26T10:16:38Z</time>
      </trkpt>
      <trkpt lat="47.28301" lon="6.02551">
        <ele>375.53</ele>
        <time>2018-08-26T10:16:39Z</time>
      </trkpt>
      <trkpt lat="47.28299" lon="6.0255">
        <ele>375.53</ele>
        <time>2018-08-26T10:16:40Z</time>
      </trkpt>
      <trkpt lat="47.28296" lon="6.0255">
        <ele>376.01</ele>
        <time>2018-08-26T10:16:41Z</time>
      </trkpt>
      <trkpt lat="47.28294" lon="6.02549">
        <ele>376.01</ele>
        <time>2018-08-26T10:16:42Z</time>
      </trkpt>
      <trkpt lat="47.28292" lon="6.02548">
        <ele>375.53</ele>
        <time>2018-08-26T10:16:43Z</time>
      </trkpt>
      <trkpt lat="47.2829" lon="6.02547">
        <ele>375.53</ele>
        <time>2018-08-26T10:16:44Z</time>
      </trkpt>
      <trkpt lat="47.28282" lon="6.02545">
        <ele>376.01</ele>
        <time>2018-08-26T10:16:57Z</time>
      </trkpt>
      <trkpt lat="47.28279" lon="6.02545">
        <ele>376.01</ele>
        <time>2018-08-26T10:17:28Z</time>
      </trkpt>
      <trkpt lat="47.28278" lon="6.02545">
        <ele>376.49</ele>
        <time>2018-08-26T10:17:29Z</time>
      </trkpt>
      <trkpt lat="47.28276" lon="6.02545">
        <ele>376.01</ele>
        <time>2018-08-26T10:17:30Z</time>
      </trkpt>
      <trkpt lat="47.28273" lon="6.02545">
        <ele>376.01</ele>
        <time>2018-08-26T10:17:31Z</time>
      </trkpt>
      <trkpt lat="47.28271" lon="6.02543">
        <ele>376.01</ele>
        <time>2018-08-26T10:17:32Z</time>
      </trkpt>
      <trkpt lat="47.28268" lon="6.02542">
        <ele>376.01</ele>
        <time>2018-08-26T10:17:33Z</time>
      </trkpt>
      <trkpt lat="47.28263" lon="6.0254">
        <ele>375.53</ele>
        <time>2018-08-26T10:17:35Z</time>
      </trkpt>
      <trkpt lat="47.2826" lon="6.0254">
        <ele>375.53</ele>
        <time>2018-08-26T10:17:36Z</time>
      </trkpt>
      <trkpt lat="47.28256" lon="6.02539">
        <ele>375.05</ele>
        <time>2018-08-26T10:17:37Z</time>
      </trkpt>
      <trkpt lat="47.28242" lon="6.02539">
        <ele>374.09</ele>
        <time>2018-08-26T10:17:41Z</time>
      </trkpt>
      <trkpt lat="47.28239" lon="6.02538">
        <ele>374.09</ele>
        <time>2018-08-26T10:17:42Z</time>
      </trkpt>
      <trkpt lat="47.28236" lon="6.02537">
        <ele>373.61</ele>
        <time>2018-08-26T10:17:43Z</time>
      </trkpt>
      <trkpt lat="47.28231" lon="6.02536">
        <ele>373.13</ele>
        <time>2018-08-26T10:17:44Z</time>
      </trkpt>
      <trkpt lat="47.28226" lon="6.02538">
        <ele>372.65</ele>
        <time>2018-08-26T10:17:45Z</time>
      </trkpt>
      <trkpt lat="47.2822" lon="6.02539">
        <ele>371.69</ele>
        <time>2018-08-26T10:17:46Z</time>
      </trkpt>
      <trkpt lat="47.28203" lon="6.02544">
        <ele>369.28</ele>
        <time>2018-08-26T10:17:49Z</time>
      </trkpt>
      <trkpt lat="47.28179" lon="6.02551">
        <ele>366.4</ele>
        <time>2018-08-26T10:17:53Z</time>
      </trkpt>
      <trkpt lat="47.28175" lon="6.02556">
        <ele>365.92</ele>
        <time>2018-08-26T10:17:54Z</time>
      </trkpt>
      <trkpt lat="47.28172" lon="6.02561">
        <ele>365.44</ele>
        <time>2018-08-26T10:17:55Z</time>
      </trkpt>
      <trkpt lat="47.2817" lon="6.02564">
        <ele>365.44</ele>
        <time>2018-08-26T10:17:56Z</time>
      </trkpt>
      <trkpt lat="47.28168" lon="6.02566">
        <ele>365.92</ele>
        <time>2018-08-26T10:17:57Z</time>
      </trkpt>
      <trkpt lat="47.28167" lon="6.02569">
        <ele>365.92</ele>
        <time>2018-08-26T10:17:58Z</time>
      </trkpt>
      <trkpt lat="47.28164" lon="6.02572">
        <ele>365.92</ele>
        <time>2018-08-26T10:17:59Z</time>
      </trkpt>
      <trkpt lat="47.28162" lon="6.02576">
        <ele>365.92</ele>
        <time>2018-08-26T10:18:00Z</time>
      </trkpt>
      <trkpt lat="47.2816" lon="6.02581">
        <ele>365.92</ele>
        <time>2018-08-26T10:18:01Z</time>
      </trkpt>
      <trkpt lat="47.28157" lon="6.02586">
        <ele>365.92</ele>
        <time>2018-08-26T10:18:02Z</time>
      </trkpt>
      <trkpt lat="47.28155" lon="6.02591">
        <ele>365.92</ele>
        <time>2018-08-26T10:18:03Z</time>
      </trkpt>
      <trkpt lat="47.28153" lon="6.02596">
        <ele>365.92</ele>
        <time>2018-08-26T10:18:04Z</time>
      </trkpt>
      <trkpt lat="47.28151" lon="6.02601">
        <ele>365.92</ele>
        <time>2018-08-26T10:18:05Z</time>
      </trkpt>
      <trkpt lat="47.28149" lon="6.02606">
        <ele>365.92</ele>
        <time>2018-08-26T10:18:06Z</time>
      </trkpt>
      <trkpt lat="47.28142" lon="6.02622">
        <ele>365.92</ele>
        <time>2018-08-26T10:18:09Z</time>
      </trkpt>
      <trkpt lat="47.28101" lon="6.02684">
        <ele>363.52</ele>
        <time>2018-08-26T10:18:20Z</time>
      </trkpt>
      <trkpt lat="47.28097" lon="6.02693">
        <ele>363.04</ele>
        <time>2018-08-26T10:18:21Z</time>
      </trkpt>
      <trkpt lat="47.28094" lon="6.02702">
        <ele>362.55</ele>
        <time>2018-08-26T10:18:22Z</time>
      </trkpt>
      <trkpt lat="47.28092" lon="6.02712">
        <ele>362.07</ele>
        <time>2018-08-26T10:18:23Z</time>
      </trkpt>
      <trkpt lat="47.28091" lon="6.02722">
        <ele>361.59</ele>
        <time>2018-08-26T10:18:24Z</time>
      </trkpt>
      <trkpt lat="47.28089" lon="6.02734">
        <ele>361.11</ele>
        <time>2018-08-26T10:18:25Z</time>
      </trkpt>
      <trkpt lat="47.28087" lon="6.02744">
        <ele>360.63</ele>
        <time>2018-08-26T10:18:26Z</time>
      </trkpt>
      <trkpt lat="47.28084" lon="6.02755">
        <ele>360.15</ele>
        <time>2018-08-26T10:18:27Z</time>
      </trkpt>
      <trkpt lat="47.2808" lon="6.02764">
        <ele>360.15</ele>
        <time>2018-08-26T10:18:28Z</time>
      </trkpt>
      <trkpt lat="47.28076" lon="6.02773">
        <ele>359.67</ele>
        <time>2018-08-26T10:18:29Z</time>
      </trkpt>
      <trkpt lat="47.2807" lon="6.02782">
        <ele>359.19</ele>
        <time>2018-08-26T10:18:30Z</time>
      </trkpt>
      <trkpt lat="47.28047" lon="6.02821">
        <ele>358.71</ele>
        <time>2018-08-26T10:18:35Z</time>
      </trkpt>
      <trkpt lat="47.28033" lon="6.02838">
        <ele>359.19</ele>
        <time>2018-08-26T10:18:38Z</time>
      </trkpt>
      <trkpt lat="47.28021" lon="6.02864">
        <ele>359.67</ele>
        <time>2018-08-26T10:18:42Z</time>
      </trkpt>
      <trkpt lat="47.28014" lon="6.02898">
        <ele>361.11</ele>
        <time>2018-08-26T10:18:47Z</time>
      </trkpt>
      <trkpt lat="47.28" lon="6.02946">
        <ele>361.11</ele>
        <time>2018-08-26T10:18:54Z</time>
      </trkpt>
      <trkpt lat="47.27995" lon="6.0297">
        <ele>360.15</ele>
        <time>2018-08-26T10:18:57Z</time>
      </trkpt>
      <trkpt lat="47.27984" lon="6.03029">
        <ele>358.71</ele>
        <time>2018-08-26T10:19:04Z</time>
      </trkpt>
      <trkpt lat="47.27983" lon="6.03038">
        <ele>358.71</ele>
        <time>2018-08-26T10:19:05Z</time>
      </trkpt>
      <trkpt lat="47.27984" lon="6.03046">
        <ele>358.71</ele>
        <time>2018-08-26T10:19:06Z</time>
      </trkpt>
      <trkpt lat="47.27985" lon="6.03054">
        <ele>358.71</ele>
        <time>2018-08-26T10:19:07Z</time>
      </trkpt>
      <trkpt lat="47.27986" lon="6.03061">
        <ele>358.71</ele>
        <time>2018-08-26T10:19:08Z</time>
      </trkpt>
      <trkpt lat="47.27987" lon="6.03068">
        <ele>358.23</ele>
        <time>2018-08-26T10:19:09Z</time>
      </trkpt>
      <trkpt lat="47.27985" lon="6.03072">
        <ele>358.71</ele>
        <time>2018-08-26T10:19:10Z</time>
      </trkpt>
      <trkpt lat="47.27983" lon="6.03075">
        <ele>358.71</ele>
        <time>2018-08-26T10:19:11Z</time>
      </trkpt>
      <trkpt lat="47.27981" lon="6.03075">
        <ele>358.71</ele>
        <time>2018-08-26T10:19:12Z</time>
      </trkpt>
      <trkpt lat="47.27979" lon="6.03074">
        <ele>358.71</ele>
        <time>2018-08-26T10:19:13Z</time>
      </trkpt>
      <trkpt lat="47.27978" lon="6.03073">
        <ele>358.71</ele>
        <time>2018-08-26T10:19:14Z</time>
      </trkpt>
      <trkpt lat="47.27976" lon="6.0307">
        <ele>359.19</ele>
        <time>2018-08-26T10:19:15Z</time>
      </trkpt>
      <trkpt lat="47.27938" lon="6.03034">
        <ele>358.71</ele>
        <time>2018-08-26T10:19:26Z</time>
      </trkpt>
      <trkpt lat="47.27934" lon="6.0303">
        <ele>358.71</ele>
        <time>2018-08-26T10:19:27Z</time>
      </trkpt>
      <trkpt lat="47.27925" lon="6.03023">
        <ele>359.19</ele>
        <time>2018-08-26T10:19:29Z</time>
      </trkpt>
      <trkpt lat="47.27921" lon="6.03019">
        <ele>358.71</ele>
        <time>2018-08-26T10:19:30Z</time>
      </trkpt>
      <trkpt lat="47.27912" lon="6.03011">
        <ele>358.23</ele>
        <time>2018-08-26T10:19:32Z</time>
      </trkpt>
      <trkpt lat="47.27907" lon="6.03005">
        <ele>357.75</ele>
        <time>2018-08-26T10:19:33Z</time>
      </trkpt>
      <trkpt lat="47.27904" lon="6.02998">
        <ele>357.75</ele>
        <time>2018-08-26T10:19:34Z</time>
      </trkpt>
      <trkpt lat="47.27886" lon="6.0295">
        <ele>357.75</ele>
        <time>2018-08-26T10:19:41Z</time>
      </trkpt>
      <trkpt lat="47.27884" lon="6.02944">
        <ele>357.27</ele>
        <time>2018-08-26T10:19:42Z</time>
      </trkpt>
      <trkpt lat="47.27874" lon="6.02926">
        <ele>356.31</ele>
        <time>2018-08-26T10:19:45Z</time>
      </trkpt>
      <trkpt lat="47.27847" lon="6.02868">
        <ele>353.42</ele>
        <time>2018-08-26T10:19:52Z</time>
      </trkpt>
      <trkpt lat="47.27842" lon="6.02848">
        <ele>352.46</ele>
        <time>2018-08-26T10:19:54Z</time>
      </trkpt>
      <trkpt lat="47.27836" lon="6.02831">
        <ele>352.46</ele>
        <time>2018-08-26T10:19:56Z</time>
      </trkpt>
      <trkpt lat="47.27833" lon="6.02828">
        <ele>351.98</ele>
        <time>2018-08-26T10:19:57Z</time>
      </trkpt>
      <trkpt lat="47.2783" lon="6.02827">
        <ele>351.98</ele>
        <time>2018-08-26T10:19:58Z</time>
      </trkpt>
      <trkpt lat="47.27828" lon="6.02828">
        <ele>351.98</ele>
        <time>2018-08-26T10:19:59Z</time>
      </trkpt>
      <trkpt lat="47.27827" lon="6.0283">
        <ele>351.98</ele>
        <time>2018-08-26T10:20:00Z</time>
      </trkpt>
      <trkpt lat="47.27825" lon="6.02832">
        <ele>351.98</ele>
        <time>2018-08-26T10:20:01Z</time>
      </trkpt>
      <trkpt lat="47.27807" lon="6.02859">
        <ele>350.54</ele>
        <time>2018-08-26T10:20:08Z</time>
      </trkpt>
      <trkpt lat="47.27805" lon="6.02863">
        <ele>351.02</ele>
        <time>2018-08-26T10:20:09Z</time>
      </trkpt>
      <trkpt lat="47.27804" lon="6.02868">
        <ele>351.5</ele>
        <time>2018-08-26T10:20:10Z</time>
      </trkpt>
      <trkpt lat="47.27804" lon="6.02871">
        <ele>351.98</ele>
        <time>2018-08-26T10:20:11Z</time>
      </trkpt>
      <trkpt lat="47.27803" lon="6.02874">
        <ele>352.46</ele>
        <time>2018-08-26T10:20:12Z</time>
      </trkpt>
      <trkpt lat="47.27802" lon="6.02877">
        <ele>352.94</ele>
        <time>2018-08-26T10:20:13Z</time>
      </trkpt>
      <trkpt lat="47.27799" lon="6.02879">
        <ele>353.42</ele>
        <time>2018-08-26T10:20:14Z</time>
      </trkpt>
      <trkpt lat="47.27797" lon="6.02882">
        <ele>353.9</ele>
        <time>2018-08-26T10:20:15Z</time>
      </trkpt>
      <trkpt lat="47.27795" lon="6.02884">
        <ele>354.86</ele>
        <time>2018-08-26T10:20:16Z</time>
      </trkpt>
      <trkpt lat="47.27793" lon="6.02887">
        <ele>354.86</ele>
        <time>2018-08-26T10:20:17Z</time>
      </trkpt>
      <trkpt lat="47.27779" lon="6.02916">
        <ele>358.23</ele>
        <time>2018-08-26T10:20:25Z</time>
      </trkpt>
      <trkpt lat="47.27768" lon="6.02957">
        <ele>361.11</ele>
        <time>2018-08-26T10:20:34Z</time>
      </trkpt>
      <trkpt lat="47.27768" lon="6.02961">
        <ele>361.11</ele>
        <time>2018-08-26T10:20:35Z</time>
      </trkpt>
      <trkpt lat="47.27767" lon="6.02965">
        <ele>361.59</ele>
        <time>2018-08-26T10:20:36Z</time>
      </trkpt>
      <trkpt lat="47.27766" lon="6.02969">
        <ele>361.59</ele>
        <time>2018-08-26T10:20:37Z</time>
      </trkpt>
      <trkpt lat="47.27764" lon="6.02972">
        <ele>361.59</ele>
        <time>2018-08-26T10:20:38Z</time>
      </trkpt>
      <trkpt lat="47.27742" lon="6.0301">
        <ele>363.52</ele>
        <time>2018-08-26T10:20:49Z</time>
      </trkpt>
      <trkpt lat="47.27734" lon="6.03025">
        <ele>364</ele>
        <time>2018-08-26T10:20:54Z</time>
      </trkpt>
      <trkpt lat="47.27713" lon="6.03066">
        <ele>366.4</ele>
        <time>2018-08-26T10:21:07Z</time>
      </trkpt>
      <trkpt lat="47.27698" lon="6.03104">
        <ele>368.32</ele>
        <time>2018-08-26T10:21:19Z</time>
      </trkpt>
      <trkpt lat="47.27686" lon="6.03133">
        <ele>369.28</ele>
        <time>2018-08-26T10:21:27Z</time>
      </trkpt>
      <trkpt lat="47.27658" lon="6.03168">
        <ele>370.24</ele>
        <time>2018-08-26T10:21:40Z</time>
      </trkpt>
      <trkpt lat="47.27642" lon="6.03203">
        <ele>371.69</ele>
        <time>2018-08-26T10:21:50Z</time>
      </trkpt>
      <trkpt lat="47.27622" lon="6.03245">
        <ele>373.61</ele>
        <time>2018-08-26T10:22:02Z</time>
      </trkpt>
      <trkpt lat="47.27602" lon="6.03288">
        <ele>373.61</ele>
        <time>2018-08-26T10:22:14Z</time>
      </trkpt>
      <trkpt lat="47.27596" lon="6.03303">
        <ele>375.53</ele>
        <time>2018-08-26T10:22:20Z</time>
      </trkpt>
      <trkpt lat="47.27586" lon="6.03324">
        <ele>378.42</ele>
        <time>2018-08-26T10:22:29Z</time>
      </trkpt>
      <trkpt lat="47.27579" lon="6.03333">
        <ele>380.34</ele>
        <time>2018-08-26T10:22:34Z</time>
      </trkpt>
      <trkpt lat="47.27566" lon="6.03354">
        <ele>383.7</ele>
        <time>2018-08-26T10:22:44Z</time>
      </trkpt>
      <trkpt lat="47.27563" lon="6.03362">
        <ele>384.18</ele>
        <time>2018-08-26T10:22:48Z</time>
      </trkpt>
      <trkpt lat="47.27558" lon="6.03389">
        <ele>386.11</ele>
        <time>2018-08-26T10:22:59Z</time>
      </trkpt>
      <trkpt lat="47.27555" lon="6.03395">
        <ele>386.59</ele>
        <time>2018-08-26T10:23:01Z</time>
      </trkpt>
      <trkpt lat="47.27552" lon="6.03402">
        <ele>386.59</ele>
        <time>2018-08-26T10:23:04Z</time>
      </trkpt>
      <trkpt lat="47.27547" lon="6.03427">
        <ele>388.03</ele>
        <time>2018-08-26T10:23:13Z</time>
      </trkpt>
      <trkpt lat="47.27535" lon="6.03458">
        <ele>388.03</ele>
        <time>2018-08-26T10:23:22Z</time>
      </trkpt>
      <trkpt lat="47.2753" lon="6.0348">
        <ele>387.55</ele>
        <time>2018-08-26T10:23:26Z</time>
      </trkpt>
      <trkpt lat="47.27529" lon="6.03494">
        <ele>386.59</ele>
        <time>2018-08-26T10:23:28Z</time>
      </trkpt>
      <trkpt lat="47.2753" lon="6.03502">
        <ele>386.11</ele>
        <time>2018-08-26T10:23:29Z</time>
      </trkpt>
      <trkpt lat="47.27532" lon="6.0352">
        <ele>382.74</ele>
        <time>2018-08-26T10:23:32Z</time>
      </trkpt>
      <trkpt lat="47.27537" lon="6.03536">
        <ele>381.78</ele>
        <time>2018-08-26T10:23:35Z</time>
      </trkpt>
      <trkpt lat="47.27537" lon="6.03552">
        <ele>378.9</ele>
        <time>2018-08-26T10:23:37Z</time>
      </trkpt>
      <trkpt lat="47.27537" lon="6.0356">
        <ele>377.45</ele>
        <time>2018-08-26T10:23:38Z</time>
      </trkpt>
      <trkpt lat="47.27539" lon="6.03578">
        <ele>375.53</ele>
        <time>2018-08-26T10:23:40Z</time>
      </trkpt>
      <trkpt lat="47.27542" lon="6.03588">
        <ele>374.09</ele>
        <time>2018-08-26T10:23:41Z</time>
      </trkpt>
      <trkpt lat="47.27553" lon="6.03625">
        <ele>371.69</ele>
        <time>2018-08-26T10:23:44Z</time>
      </trkpt>
      <trkpt lat="47.27555" lon="6.03636">
        <ele>372.17</ele>
        <time>2018-08-26T10:23:45Z</time>
      </trkpt>
      <trkpt lat="47.27555" lon="6.03644">
        <ele>372.65</ele>
        <time>2018-08-26T10:23:46Z</time>
      </trkpt>
      <trkpt lat="47.27554" lon="6.03651">
        <ele>373.13</ele>
        <time>2018-08-26T10:23:47Z</time>
      </trkpt>
      <trkpt lat="47.27553" lon="6.03658">
        <ele>372.65</ele>
        <time>2018-08-26T10:23:48Z</time>
      </trkpt>
      <trkpt lat="47.27552" lon="6.03665">
        <ele>372.65</ele>
        <time>2018-08-26T10:23:49Z</time>
      </trkpt>
      <trkpt lat="47.27551" lon="6.03671">
        <ele>372.65</ele>
        <time>2018-08-26T10:23:50Z</time>
      </trkpt>
      <trkpt lat="47.2755" lon="6.03678">
        <ele>372.65</ele>
        <time>2018-08-26T10:23:51Z</time>
      </trkpt>
      <trkpt lat="47.27547" lon="6.03683">
        <ele>372.17</ele>
        <time>2018-08-26T10:23:52Z</time>
      </trkpt>
      <trkpt lat="47.27543" lon="6.03689">
        <ele>372.17</ele>
        <time>2018-08-26T10:23:53Z</time>
      </trkpt>
      <trkpt lat="47.27538" lon="6.03694">
        <ele>371.69</ele>
        <time>2018-08-26T10:23:54Z</time>
      </trkpt>
      <trkpt lat="47.27518" lon="6.03721">
        <ele>369.76</ele>
        <time>2018-08-26T10:23:59Z</time>
      </trkpt>
      <trkpt lat="47.27514" lon="6.03727">
        <ele>369.28</ele>
        <time>2018-08-26T10:24:00Z</time>
      </trkpt>
      <trkpt lat="47.27511" lon="6.03734">
        <ele>368.8</ele>
        <time>2018-08-26T10:24:01Z</time>
      </trkpt>
      <trkpt lat="47.27508" lon="6.03742">
        <ele>368.8</ele>
        <time>2018-08-26T10:24:02Z</time>
      </trkpt>
      <trkpt lat="47.27503" lon="6.03749">
        <ele>368.32</ele>
        <time>2018-08-26T10:24:03Z</time>
      </trkpt>
      <trkpt lat="47.27498" lon="6.03757">
        <ele>367.84</ele>
        <time>2018-08-26T10:24:04Z</time>
      </trkpt>
      <trkpt lat="47.27494" lon="6.03765">
        <ele>367.36</ele>
        <time>2018-08-26T10:24:05Z</time>
      </trkpt>
      <trkpt lat="47.27484" lon="6.03782">
        <ele>366.4</ele>
        <time>2018-08-26T10:24:07Z</time>
      </trkpt>
      <trkpt lat="47.2748" lon="6.03792">
        <ele>366.4</ele>
        <time>2018-08-26T10:24:08Z</time>
      </trkpt>
      <trkpt lat="47.27469" lon="6.0381">
        <ele>365.92</ele>
        <time>2018-08-26T10:24:10Z</time>
      </trkpt>
      <trkpt lat="47.27459" lon="6.03826">
        <ele>364.96</ele>
        <time>2018-08-26T10:24:12Z</time>
      </trkpt>
      <trkpt lat="47.27455" lon="6.03835">
        <ele>364.96</ele>
        <time>2018-08-26T10:24:13Z</time>
      </trkpt>
      <trkpt lat="47.2745" lon="6.03841">
        <ele>364.48</ele>
        <time>2018-08-26T10:24:14Z</time>
      </trkpt>
      <trkpt lat="47.27447" lon="6.03847">
        <ele>364</ele>
        <time>2018-08-26T10:24:15Z</time>
      </trkpt>
      <trkpt lat="47.27446" lon="6.03852">
        <ele>364</ele>
        <time>2018-08-26T10:24:16Z</time>
      </trkpt>
      <trkpt lat="47.27445" lon="6.03858">
        <ele>364</ele>
        <time>2018-08-26T10:24:17Z</time>
      </trkpt>
      <trkpt lat="47.27443" lon="6.03864">
        <ele>364</ele>
        <time>2018-08-26T10:24:18Z</time>
      </trkpt>
      <trkpt lat="47.27442" lon="6.0387">
        <ele>364</ele>
        <time>2018-08-26T10:24:19Z</time>
      </trkpt>
      <trkpt lat="47.27439" lon="6.03876">
        <ele>364</ele>
        <time>2018-08-26T10:24:20Z</time>
      </trkpt>
      <trkpt lat="47.27436" lon="6.03882">
        <ele>363.52</ele>
        <time>2018-08-26T10:24:21Z</time>
      </trkpt>
      <trkpt lat="47.27431" lon="6.03888">
        <ele>363.04</ele>
        <time>2018-08-26T10:24:22Z</time>
      </trkpt>
      <trkpt lat="47.27426" lon="6.03894">
        <ele>362.07</ele>
        <time>2018-08-26T10:24:23Z</time>
      </trkpt>
      <trkpt lat="47.2742" lon="6.03901">
        <ele>361.59</ele>
        <time>2018-08-26T10:24:24Z</time>
      </trkpt>
      <trkpt lat="47.27416" lon="6.03909">
        <ele>359.67</ele>
        <time>2018-08-26T10:24:25Z</time>
      </trkpt>
      <trkpt lat="47.27412" lon="6.03919">
        <ele>358.71</ele>
        <time>2018-08-26T10:24:26Z</time>
      </trkpt>
      <trkpt lat="47.27409" lon="6.03928">
        <ele>358.23</ele>
        <time>2018-08-26T10:24:27Z</time>
      </trkpt>
      <trkpt lat="47.27405" lon="6.03936">
        <ele>357.27</ele>
        <time>2018-08-26T10:24:28Z</time>
      </trkpt>
      <trkpt lat="47.27399" lon="6.03942">
        <ele>356.79</ele>
        <time>2018-08-26T10:24:29Z</time>
      </trkpt>
      <trkpt lat="47.27394" lon="6.03949">
        <ele>355.83</ele>
        <time>2018-08-26T10:24:30Z</time>
      </trkpt>
      <trkpt lat="47.2739" lon="6.03956">
        <ele>355.34</ele>
        <time>2018-08-26T10:24:31Z</time>
      </trkpt>
      <trkpt lat="47.27376" lon="6.03985">
        <ele>352.46</ele>
        <time>2018-08-26T10:24:34Z</time>
      </trkpt>
      <trkpt lat="47.27351" lon="6.04048">
        <ele>352.94</ele>
        <time>2018-08-26T10:24:40Z</time>
      </trkpt>
      <trkpt lat="47.27337" lon="6.04076">
        <ele>353.42</ele>
        <time>2018-08-26T10:24:43Z</time>
      </trkpt>
      <trkpt lat="47.27321" lon="6.04106">
        <ele>352.46</ele>
        <time>2018-08-26T10:24:46Z</time>
      </trkpt>
      <trkpt lat="47.27316" lon="6.04115">
        <ele>352.46</ele>
        <time>2018-08-26T10:24:47Z</time>
      </trkpt>
      <trkpt lat="47.27306" lon="6.04135">
        <ele>350.54</ele>
        <time>2018-08-26T10:24:49Z</time>
      </trkpt>
      <trkpt lat="47.27294" lon="6.04155">
        <ele>349.1</ele>
        <time>2018-08-26T10:24:51Z</time>
      </trkpt>
      <trkpt lat="47.2729" lon="6.04167">
        <ele>349.1</ele>
        <time>2018-08-26T10:24:52Z</time>
      </trkpt>
      <trkpt lat="47.27286" lon="6.04179">
        <ele>348.13</ele>
        <time>2018-08-26T10:24:53Z</time>
      </trkpt>
      <trkpt lat="47.27281" lon="6.04191">
        <ele>348.13</ele>
        <time>2018-08-26T10:24:54Z</time>
      </trkpt>
      <trkpt lat="47.27275" lon="6.04202">
        <ele>347.65</ele>
        <time>2018-08-26T10:24:55Z</time>
      </trkpt>
      <trkpt lat="47.27247" lon="6.04256">
        <ele>346.21</ele>
        <time>2018-08-26T10:25:01Z</time>
      </trkpt>
      <trkpt lat="47.27245" lon="6.04263">
        <ele>345.73</ele>
        <time>2018-08-26T10:25:02Z</time>
      </trkpt>
      <trkpt lat="47.27244" lon="6.0427">
        <ele>345.73</ele>
        <time>2018-08-26T10:25:03Z</time>
      </trkpt>
      <trkpt lat="47.27242" lon="6.04278">
        <ele>345.25</ele>
        <time>2018-08-26T10:25:04Z</time>
      </trkpt>
      <trkpt lat="47.2724" lon="6.04286">
        <ele>344.77</ele>
        <time>2018-08-26T10:25:05Z</time>
      </trkpt>
      <trkpt lat="47.27237" lon="6.04292">
        <ele>344.77</ele>
        <time>2018-08-26T10:25:06Z</time>
      </trkpt>
      <trkpt lat="47.27233" lon="6.04296">
        <ele>344.29</ele>
        <time>2018-08-26T10:25:07Z</time>
      </trkpt>
      <trkpt lat="47.27229" lon="6.04303">
        <ele>344.29</ele>
        <time>2018-08-26T10:25:08Z</time>
      </trkpt>
      <trkpt lat="47.27225" lon="6.04311">
        <ele>343.81</ele>
        <time>2018-08-26T10:25:09Z</time>
      </trkpt>
      <trkpt lat="47.27221" lon="6.0432">
        <ele>343.81</ele>
        <time>2018-08-26T10:25:10Z</time>
      </trkpt>
      <trkpt lat="47.27217" lon="6.04329">
        <ele>343.33</ele>
        <time>2018-08-26T10:25:11Z</time>
      </trkpt>
      <trkpt lat="47.27207" lon="6.04353">
        <ele>342.85</ele>
        <time>2018-08-26T10:25:14Z</time>
      </trkpt>
      <trkpt lat="47.27201" lon="6.04369">
        <ele>342.37</ele>
        <time>2018-08-26T10:25:16Z</time>
      </trkpt>
      <trkpt lat="47.27198" lon="6.04376">
        <ele>341.89</ele>
        <time>2018-08-26T10:25:17Z</time>
      </trkpt>
      <trkpt lat="47.27195" lon="6.04385">
        <ele>341.41</ele>
        <time>2018-08-26T10:25:18Z</time>
      </trkpt>
      <trkpt lat="47.27188" lon="6.04403">
        <ele>340.44</ele>
        <time>2018-08-26T10:25:20Z</time>
      </trkpt>
      <trkpt lat="47.27185" lon="6.04411">
        <ele>340.44</ele>
        <time>2018-08-26T10:25:21Z</time>
      </trkpt>
      <trkpt lat="47.27183" lon="6.04419">
        <ele>339.96</ele>
        <time>2018-08-26T10:25:22Z</time>
      </trkpt>
      <trkpt lat="47.2718" lon="6.04426">
        <ele>339.48</ele>
        <time>2018-08-26T10:25:23Z</time>
      </trkpt>
      <trkpt lat="47.27177" lon="6.04433">
        <ele>339.48</ele>
        <time>2018-08-26T10:25:24Z</time>
      </trkpt>
      <trkpt lat="47.27174" lon="6.0444">
        <ele>339</ele>
        <time>2018-08-26T10:25:25Z</time>
      </trkpt>
      <trkpt lat="47.27171" lon="6.04447">
        <ele>339</ele>
        <time>2018-08-26T10:25:26Z</time>
      </trkpt>
      <trkpt lat="47.27167" lon="6.04455">
        <ele>338.52</ele>
        <time>2018-08-26T10:25:27Z</time>
      </trkpt>
      <trkpt lat="47.27166" lon="6.04463">
        <ele>338.04</ele>
        <time>2018-08-26T10:25:28Z</time>
      </trkpt>
      <trkpt lat="47.27165" lon="6.04471">
        <ele>338.04</ele>
        <time>2018-08-26T10:25:29Z</time>
      </trkpt>
      <trkpt lat="47.27164" lon="6.04476">
        <ele>338.04</ele>
        <time>2018-08-26T10:25:30Z</time>
      </trkpt>
      <trkpt lat="47.27164" lon="6.04515">
        <ele>336.12</ele>
        <time>2018-08-26T10:25:38Z</time>
      </trkpt>
      <trkpt lat="47.27161" lon="6.04544">
        <ele>333.71</ele>
        <time>2018-08-26T10:25:44Z</time>
      </trkpt>
      <trkpt lat="47.27158" lon="6.0455">
        <ele>332.75</ele>
        <time>2018-08-26T10:25:45Z</time>
      </trkpt>
      <trkpt lat="47.27154" lon="6.04558">
        <ele>332.27</ele>
        <time>2018-08-26T10:25:46Z</time>
      </trkpt>
      <trkpt lat="47.2715" lon="6.04565">
        <ele>332.27</ele>
        <time>2018-08-26T10:25:47Z</time>
      </trkpt>
      <trkpt lat="47.27132" lon="6.04589">
        <ele>329.87</ele>
        <time>2018-08-26T10:25:50Z</time>
      </trkpt>
      <trkpt lat="47.27124" lon="6.04596">
        <ele>329.39</ele>
        <time>2018-08-26T10:25:51Z</time>
      </trkpt>
      <trkpt lat="47.27116" lon="6.04601">
        <ele>329.39</ele>
        <time>2018-08-26T10:25:52Z</time>
      </trkpt>
      <trkpt lat="47.27089" lon="6.04618">
        <ele>330.35</ele>
        <time>2018-08-26T10:25:56Z</time>
      </trkpt>
      <trkpt lat="47.27083" lon="6.04623">
        <ele>330.83</ele>
        <time>2018-08-26T10:25:57Z</time>
      </trkpt>
      <trkpt lat="47.27073" lon="6.04634">
        <ele>332.27</ele>
        <time>2018-08-26T10:25:59Z</time>
      </trkpt>
      <trkpt lat="47.27062" lon="6.04647">
        <ele>333.23</ele>
        <time>2018-08-26T10:26:01Z</time>
      </trkpt>
      <trkpt lat="47.27056" lon="6.04653">
        <ele>333.23</ele>
        <time>2018-08-26T10:26:02Z</time>
      </trkpt>
      <trkpt lat="47.27044" lon="6.04662">
        <ele>335.16</ele>
        <time>2018-08-26T10:26:04Z</time>
      </trkpt>
      <trkpt lat="47.27038" lon="6.04666">
        <ele>335.64</ele>
        <time>2018-08-26T10:26:05Z</time>
      </trkpt>
      <trkpt lat="47.27031" lon="6.04668">
        <ele>336.12</ele>
        <time>2018-08-26T10:26:06Z</time>
      </trkpt>
      <trkpt lat="47.27013" lon="6.04674">
        <ele>338.52</ele>
        <time>2018-08-26T10:26:10Z</time>
      </trkpt>
      <trkpt lat="47.26999" lon="6.04683">
        <ele>339.96</ele>
        <time>2018-08-26T10:26:15Z</time>
      </trkpt>
      <trkpt lat="47.26962" lon="6.04694">
        <ele>342.37</ele>
        <time>2018-08-26T10:26:27Z</time>
      </trkpt>
      <trkpt lat="47.26915" lon="6.04718">
        <ele>343.81</ele>
        <time>2018-08-26T10:26:41Z</time>
      </trkpt>
      <trkpt lat="47.26898" lon="6.0473">
        <ele>343.81</ele>
        <time>2018-08-26T10:26:46Z</time>
      </trkpt>
      <trkpt lat="47.26869" lon="6.04749">
        <ele>343.81</ele>
        <time>2018-08-26T10:26:54Z</time>
      </trkpt>
      <trkpt lat="47.26865" lon="6.04752">
        <ele>343.81</ele>
        <time>2018-08-26T10:26:55Z</time>
      </trkpt>
      <trkpt lat="47.26861" lon="6.04755">
        <ele>344.29</ele>
        <time>2018-08-26T10:26:56Z</time>
      </trkpt>
      <trkpt lat="47.26826" lon="6.04802">
        <ele>344.77</ele>
        <time>2018-08-26T10:27:08Z</time>
      </trkpt>
      <trkpt lat="47.26804" lon="6.0482">
        <ele>346.21</ele>
        <time>2018-08-26T10:27:15Z</time>
      </trkpt>
      <trkpt lat="47.26801" lon="6.04817">
        <ele>346.21</ele>
        <time>2018-08-26T10:27:16Z</time>
      </trkpt>
      <trkpt lat="47.26798" lon="6.04813">
        <ele>346.21</ele>
        <time>2018-08-26T10:27:17Z</time>
      </trkpt>
      <trkpt lat="47.26754" lon="6.04744">
        <ele>347.17</ele>
        <time>2018-08-26T10:27:31Z</time>
      </trkpt>
      <trkpt lat="47.26679" lon="6.04684">
        <ele>348.13</ele>
        <time>2018-08-26T10:27:49Z</time>
      </trkpt>
      <trkpt lat="47.26675" lon="6.04682">
        <ele>348.62</ele>
        <time>2018-08-26T10:27:50Z</time>
      </trkpt>
      <trkpt lat="47.2667" lon="6.0468">
        <ele>348.62</ele>
        <time>2018-08-26T10:27:51Z</time>
      </trkpt>
      <trkpt lat="47.26665" lon="6.04679">
        <ele>348.62</ele>
        <time>2018-08-26T10:27:52Z</time>
      </trkpt>
      <trkpt lat="47.26623" lon="6.04678">
        <ele>347.65</ele>
        <time>2018-08-26T10:28:00Z</time>
      </trkpt>
      <trkpt lat="47.26547" lon="6.04658">
        <ele>345.25</ele>
        <time>2018-08-26T10:28:14Z</time>
      </trkpt>
      <trkpt lat="47.26541" lon="6.04654">
        <ele>344.77</ele>
        <time>2018-08-26T10:28:15Z</time>
      </trkpt>
      <trkpt lat="47.26536" lon="6.04648">
        <ele>344.77</ele>
        <time>2018-08-26T10:28:16Z</time>
      </trkpt>
      <trkpt lat="47.26489" lon="6.04599">
        <ele>343.33</ele>
        <time>2018-08-26T10:28:25Z</time>
      </trkpt>
      <trkpt lat="47.26483" lon="6.04595">
        <ele>342.85</ele>
        <time>2018-08-26T10:28:26Z</time>
      </trkpt>
      <trkpt lat="47.26412" lon="6.04559">
        <ele>341.89</ele>
        <time>2018-08-26T10:28:38Z</time>
      </trkpt>
      <trkpt lat="47.2638" lon="6.04537">
        <ele>341.89</ele>
        <time>2018-08-26T10:28:47Z</time>
      </trkpt>
      <trkpt lat="47.2638" lon="6.04536">
        <ele>341.41</ele>
        <time>2018-08-26T10:29:08Z</time>
      </trkpt>
      <trkpt lat="47.26369" lon="6.04531">
        <ele>340.92</ele>
        <time>2018-08-26T10:29:26Z</time>
      </trkpt>
      <trkpt lat="47.26346" lon="6.04519">
        <ele>340.44</ele>
        <time>2018-08-26T10:29:32Z</time>
      </trkpt>
      <trkpt lat="47.26329" lon="6.04506">
        <ele>339.96</ele>
        <time>2018-08-26T10:29:36Z</time>
      </trkpt>
      <trkpt lat="47.26325" lon="6.04502">
        <ele>339.48</ele>
        <time>2018-08-26T10:29:37Z</time>
      </trkpt>
      <trkpt lat="47.26258" lon="6.04439">
        <ele>336.12</ele>
        <time>2018-08-26T10:29:49Z</time>
      </trkpt>
      <trkpt lat="47.26252" lon="6.04432">
        <ele>335.64</ele>
        <time>2018-08-26T10:29:50Z</time>
      </trkpt>
      <trkpt lat="47.26229" lon="6.04402">
        <ele>334.68</ele>
        <time>2018-08-26T10:29:54Z</time>
      </trkpt>
      <trkpt lat="47.26223" lon="6.04397">
        <ele>334.2</ele>
        <time>2018-08-26T10:29:55Z</time>
      </trkpt>
      <trkpt lat="47.26217" lon="6.04393">
        <ele>333.71</ele>
        <time>2018-08-26T10:29:56Z</time>
      </trkpt>
      <trkpt lat="47.26211" lon="6.04388">
        <ele>333.71</ele>
        <time>2018-08-26T10:29:57Z</time>
      </trkpt>
      <trkpt lat="47.26205" lon="6.04381">
        <ele>333.23</ele>
        <time>2018-08-26T10:29:58Z</time>
      </trkpt>
      <trkpt lat="47.262" lon="6.04374">
        <ele>333.23</ele>
        <time>2018-08-26T10:29:59Z</time>
      </trkpt>
      <trkpt lat="47.26195" lon="6.04366">
        <ele>332.75</ele>
        <time>2018-08-26T10:30:00Z</time>
      </trkpt>
      <trkpt lat="47.26118" lon="6.04249">
        <ele>331.31</ele>
        <time>2018-08-26T10:30:16Z</time>
      </trkpt>
      <trkpt lat="47.26101" lon="6.04236">
        <ele>331.79</ele>
        <time>2018-08-26T10:30:23Z</time>
      </trkpt>
      <trkpt lat="47.26101" lon="6.04234">
        <ele>330.83</ele>
        <time>2018-08-26T10:30:39Z</time>
      </trkpt>
    </trkseg>
  </trk>
</gpx>